# Wetter Temperatur Luftdruck Luftfeuchtigkeit Sichtweite Windgeschwindigkeit Windrichtung Zeit
1 Clouds 9 1003 1 10000 1.33 20 08:30 02.10.2022
2 Clouds 9 1003 1 10000 1.33 20 08:30 02.10.2022
3 Rain 9 1001 1 10000 1.38 34 05:21 02.10.2022
4 Rain 9 1001 1 10000 1.12 50 01:20 02.10.2022
5 Clouds 9 1001 1 10000 1.12 50 00:38 02.10.2022
6 Clouds 9 1000 1 10000 1.12 66 23:28 01.10.2022
7 Rain 10 1000 1 10000 1.19 64 21:48 01.10.2022
8 Clouds 11 999 1 10000 1.11 73 18:54 01.10.2022
9 Rain 11 999 1 10000 1.21 126 17:46 01.10.2022
10 Rain 11 999 89 10000 2.92 152 15:32 01.10.2022
11 Rain 11 999 1 10000 3.15 149 14:18 01.10.2022
12 Rain 11 999 1 10000 3.53 144 12:34 01.10.2022
13 Rain 11 999 1 10000 3.85 143 11:23 01.10.2022
14 Rain 11 999 1 10000 3.85 143 10:53 01.10.2022
15 Rain 11 999 1 10000 3.55 142 10:30 01.10.2022
16 Rain 10 999 1 10000 3.34 145 09:25 01.10.2022
17 Rain 10 999 1 10000 3.29 140 08:27 01.10.2022
18 Clouds 10 1001 1 10000 2 128 03:47 01.10.2022
19 Clouds 10 1001 1 10000 2.36 142 03:18 01.10.2022
20 Clouds 10 1003 1 10000 2.02 109 23:21 30.09.2022
21 Clouds 9 1004 1 10000 1.82 91 22:19 30.09.2022
22 Clouds 10 1004 1 10000 1.51 75 20:57 30.09.2022
23 Clouds 9 1004 1 10000 1.51 75 20:30 30.09.2022
24 Clouds 10 1005 19 10000 1.07 129 18:45 30.09.2022
25 Clouds 12 1006 27 10000 2.54 188 16:55 30.09.2022
26 Clouds 12 1007 1 10000 2.77 174 14:49 30.09.2022
27 Clouds 10 1008 1 10000 2.82 181 12:51 30.09.2022
28 Clouds 9 1009 64 10000 2.02 176 11:56 30.09.2022
29 Clouds 6 1010 1 10000 0.62 120 09:25 30.09.2022
30 Clouds 5 1010 1 10000 0.49 94 07:58 30.09.2022
31 Clouds 5 1010 1 10000 0.76 317 04:21 30.09.2022
32 Clouds 5 1010 1 10000 0.86 318 02:21 30.09.2022
33 Clouds 7 1010 1 10000 1.54 329 21:53 29.09.2022
34 Clouds 8 1009 1 10000 1.53 334 21:24 29.09.2022
35 Clouds 8 1009 1 10000 1.53 28 19:58 29.09.2022
36 Clouds 10 1009 1 10000 2.48 31 18:30 29.09.2022
37 Clouds 11 1008 25 10000 3.23 20 16:29 29.09.2022
38 Clouds 12 1008 30 10000 3.23 20 15:37 29.09.2022
39 Clouds 12 1009 32 10000 3.41 18 14:59 29.09.2022
40 Clouds 10 1009 1 10000 3.64 32 12:45 29.09.2022
41 Clouds 7 1009 1 10000 2.89 14 08:47 29.09.2022
42 Clouds 8 1009 1 10000 3.32 23 04:46 29.09.2022
43 Clouds 8 1008 1 10000 3.23 28 02:37 29.09.2022
44 Clouds 9 1008 1 10000 3.83 37 23:29 28.09.2022
45 Clouds 10 1008 1 10000 3.96 36 22:22 28.09.2022
46 Clouds 11 1007 1 10000 4.22 36 21:25 28.09.2022
47 Clouds 11 1007 1 10000 4.2 34 19:57 28.09.2022
48 Clouds 14 1005 3 10000 4.88 46 16:52 28.09.2022
49 Clouds 13 1005 1 10000 4.99 51 14:35 28.09.2022
50 Clouds 14 1005 1 10000 4.58 58 12:31 28.09.2022
51 Clouds 12 1004 1 10000 4.58 70 10:22 28.09.2022
52 Rain 11 1003 1 10000 4.43 60 07:53 28.09.2022
53 Clouds 11 1002 1 10000 4.02 55 06:27 28.09.2022
54 Clouds 10 1002 1 10000 3.41 51 01:50 28.09.2022
55 Clouds 10 1002 1 10000 3.38 59 01:25 28.09.2022
56 Clouds 11 1002 1 10000 3.59 58 22:49 27.09.2022
57 Clouds 11 1001 1 10000 3.34 53 21:24 27.09.2022
58 Clouds 11 1001 1 10000 3.34 53 20:36 27.09.2022
59 Clouds 11 1001 1 10000 3.81 54 19:47 27.09.2022
60 Clouds 12 1000 1 10000 3.23 56 17:55 27.09.2022
61 Clouds 12 1000 1 10000 3.23 56 17:32 27.09.2022
62 Rain 12 999 1 10000 4.3 89 15:24 27.09.2022
63 Clouds 12 999 1 10000 4.3 89 14:33 27.09.2022
64 Clouds 11 997 1 9292 4.14 99 12:39 27.09.2022
65 Clouds 11 997 1 9292 4.14 99 12:39 27.09.2022
66 Clouds 11 996 1 7771 4.05 97 10:49 27.09.2022
67 Rain 10 995 1 10000 4.32 109 08:46 27.09.2022
68 Rain 10 993 1 4855 4.96 104 05:49 27.09.2022
69 Rain 11 992 1 10000 5.02 123 01:43 27.09.2022
70 Rain 11 992 1 7179 5.03 125 00:50 27.09.2022
71 Rain 11 992 1 2814 4.57 126 23:25 26.09.2022
72 Rain 11 992 1 4787 4.46 114 22:19 26.09.2022
73 Rain 11 992 1 4192 4.16 110 20:27 26.09.2022
74 Rain 10 992 1 4669 4.17 116 19:24 26.09.2022
75 Rain 10 992 1 4669 4.17 116 18:30 26.09.2022
76 Rain 10 993 1 7874 4.42 113 15:52 26.09.2022
77 Rain 10 994 1 10000 3.81 114 13:27 26.09.2022
78 Rain 9 995 1 10000 3.19 127 11:29 26.09.2022
79 Rain 9 995 1 10000 3 131 10:37 26.09.2022
80 Rain 9 995 1 10000 3 131 10:19 26.09.2022
81 Rain 9 995 1 10000 3 131 09:53 26.09.2022
82 Rain 9 995 1 10000 2.49 125 09:22 26.09.2022
83 Rain 8 996 1 6863 3.16 161 06:21 26.09.2022
84 Rain 10 997 1 4918 3.78 185 02:41 26.09.2022
85 Clouds 11 1000 1 10000 3.07 205 23:26 25.09.2022
86 Clouds 11 1000 1 10000 3.21 185 21:48 25.09.2022
87 Clouds 11 1001 1 10000 3.36 178 21:25 25.09.2022
88 Clouds 11 1000 1 10000 3.39 182 20:38 25.09.2022
89 Rain 11 1003 1 10000 3.8 182 19:30 25.09.2022
90 Clouds 12 1003 1 10000 4.12 178 18:34 25.09.2022
91 Clouds 13 1003 1 10000 4.12 178 17:41 25.09.2022
92 Clouds 14 1005 38 10000 3.75 186 16:22 25.09.2022
93 Clouds 14 1005 14 10000 3.75 186 15:35 25.09.2022
94 Clouds 14 1007 19 10000 2.44 197 14:20 25.09.2022
95 Clear 13 1009 1 10000 1.86 192 12:44 25.09.2022
96 Clear 8 1011 1 10000 0.2 98 10:20 25.09.2022
97 Clear 6 1013 1 10000 1.1 351 07:47 25.09.2022
98 Clear 7 1013 1 10000 1.07 33 05:31 25.09.2022
99 Clouds 8 1015 1 10000 1.81 342 00:36 25.09.2022
100 Clouds 9 1014 1 10000 1.79 358 22:34 24.09.2022
101 Clouds 9 1014 1 10000 1.93 359 20:45 24.09.2022
102 Clouds 12 1015 86 10000 2 356 19:21 24.09.2022
103 Clouds 14 1014 1 10000 3.06 1 16:59 24.09.2022
104 Clouds 14 1014 1 10000 3.03 2 16:23 24.09.2022
105 Clouds 15 1014 1 10000 2.86 6 15:19 24.09.2022
106 Clouds 14 1013 1 10000 2.74 3 13:23 24.09.2022
107 Clouds 14 1013 1 10000 2.74 3 12:40 24.09.2022
108 Clouds 11 1013 1 10000 2.43 4 10:19 24.09.2022
109 Clouds 10 1013 1 10000 1.72 356 09:23 24.09.2022
110 Clouds 9 1013 1 10000 1.72 356 08:43 24.09.2022
111 Clouds 10 1011 1 10000 1.5 341 06:26 24.09.2022
112 Clouds 10 1011 1 10000 1.2 334 04:34 24.09.2022
113 Clouds 11 1011 1 8569 1.01 195 23:48 23.09.2022
114 Clouds 12 1011 1 7045 1.76 186 22:24 23.09.2022
115 Rain 12 1011 1 7896 2.26 172 21:26 23.09.2022
116 Rain 12 1011 1 8078 2.27 172 20:55 23.09.2022
117 Rain 12 1011 1 10000 2.7 174 19:46 23.09.2022
118 Rain 12 1011 1 10000 3.67 190 18:24 23.09.2022
119 Rain 13 1011 1 9549 4.52 187 13:44 23.09.2022
120 Rain 13 1012 1 10000 4.02 183 10:26 23.09.2022
121 Rain 13 1012 1 10000 3.83 183 08:56 23.09.2022
122 Clouds 13 1013 1 10000 3.52 192 04:42 23.09.2022
123 Clouds 13 1015 1 10000 3.29 191 23:30 22.09.2022
124 Clouds 14 1016 1 10000 3.62 191 22:28 22.09.2022
125 Clouds 14 1016 1 10000 3.61 191 21:40 22.09.2022
126 Clouds 14 1016 1 10000 3.64 192 20:44 22.09.2022
127 Clouds 14 1016 1 10000 4.07 198 19:20 22.09.2022
128 Clouds 14 1016 1 10000 4.47 198 16:23 22.09.2022
129 Clouds 10 1019 78 10000 2.22 187 10:56 22.09.2022
130 Clouds 8 1019 1 10000 1.33 181 10:20 22.09.2022
131 Clouds 6 1020 1 9386 0.66 142 08:22 22.09.2022
132 Clouds 5 1021 1 10000 0.59 123 06:21 22.09.2022
133 Clouds 7 1023 1 10000 0.75 128 02:28 22.09.2022
134 Clouds 8 1023 1 10000 0.94 173 22:32 21.09.2022
135 Clouds 8 1023 1 10000 0.94 173 21:38 21.09.2022
136 Clouds 12 1023 16 10000 1.96 181 19:30 21.09.2022
137 Clouds 15 1022 18 10000 2.38 180 17:46 21.09.2022
138 Clouds 16 1023 33 10000 1.89 186 16:22 21.09.2022
139 Clouds 15 1023 16 10000 1.49 173 13:57 21.09.2022
140 Clouds 12 1024 1 10000 0.54 145 12:19 21.09.2022
141 Clouds 10 1024 1 10000 0.01 267 11:28 21.09.2022
142 Clouds 8 1024 1 10000 0.31 48 09:47 21.09.2022
143 Clouds 7 1024 1 10000 0.61 32 08:53 21.09.2022
144 Clouds 6 1024 1 10000 1.08 9 06:20 21.09.2022
145 Clouds 5 1023 1 10000 0.43 343 02:44 21.09.2022
146 Clouds 5 1023 1 10000 0.34 358 02:20 21.09.2022
147 Clear 6 1023 1 10000 0.2 325 00:26 21.09.2022
148 Clear 7 1023 16 10000 0.57 221 22:30 20.09.2022
149 Clear 8 1022 22 10000 0.28 277 20:45 20.09.2022
150 Clouds 10 1021 28 10000 0.71 278 19:30 20.09.2022
151 Clouds 16 1021 48 10000 1.29 330 16:18 20.09.2022
152 Clouds 16 1021 49 10000 1.46 346 14:45 20.09.2022
153 Clear 14 1021 51 10000 1.97 4 12:58 20.09.2022
154 Clear 9 1021 39 10000 2.46 336 09:19 20.09.2022
155 Clear 6 1021 1 10000 2.11 328 08:26 20.09.2022
156 Clear 6 1020 7 10000 2.27 332 04:46 20.09.2022
157 Clear 7 1019 11 10000 2.24 337 03:48 20.09.2022
158 Clear 10 1017 43 10000 3.45 356 22:55 19.09.2022
159 Clear 11 1017 44 10000 4.01 11 21:40 19.09.2022
160 Clear 11 1016 44 10000 4.08 16 20:47 19.09.2022
161 Clouds 11 1016 44 10000 3.73 14 20:24 19.09.2022
162 Clouds 15 1014 53 10000 3.97 14 17:44 19.09.2022
163 Clouds 15 1013 52 10000 4.37 7 14:54 19.09.2022
164 Clouds 15 1013 49 10000 4.73 6 13:18 19.09.2022
165 Clouds 13 1013 51 10000 3.88 344 10:48 19.09.2022
166 Clouds 10 1013 51 10000 2.3 326 08:51 19.09.2022
167 Clouds 9 1013 81 10000 2.25 335 06:42 19.09.2022
168 Clouds 8 1012 2 10000 3.2 355 01:54 19.09.2022
169 Clouds 11 1011 36 10000 4.38 3 23:22 18.09.2022
170 Clouds 11 1010 15 10000 4.65 6 21:44 18.09.2022
171 Clouds 12 1009 1 10000 4.67 15 20:25 18.09.2022
172 Clouds 14 1007 13 10000 4.82 10 18:18 18.09.2022
173 Clouds 16 1007 50 10000 4.82 10 17:37 18.09.2022
174 Clouds 17 1006 51 10000 4.84 1 15:44 18.09.2022
175 Clouds 17 1006 50 10000 4.4 14 13:51 18.09.2022
176 Clouds 16 1005 50 10000 4.15 1 12:35 18.09.2022
177 Clouds 15 1005 50 10000 3.33 359 11:24 18.09.2022
178 Clouds 9 1002 1 10000 1.8 349 04:26 18.09.2022
179 Clouds 11 1002 35 10000 1.27 326 01:25 18.09.2022
180 Clouds 12 1002 37 10000 1.01 327 00:24 18.09.2022
181 Clouds 12 1001 25 10000 0.73 311 21:44 17.09.2022
182 Clouds 13 1001 49 10000 1.2 43 19:44 17.09.2022
183 Clouds 15 1000 52 10000 1.82 56 18:59 17.09.2022
184 Clouds 16 1000 52 10000 3.16 339 16:22 17.09.2022
185 Clouds 17 1001 51 10000 3.27 344 13:57 17.09.2022
186 Clouds 16 1001 49 10000 3.19 325 11:55 17.09.2022
187 Clouds 13 1001 49 10000 1.97 307 09:37 17.09.2022
188 Clouds 9 1000 1 10000 1.88 313 06:25 17.09.2022
189 Clouds 10 1000 15 10000 1.82 331 01:51 17.09.2022
190 Clouds 12 999 40 10000 1.86 344 22:56 16.09.2022
191 Clouds 12 998 42 10000 2.02 351 21:29 16.09.2022
192 Clouds 13 998 48 10000 1.94 349 20:24 16.09.2022
193 Clouds 17 997 51 10000 3.7 3 17:50 16.09.2022
194 Clouds 16 996 47 10000 3.79 355 15:34 16.09.2022
195 Clouds 17 993 50 10000 1.79 187 13:57 16.09.2022
196 Clouds 16 996 49 10000 5.05 351 11:45 16.09.2022
197 Clouds 12 995 1 10000 3.42 328 08:53 16.09.2022
198 Clouds 11 994 1 10000 2.85 323 07:19 16.09.2022
199 Clouds 11 994 1 10000 2.85 323 06:47 16.09.2022
200 Clouds 11 993 1 10000 1.9 317 02:52 16.09.2022
201 Clouds 12 993 5 10000 3.91 2 22:57 15.09.2022
202 Clouds 13 992 24 10000 1.65 341 21:19 15.09.2022
203 Clouds 14 992 28 10000 1.66 334 19:57 15.09.2022
204 Clouds 16 991 51 10000 2.44 6 18:30 15.09.2022
205 Clouds 17 991 50 10000 2.44 6 17:33 15.09.2022
206 Clouds 18 991 46 10000 2.73 14 16:43 15.09.2022
207 Clouds 17 991 47 10000 2.61 331 14:41 15.09.2022
208 Clouds 16 992 50 10000 2.34 316 12:29 15.09.2022
209 Clouds 13 993 1 10000 1.61 300 10:21 15.09.2022
210 Clouds 9 993 1 10000 1.51 321 07:51 15.09.2022
211 Clouds 8 993 1 10000 1.72 327 03:58 15.09.2022
212 Clouds 8 993 1 10000 2 5 01:27 15.09.2022
213 Clouds 11 992 88 10000 1.7 15 21:54 14.09.2022
214 Clouds 11 992 1 10000 0.37 79 19:59 14.09.2022
215 Clouds 12 992 74 10000 0.67 158 19:26 14.09.2022
216 Rain 18 992 55 10000 1.09 208 17:25 14.09.2022
217 Clouds 16 992 13 10000 1.4 230 15:49 14.09.2022
218 Clouds 18 993 47 10000 1.37 245 14:34 14.09.2022
219 Clouds 15 994 38 10000 1.35 261 11:40 14.09.2022
220 Clouds 12 995 1 10000 1.02 272 09:48 14.09.2022
221 Clouds 11 995 1 10000 1.41 281 07:38 14.09.2022
222 Clouds 11 995 1 10000 1.41 281 06:47 14.09.2022
223 Clouds 11 994 1 10000 1.54 297 04:33 14.09.2022
224 Clouds 12 994 1 10000 2.26 319 01:48 14.09.2022
225 Clouds 12 994 1 10000 2.98 321 01:27 14.09.2022
226 Clouds 12 994 1 10000 2.98 321 00:48 14.09.2022
227 Clouds 12 994 1 10000 2.67 310 23:54 13.09.2022
228 Clouds 12 994 1 10000 2.67 310 23:36 13.09.2022
229 Rain 12 994 1 10000 2.94 317 23:18 13.09.2022
230 Rain 13 993 1 10000 2.6 323 21:50 13.09.2022
231 Clouds 13 993 1 10000 2.52 309 19:45 13.09.2022
232 Clouds 15 992 1 10000 3.08 315 17:44 13.09.2022
233 Clouds 14 992 1 10000 2.24 281 15:55 13.09.2022
234 Clouds 14 991 58 10000 0.21 348 14:36 13.09.2022
235 Clouds 14 991 58 10000 0.21 348 14:36 13.09.2022
236 Clouds 14 991 64 10000 1.23 158 12:40 13.09.2022
237 Clouds 13 991 1 10000 1.22 130 08:50 13.09.2022
238 Rain 13 993 1 10000 4.55 168 06:24 13.09.2022
239 Rain 14 1001 1 1915 4.95 158 00:22 13.09.2022
240 Rain 14 1002 1 2175 4.92 165 22:50 12.09.2022
241 Rain 14 1004 1 2679 4.74 161 21:55 12.09.2022
242 Rain 14 1006 1 10000 4.41 157 20:25 12.09.2022
243 Rain 14 1008 1 10000 3.78 161 18:44 12.09.2022
244 Rain 15 1010 1 10000 4.42 187 17:25 12.09.2022
245 Rain 16 1011 1 10000 4.91 192 14:37 12.09.2022
246 Clouds 17 1013 85 10000 2.03 173 11:30 12.09.2022
247 Clouds 14 1013 1 10000 1.86 166 09:56 12.09.2022
248 Clouds 13 1014 1 8767 0.93 146 04:54 12.09.2022
249 Clouds 13 1014 1 7854 1.04 164 04:25 12.09.2022
250 Clouds 12 1016 1 10000 0.68 165 23:39 11.09.2022
251 Clouds 13 1016 1 10000 1.07 157 22:43 11.09.2022
252 Clouds 14 1016 1 10000 1.29 191 20:51 11.09.2022
253 Clouds 14 1016 1 10000 1.59 185 20:18 11.09.2022
254 Clouds 17 1015 70 10000 2.41 194 19:25 11.09.2022
255 Clouds 17 1015 38 10000 2.44 193 18:36 11.09.2022
256 Clouds 19 1015 34 10000 2.19 199 16:47 11.09.2022
257 Clouds 17 1016 50 10000 1.78 195 14:53 11.09.2022
258 Clouds 18 1017 56 10000 1.09 191 12:53 11.09.2022
259 Clouds 13 1018 1 10000 0.69 341 09:28 11.09.2022
260 Clouds 10 1018 1 10000 1.1 343 07:21 11.09.2022
261 Clouds 12 1018 1 10000 1.01 342 01:18 11.09.2022
262 Clouds 12 1018 1 10000 1 335 23:20 10.09.2022
263 Clouds 13 1019 1 10000 1.04 346 21:33 10.09.2022
264 Clouds 14 1018 1 10000 1.14 345 19:49 10.09.2022
265 Clouds 14 1018 1 10000 1 343 19:29 10.09.2022
266 Clouds 14 1018 1 10000 1 343 18:58 10.09.2022
267 Clouds 15 1018 90 10000 0.68 5 16:57 10.09.2022
268 Clouds 14 1019 1 10000 0.91 358 14:45 10.09.2022
269 Clouds 13 1019 1 10000 1.26 10 12:53 10.09.2022
270 Rain 12 1019 1 10000 1.32 22 11:36 10.09.2022
271 Clouds 12 1019 1 10000 1.62 38 10:24 10.09.2022
272 Clouds 11 1019 1 10000 1.62 29 08:37 10.09.2022
273 Clouds 11 1019 1 10000 1.6 15 07:57 10.09.2022
274 Clouds 12 1019 1 10000 1.96 20 02:47 10.09.2022
275 Clouds 13 1019 7 10000 1.92 19 23:34 09.09.2022
276 Clouds 14 1019 19 10000 2.63 31 22:20 09.09.2022
277 Clouds 14 1019 29 10000 2.57 23 20:48 09.09.2022
278 Clouds 15 1018 40 10000 1.94 18 19:25 09.09.2022
279 Clouds 15 1018 44 10000 1.94 18 18:53 09.09.2022
280 Clouds 16 1018 51 10000 2.36 51 16:33 09.09.2022
281 Clouds 15 1019 39 10000 3.46 75 14:27 09.09.2022
282 Clouds 14 1020 24 10000 3.62 78 12:56 09.09.2022
283 Clouds 13 1020 14 10000 3.53 59 10:22 09.09.2022
284 Clouds 10 1020 1 10000 2 36 07:18 09.09.2022
285 Clouds 11 1021 79 10000 1.95 31 03:28 09.09.2022
286 Clouds 13 1021 31 10000 1.55 30 22:19 08.09.2022
287 Clouds 13 1021 33 10000 1.56 30 21:43 08.09.2022
288 Clouds 14 1021 34 10000 1.67 20 20:46 08.09.2022
289 Clouds 14 1021 37 10000 1.74 13 20:21 08.09.2022
290 Clouds 14 1021 46 10000 1.46 23 18:34 08.09.2022
291 Clouds 15 1021 50 10000 1.65 88 16:38 08.09.2022
292 Clouds 16 1022 50 10000 2.52 110 14:41 08.09.2022
293 Clouds 15 1023 51 10000 2.64 107 13:27 08.09.2022
294 Clouds 16 1023 49 10000 2.64 107 12:33 08.09.2022
295 Clouds 15 1024 7 10000 2.32 108 10:58 08.09.2022
296 Clouds 15 1024 7 10000 2.32 108 10:58 08.09.2022
297 Clouds 13 1023 1 10000 1.63 74 08:59 08.09.2022
298 Clouds 10 1023 1 10000 1.09 51 06:43 08.09.2022
299 Clouds 11 1022 1 10000 1.4 63 02:37 08.09.2022
300 Clouds 12 1022 1 10000 1.08 74 02:19 08.09.2022
301 Clouds 12 1022 1 10000 1.08 74 01:58 08.09.2022
302 Clouds 12 1021 1 10000 1.05 105 22:55 07.09.2022
303 Clouds 12 1021 1 10000 1.18 117 21:43 07.09.2022
304 Clouds 13 1021 1 10000 1.4 125 21:18 07.09.2022
305 Clouds 16 1020 15 10000 1.35 135 19:54 07.09.2022
306 Clouds 18 1019 50 10000 1.34 140 18:39 07.09.2022
307 Clouds 21 1020 49 10000 1.47 129 15:21 07.09.2022
308 Clear 16 1021 1 10000 1.07 109 10:50 07.09.2022
309 Clear 15 1021 1 10000 0.77 83 10:24 07.09.2022
310 Clear 10 1022 1 10000 0.89 37 07:36 07.09.2022
311 Clear 9 1022 1 10000 0.7 6 04:39 07.09.2022
312 Clear 12 1022 1 10000 0.23 337 00:25 07.09.2022
313 Clear 13 1022 1 10000 0.7 195 21:45 06.09.2022
314 Clear 14 1022 1 10000 1.26 183 21:24 06.09.2022
315 Clear 18 1022 35 10000 3.04 193 18:55 06.09.2022
316 Clear 19 1022 42 10000 3.37 194 18:27 06.09.2022
317 Clear 21 1022 50 10000 0.89 121 17:23 06.09.2022
318 Clear 21 1022 50 10000 0.89 121 16:40 06.09.2022
319 Clear 21 1024 49 10000 2.07 207 15:23 06.09.2022
320 Clear 20 1024 50 10000 1.93 212 13:46 06.09.2022
321 Clear 20 1025 48 10000 1.99 219 13:25 06.09.2022
322 Clear 19 1025 1 10000 1.88 225 12:37 06.09.2022
323 Clear 18 1026 53 10000 1.36 222 10:46 06.09.2022
324 Clear 11 1026 71 10000 0.66 216 08:53 06.09.2022
325 Clouds 9 1027 1 10000 0.26 260 07:51 06.09.2022
326 Clouds 8 1028 1 10000 0.52 240 04:48 06.09.2022
327 Clouds 11 1028 1 10000 1.15 180 23:42 05.09.2022
328 Clouds 13 1029 13 10000 1.06 162 22:31 05.09.2022
329 Clouds 14 1029 15 10000 0.5 176 20:52 05.09.2022
330 Clouds 16 1029 14 10000 0.69 201 19:50 05.09.2022
331 Clouds 18 1029 43 10000 0.99 214 18:49 05.09.2022
332 Clouds 19 1029 63 10000 1.26 211 18:22 05.09.2022
333 Clouds 19 1030 60 10000 1.32 191 17:30 05.09.2022
334 Clouds 20 1030 45 10000 0.38 71 15:52 05.09.2022
335 Clouds 19 1031 37 10000 0.58 108 13:39 05.09.2022
336 Clouds 18 1032 28 10000 0.86 103 12:29 05.09.2022
337 Clouds 16 1032 1 10000 0.56 70 10:30 05.09.2022
338 Clouds 10 1032 1 10000 0.57 39 07:36 05.09.2022
339 Clouds 11 1032 1 10000 0.81 59 02:50 05.09.2022
340 Clouds 12 1032 1 10000 0.88 43 23:40 04.09.2022
341 Clouds 12 1031 1 10000 1.1 43 22:28 04.09.2022
342 Clouds 13 1031 1 10000 1.1 43 21:40 04.09.2022
343 Clouds 14 1030 1 10000 0.67 39 19:39 04.09.2022
344 Clouds 15 1030 1 10000 0.15 89 18:20 04.09.2022
345 Clouds 15 1030 1 10000 0.31 176 17:22 04.09.2022
346 Clouds 13 1030 1 10000 0.72 129 14:56 04.09.2022
347 Clouds 12 1030 1 10000 0.75 87 14:18 04.09.2022
348 Clouds 12 1030 1 10000 0.88 72 12:24 04.09.2022
349 Clouds 12 1030 1 10000 0.95 71 10:51 04.09.2022
350 Clouds 11 1029 1 10000 1.07 70 08:21 04.09.2022
351 Clouds 11 1028 1 10000 1.11 65 06:21 04.09.2022
352 Clouds 11 1027 1 10000 0.98 86 01:31 04.09.2022
353 Clouds 12 1025 1 10000 0.81 86 22:26 03.09.2022
354 Clouds 12 1025 1 10000 0.76 89 21:24 03.09.2022
355 Clouds 13 1024 1 10000 1.2 118 20:26 03.09.2022
356 Clouds 16 1024 1 10000 1.67 111 17:35 03.09.2022
357 Clouds 16 1024 1 10000 2.27 99 16:33 03.09.2022
358 Clouds 15 1024 1 10000 2.37 87 14:47 03.09.2022
359 Clouds 15 1025 5 10000 2.09 73 14:26 03.09.2022
360 Clouds 15 1025 7 10000 2.09 73 13:39 03.09.2022
361 Clouds 14 1025 1 10000 1.29 59 11:18 03.09.2022
362 Clouds 11 1025 1 10000 0.76 50 08:41 03.09.2022
363 Clouds 10 1024 1 10000 0.62 50 06:59 03.09.2022
364 Clouds 11 1024 1 10000 0.77 66 04:43 03.09.2022
365 Rain 12 1025 1 10000 1.13 75 00:46 03.09.2022
366 Rain 13 1025 1 10000 1.16 75 23:28 02.09.2022
367 Clouds 14 1024 3 10000 1.1 63 21:33 02.09.2022
368 Clouds 14 1025 22 10000 0.91 81 20:39 02.09.2022
369 Clouds 15 1024 48 10000 1.27 118 19:35 02.09.2022
370 Clouds 16 1024 50 10000 1.28 118 18:43 02.09.2022
371 Clouds 16 1024 51 10000 1.24 128 18:24 02.09.2022
372 Clouds 16 1025 47 10000 1.26 135 16:51 02.09.2022
373 Clouds 15 1025 15 10000 1.26 142 15:40 02.09.2022
374 Rain 14 1026 1 10000 0.84 104 12:56 02.09.2022
375 Clouds 13 1025 1 10000 1.09 102 10:25 02.09.2022
376 Clouds 12 1025 1 10000 1.09 102 09:41 02.09.2022
377 Clouds 10 1025 1 10000 0.92 95 08:35 02.09.2022
378 Clouds 9 1025 1 10000 0.86 84 06:43 02.09.2022
379 Clouds 9 1025 1 10000 1.08 77 04:58 02.09.2022
380 Clouds 11 1025 1 10000 0.76 155 22:54 01.09.2022
381 Clear 13 1024 38 10000 0.77 171 21:45 01.09.2022
382 Clear 13 1024 40 10000 0.95 172 21:26 01.09.2022
383 Clear 14 1024 43 10000 0.95 172 20:48 01.09.2022
384 Clear 18 1023 53 10000 1.56 148 19:23 01.09.2022
385 Clouds 21 1023 49 10000 1.76 164 17:48 01.09.2022
386 Clouds 21 1024 45 10000 1.6 172 16:41 01.09.2022
387 Clouds 19 1026 46 10000 0.73 144 14:34 01.09.2022
388 Clear 18 1026 46 10000 0.89 154 12:59 01.09.2022
389 Clear 16 1026 52 10000 1.08 116 11:55 01.09.2022
390 Clear 16 1026 51 10000 1.08 116 11:36 01.09.2022
391 Clear 15 1027 51 10000 1.32 96 10:45 01.09.2022
392 Clear 11 1028 12 10000 0.93 54 08:31 01.09.2022
393 Clear 8 1028 1 10000 1.65 25 06:26 01.09.2022
394 Clear 10 1028 1 10000 2.06 13 01:45 01.09.2022
395 Clear 10 1028 1 10000 1.82 29 00:19 01.09.2022
396 Clear 12 1027 23 10000 0.35 332 21:45 31.08.2022
397 Clouds 17 1026 43 10000 0.62 139 19:59 31.08.2022
398 Clouds 21 1026 47 10000 1.39 18 18:19 31.08.2022
399 Clouds 21 1026 44 10000 1.8 350 16:31 31.08.2022
400 Clouds 20 1027 48 10000 1.98 343 14:44 31.08.2022
401 Clouds 18 1028 50 10000 1.51 342 12:25 31.08.2022
402 Clouds 17 1028 51 10000 1.51 342 11:37 31.08.2022
403 Clouds 13 1029 1 10000 1.32 345 09:25 31.08.2022
404 Clouds 7 1030 1 10000 1.46 342 06:19 31.08.2022
405 Clouds 10 1029 1 10000 2.12 354 23:25 30.08.2022
406 Clouds 11 1029 16 10000 2.17 355 21:49 30.08.2022
407 Clouds 13 1028 44 10000 1.97 353 20:59 30.08.2022
408 Clouds 17 1027 54 10000 1.87 29 18:52 30.08.2022
409 Clouds 18 1027 51 10000 3.05 30 15:29 30.08.2022
410 Clouds 17 1027 52 10000 2.32 41 13:25 30.08.2022
411 Clouds 15 1028 48 10000 1.91 52 11:22 30.08.2022
412 Clouds 16 1028 47 10000 1.91 52 10:57 30.08.2022
413 Clouds 11 1028 1 10000 1.21 32 07:50 30.08.2022
414 Clouds 9 1026 1 10000 1.59 33 02:55 30.08.2022
415 Clear 11 1025 1 10000 1.57 342 23:28 29.08.2022
416 Clear 11 1025 1 10000 1.57 342 22:32 29.08.2022
417 Clouds 13 1024 18 10000 0.93 4 21:27 29.08.2022
418 Clear 16 1023 46 10000 1.26 50 20:19 29.08.2022
419 Clear 21 1023 49 10000 3 52 17:58 29.08.2022
420 Clear 21 1023 47 10000 3.1 47 17:25 29.08.2022
421 Clear 21 1023 46 10000 3.19 45 16:43 29.08.2022
422 Clear 20 1023 49 10000 2.73 42 15:18 29.08.2022
423 Clear 18 1024 52 10000 2.47 39 13:26 29.08.2022
424 Clouds 16 1024 51 10000 2.23 39 11:30 29.08.2022
425 Clear 15 1025 50 10000 1.67 47 10:21 29.08.2022
426 Clear 12 1025 27 10000 1.5 40 08:38 29.08.2022
427 Clouds 11 1024 1 10000 2.1 22 05:52 29.08.2022
428 Clouds 13 1021 1 10000 1.34 344 01:25 29.08.2022
429 Clouds 13 1021 1 10000 1.1 355 22:50 28.08.2022
430 Clouds 15 1021 1 10000 0.25 8 21:44 28.08.2022
431 Clouds 16 1020 3 10000 0.59 80 20:56 28.08.2022
432 Clouds 18 1020 23 10000 1.1 80 19:44 28.08.2022
433 Clouds 21 1019 32 10000 2.79 75 18:21 28.08.2022
434 Clouds 21 1019 44 10000 2.79 75 17:40 28.08.2022
435 Clouds 21 1019 34 10000 3.23 76 16:32 28.08.2022
436 Clouds 20 1019 34 10000 3.65 71 14:44 28.08.2022
437 Clouds 18 1019 1 10000 4.19 64 12:48 28.08.2022
438 Clear 18 1018 1 10000 4.26 52 10:51 28.08.2022
439 Clear 17 1018 1 10000 4.13 51 09:56 28.08.2022
440 Clear 16 1018 1 10000 4.01 41 08:38 28.08.2022
441 Clear 16 1018 1 10000 3.11 33 07:45 28.08.2022
442 Clear 13 1017 1 10000 2.11 8 03:31 28.08.2022
443 Clear 15 1015 1 10000 1.44 22 00:31 28.08.2022
444 Clear 16 1015 1 10000 1.13 26 22:38 27.08.2022
445 Clear 17 1015 1 10000 0.88 25 21:40 27.08.2022
446 Clouds 20 1014 1 10000 0.69 63 19:57 27.08.2022
447 Clouds 20 1014 73 10000 0.9 76 18:41 27.08.2022
448 Clouds 22 1013 1 10000 1.06 95 15:53 27.08.2022
449 Clouds 23 1013 12 10000 0.73 125 15:25 27.08.2022
450 Clouds 21 1014 1 10000 0.66 268 12:31 27.08.2022
451 Clouds 20 1014 57 10000 0.66 268 11:47 27.08.2022
452 Clouds 18 1014 1 10000 0.66 232 09:50 27.08.2022
453 Clouds 17 1014 1 10000 0.5 251 08:45 27.08.2022
454 Clouds 16 1014 1 10000 0.33 78 03:58 27.08.2022
455 Clouds 16 1014 1 10000 0.38 250 00:20 27.08.2022
456 Rain 17 1014 1 10000 0.54 301 23:23 26.08.2022
457 Rain 18 1014 89 10000 0.95 299 21:39 26.08.2022
458 Clouds 19 1015 1 10000 0.73 309 19:25 26.08.2022
459 Clouds 20 1016 1 10000 1.1 220 17:29 26.08.2022
460 Clouds 21 1017 1 10000 1.44 171 15:35 26.08.2022
461 Clouds 21 1017 1 10000 1.46 170 14:44 26.08.2022
462 Clouds 20 1017 8 10000 1.78 182 12:54 26.08.2022
463 Clouds 19 1018 1 10000 1.68 184 11:42 26.08.2022
464 Clouds 18 1018 1 10000 1.53 160 11:21 26.08.2022
465 Clear 14 1019 1 10000 0.83 84 07:37 26.08.2022
466 Clear 13 1020 1 10000 1.04 47 02:43 26.08.2022
467 Clear 16 1020 78 10000 0.9 99 23:45 25.08.2022
468 Clear 21 1021 74 10000 1.03 163 21:46 25.08.2022
469 Clear 21 1021 70 10000 1.16 175 20:51 25.08.2022
470 Clear 24 1020 52 10000 1.66 204 19:25 25.08.2022
471 Clear 26 1021 49 10000 2.56 203 18:28 25.08.2022
472 Clear 26 1021 47 10000 2.56 203 17:31 25.08.2022
473 Clear 26 1021 46 10000 3.2 197 16:27 25.08.2022
474 Clear 26 1022 49 10000 3.09 190 15:28 25.08.2022
475 Clouds 24 1023 48 10000 2.93 188 12:56 25.08.2022
476 Clouds 21 1024 43 10000 2.19 177 10:49 25.08.2022
477 Clouds 19 1024 1 10000 1.73 160 09:44 25.08.2022
478 Clouds 14 1025 1 10000 0.39 142 07:31 25.08.2022
479 Clouds 14 1025 1 10000 0.45 162 02:29 25.08.2022
480 Clouds 15 1025 1 10000 0.53 181 23:29 24.08.2022
481 Clouds 15 1025 1 10000 0.53 181 22:46 24.08.2022
482 Clouds 16 1025 1 10000 0.92 199 21:37 24.08.2022
483 Clouds 17 1024 1 10000 1.33 195 21:19 24.08.2022
484 Clouds 19 1023 1 10000 1.4 183 19:43 24.08.2022
485 Clouds 21 1024 4 10000 2.61 206 16:50 24.08.2022
486 Clouds 21 1024 28 10000 2.55 201 15:52 24.08.2022
487 Clouds 22 1023 25 10000 3.26 211 13:49 24.08.2022
488 Clouds 21 1023 36 10000 2.11 185 12:24 24.08.2022
489 Clouds 19 1024 22 10000 1.69 193 11:18 24.08.2022
490 Clouds 14 1024 1 10000 0.37 103 08:28 24.08.2022
491 Clouds 11 1023 1 10000 0.6 22 03:44 24.08.2022
492 Clear 12 1023 1 10000 0.15 6 23:47 23.08.2022
493 Clear 13 1022 1 10000 0.31 322 22:35 23.08.2022
494 Clear 14 1022 1 10000 0.31 322 21:46 23.08.2022
495 Clouds 17 1021 1 10000 0.73 234 20:33 23.08.2022
496 Clouds 21 1021 52 10000 1.24 218 18:53 23.08.2022
497 Clouds 22 1021 52 10000 1.59 202 17:53 23.08.2022
498 Clouds 22 1021 49 10000 1.6 189 17:18 23.08.2022
499 Clouds 22 1021 49 10000 1.6 189 17:18 23.08.2022
500 Clouds 21 1021 49 10000 1.54 183 15:52 23.08.2022
501 Clouds 21 1021 48 10000 1.62 183 13:50 23.08.2022
502 Clouds 19 1022 47 10000 1.47 182 12:45 23.08.2022
503 Clouds 17 1022 1 10000 1.19 165 10:53 23.08.2022
504 Clouds 17 1022 1 10000 0.69 153 10:32 23.08.2022
505 Clouds 17 1022 1 10000 0.69 153 10:32 23.08.2022
506 Clouds 13 1022 1 10000 0.52 133 08:55 23.08.2022
507 Clouds 12 1022 1 10000 0.46 101 08:22 23.08.2022
508 Clouds 11 1022 1 10000 0.53 109 07:52 23.08.2022
509 Clouds 9 1022 1 10000 0.66 68 07:22 23.08.2022
510 Clouds 8 1021 1 10000 0.59 70 06:19 23.08.2022
511 Clouds 10 1020 1 10000 0.62 122 01:42 23.08.2022
512 Clouds 11 1020 1 10000 1.09 145 00:26 23.08.2022
513 Clouds 13 1019 1 10000 0.92 161 23:29 22.08.2022
514 Clouds 14 1019 14 10000 1.18 163 22:19 22.08.2022
515 Clouds 18 1018 48 10000 2.24 167 19:51 22.08.2022
516 Clouds 19 1017 48 10000 3.05 172 19:30 22.08.2022
517 Clouds 19 1017 52 10000 3.05 171 18:36 22.08.2022
518 Clouds 21 1016 45 10000 2.88 195 15:45 22.08.2022
519 Clouds 21 1015 45 10000 2.72 205 14:46 22.08.2022
520 Clear 18 1015 45 10000 0.92 256 11:20 22.08.2022
521 Clear 14 1014 1 10000 0.94 262 08:54 22.08.2022
522 Clear 8 1012 90 10000 0.96 242 04:45 22.08.2022
523 Clear 11 1010 1 10000 1.41 208 00:54 22.08.2022
524 Clear 11 1010 1 10000 1.41 208 00:35 22.08.2022
525 Clear 12 1008 1 10000 2.12 200 22:56 21.08.2022
526 Rain 13 1008 1 10000 2.27 187 21:45 21.08.2022
527 Clear 15 1008 1 10000 2.21 195 20:58 21.08.2022
528 Clouds 17 1007 1 10000 3.17 199 19:40 21.08.2022
529 Clouds 18 1007 1 8262 4.43 196 18:28 21.08.2022
530 Rain 18 1007 1 10000 5.31 190 16:29 21.08.2022
531 Rain 18 1007 1 10000 5.31 190 15:46 21.08.2022
532 Clouds 19 1008 1 10000 5.26 188 14:35 21.08.2022
533 Clouds 19 1008 1 10000 4.68 190 13:43 21.08.2022
534 Clouds 19 1008 1 10000 4.82 189 12:47 21.08.2022
535 Clouds 18 1009 1 10000 5.18 202 09:56 21.08.2022
536 Clouds 17 1009 1 10000 4.68 201 08:56 21.08.2022
537 Clouds 16 1009 1 10000 4.64 200 08:38 21.08.2022
538 Clear 15 1009 1 10000 3.44 200 07:50 21.08.2022
539 Clear 13 1010 1 10000 2.37 188 04:28 21.08.2022
540 Clouds 16 1009 44 10000 2.33 188 00:53 21.08.2022
541 Clouds 17 1009 13 10000 2.68 197 22:59 20.08.2022
542 Clouds 19 1008 53 10000 3.17 200 21:46 20.08.2022
543 Clouds 20 1008 47 10000 2.91 195 20:48 20.08.2022
544 Clouds 21 1008 44 10000 2.24 166 19:42 20.08.2022
545 Clouds 23 1008 49 10000 2.9 160 18:44 20.08.2022
546 Clouds 23 1008 50 10000 3.59 170 18:25 20.08.2022
547 Clouds 23 1008 50 10000 3.88 169 17:20 20.08.2022
548 Clouds 23 1008 46 10000 4.48 173 15:52 20.08.2022
549 Clouds 23 1008 48 10000 4.5 185 13:39 20.08.2022
550 Clouds 21 1008 1 10000 3.16 189 11:53 20.08.2022
551 Clouds 20 1009 1 10000 2.64 186 11:24 20.08.2022
552 Clouds 17 1009 1 10000 1.11 173 09:20 20.08.2022
553 Clouds 13 1010 1 10000 0.63 115 06:40 20.08.2022
554 Clouds 15 1010 1 10000 0.43 113 04:40 20.08.2022
555 Clouds 15 1011 1 10000 0.44 141 00:55 20.08.2022
556 Clouds 16 1012 1 10000 0.78 172 23:25 19.08.2022
557 Clouds 16 1012 1 10000 0.78 172 22:36 19.08.2022
558 Clouds 19 1012 1 10000 1.41 165 20:41 19.08.2022
559 Clouds 23 1011 38 10000 1.95 183 18:55 19.08.2022
560 Clouds 23 1011 42 10000 2.71 192 15:55 19.08.2022
561 Clouds 23 1011 42 10000 2.71 192 15:55 19.08.2022
562 Clouds 23 1011 42 10000 2.71 192 15:55 19.08.2022
563 Clouds 24 1012 21 10000 3.29 195 13:42 19.08.2022
564 Clouds 19 1012 1 10000 2.68 191 11:46 19.08.2022
565 Clouds 19 1012 1 10000 2.35 191 10:31 19.08.2022
566 Clouds 16 1012 1 10000 1.52 165 07:39 19.08.2022
567 Clouds 17 1012 1 10000 0.9 150 03:39 19.08.2022
568 Clouds 17 1012 1 10000 0.64 169 00:38 19.08.2022
569 Clouds 17 1012 1 10000 0.32 185 23:56 18.08.2022
570 Clouds 17 1012 1 10000 0.4 252 22:54 18.08.2022
571 Clouds 17 1012 1 10000 0.34 277 22:22 18.08.2022
572 Clouds 17 1012 1 10000 0.34 277 21:45 18.08.2022
573 Clouds 17 1012 1 10000 0.31 294 20:45 18.08.2022
574 Rain 18 1013 1 10000 1.09 352 19:34 18.08.2022
575 Rain 18 1013 1 10000 1.09 352 18:34 18.08.2022
576 Rain 18 1014 1 10000 1.19 355 17:32 18.08.2022
577 Clouds 21 1014 1 10000 1.06 198 15:51 18.08.2022
578 Clouds 17 1015 96 10000 1.17 99 14:21 18.08.2022
579 Clouds 18 1015 1 10000 1.17 99 13:42 18.08.2022
580 Clouds 18 1015 1 10000 1.47 109 12:28 18.08.2022
581 Rain 16 1015 1 10000 2.11 121 11:18 18.08.2022
582 Clouds 18 1015 74 10000 1.48 108 09:43 18.08.2022
583 Rain 14 1015 1 10000 1.29 50 07:27 18.08.2022
584 Clouds 14 1014 1 10000 1.41 43 05:33 18.08.2022
585 Clouds 17 1013 1 10000 1.68 65 00:45 18.08.2022
586 Clouds 17 1011 1 10000 1.26 116 22:32 17.08.2022
587 Clouds 20 1010 1 10000 3 165 20:21 17.08.2022
588 Clouds 20 1010 1 10000 2.85 165 19:34 17.08.2022
589 Clouds 22 1009 1 10000 4.67 175 18:32 17.08.2022
590 Clouds 23 1009 34 10000 5.35 177 16:50 17.08.2022
591 Clouds 25 1008 34 10000 5.41 171 15:41 17.08.2022
592 Clouds 24 1007 31 10000 5.21 175 14:29 17.08.2022
593 Clouds 23 1008 1 10000 3.17 191 12:22 17.08.2022
594 Clouds 21 1008 1 10000 1.94 198 10:25 17.08.2022
595 Clouds 19 1007 1 10000 1.86 178 08:26 17.08.2022
596 Clouds 19 1006 1 10000 2.43 173 05:35 17.08.2022
597 Clouds 19 1006 1 2181 1.38 146 00:49 17.08.2022
598 Clouds 19 1006 1 10000 1.52 159 22:59 16.08.2022
599 Rain 20 1005 1 10000 1.39 178 20:59 16.08.2022
600 Clouds 20 1005 1 10000 1.95 170 19:56 16.08.2022
601 Rain 20 1005 1 10000 1.8 178 19:22 16.08.2022
602 Rain 21 1005 1 9224 2.03 177 17:55 16.08.2022
603 Rain 23 1005 1 10000 1.3 162 16:47 16.08.2022
604 Rain 23 1005 1 10000 2.41 169 15:45 16.08.2022
605 Clouds 24 1006 1 5263 2.39 158 14:54 16.08.2022
606 Clouds 24 1006 1 5766 2.8 181 14:36 16.08.2022
607 Clouds 20 1007 76 10000 1.27 85 11:40 16.08.2022
608 Rain 19 1008 1 10000 1.64 84 10:20 16.08.2022
609 Rain 19 1008 1 10000 1.41 78 08:53 16.08.2022
610 Rain 18 1009 1 10000 1.28 72 08:21 16.08.2022
611 Clouds 18 1008 1 10000 1.45 39 05:55 16.08.2022
612 Clouds 20 1009 1 10000 1.3 41 23:37 15.08.2022
613 Rain 20 1009 1 10000 0.79 66 22:23 15.08.2022
614 Clouds 20 1009 1 10000 0.79 66 21:50 15.08.2022
615 Rain 22 1009 1 7812 2.24 123 20:32 15.08.2022
616 Rain 25 1007 52 10000 2.86 138 19:22 15.08.2022
617 Rain 27 1007 37 10000 2.75 140 17:59 15.08.2022
618 Clouds 28 1008 49 10000 4.31 138 16:25 15.08.2022
619 Clouds 28 1009 49 10000 3.59 139 15:27 15.08.2022
620 Clouds 28 1010 41 10000 2.79 143 13:45 15.08.2022
621 Clouds 24 1011 26 10000 2.37 117 10:38 15.08.2022
622 Clouds 22 1012 15 10000 2.3 104 09:40 15.08.2022
623 Clouds 17 1012 1 10000 1.43 62 07:32 15.08.2022
624 Clouds 17 1012 1 10000 1.58 16 04:34 15.08.2022
625 Clouds 19 1013 30 10000 0.35 88 00:22 15.08.2022
626 Clouds 21 1013 39 10000 0.93 161 22:29 14.08.2022
627 Clouds 23 1013 52 10000 1.08 163 21:35 14.08.2022
628 Clouds 25 1013 49 10000 1.61 170 19:46 14.08.2022
629 Clouds 26 1013 47 10000 2.54 182 18:53 14.08.2022
630 Clouds 27 1014 45 10000 3.33 186 17:48 14.08.2022
631 Clouds 27 1014 44 10000 3.78 187 16:32 14.08.2022
632 Clouds 27 1014 41 10000 3.78 187 15:48 14.08.2022
633 Clouds 28 1015 45 10000 3.9 191 14:19 14.08.2022
634 Clouds 27 1015 50 10000 3.9 191 13:49 14.08.2022
635 Clouds 27 1015 50 10000 3.73 189 13:18 14.08.2022
636 Clouds 24 1016 44 10000 3.34 187 11:50 14.08.2022
637 Clear 21 1016 1 10000 2.23 181 10:27 14.08.2022
638 Clear 18 1017 1 10000 1.49 176 08:45 14.08.2022
639 Clouds 12 1017 1 10000 0.71 99 06:21 14.08.2022
640 Clouds 14 1017 1 10000 0.82 132 02:46 14.08.2022
641 Clear 17 1018 53 10000 1.33 157 23:36 13.08.2022
642 Clear 19 1018 84 10000 1.5 156 22:28 13.08.2022
643 Clear 20 1018 72 10000 2.14 164 20:58 13.08.2022
644 Clear 22 1017 53 10000 2.92 171 20:28 13.08.2022
645 Clear 25 1017 49 10000 3.64 176 19:24 13.08.2022
646 Clear 27 1018 43 10000 4.43 180 17:36 13.08.2022
647 Clear 28 1018 36 10000 4.09 183 15:23 13.08.2022
648 Clouds 26 1018 42 10000 3.6 191 14:24 13.08.2022
649 Clouds 24 1018 29 10000 3.68 190 13:38 13.08.2022
650 Clouds 23 1019 45 10000 2.78 196 11:51 13.08.2022
651 Clouds 19 1019 60 10000 2.24 193 09:57 13.08.2022
652 Clouds 15 1020 1 10000 1.24 172 07:51 13.08.2022
653 Clear 16 1020 1 10000 0.88 140 02:56 13.08.2022
654 Clear 17 1020 1 10000 1.09 157 23:47 12.08.2022
655 Clear 22 1020 85 10000 1.52 154 21:41 12.08.2022
656 Clear 20 1020 73 10000 2.07 164 20:40 12.08.2022
657 Clear 26 1020 60 10000 2.92 176 19:36 12.08.2022
658 Clear 25 1020 44 10000 3.75 179 18:38 12.08.2022
659 Clear 28 1020 40 10000 2.7 192 16:28 12.08.2022
660 Clear 28 1020 37 10000 2.7 192 15:40 12.08.2022
661 Clear 27 1020 42 10000 1.95 192 14:27 12.08.2022
662 Clear 25 1020 45 10000 1.55 166 12:53 12.08.2022
663 Clear 20 1021 45 10000 0.54 96 09:52 12.08.2022
664 Clear 16 1021 1 10000 0.71 24 07:47 12.08.2022
665 Clear 14 1020 1 10000 0.99 346 06:31 12.08.2022
666 Clear 14 1020 1 10000 0.6 322 02:33 12.08.2022
667 Clear 16 1019 1 10000 0.52 171 00:24 12.08.2022
668 Clear 17 1019 1 10000 0.52 171 23:35 11.08.2022
669 Clear 18 1019 1 10000 1.51 167 22:24 11.08.2022
670 Clear 19 1019 1 10000 1.51 167 21:39 11.08.2022
671 Clear 20 1019 5 10000 2.2 168 20:45 11.08.2022
672 Clear 22 1018 17 10000 3.05 171 20:18 11.08.2022
673 Clear 23 1018 42 10000 2.75 173 19:32 11.08.2022
674 Clear 26 1018 48 10000 4.69 170 17:48 11.08.2022
675 Clear 27 1019 48 10000 3.58 200 16:34 11.08.2022
676 Clear 27 1019 45 10000 3.14 213 15:21 11.08.2022
677 Clouds 25 1019 45 10000 2.71 239 12:41 11.08.2022
678 Clouds 21 1020 48 10000 1.68 230 10:18 11.08.2022
679 Clouds 15 1019 1 10000 0.91 273 07:19 11.08.2022
680 Clouds 15 1019 1 10000 0.62 280 03:46 11.08.2022
681 Clouds 16 1018 1 10000 0.48 226 00:35 11.08.2022
682 Clear 18 1019 1 10000 1.35 175 22:22 10.08.2022
683 Clear 19 1019 1 10000 2.27 173 21:25 10.08.2022
684 Clear 20 1019 1 10000 2.28 174 20:54 10.08.2022
685 Clouds 23 1018 17 10000 4.14 171 19:24 10.08.2022
686 Clouds 25 1019 47 10000 4.84 174 17:55 10.08.2022
687 Clouds 25 1020 51 10000 5 181 16:35 10.08.2022
688 Clouds 25 1020 48 10000 3.81 203 13:35 10.08.2022
689 Clouds 24 1021 37 10000 3.38 206 12:35 10.08.2022
690 Clouds 19 1023 1 10000 1.5 194 09:24 10.08.2022
691 Clouds 17 1024 1 10000 1.02 201 08:32 10.08.2022
692 Clouds 16 1024 1 10000 0.49 216 07:18 10.08.2022
693 Clouds 16 1024 1 10000 1.17 204 03:25 10.08.2022
694 Clouds 16 1025 1 10000 2.46 180 23:34 09.08.2022
695 Clouds 16 1025 1 10000 2.46 180 22:56 09.08.2022
696 Clouds 16 1025 1 10000 2.63 178 21:35 09.08.2022
697 Clouds 18 1025 79 10000 3.4 183 20:26 09.08.2022
698 Clouds 20 1024 72 10000 3.87 184 18:44 09.08.2022
699 Clouds 21 1025 62 10000 4.38 181 17:28 09.08.2022
700 Clouds 21 1025 62 10000 4.38 181 16:40 09.08.2022
701 Clouds 20 1025 29 10000 4.53 180 15:58 09.08.2022
702 Clouds 19 1026 13 10000 4.2 188 12:51 09.08.2022
703 Clouds 16 1026 1 10000 3 191 09:39 09.08.2022
704 Clouds 14 1026 1 10000 2.49 184 08:50 09.08.2022
705 Clouds 13 1026 1 10000 1.54 182 07:52 09.08.2022
706 Clouds 12 1026 1 10000 0.93 164 04:22 09.08.2022
707 Clouds 14 1026 1 10000 1.57 184 23:27 08.08.2022
708 Clouds 14 1026 1 10000 1.57 183 22:54 08.08.2022
709 Clouds 15 1025 1 10000 1.68 185 21:58 08.08.2022
710 Clouds 17 1024 1 10000 1.87 198 20:59 08.08.2022
711 Clouds 18 1024 22 10000 2.11 202 19:51 08.08.2022
712 Clouds 20 1023 44 10000 2.14 196 18:45 08.08.2022
713 Clouds 22 1022 48 10000 3.01 166 16:40 08.08.2022
714 Clouds 22 1022 39 10000 2.52 157 15:39 08.08.2022
715 Clouds 22 1022 42 10000 0.85 141 13:50 08.08.2022
716 Clouds 20 1022 12 10000 0.78 94 11:58 08.08.2022
717 Clouds 16 1022 1 10000 1.01 53 09:46 08.08.2022
718 Clouds 11 1020 1 10000 1.63 359 05:54 08.08.2022
719 Clear 13 1019 1 10000 1.24 340 02:55 08.08.2022
720 Clouds 15 1018 1 10000 0.71 213 22:32 07.08.2022
721 Clouds 16 1017 29 10000 1.05 217 21:39 07.08.2022
722 Clouds 17 1017 46 10000 1.9 253 20:26 07.08.2022
723 Clouds 17 1017 46 10000 1.9 253 20:26 07.08.2022
724 Clouds 18 1017 50 10000 1.9 253 19:55 07.08.2022
725 Clouds 18 1016 50 10000 2.18 240 19:34 07.08.2022
726 Clouds 18 1017 51 10000 2.47 212 18:23 07.08.2022
727 Rain 19 1017 52 10000 3.49 201 16:54 07.08.2022
728 Rain 19 1017 52 10000 3.49 201 16:35 07.08.2022
729 Clouds 20 1017 47 10000 2.6 206 15:20 07.08.2022
730 Clouds 18 1017 50 10000 2.24 220 13:24 07.08.2022
731 Clouds 17 1019 50 10000 1.01 235 11:27 07.08.2022
732 Clouds 16 1019 43 10000 0.63 281 10:34 07.08.2022
733 Clouds 11 1018 1 10000 1.4 338 06:52 07.08.2022
734 Clouds 10 1017 10 10000 1.37 330 03:19 07.08.2022
735 Clear 13 1016 50 10000 1.42 312 23:44 06.08.2022
736 Clear 15 1015 53 10000 1.32 303 22:20 06.08.2022
737 Clear 17 1015 48 10000 1.76 283 20:42 06.08.2022
738 Clouds 20 1014 46 10000 2.81 288 19:41 06.08.2022
739 Clouds 21 1013 34 10000 4.04 279 18:28 06.08.2022
740 Clouds 21 1013 42 10000 4.04 279 17:31 06.08.2022
741 Clouds 20 1013 44 10000 2.92 254 14:35 06.08.2022
742 Clouds 19 1010 44 10000 0.89 59 13:44 06.08.2022
743 Clouds 18 1013 48 10000 3.07 304 11:33 06.08.2022
744 Clouds 16 1012 49 10000 3.21 305 09:51 06.08.2022
745 Clouds 14 1011 52 10000 2.17 298 08:32 06.08.2022
746 Clouds 11 1009 51 10000 2.05 299 03:52 06.08.2022
747 Clouds 15 1008 83 10000 0.89 254 23:36 05.08.2022
748 Clouds 15 1008 53 10000 1.33 177 22:23 05.08.2022
749 Clouds 21 1008 38 10000 1.63 207 19:33 05.08.2022
750 Clouds 22 1008 41 10000 1.63 207 18:46 05.08.2022
751 Clouds 22 1008 37 10000 1.11 238 18:22 05.08.2022
752 Clouds 23 1008 41 10000 0.73 243 16:49 05.08.2022
753 Clouds 22 1009 46 10000 0.87 142 15:22 05.08.2022
754 Clouds 21 1009 47 10000 0.7 120 14:31 05.08.2022
755 Clouds 21 1009 50 10000 2.06 72 13:24 05.08.2022
756 Clouds 20 1010 50 10000 1.66 58 12:29 05.08.2022
757 Clouds 17 1010 33 10000 1.73 26 10:51 05.08.2022
758 Clouds 14 1010 1 10000 1.19 338 08:27 05.08.2022
759 Clouds 13 1010 1 10000 1.17 341 06:56 05.08.2022
760 Clouds 13 1010 1 10000 1.17 341 06:56 05.08.2022
761 Clouds 15 1009 1 10000 1.27 174 00:46 05.08.2022
762 Clouds 16 1008 1 10000 1.91 184 22:31 04.08.2022
763 Clouds 16 1008 1 10000 3.11 204 21:27 04.08.2022
764 Clouds 16 1008 1 10000 3.1 204 20:43 04.08.2022
765 Clouds 17 1007 1 6088 1.85 193 19:46 04.08.2022
766 Clouds 17 1007 1 8591 2.18 199 18:41 04.08.2022
767 Clouds 17 1007 1 7582 1.75 182 18:23 04.08.2022
768 Rain 17 1010 1 10000 2.68 176 14:38 04.08.2022
769 Clouds 19 1010 1 10000 5.76 184 13:18 04.08.2022
770 Clouds 20 1010 6 10000 5.36 200 11:20 04.08.2022
771 Clouds 17 1009 1 10000 2.73 195 07:55 04.08.2022
772 Clouds 14 1009 1 10000 2.19 194 06:41 04.08.2022
773 Clear 15 1008 1 10000 2.73 187 02:35 04.08.2022
774 Clear 17 1007 1 10000 4.11 209 23:46 03.08.2022
775 Clear 17 1007 1 10000 5.04 214 22:59 03.08.2022
776 Clear 19 1005 1 10000 5.18 206 20:50 03.08.2022
777 Clouds 20 1005 1 10000 5.43 193 19:54 03.08.2022
778 Clouds 20 1005 1 10000 5.79 192 18:37 03.08.2022
779 Clouds 21 1005 1 10000 5.66 193 16:26 03.08.2022
780 Clouds 21 1005 1 10000 5.66 193 15:45 03.08.2022
781 Clouds 20 1005 1 10000 6.32 199 12:44 03.08.2022
782 Clouds 19 1006 1 10000 5.56 193 09:51 03.08.2022
783 Clouds 17 1006 1 10000 2.95 193 06:29 03.08.2022
784 Clouds 16 1006 1 10000 2.59 189 04:21 03.08.2022
785 Clouds 16 1006 1 8406 2.31 201 02:25 03.08.2022
786 Clouds 14 1006 1 184 2.28 157 23:54 02.08.2022
787 Rain 14 1008 1 532 3.55 166 21:59 02.08.2022
788 Clouds 14 1008 1 533 3.55 166 21:40 02.08.2022
789 Rain 14 1008 1 6009 4.54 179 20:25 02.08.2022
790 Rain 13 1010 1 10000 3.84 175 16:51 02.08.2022
791 Rain 17 1011 13 10000 3.14 203 13:55 02.08.2022
792 Clouds 15 1012 1 10000 1.69 170 10:44 02.08.2022
793 Clouds 14 1013 1 10000 0.99 80 08:36 02.08.2022
794 Clouds 13 1013 1 10000 1.12 55 07:51 02.08.2022
795 Clouds 11 1014 1 10000 1.33 28 04:56 02.08.2022
796 Clouds 11 1014 88 10000 1.77 5 02:30 02.08.2022
797 Clouds 15 1013 1 10000 2.23 17 23:25 01.08.2022
798 Clouds 17 1012 84 10000 2.06 13 21:42 01.08.2022
799 Clouds 18 1011 82 10000 1.98 349 20:27 01.08.2022
800 Clouds 21 1010 78 10000 1.73 351 18:56 01.08.2022
801 Clouds 21 1009 70 10000 2.66 52 17:22 01.08.2022
802 Clouds 21 1009 70 10000 2.66 52 16:48 01.08.2022
803 Clouds 20 1009 66 10000 3.44 58 15:45 01.08.2022
804 Clear 21 1008 31 10000 2.98 58 14:57 01.08.2022
805 Clouds 20 1008 1 10000 0.99 13 13:32 01.08.2022
806 Clouds 18 1008 1 10000 0.96 318 11:18 01.08.2022
807 Clouds 17 1008 1 10000 0.98 304 09:34 01.08.2022
808 Clouds 15 1007 1 10000 0.71 241 07:37 01.08.2022
809 Clouds 15 1008 1 10000 0.92 183 04:37 01.08.2022
810 Rain 15 1008 1 430 0.44 93 01:33 01.08.2022
811 Rain 16 1010 1 9254 1.64 164 22:54 31.07.2022
812 Rain 16 1010 1 9254 1.64 164 22:35 31.07.2022
813 Rain 18 1010 1 10000 3.12 175 20:44 31.07.2022
814 Clouds 19 1010 1 10000 4.68 180 18:42 31.07.2022
815 Clouds 20 1011 38 10000 5.56 183 17:29 31.07.2022
816 Clouds 21 1011 43 10000 5.15 194 14:44 31.07.2022
817 Clouds 21 1012 12 10000 3.52 194 13:19 31.07.2022
818 Clouds 20 1013 1 10000 3.03 194 11:44 31.07.2022
819 Clouds 18 1013 63 10000 3.27 198 08:47 31.07.2022
820 Clouds 14 1014 1 10000 1.44 166 05:38 31.07.2022
821 Clouds 15 1015 1 10000 1.65 172 02:29 31.07.2022
822 Clouds 16 1016 1 10000 2.36 181 22:50 30.07.2022
823 Clouds 17 1016 1 10000 2.86 185 21:55 30.07.2022
824 Clouds 19 1016 72 10000 3.55 183 21:37 30.07.2022
825 Clouds 19 1016 33 10000 3.55 183 20:38 30.07.2022
826 Clouds 19 1016 39 10000 4.08 178 19:57 30.07.2022
827 Clouds 22 1016 53 10000 5.08 181 18:20 30.07.2022
828 Clouds 23 1016 48 10000 5.15 184 16:44 30.07.2022
829 Clouds 24 1016 40 10000 5.22 185 15:34 30.07.2022
830 Clouds 23 1017 49 10000 5.35 183 14:26 30.07.2022
831 Clouds 22 1017 50 10000 4.87 186 12:33 30.07.2022
832 Clouds 22 1018 50 10000 4.34 193 11:55 30.07.2022
833 Clouds 20 1019 41 10000 3.05 204 10:20 30.07.2022
834 Clouds 19 1019 1 10000 3.05 204 09:32 30.07.2022
835 Clouds 15 1019 1 10000 1.54 186 07:44 30.07.2022
836 Clear 12 1020 1 10000 0.76 177 02:34 30.07.2022
837 Clear 14 1021 1 10000 1.16 172 00:32 30.07.2022
838 Clear 20 1021 74 10000 1.74 183 21:39 29.07.2022
839 Clear 19 1020 47 10000 2.21 186 20:57 29.07.2022
840 Clouds 22 1020 43 10000 3.32 193 19:48 29.07.2022
841 Clouds 25 1020 39 10000 4.1 193 17:39 29.07.2022
842 Clouds 24 1020 40 10000 4.02 191 14:51 29.07.2022
843 Clouds 23 1021 48 10000 3.28 197 12:58 29.07.2022
844 Clouds 17 1022 1 10000 1.42 183 09:35 29.07.2022
845 Clouds 17 1022 1 10000 1.42 183 08:46 29.07.2022
846 Clouds 14 1022 1 10000 0.41 152 07:30 29.07.2022
847 Rain 12 1022 76 10000 0.68 134 01:46 29.07.2022
848 Clouds 17 1021 70 10000 1.17 162 21:55 28.07.2022
849 Clouds 19 1020 52 10000 1.63 172 20:54 28.07.2022
850 Clouds 20 1019 52 10000 1.54 164 20:22 28.07.2022
851 Clouds 20 1019 51 10000 1.54 164 19:41 28.07.2022
852 Clouds 22 1018 47 10000 1.45 126 18:26 28.07.2022
853 Clouds 22 1018 47 10000 1.45 126 17:42 28.07.2022
854 Clouds 23 1018 44 10000 1.06 93 16:41 28.07.2022
855 Clouds 21 1018 49 10000 1.07 258 14:50 28.07.2022
856 Clouds 19 1019 45 10000 0.71 136 12:49 28.07.2022
857 Clouds 16 1019 50 10000 1.86 72 09:45 28.07.2022
858 Clouds 12 1018 34 10000 2.06 21 06:21 28.07.2022
859 Clouds 12 1018 30 10000 2.19 42 05:26 28.07.2022
860 Clouds 13 1016 1 10000 1.98 36 00:44 28.07.2022
861 Clouds 15 1013 50 10000 1.42 57 22:26 27.07.2022
862 Clouds 20 1012 45 10000 1.57 96 20:25 27.07.2022
863 Clouds 20 1011 52 10000 0.61 147 19:34 27.07.2022
864 Clouds 22 1011 38 10000 0.7 252 16:54 27.07.2022
865 Clouds 21 1011 39 10000 0.73 272 15:51 27.07.2022
866 Clouds 21 1011 50 10000 0.76 248 14:48 27.07.2022
867 Clouds 21 1011 48 10000 0.57 307 14:30 27.07.2022
868 Clouds 20 1011 44 10000 1.55 334 12:48 27.07.2022
869 Clouds 15 1009 42 10000 2.09 359 07:53 27.07.2022
870 Rain 15 1008 21 10000 1.33 340 06:18 27.07.2022
871 Rain 16 1004 12 10000 1.42 336 00:46 27.07.2022
872 Clouds 17 1002 30 10000 1.78 359 22:24 26.07.2022
873 Clouds 18 1001 47 10000 2.08 16 21:19 26.07.2022
874 Rain 20 1000 51 10000 2.61 25 19:59 26.07.2022
875 Clouds 21 999 51 10000 3.85 20 18:41 26.07.2022
876 Clouds 21 998 52 10000 3.17 352 17:57 26.07.2022
877 Clouds 21 997 51 10000 1.08 292 15:50 26.07.2022
878 Clouds 21 997 51 10000 0.62 300 14:49 26.07.2022
879 Clouds 19 996 44 10000 2.05 346 12:50 26.07.2022
880 Clouds 18 996 29 10000 1.76 329 10:58 26.07.2022
881 Rain 16 996 1 10000 0.93 311 08:43 26.07.2022
882 Clouds 15 996 1 10000 1.84 178 05:30 26.07.2022
883 Clouds 16 997 1 10000 3.73 178 00:24 26.07.2022
884 Clouds 17 998 1 10000 3.81 178 22:51 25.07.2022
885 Clouds 17 998 1 10000 3.83 181 22:21 25.07.2022
886 Clouds 17 998 1 10000 3.83 181 21:38 25.07.2022
887 Clouds 18 997 49 10000 1.79 98 20:39 25.07.2022
888 Clouds 18 997 49 10000 1.79 98 19:27 25.07.2022
889 Clouds 18 997 49 10000 1.79 98 18:18 25.07.2022
890 Clouds 18 997 49 10000 1.79 98 17:26 25.07.2022
891 Rain 18 999 52 6382 1.79 43 14:23 25.07.2022
892 Clouds 17 1003 1 6353 4.93 179 11:39 25.07.2022
893 Clouds 16 1005 1 10000 3.1 183 08:32 25.07.2022
894 Clouds 16 1007 1 10000 3.35 188 02:21 25.07.2022
895 Clouds 16 1008 1 8570 3.47 183 23:51 24.07.2022
896 Clouds 16 1008 1 9449 3.32 178 22:54 24.07.2022
897 Clouds 16 1009 1 9665 3.36 170 22:24 24.07.2022
898 Clouds 16 1009 1 10000 3.81 172 21:18 24.07.2022
899 Clouds 16 1009 1 10000 3.81 172 20:46 24.07.2022
900 Clouds 16 1009 1 8865 4.19 172 19:38 24.07.2022
901 Rain 16 1010 1 10000 3.89 179 18:30 24.07.2022
902 Rain 16 1010 1 10000 3.89 179 18:30 24.07.2022
903 Rain 18 1011 1 10000 4.6 188 16:28 24.07.2022
904 Clouds 18 1011 1 10000 4.6 188 15:45 24.07.2022
905 Clouds 19 1011 1 10000 4.38 186 13:54 24.07.2022
906 Clouds 20 1011 42 10000 4.82 185 12:52 24.07.2022
907 Clouds 19 1011 45 10000 3.99 175 11:37 24.07.2022
908 Clouds 18 1012 55 10000 3.71 180 10:48 24.07.2022
909 Clouds 16 1012 1 10000 2.02 170 08:31 24.07.2022
910 Clouds 16 1013 1 10000 2.55 173 07:47 24.07.2022
911 Clouds 14 1013 1 10000 1.01 133 04:45 24.07.2022
912 Clouds 15 1013 1 10000 1.33 158 23:51 23.07.2022
913 Clouds 19 1012 15 10000 1.64 185 20:59 23.07.2022
914 Clouds 20 1012 15 10000 1.51 189 19:59 23.07.2022
915 Clouds 22 1012 40 10000 2.48 210 18:50 23.07.2022
916 Clouds 21 1012 38 10000 2.45 217 17:28 23.07.2022
917 Clouds 21 1012 42 10000 2.44 217 16:33 23.07.2022
918 Clouds 22 1012 52 10000 0.89 43 15:22 23.07.2022
919 Clouds 21 1013 49 10000 1.39 218 14:58 23.07.2022
920 Clouds 21 1013 50 10000 0.8 198 14:27 23.07.2022
921 Clouds 21 1013 46 10000 0.84 150 12:44 23.07.2022
922 Clouds 18 1014 23 10000 1.36 84 10:45 23.07.2022
923 Clouds 18 1014 20 10000 1.59 78 10:21 23.07.2022
924 Clouds 15 1014 1 10000 0.65 63 08:31 23.07.2022
925 Clouds 10 1015 1 10000 1.4 12 03:39 23.07.2022
926 Clouds 12 1015 1 10000 1.63 5 00:49 23.07.2022
927 Clouds 14 1015 1 10000 1.82 43 22:32 22.07.2022
928 Clouds 16 1015 1 10000 1.89 47 20:52 22.07.2022
929 Clouds 18 1012 43 10000 0.89 76 19:35 22.07.2022
930 Clouds 17 1012 43 10000 0.89 76 18:28 22.07.2022
931 Clouds 16 1015 1 10000 3.11 29 16:49 22.07.2022
932 Clouds 15 1015 1 10000 4 33 14:54 22.07.2022
933 Rain 16 1012 40 6559 0.89 231 11:22 22.07.2022
934 Rain 16 1014 1 7987 4.68 27 09:26 22.07.2022
935 Clouds 17 1014 1 10000 4.75 25 08:32 22.07.2022
936 Clouds 19 1013 1 10000 3.83 25 05:19 22.07.2022
937 Clouds 20 1011 1 10000 0.24 139 00:48 22.07.2022
938 Clouds 21 1010 1 10000 0.89 316 22:25 21.07.2022
939 Clouds 21 1010 1 10000 0.51 232 21:29 21.07.2022
940 Rain 24 1010 10 10000 2.5 187 19:27 21.07.2022
941 Clouds 26 1010 8 10000 2.57 179 17:41 21.07.2022
942 Clouds 26 1010 14 10000 2.65 188 17:19 21.07.2022
943 Clouds 26 1011 14 10000 2.9 188 14:55 21.07.2022
944 Clouds 27 1011 43 10000 2.9 188 14:31 21.07.2022
945 Clouds 24 1012 53 10000 2.54 193 12:28 21.07.2022
946 Clouds 22 1012 61 10000 2.38 189 10:56 21.07.2022
947 Clouds 20 1012 1 10000 1.43 190 09:33 21.07.2022
948 Clouds 19 1012 1 10000 1.43 190 08:50 21.07.2022
949 Clouds 18 1012 1 10000 1.22 194 07:42 21.07.2022
950 Clouds 18 1012 1 10000 1.08 190 04:46 21.07.2022
951 Clouds 19 1013 1 10000 0.7 140 00:36 21.07.2022
952 Clouds 20 1014 1 10000 1.19 144 22:22 20.07.2022
953 Clouds 22 1014 27 10000 1.36 166 20:55 20.07.2022
954 Clouds 24 1014 49 10000 2.36 175 19:52 20.07.2022
955 Clouds 28 1014 54 10000 3.26 181 19:24 20.07.2022
956 Clouds 25 1014 52 10000 3.27 182 18:34 20.07.2022
957 Clouds 25 1015 50 10000 3.94 180 17:59 20.07.2022
958 Clouds 27 1015 46 10000 4.64 184 16:45 20.07.2022
959 Clouds 29 1015 43 10000 4.89 183 15:31 20.07.2022
960 Clouds 29 1015 43 10000 4.83 190 14:20 20.07.2022
961 Clouds 28 1015 45 10000 4.83 190 14:20 20.07.2022
962 Clouds 25 1016 47 10000 4.9 189 11:34 20.07.2022
963 Clouds 19 1017 1 10000 3.67 188 08:50 20.07.2022
964 Clouds 16 1017 1 10000 1.35 162 03:49 20.07.2022
965 Clouds 17 1017 11 10000 1.82 169 00:51 20.07.2022
966 Clouds 18 1017 39 10000 2.05 168 23:41 19.07.2022
967 Clouds 19 1017 49 10000 2.05 168 22:33 19.07.2022
968 Clouds 20 1017 53 10000 2.19 174 21:35 19.07.2022
969 Clouds 21 1017 53 10000 2.19 174 20:33 19.07.2022
970 Clouds 25 1016 47 10000 3.84 186 18:58 19.07.2022
971 Clouds 26 1016 38 10000 3.64 176 18:28 19.07.2022
972 Clouds 25 1016 45 10000 2.44 183 16:37 19.07.2022
973 Clouds 25 1016 43 10000 2.07 205 14:53 19.07.2022
974 Clouds 23 1017 42 10000 1.44 173 11:44 19.07.2022
975 Clouds 21 1017 50 10000 0.89 145 10:55 19.07.2022
976 Clouds 20 1017 48 10000 1.16 78 09:25 19.07.2022
977 Clouds 19 1017 32 10000 1.16 78 08:39 19.07.2022
978 Clouds 15 1016 1 10000 1.16 7 07:19 19.07.2022
979 Clouds 13 1016 1 10000 1.41 350 05:30 19.07.2022
980 Clouds 12 1016 1 10000 1.46 341 04:55 19.07.2022
981 Clouds 14 1014 1 10000 1.47 340 01:50 19.07.2022
982 Clouds 16 1013 1 10000 0.79 287 23:49 18.07.2022
983 Clouds 17 1013 1 10000 0.9 219 23:18 18.07.2022
984 Clouds 18 1012 1 10000 1.27 185 22:18 18.07.2022
985 Clouds 19 1012 1 10000 1.32 171 20:51 18.07.2022
986 Clouds 22 1011 39 10000 1.95 272 19:33 18.07.2022
987 Clouds 23 1012 39 10000 2.63 269 17:38 18.07.2022
988 Clouds 22 1012 44 10000 2.48 210 15:57 18.07.2022
989 Clouds 22 1012 47 10000 3.3 259 15:18 18.07.2022
990 Clouds 23 1012 48 10000 3.03 249 13:24 18.07.2022
991 Clouds 20 1013 47 10000 2.66 235 11:31 18.07.2022
992 Clouds 16 1014 1 10000 1.26 187 09:43 18.07.2022
993 Rain 14 1015 1 10000 1.03 201 07:45 18.07.2022
994 Clouds 14 1016 11 10000 0.82 257 02:21 18.07.2022
995 Clouds 16 1016 45 10000 1.37 258 22:51 17.07.2022
996 Clouds 18 1016 50 10000 1.83 254 22:23 17.07.2022
997 Clouds 19 1016 46 10000 1.66 226 21:26 17.07.2022
998 Clouds 20 1016 31 10000 1.66 226 20:44 17.07.2022
999 Clouds 20 1015 42 10000 1.89 295 19:49 17.07.2022
1000 Clouds 20 1015 47 10000 3.8 278 19:19 17.07.2022
1001 Clouds 21 1015 52 10000 4.45 274 17:39 17.07.2022
1002 Clouds 22 1015 36 10000 3.94 269 16:51 17.07.2022
1003 Clouds 22 1015 51 10000 3.52 284 16:27 17.07.2022
1004 Clouds 21 1015 50 10000 4.27 279 15:27 17.07.2022
1005 Clouds 17 1016 35 10000 2.24 276 13:34 17.07.2022
1006 Rain 18 1017 58 10000 1.94 254 12:22 17.07.2022
1007 Clouds 17 1018 52 10000 1.31 142 09:30 17.07.2022
1008 Clouds 13 1018 38 10000 0.95 36 06:37 17.07.2022
1009 Clouds 12 1018 1 10000 1.56 32 02:33 17.07.2022
1010 Clouds 14 1015 1 10000 1.31 65 23:22 16.07.2022
1011 Clouds 14 1015 1 10000 1.31 65 23:22 16.07.2022
1012 Clouds 19 1015 76 10000 1.35 110 21:57 16.07.2022
1013 Clouds 20 1014 53 10000 3.25 176 20:26 16.07.2022
1014 Clouds 20 1013 51 10000 4.15 183 18:41 16.07.2022
1015 Clouds 21 1013 43 10000 3.59 183 17:20 16.07.2022
1016 Clouds 21 1012 37 10000 0.9 239 15:23 16.07.2022
1017 Clouds 18 1012 47 10000 2.28 291 11:54 16.07.2022
1018 Clouds 15 1012 52 10000 1.5 297 09:37 16.07.2022
1019 Clouds 14 1012 48 10000 1.5 297 08:48 16.07.2022
1020 Clouds 14 1012 40 10000 0.88 303 08:29 16.07.2022
1021 Clouds 11 1011 1 10000 1.83 338 04:28 16.07.2022
1022 Clouds 12 1011 22 10000 1.88 347 03:31 16.07.2022
1023 Clouds 14 1009 79 10000 4.1 40 23:51 15.07.2022
1024 Rain 15 1009 83 10000 4.47 39 22:43 15.07.2022
1025 Clouds 17 1007 54 10000 1.51 170 21:31 15.07.2022
1026 Clouds 18 1006 53 10000 2.99 179 20:32 15.07.2022
1027 Clouds 21 1006 45 10000 4.04 207 18:44 15.07.2022
1028 Clouds 20 1006 51 10000 4.28 192 17:49 15.07.2022
1029 Clouds 19 1007 27 10000 1.89 206 15:41 15.07.2022
1030 Clear 20 1008 36 10000 1.68 237 13:22 15.07.2022
1031 Clear 18 1009 43 10000 1.25 245 11:48 15.07.2022
1032 Clear 18 1009 44 10000 1.08 258 10:51 15.07.2022
1033 Clear 14 1010 52 10000 0.36 280 07:47 15.07.2022
1034 Clouds 11 1010 55 10000 1.19 323 02:39 15.07.2022
1035 Clouds 12 1010 94 10000 0.43 343 00:38 15.07.2022
1036 Clouds 14 1009 92 10000 0.5 315 22:54 14.07.2022
1037 Clouds 15 1009 92 10000 0.91 319 21:56 14.07.2022
1038 Clouds 15 1009 92 10000 0.91 319 21:32 14.07.2022
1039 Clouds 15 1008 89 10000 1.02 31 20:46 14.07.2022
1040 Clouds 15 1008 91 10000 2.47 51 20:28 14.07.2022
1041 Clouds 15 1008 93 10000 2.29 55 19:58 14.07.2022
1042 Clouds 19 1004 51 10000 0.82 16 16:23 14.07.2022
1043 Clouds 18 1004 50 10000 0.82 16 15:54 14.07.2022
1044 Clouds 19 1004 52 10000 0.37 215 14:44 14.07.2022
1045 Clouds 19 1004 32 10000 1.17 309 13:32 14.07.2022
1046 Clouds 19 1004 35 10000 1.36 308 12:19 14.07.2022
1047 Clouds 19 1005 50 10000 1.68 308 11:25 14.07.2022
1048 Clouds 17 1005 52 10000 1.68 308 10:39 14.07.2022
1049 Clouds 15 1005 38 10000 1.95 319 08:22 14.07.2022
1050 Clouds 14 1007 44 10000 1.16 311 03:36 14.07.2022
1051 Clear 14 1006 54 10000 2.32 312 00:55 14.07.2022
1052 Clear 15 1006 54 10000 2.55 288 23:41 13.07.2022
1053 Clear 16 1005 53 10000 3.11 281 22:27 13.07.2022
1054 Clear 18 1005 48 10000 4 288 21:32 13.07.2022
1055 Clouds 20 1004 38 10000 2.68 53 20:38 13.07.2022
1056 Rain 22 1004 44 10000 0.89 78 17:59 13.07.2022
1057 Clouds 21 1004 46 10000 0.89 78 17:20 13.07.2022
1058 Clouds 20 1004 76 10000 0.89 78 15:59 13.07.2022
1059 Rain 20 1003 38 10000 7.67 271 13:50 13.07.2022
1060 Clouds 21 1005 49 10000 2.75 231 11:30 13.07.2022
1061 Clouds 20 1005 15 10000 2.75 231 10:44 13.07.2022
1062 Clouds 19 1007 1 10000 1.61 219 09:29 13.07.2022
1063 Clouds 19 1007 1 10000 1.33 200 08:23 13.07.2022
1064 Clouds 17 1009 95 10000 0.61 207 04:36 13.07.2022
1065 Clouds 17 1011 1 8723 1.4 166 00:47 13.07.2022
1066 Clouds 17 1012 1 10000 1.99 166 22:46 12.07.2022
1067 Clouds 18 1013 1 10000 2.51 180 21:49 12.07.2022
1068 Clouds 19 1013 85 10000 2.66 170 20:53 12.07.2022
1069 Rain 19 1013 1 10000 2.63 168 19:54 12.07.2022
1070 Clouds 19 1014 1 10000 2.75 173 18:43 12.07.2022
1071 Rain 22 1015 46 10000 3.83 182 16:36 12.07.2022
1072 Clouds 24 1016 46 10000 4.35 188 14:32 12.07.2022
1073 Clouds 23 1016 49 10000 4.35 188 13:43 12.07.2022
1074 Clouds 23 1017 48 10000 4.31 196 11:54 12.07.2022
1075 Clouds 21 1018 48 10000 3.12 189 10:27 12.07.2022
1076 Clouds 18 1019 1 10000 2.4 192 08:58 12.07.2022
1077 Clouds 17 1019 65 10000 1.88 189 07:48 12.07.2022
1078 Clouds 13 1020 1 10000 0.69 153 05:47 12.07.2022
1079 Clouds 13 1020 1 10000 0.57 191 05:29 12.07.2022
1080 Clouds 14 1020 1 10000 0.67 182 01:31 12.07.2022
1081 Clear 17 1020 41 10000 0.43 210 22:43 11.07.2022
1082 Clear 20 1019 53 10000 2.36 210 21:34 11.07.2022
1083 Clouds 22 1018 45 10000 2.28 195 20:32 11.07.2022
1084 Clouds 24 1018 37 10000 1.51 138 19:27 11.07.2022
1085 Clouds 24 1018 39 10000 1.19 106 18:30 11.07.2022
1086 Clouds 23 1018 46 10000 0.32 46 16:31 11.07.2022
1087 Clouds 23 1018 43 10000 0.93 283 15:28 11.07.2022
1088 Clouds 22 1019 49 10000 1.34 290 13:19 11.07.2022
1089 Clouds 19 1019 51 10000 0.79 281 11:24 11.07.2022
1090 Clouds 19 1019 51 10000 0.79 281 11:24 11.07.2022
1091 Clouds 18 1019 43 10000 0.3 44 09:58 11.07.2022
1092 Clouds 16 1019 39 10000 0.7 62 09:35 11.07.2022
1093 Clouds 15 1020 18 10000 0.93 44 08:32 11.07.2022
1094 Clouds 12 1019 1 10000 1.67 18 01:54 11.07.2022
1095 Clouds 14 1019 45 10000 1.38 18 23:55 10.07.2022
1096 Clouds 15 1018 51 10000 0.98 359 22:48 10.07.2022
1097 Clouds 19 1017 47 10000 1.75 76 20:56 10.07.2022
1098 Clouds 20 1017 58 10000 1.41 75 20:36 10.07.2022
1099 Clouds 20 1017 45 10000 2.45 65 19:38 10.07.2022
1100 Clouds 23 1014 42 10000 0.89 32 18:35 10.07.2022
1101 Clouds 22 1016 39 10000 2.71 54 17:35 10.07.2022
1102 Clouds 21 1016 38 10000 3.45 48 16:24 10.07.2022
1103 Clouds 21 1016 38 10000 3.45 48 16:24 10.07.2022
1104 Clouds 23 1014 40 10000 0.89 32 15:20 10.07.2022
1105 Clouds 21 1014 43 10000 0.89 32 13:40 10.07.2022
1106 Clouds 20 1014 44 10000 0.89 32 12:26 10.07.2022
1107 Clear 16 1017 52 10000 4.32 351 09:47 10.07.2022
1108 Clear 15 1017 51 10000 4.47 343 08:44 10.07.2022
1109 Clear 14 1017 47 10000 2.19 318 07:24 10.07.2022
1110 Clouds 14 1014 66 10000 2 335 23:58 09.07.2022
1111 Clouds 16 1012 52 10000 2 334 22:27 09.07.2022
1112 Clouds 17 1012 49 10000 1.99 333 21:56 09.07.2022
1113 Clouds 18 1010 46 10000 3.52 16 20:23 09.07.2022
1114 Clouds 21 1009 40 10000 3.09 1 18:32 09.07.2022
1115 Clouds 21 1009 42 10000 2.44 357 17:33 09.07.2022
1116 Clouds 21 1009 39 10000 2.44 357 16:44 09.07.2022
1117 Clouds 21 1009 40 10000 2.88 337 15:40 09.07.2022
1118 Clouds 20 1009 40 10000 3.82 313 14:27 09.07.2022
1119 Clouds 21 1009 41 10000 2.65 346 13:49 09.07.2022
1120 Clouds 19 1009 47 10000 2.66 329 12:43 09.07.2022
1121 Clear 18 1010 47 10000 3.17 323 11:19 09.07.2022
1122 Clear 18 1011 47 10000 3.96 309 10:22 09.07.2022
1123 Clouds 16 1011 52 10000 4.43 303 07:45 09.07.2022
1124 Clouds 13 1011 42 10000 3.72 286 04:53 09.07.2022
1125 Clouds 15 1011 52 10000 2.3 286 01:50 09.07.2022
1126 Clouds 17 1012 53 10000 1.71 242 22:53 08.07.2022
1127 Clouds 18 1013 48 10000 1.74 204 21:43 08.07.2022
1128 Clouds 19 1013 46 10000 1.52 220 20:40 08.07.2022
1129 Clouds 21 1014 44 10000 3.35 256 19:52 08.07.2022
1130 Clouds 23 1014 45 10000 4.42 217 18:24 08.07.2022
1131 Clouds 23 1014 44 10000 4.38 217 16:40 08.07.2022
1132 Clouds 23 1015 44 10000 0.9 232 14:51 08.07.2022
1133 Clouds 23 1015 46 10000 0.91 233 14:51 08.07.2022
1134 Clouds 22 1016 44 10000 1.74 305 13:29 08.07.2022
1135 Clouds 20 1016 50 10000 1.81 330 11:42 08.07.2022
1136 Clear 19 1017 51 10000 2.42 334 10:28 08.07.2022
1137 Clouds 16 1017 51 10000 2.02 344 08:27 08.07.2022
1138 Clouds 14 1017 43 10000 2.13 348 06:49 08.07.2022
1139 Clouds 16 1015 48 10000 1.89 217 01:31 08.07.2022
1140 Clouds 18 1015 51 10000 3.05 179 22:59 07.07.2022
1141 Clouds 18 1015 53 10000 2.57 177 22:34 07.07.2022
1142 Clouds 20 1015 52 10000 2.71 186 20:35 07.07.2022
1143 Clouds 23 1014 41 10000 2.45 115 18:20 07.07.2022
1144 Clouds 24 1013 36 10000 2.78 97 16:51 07.07.2022
1145 Clouds 21 1012 30 10000 2.96 29 14:35 07.07.2022
1146 Clouds 21 1012 44 10000 2.82 26 13:18 07.07.2022
1147 Clouds 19 1012 40 10000 3.21 30 12:24 07.07.2022
1148 Clouds 20 1012 49 10000 3.21 30 11:45 07.07.2022
1149 Clear 19 1011 49 10000 3.5 37 11:24 07.07.2022
1150 Clear 18 1011 40 10000 3.5 37 10:41 07.07.2022
1151 Clear 17 1011 32 10000 3.81 29 10:23 07.07.2022
1152 Clouds 13 1009 1 10000 2.18 353 06:49 07.07.2022
1153 Rain 12 1006 1 10000 1.12 322 01:51 07.07.2022
1154 Rain 12 1006 1 8764 1.77 208 23:36 06.07.2022
1155 Rain 12 1006 1 8800 1.75 208 23:18 06.07.2022
1156 Rain 12 1006 1 8764 1.77 208 22:52 06.07.2022
1157 Rain 12 1006 1 3341 2.64 198 22:34 06.07.2022
1158 Rain 13 1006 1 10000 3.03 201 20:36 06.07.2022
1159 Rain 16 1007 19 10000 4.26 208 19:34 06.07.2022
1160 Clouds 19 1007 41 10000 5.21 173 17:32 06.07.2022
1161 Clouds 21 1007 42 10000 5.36 174 15:59 06.07.2022
1162 Clouds 20 1010 41 10000 0.89 143 13:56 06.07.2022
1163 Clouds 20 1010 41 10000 0.89 143 12:30 06.07.2022
1164 Clouds 20 1010 40 10000 0.89 143 12:30 06.07.2022
1165 Clouds 19 1010 43 10000 2.55 217 11:45 06.07.2022
1166 Clouds 18 1011 45 10000 1.23 260 10:18 06.07.2022
1167 Clear 14 1011 53 10000 2.08 320 07:44 06.07.2022
1168 Clear 14 1011 53 10000 1.97 316 07:19 06.07.2022
1169 Clouds 13 1010 55 10000 1.96 307 01:42 06.07.2022
1170 Clouds 16 1009 52 10000 1.91 271 22:45 05.07.2022
1171 Clouds 18 1008 51 10000 2.29 215 21:32 05.07.2022
1172 Clouds 18 1008 51 10000 2.29 215 21:32 05.07.2022
1173 Clouds 19 1008 52 10000 2.62 190 20:38 05.07.2022
1174 Clouds 19 1008 51 10000 2.4 188 19:41 05.07.2022
1175 Clouds 20 1008 52 10000 3.13 195 18:26 05.07.2022
1176 Clouds 20 1008 51 10000 3.13 195 17:41 05.07.2022
1177 Clouds 20 1008 51 10000 3.23 194 16:39 05.07.2022
1178 Clouds 20 1008 48 10000 2.97 218 15:24 05.07.2022
1179 Clouds 21 1008 33 10000 2.32 217 13:47 05.07.2022
1180 Clouds 19 1008 49 10000 1.66 234 12:41 05.07.2022
1181 Clouds 18 1008 51 10000 0.74 257 10:46 05.07.2022
1182 Clouds 17 1008 51 10000 1.1 298 10:25 05.07.2022
1183 Clear 15 1008 42 10000 1.01 274 08:24 05.07.2022
1184 Clear 14 1007 11 10000 0.88 227 07:31 05.07.2022
1185 Clear 10 1007 1 10000 1.35 198 04:46 05.07.2022
1186 Clear 11 1006 1 10000 1.68 192 02:48 05.07.2022
1187 Rain 14 1006 1 10000 2.44 184 23:42 04.07.2022
1188 Rain 13 1006 1 10000 2.5 189 22:59 04.07.2022
1189 Clouds 14 1006 1 10000 2.88 191 22:20 04.07.2022
1190 Clouds 14 1006 1 10000 4 190 21:18 04.07.2022
1191 Clouds 14 1006 1 10000 4 190 20:50 04.07.2022
1192 Clouds 14 1006 1 10000 4 190 20:50 04.07.2022
1193 Clouds 15 1006 1 10000 4 190 20:32 04.07.2022
1194 Rain 17 1006 74 10000 4.92 191 19:44 04.07.2022
1195 Clouds 16 1006 5 10000 5.38 192 19:25 04.07.2022
1196 Clouds 19 1006 51 10000 5.4 204 17:42 04.07.2022
1197 Clouds 19 1007 26 10000 6.6 199 15:44 04.07.2022
1198 Rain 20 1006 33 10000 6.24 182 14:42 04.07.2022
1199 Clouds 19 1007 27 10000 5.8 181 13:27 04.07.2022
1200 Clouds 18 1007 35 10000 5.02 184 11:43 04.07.2022
1201 Clouds 18 1009 1 10000 3.55 187 10:33 04.07.2022
1202 Clouds 17 1009 1 10000 3.55 187 09:36 04.07.2022
1203 Clouds 14 1010 1 10000 0.71 137 06:50 04.07.2022
1204 Clouds 13 1012 1 10000 0.94 78 03:30 04.07.2022
1205 Clear 14 1012 1 10000 1.55 152 00:27 04.07.2022
1206 Clear 15 1012 1 10000 1.74 162 22:58 03.07.2022
1207 Clear 18 1012 1 10000 3.52 174 20:47 03.07.2022
1208 Clouds 17 1012 1 10000 3.57 180 20:21 03.07.2022
1209 Clouds 19 1012 13 10000 3.75 192 19:26 03.07.2022
1210 Clouds 18 1012 1 10000 3.75 192 18:32 03.07.2022
1211 Rain 18 1012 1 10000 4.1 192 17:42 03.07.2022
1212 Clouds 18 1013 1 10000 5.13 186 15:28 03.07.2022
1213 Clouds 18 1013 66 10000 5.13 186 14:57 03.07.2022
1214 Rain 18 1014 73 10000 4.83 187 13:50 03.07.2022
1215 Clouds 18 1015 1 10000 4.42 187 12:51 03.07.2022
1216 Clouds 17 1014 1 10000 4.95 193 12:21 03.07.2022
1217 Clouds 17 1015 1 10000 4.74 195 10:55 03.07.2022
1218 Clouds 16 1015 1 10000 5.36 190 10:36 03.07.2022
1219 Rain 15 1014 67 10000 4.99 191 08:48 03.07.2022
1220 Clouds 15 1015 1 10000 4.02 189 07:34 03.07.2022
1221 Clouds 15 1015 1 10000 3.9 187 01:32 03.07.2022
1222 Clouds 15 1015 1 10000 3.78 182 23:38 02.07.2022
1223 Clear 17 1014 1 10000 4.25 192 22:31 02.07.2022
1224 Clear 18 1014 10 10000 4.92 193 20:37 02.07.2022
1225 Clouds 19 1013 16 10000 5.8 191 19:50 02.07.2022
1226 Clouds 20 1013 34 10000 6.5 193 18:48 02.07.2022
1227 Clouds 21 1012 28 10000 6.99 194 17:40 02.07.2022
1228 Clouds 22 1011 42 10000 6.74 194 16:32 02.07.2022
1229 Clouds 21 1010 39 10000 5.34 206 13:51 02.07.2022
1230 Rain 18 1011 1 10000 4.7 196 11:51 02.07.2022
1231 Clouds 17 1011 1 10000 4.36 193 10:52 02.07.2022
1232 Clouds 18 1011 1 10000 3.76 176 10:28 02.07.2022
1233 Rain 15 1011 1 10000 2.53 163 08:39 02.07.2022
1234 Rain 15 1011 1 10000 2.85 163 08:19 02.07.2022
1235 Rain 15 1010 1 4546 2.93 166 05:59 02.07.2022
1236 Clouds 19 1012 1 10000 1.98 159 00:47 02.07.2022
1237 Clouds 19 1012 1 10000 1.28 160 23:31 01.07.2022
1238 Clouds 20 1012 97 10000 1.38 169 22:35 01.07.2022
1239 Clouds 20 1012 1 10000 1.89 172 21:39 01.07.2022
1240 Clouds 21 1011 1 10000 2.24 172 20:59 01.07.2022
1241 Clouds 21 1011 4 10000 2.24 172 20:37 01.07.2022
1242 Clouds 23 1012 1 10000 1.69 181 19:41 01.07.2022
1243 Clouds 24 1012 35 10000 1.67 196 17:45 01.07.2022
1244 Clouds 23 1012 1 10000 1.04 359 15:21 01.07.2022
1245 Rain 22 1013 1 10000 1.39 35 13:54 01.07.2022
1246 Clouds 22 1013 1 10000 1.79 47 11:49 01.07.2022
1247 Clouds 20 1013 96 10000 1.85 43 10:19 01.07.2022
1248 Rain 20 1013 1 10000 1.8 44 08:46 01.07.2022
1249 Clouds 19 1014 1 10000 1.51 25 02:49 01.07.2022
1250 Clouds 19 1014 6 10000 1.45 359 00:25 01.07.2022
1251 Clouds 20 1015 64 10000 0.68 24 22:54 30.06.2022
1252 Clouds 20 1015 64 10000 0.69 24 22:32 30.06.2022
1253 Clouds 20 1015 62 10000 0.28 131 21:59 30.06.2022
1254 Clouds 21 1015 62 10000 0.28 131 21:34 30.06.2022
1255 Clear 27 1014 47 10000 1.14 207 20:22 30.06.2022
1256 Clear 27 1014 46 10000 1.15 208 19:53 30.06.2022
1257 Clear 28 1014 42 10000 1.45 157 19:18 30.06.2022
1258 Clear 28 1014 42 10000 1.45 157 18:35 30.06.2022
1259 Clear 28 1014 43 10000 1.57 159 17:38 30.06.2022
1260 Clear 28 1014 42 10000 1.55 165 16:48 30.06.2022
1261 Clear 27 1015 45 10000 1.04 155 14:47 30.06.2022
1262 Clear 27 1016 44 10000 1.32 144 13:30 30.06.2022
1263 Clear 26 1016 47 10000 1.46 115 12:35 30.06.2022
1264 Clear 24 1017 49 10000 0.66 105 11:28 30.06.2022
1265 Clear 22 1017 12 10000 0.04 157 09:53 30.06.2022
1266 Clear 21 1018 7 10000 0.39 290 09:32 30.06.2022
1267 Clouds 18 1018 1 10000 0.19 311 07:41 30.06.2022
1268 Clouds 13 1018 1 10000 1.01 330 05:47 30.06.2022
1269 Clouds 16 1019 75 10000 0.42 318 00:32 30.06.2022
1270 Clouds 19 1018 71 10000 0.67 247 23:21 29.06.2022
1271 Clouds 19 1018 71 10000 0.67 247 22:39 29.06.2022
1272 Clear 19 1018 52 10000 1.58 204 21:34 29.06.2022
1273 Clear 21 1018 59 10000 1.58 204 20:33 29.06.2022
1274 Clear 22 1018 35 10000 2.31 194 19:37 29.06.2022
1275 Clear 25 1018 33 10000 3.36 190 17:43 29.06.2022
1276 Clear 24 1018 38 10000 3.25 186 16:38 29.06.2022
1277 Clear 24 1018 49 10000 2.59 181 14:56 29.06.2022
1278 Clouds 22 1019 6 10000 2.42 176 12:40 29.06.2022
1279 Clouds 20 1019 1 10000 1.93 173 11:19 29.06.2022
1280 Clouds 17 1019 1 10000 1.36 174 09:33 29.06.2022
1281 Clouds 18 1019 61 10000 0.92 178 07:44 29.06.2022
1282 Clouds 12 1019 1 10000 0.28 97 04:55 29.06.2022
1283 Clear 15 1018 1 10000 1.16 147 00:58 29.06.2022
1284 Clear 15 1018 1 10000 1.16 147 00:36 29.06.2022
1285 Clear 16 1017 1 10000 1.64 149 22:54 28.06.2022
1286 Clear 18 1017 1 10000 1.64 149 22:30 28.06.2022
1287 Clear 18 1016 3 10000 2.23 162 21:55 28.06.2022
1288 Clear 19 1015 14 10000 3.29 168 21:32 28.06.2022
1289 Clear 19 1015 21 10000 3.28 168 20:35 28.06.2022
1290 Clouds 22 1015 32 10000 3.49 165 19:34 28.06.2022
1291 Clouds 22 1014 48 10000 3.51 160 18:46 28.06.2022
1292 Clouds 22 1014 48 10000 4.34 164 17:40 28.06.2022
1293 Clouds 22 1014 27 10000 2.88 174 15:59 28.06.2022
1294 Clouds 21 1014 33 10000 2.88 174 15:38 28.06.2022
1295 Clouds 20 1015 1 10000 2.95 185 14:21 28.06.2022
1296 Clouds 20 1015 1 10000 2.94 184 14:21 28.06.2022
1297 Clouds 19 1015 1 10000 1.91 149 13:52 28.06.2022
1298 Clouds 17 1015 1 10000 3.16 175 12:57 28.06.2022
1299 Rain 16 1014 86 10000 2.64 178 11:18 28.06.2022
1300 Clouds 16 1013 1 10000 1.93 153 09:29 28.06.2022
1301 Clouds 16 1013 1 10000 1.93 153 08:43 28.06.2022
1302 Clouds 17 1013 1 191 2.17 169 07:42 28.06.2022
1303 Clouds 17 1013 1 231 2.1 170 06:56 28.06.2022
1304 Rain 18 1013 1 7808 1.09 93 00:58 28.06.2022
1305 Rain 18 1013 1 7292 1.65 67 23:37 27.06.2022
1306 Rain 19 1014 1 10000 0.75 48 22:52 27.06.2022
1307 Clouds 19 1014 1 10000 1.28 119 21:38 27.06.2022
1308 Rain 20 1014 1 10000 1.1 12 20:52 27.06.2022
1309 Clouds 20 1014 1 10000 1.29 324 19:33 27.06.2022
1310 Rain 20 1014 1 5283 1.64 271 18:25 27.06.2022
1311 Clouds 21 1014 1 10000 1.29 223 16:20 27.06.2022
1312 Clouds 21 1015 75 10000 1.04 224 15:22 27.06.2022
1313 Clouds 20 1016 83 10000 1.07 264 13:36 27.06.2022
1314 Clouds 19 1016 1 10000 1.67 229 12:56 27.06.2022
1315 Clouds 18 1016 1 10000 1.41 149 10:34 27.06.2022
1316 Clouds 18 1017 78 10000 1.2 100 09:20 27.06.2022
1317 Clouds 18 1017 1 10000 0.9 136 08:29 27.06.2022
1318 Clouds 16 1017 1 10000 0.84 181 06:38 27.06.2022
1319 Clouds 16 1017 1 10000 0.25 329 03:24 27.06.2022
1320 Clouds 16 1017 1 10000 0.27 19 00:56 27.06.2022
1321 Clouds 18 1016 1 10000 0.04 140 22:18 26.06.2022
1322 Rain 19 1016 1 10000 0.87 102 20:44 26.06.2022
1323 Rain 19 1015 1 10000 0.14 175 19:40 26.06.2022
1324 Rain 19 1016 1 10000 1 93 18:31 26.06.2022
1325 Rain 21 1016 1 10000 1.63 99 16:45 26.06.2022
1326 Rain 21 1016 1 10000 0.92 288 15:26 26.06.2022
1327 Rain 23 1016 1 10000 2.68 145 13:41 26.06.2022
1328 Rain 23 1017 1 10000 1.21 125 13:20 26.06.2022
1329 Clouds 24 1016 1 10000 3.35 152 11:26 26.06.2022
1330 Clouds 22 1016 1 10000 2.61 129 10:27 26.06.2022
1331 Clouds 22 1016 55 10000 2.61 129 09:34 26.06.2022
1332 Clouds 19 1017 1 10000 0.8 75 07:44 26.06.2022
1333 Clouds 17 1016 1 10000 0.45 83 01:55 26.06.2022
1334 Clouds 19 1015 1 10000 0.97 215 00:21 26.06.2022
1335 Clouds 22 1015 91 10000 0.96 214 23:49 25.06.2022
1336 Clouds 20 1015 1 10000 1.43 171 23:20 25.06.2022
1337 Clouds 21 1014 7 10000 1.44 166 22:27 25.06.2022
1338 Clouds 23 1014 78 10000 1.44 166 21:41 25.06.2022
1339 Clouds 24 1013 38 10000 1.4 163 21:18 25.06.2022
1340 Clouds 25 1013 46 10000 1.78 157 20:28 25.06.2022
1341 Clouds 26 1013 50 10000 2.51 172 19:21 25.06.2022
1342 Clouds 27 1012 50 10000 3.23 176 17:57 25.06.2022
1343 Clouds 26 1012 50 10000 3.68 182 17:22 25.06.2022
1344 Clouds 28 1012 47 10000 3.16 188 15:36 25.06.2022
1345 Clouds 27 1012 50 10000 3.4 216 13:41 25.06.2022
1346 Clouds 27 1012 50 10000 3.49 195 12:38 25.06.2022
1347 Clouds 26 1012 49 10000 3.28 152 10:45 25.06.2022
1348 Clouds 24 1012 49 10000 2.34 119 09:20 25.06.2022
1349 Clouds 22 1012 37 10000 2.34 119 08:41 25.06.2022
1350 Clouds 21 1012 16 10000 1.19 109 08:19 25.06.2022
1351 Clear 16 1011 1 10000 0.87 46 04:18 25.06.2022
1352 Clear 18 1011 14 10000 0.6 62 00:38 25.06.2022
1353 Clouds 20 1011 3 10000 0.88 43 22:55 24.06.2022
1354 Clouds 22 1010 64 10000 0.92 32 21:42 24.06.2022
1355 Clouds 25 1010 51 10000 0.22 320 20:57 24.06.2022
1356 Clear 27 1010 47 10000 1.09 249 20:19 24.06.2022
1357 Clear 28 1010 43 10000 1.37 218 19:22 24.06.2022
1358 Clear 28 1010 44 10000 1.37 217 18:49 24.06.2022
1359 Clear 28 1010 44 10000 1.37 218 18:30 24.06.2022
1360 Clear 27 1010 45 10000 2.54 188 17:21 24.06.2022
1361 Clear 26 1011 49 10000 3.5 189 15:47 24.06.2022
1362 Clear 25 1012 48 10000 3.94 186 14:28 24.06.2022
1363 Clear 25 1012 46 10000 3.94 186 13:55 24.06.2022
1364 Clear 22 1012 21 10000 4.34 185 11:44 24.06.2022
1365 Clear 22 1012 25 10000 4.34 190 11:22 24.06.2022
1366 Clear 21 1012 13 10000 3.96 190 10:19 24.06.2022
1367 Clear 20 1012 1 10000 3.96 191 09:40 24.06.2022
1368 Clear 18 1012 1 10000 3.02 190 08:52 24.06.2022
1369 Clouds 15 1012 1 10000 2.01 183 06:49 24.06.2022
1370 Clouds 15 1012 1 10000 2.01 183 06:31 24.06.2022
1371 Clouds 15 1012 1 10000 1.65 177 05:55 24.06.2022
1372 Clouds 15 1011 1 10000 2.22 162 01:36 24.06.2022
1373 Clouds 16 1011 1 10000 2.75 165 22:55 23.06.2022
1374 Clouds 16 1011 1 10000 2.75 165 22:33 23.06.2022
1375 Clouds 18 1010 1 10000 4.04 168 20:56 23.06.2022
1376 Clouds 21 1009 63 10000 3.7 165 20:32 23.06.2022
1377 Clouds 21 1008 1 10000 4.29 165 18:59 23.06.2022
1378 Clouds 22 1008 33 10000 4.68 167 17:50 23.06.2022
1379 Clouds 22 1008 33 10000 4.68 167 17:50 23.06.2022
1380 Clouds 25 1008 39 10000 5.01 166 16:50 23.06.2022
1381 Clouds 25 1008 38 10000 5.08 173 15:43 23.06.2022
1382 Clear 26 1008 37 10000 4.86 184 15:23 23.06.2022
1383 Clouds 25 1008 48 10000 3.41 194 13:21 23.06.2022
1384 Clouds 22 1008 49 10000 2.65 215 11:23 23.06.2022
1385 Clouds 20 1008 51 10000 2.18 214 09:46 23.06.2022
1386 Clouds 18 1007 29 10000 1.5 214 08:18 23.06.2022
1387 Clouds 15 1006 1 10000 0.9 220 02:38 23.06.2022
1388 Clouds 16 1006 1 10000 1.64 178 00:26 23.06.2022
1389 Clouds 16 1006 1 10000 2.45 183 23:27 22.06.2022
1390 Clouds 16 1006 1 10000 2.45 183 23:27 22.06.2022
1391 Clouds 17 1005 1 10000 3.29 187 22:24 22.06.2022
1392 Clouds 18 1005 1 10000 3.93 183 20:57 22.06.2022
1393 Clouds 18 1005 1 10000 4.56 181 20:25 22.06.2022
1394 Clouds 20 1005 66 10000 4.56 181 19:50 22.06.2022
1395 Clouds 22 1005 54 10000 4.82 191 18:21 22.06.2022
1396 Clouds 23 1005 48 10000 4.14 191 17:24 22.06.2022
1397 Clouds 21 1005 43 10000 3.35 198 16:18 22.06.2022
1398 Clouds 21 1005 40 10000 2.72 203 15:25 22.06.2022
1399 Clouds 21 1006 50 10000 1.52 183 13:52 22.06.2022
1400 Clouds 20 1006 43 10000 1.72 161 13:26 22.06.2022
1401 Clouds 20 1006 45 10000 1.72 161 12:56 22.06.2022
1402 Clouds 20 1007 43 10000 1.23 148 11:47 22.06.2022
1403 Clouds 20 1007 41 10000 1.11 111 10:54 22.06.2022
1404 Clouds 19 1007 37 10000 1.32 61 09:54 22.06.2022
1405 Clouds 16 1008 3 10000 2.19 22 07:56 22.06.2022
1406 Clouds 14 1007 1 10000 1.67 12 03:30 22.06.2022
1407 Clouds 15 1006 1 10000 0.97 10 01:22 22.06.2022
1408 Clouds 16 1005 1 10000 0.27 61 23:41 21.06.2022
1409 Rain 18 1005 70 10000 0.93 180 21:32 21.06.2022
1410 Clouds 19 1004 48 10000 2.36 188 19:50 21.06.2022
1411 Clouds 20 1004 45 10000 2.95 183 18:32 21.06.2022
1412 Clouds 20 1004 43 10000 2.94 190 17:25 21.06.2022
1413 Rain 20 1005 50 10000 4.17 188 13:45 21.06.2022
1414 Clouds 21 1005 45 10000 4.23 192 11:31 21.06.2022
1415 Clouds 18 1006 46 10000 3.41 197 09:48 21.06.2022
1416 Clouds 17 1006 49 10000 2.76 195 08:37 21.06.2022
1417 Clouds 13 1006 1 10000 1.76 188 06:35 21.06.2022
1418 Clouds 13 1008 18 10000 1.33 161 00:44 21.06.2022
1419 Clouds 18 1008 78 10000 1.62 161 23:18 20.06.2022
1420 Clear 18 1008 69 10000 2.08 173 21:52 20.06.2022
1421 Clear 20 1008 52 10000 2.88 164 20:50 20.06.2022
1422 Clouds 22 1007 37 10000 3.25 158 19:39 20.06.2022
1423 Clouds 24 1007 31 10000 3.17 149 18:45 20.06.2022
1424 Clouds 22 1008 35 10000 2.01 145 17:52 20.06.2022
1425 Clouds 24 1008 33 10000 1.02 134 17:32 20.06.2022
1426 Clouds 24 1008 35 10000 0.54 70 15:56 20.06.2022
1427 Clouds 22 1011 45 10000 2.63 54 12:54 20.06.2022
1428 Clouds 19 1011 50 10000 3.03 46 11:18 20.06.2022
1429 Clouds 17 1011 49 10000 2.24 27 09:41 20.06.2022
1430 Clouds 15 1011 2 10000 1.98 30 08:44 20.06.2022
1431 Clouds 12 1012 1 10000 1.55 5 06:37 20.06.2022
1432 Clouds 10 1011 1 10000 2.06 19 02:56 20.06.2022
1433 Clouds 12 1011 1 10000 1.46 12 00:32 20.06.2022
1434 Clouds 12 1010 6 10000 0.86 195 23:18 19.06.2022
1435 Clouds 15 1009 26 10000 1.83 184 21:59 19.06.2022
1436 Clouds 15 1009 33 10000 1.83 184 21:40 19.06.2022
1437 Clouds 16 1008 41 10000 2.61 180 20:44 19.06.2022
1438 Clouds 17 1008 47 10000 3.18 184 19:48 19.06.2022
1439 Clouds 17 1007 51 10000 3.5 184 19:20 19.06.2022
1440 Clouds 17 1007 51 10000 3.2 184 18:30 19.06.2022
1441 Clouds 18 1007 52 10000 2.75 201 17:34 19.06.2022
1442 Clouds 19 1007 47 10000 2.77 202 16:38 19.06.2022
1443 Clouds 19 1006 48 10000 3.02 207 15:44 19.06.2022
1444 Clouds 18 1005 48 10000 2.95 184 15:25 19.06.2022
1445 Clouds 20 1006 30 10000 2.27 193 14:20 19.06.2022
1446 Clouds 19 1006 42 10000 2.27 193 13:43 19.06.2022
1447 Clouds 18 1006 45 10000 1.93 217 11:52 19.06.2022
1448 Clouds 17 1006 46 10000 1.77 227 10:49 19.06.2022
1449 Clear 15 1006 49 10000 1.61 254 08:54 19.06.2022
1450 Clear 14 1007 51 10000 1.07 236 08:30 19.06.2022
1451 Clear 11 1006 28 10000 0.64 244 06:41 19.06.2022
1452 Clouds 8 1007 7 10000 1.03 275 03:19 19.06.2022
1453 Clouds 11 1006 44 10000 1.78 257 00:27 19.06.2022
1454 Clouds 12 1006 53 10000 1.78 257 23:37 18.06.2022
1455 Clouds 13 1005 53 10000 2.2 261 23:19 18.06.2022
1456 Clear 15 1005 43 10000 2.96 271 21:54 18.06.2022
1457 Clear 17 1004 42 10000 4.31 265 20:50 18.06.2022
1458 Clouds 18 1003 37 10000 4.29 272 19:50 18.06.2022
1459 Clouds 20 1003 36 10000 5.14 272 18:54 18.06.2022
1460 Clouds 20 1002 36 10000 5.78 259 18:30 18.06.2022
1461 Clouds 20 1002 35 10000 5.97 258 17:28 18.06.2022
1462 Clouds 21 1003 32 10000 5.36 260 15:39 18.06.2022
1463 Clouds 21 1003 31 10000 5.2 270 14:50 18.06.2022
1464 Clouds 20 1004 34 10000 4.89 276 13:54 18.06.2022
1465 Clouds 19 1004 38 10000 5.16 271 12:25 18.06.2022
1466 Clouds 18 1004 31 10000 4.93 269 10:59 18.06.2022
1467 Clouds 17 1004 42 10000 3.6 248 09:31 18.06.2022
1468 Clouds 16 1004 1 10000 2.19 221 08:37 18.06.2022
1469 Clouds 15 1004 1 10000 1.9 216 07:33 18.06.2022
1470 Clouds 14 1005 1 10000 1.32 217 04:43 18.06.2022
1471 Clouds 14 1007 1 10000 2.77 198 01:47 18.06.2022
1472 Clouds 14 1008 1 10000 3.64 201 01:21 18.06.2022
1473 Clouds 14 1008 1 7136 4.23 201 00:23 18.06.2022
1474 Clouds 14 1008 1 7136 4.23 201 23:33 17.06.2022
1475 Rain 14 1010 1 172 4.62 196 22:27 17.06.2022
1476 Rain 14 1012 1 1091 5.02 187 20:29 17.06.2022
1477 Rain 15 1012 1 7646 5.01 183 19:20 17.06.2022
1478 Rain 18 1013 1 10000 4.53 191 17:47 17.06.2022
1479 Rain 19 1012 1 10000 4.96 190 16:44 17.06.2022
1480 Rain 20 1013 26 10000 4.75 182 16:21 17.06.2022
1481 Clouds 22 1014 47 10000 5.07 192 15:37 17.06.2022
1482 Clouds 21 1014 48 10000 4.6 191 14:23 17.06.2022
1483 Clouds 21 1015 52 10000 4.18 195 13:58 17.06.2022
1484 Clouds 22 1015 51 10000 4 197 13:38 17.06.2022
1485 Clouds 22 1015 49 10000 3.01 187 12:24 17.06.2022
1486 Clouds 22 1015 50 10000 3.01 187 11:54 17.06.2022
1487 Clouds 21 1015 49 10000 3.01 187 11:33 17.06.2022
1488 Clouds 18 1017 27 10000 0.99 121 08:58 17.06.2022
1489 Clouds 17 1017 1 10000 0.79 75 08:25 17.06.2022
1490 Clouds 13 1017 1 10000 0.69 62 06:44 17.06.2022
1491 Clouds 12 1018 1 10000 1.48 32 03:45 17.06.2022
1492 Clouds 13 1017 1 10000 0.53 11 01:55 17.06.2022
1493 Clouds 14 1017 1 10000 0.56 53 23:35 16.06.2022
1494 Clear 16 1017 92 10000 0.84 56 22:42 16.06.2022
1495 Clouds 17 1016 79 10000 1.56 138 21:22 16.06.2022
1496 Rain 17 1016 79 10000 1.56 138 20:51 16.06.2022
1497 Rain 18 1016 28 10000 1.56 138 20:32 16.06.2022
1498 Rain 21 1015 45 10000 0.18 227 19:32 16.06.2022
1499 Clouds 23 1015 57 10000 0.36 359 17:57 16.06.2022
1500 Clouds 24 1015 48 10000 0.78 13 17:35 16.06.2022
1501 Clouds 22 1015 47 10000 0.84 36 16:30 16.06.2022
1502 Clouds 22 1016 50 10000 1.42 28 15:21 16.06.2022
1503 Clouds 21 1016 43 10000 1.23 36 14:28 16.06.2022
1504 Rain 19 1016 50 10000 0.53 55 12:59 16.06.2022
1505 Rain 20 1016 48 10000 0.28 33 12:35 16.06.2022
1506 Clouds 18 1016 78 10000 0.28 33 11:49 16.06.2022
1507 Clouds 19 1016 24 10000 0.29 356 10:51 16.06.2022
1508 Clouds 17 1015 1 9831 0.48 25 09:43 16.06.2022
1509 Clouds 17 1015 1 8787 0.7 51 09:20 16.06.2022
1510 Clouds 15 1015 1 10000 0.76 70 07:57 16.06.2022
1511 Clouds 14 1015 1 10000 0.49 55 06:51 16.06.2022
1512 Clouds 13 1015 1 10000 0.38 55 04:28 16.06.2022
1513 Rain 14 1015 1 10000 0.68 33 01:54 16.06.2022
1514 Rain 14 1015 1 10000 0.68 33 01:34 16.06.2022
1515 Clouds 14 1015 1 10000 0.36 276 00:36 16.06.2022
1516 Clouds 15 1015 1 10000 1.15 142 23:23 15.06.2022
1517 Clouds 16 1015 27 10000 1.46 137 21:59 15.06.2022
1518 Clouds 17 1014 29 10000 1.43 134 21:20 15.06.2022
1519 Clouds 17 1014 36 10000 1.43 134 20:38 15.06.2022
1520 Clouds 18 1014 39 10000 0.9 157 20:18 15.06.2022
1521 Clouds 20 1014 52 10000 0.9 186 18:48 15.06.2022
1522 Clouds 21 1014 50 10000 0.2 242 17:54 15.06.2022
1523 Clouds 20 1014 61 10000 0.36 305 16:38 15.06.2022
1524 Clouds 21 1015 59 10000 1.37 270 15:26 15.06.2022
1525 Clouds 22 1015 48 10000 1.67 293 13:43 15.06.2022
1526 Clouds 22 1015 47 10000 1.18 313 12:53 15.06.2022
1527 Clouds 21 1015 49 10000 0.66 8 11:42 15.06.2022
1528 Clouds 18 1016 52 10000 1.69 50 10:23 15.06.2022
1529 Clouds 17 1015 52 10000 2.3 51 09:38 15.06.2022
1530 Clouds 16 1015 39 10000 2.62 38 08:27 15.06.2022
1531 Clouds 13 1015 1 10000 2.12 20 06:33 15.06.2022
1532 Clouds 12 1015 16 10000 1.53 10 03:30 15.06.2022
1533 Clouds 14 1015 40 10000 0.36 147 01:38 15.06.2022
1534 Clouds 14 1014 39 10000 1 153 00:50 15.06.2022
1535 Clouds 15 1014 39 10000 1.46 165 23:39 14.06.2022
1536 Clouds 16 1014 37 10000 1.48 165 22:56 14.06.2022
1537 Clouds 17 1013 45 10000 1.79 166 22:18 14.06.2022
1538 Clouds 19 1013 61 10000 2.35 175 21:28 14.06.2022
1539 Clouds 19 1013 53 10000 2.35 175 20:48 14.06.2022
1540 Clouds 20 1012 53 10000 2.95 182 20:28 14.06.2022
1541 Clouds 22 1012 43 10000 2.7 186 18:54 14.06.2022
1542 Clouds 23 1012 39 10000 2.73 199 17:39 14.06.2022
1543 Clouds 22 1012 39 10000 3.57 203 16:43 14.06.2022
1544 Clouds 22 1012 43 10000 2.03 206 15:50 14.06.2022
1545 Clouds 22 1012 43 10000 2.03 206 15:50 14.06.2022
1546 Clouds 21 1012 42 10000 0.93 219 14:57 14.06.2022
1547 Clouds 21 1012 42 10000 0.93 219 14:57 14.06.2022
1548 Clouds 21 1012 41 10000 1.88 241 14:30 14.06.2022
1549 Clouds 21 1013 39 10000 1.41 238 13:40 14.06.2022
1550 Clouds 21 1013 40 10000 0.78 193 12:30 14.06.2022
1551 Clouds 21 1013 44 10000 0.44 137 11:28 14.06.2022
1552 Clouds 20 1013 48 10000 0.44 137 10:44 14.06.2022
1553 Clouds 18 1013 49 10000 0.7 51 09:45 14.06.2022
1554 Clouds 17 1013 52 10000 1.37 33 08:45 14.06.2022
1555 Clouds 15 1013 51 10000 2.28 354 07:26 14.06.2022
1556 Clouds 9 1012 1 10000 2.2 336 04:44 14.06.2022
1557 Clouds 10 1011 7 10000 2.25 333 02:45 14.06.2022
1558 Clouds 13 1008 4 10000 1.86 305 00:28 14.06.2022
1559 Clouds 13 1008 6 10000 1.76 295 23:22 13.06.2022
1560 Clouds 14 1007 15 10000 1.75 267 22:25 13.06.2022
1561 Clouds 14 1007 32 10000 1.75 267 21:48 13.06.2022
1562 Rain 17 1006 43 10000 1.72 231 20:31 13.06.2022
1563 Rain 18 1005 45 10000 2.64 178 19:34 13.06.2022
1564 Clouds 21 1005 33 10000 3.2 187 17:58 13.06.2022
1565 Clouds 20 1005 33 10000 3.2 187 17:38 13.06.2022
1566 Rain 20 1005 44 10000 3.27 190 16:40 13.06.2022
1567 Clouds 21 1005 41 10000 2.71 223 15:38 13.06.2022
1568 Clouds 20 1005 43 10000 2.25 246 14:43 13.06.2022
1569 Clouds 20 1005 45 10000 2.34 251 13:53 13.06.2022
1570 Clouds 19 1005 43 10000 2.11 269 12:48 13.06.2022
1571 Clouds 18 1006 49 10000 2.49 292 11:26 13.06.2022
1572 Clouds 17 1006 48 10000 2.16 283 10:27 13.06.2022
1573 Clear 16 1006 52 10000 2.47 298 09:38 13.06.2022
1574 Clouds 14 1005 52 10000 1.65 274 07:51 13.06.2022
1575 Clouds 10 1005 1 10000 0.95 263 06:28 13.06.2022
1576 Clouds 10 1006 1 10000 1.37 230 03:18 13.06.2022
1577 Clouds 11 1006 1 10000 1.82 220 01:38 13.06.2022
1578 Clouds 12 1006 6 10000 2.31 237 00:22 13.06.2022
1579 Clouds 13 1006 1 10000 2.6 243 23:25 12.06.2022
1580 Clouds 14 1006 1 10000 3.13 248 22:22 12.06.2022
1581 Clouds 15 1006 13 10000 3.44 245 21:28 12.06.2022
1582 Clouds 16 1005 47 10000 4.29 248 20:34 12.06.2022
1583 Rain 18 1005 47 10000 4.29 248 19:36 12.06.2022
1584 Rain 17 1005 13 10000 4.08 237 18:39 12.06.2022
1585 Clouds 19 1006 9 10000 3.65 227 16:42 12.06.2022
1586 Clouds 18 1007 13 10000 4.76 220 15:24 12.06.2022
1587 Clouds 17 1007 3 10000 4.82 222 14:31 12.06.2022
1588 Clouds 18 1007 46 10000 5.27 221 13:55 12.06.2022
1589 Clouds 16 1008 1 10000 4.61 197 12:46 12.06.2022
1590 Clouds 18 1008 5 10000 4.37 193 11:40 12.06.2022
1591 Clouds 17 1008 1 10000 4.39 205 10:45 12.06.2022
1592 Clouds 15 1009 1 10000 4.92 210 09:25 12.06.2022
1593 Clouds 14 1009 1 10000 4.92 210 08:46 12.06.2022
1594 Clouds 13 1009 1 10000 4.72 205 07:38 12.06.2022
1595 Clouds 12 1010 1 10000 3.42 197 05:38 12.06.2022
1596 Clouds 12 1010 1 10000 3.49 201 03:38 12.06.2022
1597 Clear 12 1010 1 10000 3.79 203 01:43 12.06.2022
1598 Clear 13 1010 1 10000 4.32 207 00:58 12.06.2022
1599 Clear 13 1010 1 10000 3.99 208 00:26 12.06.2022
1600 Clear 13 1010 1 10000 3.99 208 23:48 11.06.2022
1601 Clear 13 1010 1 10000 3.99 208 23:48 11.06.2022
1602 Clear 14 1010 1 10000 2.97 197 22:40 11.06.2022
1603 Rain 14 1010 1 10000 3.4 192 22:21 11.06.2022
1604 Rain 14 1010 1 10000 4.62 190 20:50 11.06.2022
1605 Rain 16 1010 57 10000 4.85 187 20:21 11.06.2022
1606 Rain 16 1010 62 10000 4.44 187 19:26 11.06.2022
1607 Rain 16 1010 1 10000 5.11 182 18:36 11.06.2022
1608 Rain 16 1010 1 10000 5.1 182 17:52 11.06.2022
1609 Clouds 16 1011 65 10000 4.49 201 17:29 11.06.2022
1610 Clouds 17 1011 65 10000 4.51 201 16:58 11.06.2022
1611 Rain 16 1011 71 10000 5.03 212 16:30 11.06.2022
1612 Rain 18 1011 71 10000 5.03 212 15:43 11.06.2022
1613 Clouds 18 1012 26 8304 6.27 215 13:53 11.06.2022
1614 Clouds 17 1012 1 10000 5.89 214 13:24 11.06.2022
1615 Clear 19 1011 47 10000 5.7 224 10:55 11.06.2022
1616 Clear 18 1011 30 10000 5.09 222 10:20 11.06.2022
1617 Clear 17 1011 14 10000 4.23 216 09:29 11.06.2022
1618 Clouds 14 1011 1 10000 3.64 209 07:46 11.06.2022
1619 Clouds 13 1011 1 10000 3.88 200 06:30 11.06.2022
1620 Clouds 13 1012 1 10000 3.31 189 05:19 11.06.2022
1621 Clouds 14 1012 1 10000 4.7 194 01:53 11.06.2022
1622 Clouds 14 1012 1 10000 4.53 193 01:33 11.06.2022
1623 Clouds 14 1012 1 10000 4.59 190 00:21 11.06.2022
1624 Clouds 15 1013 1 10000 4.19 185 22:32 10.06.2022
1625 Clouds 15 1013 1 10000 4.69 182 21:52 10.06.2022
1626 Clouds 17 1012 1 10000 4.71 178 20:42 10.06.2022
1627 Clouds 17 1012 1 10000 4.43 172 20:22 10.06.2022
1628 Clouds 17 1012 1 10000 4.43 172 19:38 10.06.2022
1629 Clouds 18 1012 1 10000 4.91 171 19:18 10.06.2022
1630 Clouds 18 1012 1 10000 4.91 171 19:18 10.06.2022
1631 Clouds 18 1012 1 10000 4.91 171 19:18 10.06.2022
1632 Clouds 18 1013 1 10000 5.24 175 18:18 10.06.2022
1633 Clouds 18 1013 18 10000 5.24 175 17:35 10.06.2022
1634 Clouds 19 1013 16 10000 5.24 175 16:55 10.06.2022
1635 Clouds 19 1013 17 10000 5.04 179 15:47 10.06.2022
1636 Clouds 19 1013 1 10000 4.84 183 14:57 10.06.2022
1637 Clouds 17 1013 54 10000 4.48 181 13:41 10.06.2022
1638 Clouds 16 1013 1 10000 3.44 185 12:24 10.06.2022
1639 Clouds 16 1013 1 10000 3.44 185 11:30 10.06.2022
1640 Clouds 16 1014 1 10000 3.09 179 10:37 10.06.2022
1641 Clouds 16 1014 1 10000 2.67 181 09:40 10.06.2022
1642 Clouds 15 1013 1 10000 2.29 175 08:23 10.06.2022
1643 Clouds 14 1014 1 8781 1.53 166 06:51 10.06.2022
1644 Clouds 14 1014 1 8781 1.53 166 06:32 10.06.2022
1645 Clouds 14 1014 1 8905 1.15 161 05:35 10.06.2022
1646 Clouds 14 1013 1 10000 1 158 02:54 10.06.2022
1647 Clouds 14 1013 1 10000 1.01 161 01:37 10.06.2022
1648 Clouds 14 1013 1 10000 1.01 163 23:58 09.06.2022
1649 Clouds 15 1013 1 10000 1.31 170 22:56 09.06.2022
1650 Clouds 16 1012 1 10000 1.63 168 21:46 09.06.2022
1651 Clouds 16 1012 1 10000 2.04 174 21:28 09.06.2022
1652 Clouds 16 1012 1 10000 2.04 174 20:47 09.06.2022
1653 Clouds 18 1011 73 10000 2.39 183 19:54 09.06.2022
1654 Clouds 18 1011 64 10000 2.81 188 18:47 09.06.2022
1655 Clouds 19 1011 59 10000 3.41 189 17:56 09.06.2022
1656 Clouds 19 1010 1 10000 3.79 187 16:44 09.06.2022
1657 Clouds 18 1010 1 10000 3.75 186 15:44 09.06.2022
1658 Clouds 19 1009 50 10000 3.4 183 14:34 09.06.2022
1659 Clouds 18 1009 47 10000 3.28 185 13:46 09.06.2022
1660 Clouds 18 1009 49 10000 2.81 182 13:26 09.06.2022
1661 Clouds 18 1009 53 10000 2.31 182 11:53 09.06.2022
1662 Clouds 17 1009 60 10000 1.9 184 10:40 09.06.2022
1663 Clouds 15 1009 1 10000 2.12 182 09:41 09.06.2022
1664 Clouds 14 1009 1 10000 1.9 174 09:23 09.06.2022
1665 Clouds 14 1008 1 10000 0.62 135 07:29 09.06.2022
1666 Clouds 13 1007 98 10000 0.29 43 05:27 09.06.2022
1667 Clouds 13 1006 1 10000 0.39 81 01:44 09.06.2022
1668 Clouds 14 1004 1 10000 0.73 167 23:24 08.06.2022
1669 Clouds 14 1004 1 10000 0.72 168 22:50 08.06.2022
1670 Clouds 14 1004 1 10000 1.13 182 22:25 08.06.2022
1671 Clouds 15 1004 1 10000 1.13 181 21:49 08.06.2022
1672 Clouds 16 1003 1 10000 1.17 185 20:43 08.06.2022
1673 Rain 17 1003 14 10000 1.08 200 19:49 08.06.2022
1674 Rain 17 1003 27 10000 0.76 230 18:58 08.06.2022
1675 Rain 17 1003 21 10000 0.76 230 18:40 08.06.2022
1676 Rain 19 1002 26 10000 0.42 325 16:34 08.06.2022
1677 Rain 16 1003 1 10000 0.39 128 14:54 08.06.2022
1678 Rain 16 1003 1 10000 1.7 97 13:36 08.06.2022
1679 Clouds 16 1003 1 10000 2.09 104 11:51 08.06.2022
1680 Clouds 16 1003 1 10000 2.38 109 11:24 08.06.2022
1681 Clouds 15 1003 1 10000 2.23 113 09:47 08.06.2022
1682 Clouds 14 1003 1 8457 1.84 123 09:20 08.06.2022
1683 Rain 14 1003 1 10000 1.48 125 08:18 08.06.2022
1684 Clouds 14 1004 1 9834 1.34 31 05:22 08.06.2022
1685 Rain 13 1005 1 10000 1.39 43 02:39 08.06.2022
1686 Rain 14 1007 1 10000 1.17 30 00:21 08.06.2022
1687 Clouds 15 1007 1 10000 1.05 37 23:25 07.06.2022
1688 Clouds 15 1007 1 10000 1.05 37 22:42 07.06.2022
1689 Clouds 16 1008 1 10000 1.01 58 21:59 07.06.2022
1690 Clouds 16 1008 1 9506 0.33 147 21:27 07.06.2022
1691 Clouds 16 1008 1 9511 0.33 145 20:46 07.06.2022
1692 Clouds 16 1008 1 6910 1.34 150 20:24 07.06.2022
1693 Clouds 17 1008 1 10000 2.22 155 19:19 07.06.2022
1694 Rain 18 1008 1 10000 2.53 130 17:55 07.06.2022
1695 Clouds 21 1009 49 10000 3.03 115 16:56 07.06.2022
1696 Clouds 21 1009 50 10000 3.03 115 16:33 07.06.2022
1697 Clouds 21 1009 48 10000 2.91 107 15:42 07.06.2022
1698 Clouds 20 1010 39 10000 2.97 100 15:23 07.06.2022
1699 Clouds 20 1010 41 10000 2.99 100 14:46 07.06.2022
1700 Clouds 20 1010 42 10000 3.84 116 13:50 07.06.2022
1701 Clouds 19 1010 46 10000 3.38 107 13:29 07.06.2022
1702 Clouds 20 1010 46 10000 3.38 107 12:39 07.06.2022
1703 Clouds 18 1012 20 10000 2.24 77 11:22 07.06.2022
1704 Clouds 18 1012 37 10000 1.92 82 09:58 07.06.2022
1705 Clouds 16 1013 3 10000 1.67 87 08:36 07.06.2022
1706 Clouds 15 1013 1 10000 1.43 53 07:22 07.06.2022
1707 Clouds 13 1013 1 10000 1.38 40 05:48 07.06.2022
1708 Clouds 13 1014 1 10000 1.18 39 02:48 07.06.2022
1709 Clouds 15 1014 1 10000 0.97 91 00:35 07.06.2022
1710 Clouds 16 1014 1 10000 0.97 91 23:34 06.06.2022
1711 Clouds 18 1014 35 10000 0.96 140 22:41 06.06.2022
1712 Clouds 20 1014 50 10000 1.6 154 21:41 06.06.2022
1713 Clouds 23 1013 47 10000 2.33 142 19:59 06.06.2022
1714 Clouds 23 1013 46 10000 2.19 175 19:21 06.06.2022
1715 Clouds 25 1013 42 10000 2.19 175 18:46 06.06.2022
1716 Clouds 25 1013 31 10000 2.33 180 17:51 06.06.2022
1717 Clouds 25 1013 35 10000 2.25 180 16:39 06.06.2022
1718 Clouds 25 1014 41 10000 2.3 178 15:40 06.06.2022
1719 Clouds 25 1014 38 10000 2.4 177 14:56 06.06.2022
1720 Clear 23 1016 41 10000 2.35 162 13:31 06.06.2022
1721 Clear 22 1016 45 10000 2.36 162 12:39 06.06.2022
1722 Clear 22 1016 51 10000 2.54 154 12:20 06.06.2022
1723 Clear 21 1016 49 10000 2.54 154 11:42 06.06.2022
1724 Clear 18 1016 51 10000 2.1 123 09:43 06.06.2022
1725 Clouds 16 1018 37 10000 1.75 61 08:35 06.06.2022
1726 Clouds 15 1018 21 10000 1.75 61 07:41 06.06.2022
1727 Clouds 10 1018 1 10000 1.37 45 05:48 06.06.2022
1728 Clouds 9 1018 1 10000 1.49 45 04:28 06.06.2022
1729 Clouds 12 1019 1 10000 1.48 25 01:30 06.06.2022
1730 Clouds 13 1019 5 10000 1.48 25 00:47 06.06.2022
1731 Clouds 13 1018 16 10000 0.94 55 00:28 06.06.2022
1732 Clouds 15 1018 75 10000 0.85 107 22:58 05.06.2022
1733 Clouds 17 1018 68 10000 0.79 107 21:59 05.06.2022
1734 Clouds 20 1016 51 10000 1.76 181 20:23 05.06.2022
1735 Clouds 22 1016 40 10000 2.39 161 18:51 05.06.2022
1736 Clouds 23 1016 32 10000 1.8 151 17:58 05.06.2022
1737 Clouds 22 1016 34 10000 1.8 151 17:38 05.06.2022
1738 Clouds 23 1016 37 10000 1.47 158 17:19 05.06.2022
1739 Clouds 23 1016 39 10000 1.46 158 16:47 05.06.2022
1740 Clouds 22 1017 39 10000 1.34 164 15:22 05.06.2022
1741 Clouds 22 1016 39 10000 1.63 75 13:55 05.06.2022
1742 Clouds 21 1017 40 10000 1.66 81 11:58 05.06.2022
1743 Clouds 19 1017 47 10000 1.8 70 10:45 05.06.2022
1744 Clouds 18 1017 48 10000 1.64 44 10:24 05.06.2022
1745 Clouds 17 1017 50 10000 1.31 21 09:29 05.06.2022
1746 Clouds 14 1017 25 10000 1.33 7 08:23 05.06.2022
1747 Clouds 10 1017 1 10000 0.75 356 05:58 05.06.2022
1748 Clouds 9 1017 1 10000 0.51 342 05:19 05.06.2022
1749 Clouds 11 1018 1 10000 0.39 171 02:23 05.06.2022
1750 Clouds 11 1018 1 10000 0.97 186 01:23 05.06.2022
1751 Clouds 13 1018 1 10000 2.43 182 22:49 04.06.2022
1752 Clouds 16 1018 9 10000 3.88 186 21:25 04.06.2022
1753 Clouds 19 1017 43 10000 5.12 180 19:27 04.06.2022
1754 Clouds 21 1018 52 10000 5.43 178 16:48 04.06.2022
1755 Clouds 21 1018 51 10000 5.81 182 16:20 04.06.2022
1756 Clouds 21 1018 52 10000 5.81 182 15:35 04.06.2022
1757 Clouds 20 1018 57 10000 3.89 194 13:59 04.06.2022
1758 Clouds 19 1018 59 10000 3.69 209 11:41 04.06.2022
1759 Clouds 18 1020 45 10000 3.11 212 10:54 04.06.2022
1760 Clouds 16 1021 1 10000 2.39 208 09:56 04.06.2022
1761 Clouds 16 1021 1 10000 2.38 208 09:38 04.06.2022
1762 Clouds 15 1021 1 10000 1.46 200 08:38 04.06.2022
1763 Clouds 11 1020 1 10000 0.35 308 06:32 04.06.2022
1764 Clouds 10 1020 75 10000 1.04 346 03:57 04.06.2022
1765 Clouds 11 1019 1 10000 1.84 1 00:22 04.06.2022
1766 Clouds 13 1018 81 10000 1.74 341 22:57 03.06.2022
1767 Clouds 13 1017 77 10000 1.59 340 21:54 03.06.2022
1768 Rain 14 1016 1 10000 1.51 338 20:40 03.06.2022
1769 Rain 16 1016 1 10000 1.81 354 19:49 03.06.2022
1770 Clouds 18 1015 60 10000 2.8 346 16:59 03.06.2022
1771 Rain 18 1009 52 10000 0.89 187 15:57 03.06.2022
1772 Clouds 18 1015 52 10000 3.22 334 14:42 03.06.2022
1773 Clouds 17 1014 52 10000 3.59 337 12:21 03.06.2022
1774 Clouds 15 1014 26 10000 3.24 339 09:58 03.06.2022
1775 Clouds 15 1014 9 10000 2.67 338 09:29 03.06.2022
1776 Clouds 13 1013 1 10000 1.59 332 07:50 03.06.2022
1777 Clouds 13 1013 1 10000 1.12 328 07:19 03.06.2022
1778 Clouds 11 1013 1 10000 1.12 330 06:29 03.06.2022
1779 Clouds 10 1012 1 10000 1.24 336 04:35 03.06.2022
1780 Clouds 11 1012 1 10000 0.96 315 00:21 03.06.2022
1781 Clouds 12 1011 1 10000 0.72 300 22:34 02.06.2022
1782 Clouds 15 1009 34 10000 0.98 230 20:58 02.06.2022
1783 Clouds 16 1009 37 10000 1.55 236 19:59 02.06.2022
1784 Clouds 16 1009 43 10000 1.55 237 19:40 02.06.2022
1785 Clouds 16 1009 50 10000 0.74 256 18:59 02.06.2022
1786 Clouds 15 1008 53 10000 1.1 170 16:30 02.06.2022
1787 Clouds 15 1008 46 10000 1.1 170 15:47 02.06.2022
1788 Clouds 14 1008 42 10000 1.64 194 13:38 02.06.2022
1789 Clouds 15 1008 70 10000 1.81 170 13:20 02.06.2022
1790 Clouds 13 1008 46 10000 1.79 187 10:53 02.06.2022
1791 Clouds 13 1008 46 10000 1.79 187 10:19 02.06.2022
1792 Clouds 13 1010 1 10000 2.07 158 09:27 02.06.2022
1793 Clouds 12 1010 1 10000 2.04 155 08:24 02.06.2022
1794 Clouds 11 1009 1 10000 1.53 154 06:26 02.06.2022
1795 Clouds 11 1009 1 10000 2.11 157 03:53 02.06.2022
1796 Clouds 12 1009 1 10000 2.68 173 01:36 02.06.2022
1797 Clouds 12 1009 1 10000 3.44 182 23:36 01.06.2022
1798 Clouds 12 1009 1 10000 3.45 175 22:18 01.06.2022
1799 Clouds 12 1009 1 10000 3.95 175 21:25 01.06.2022
1800 Clouds 12 1006 46 10000 3.95 175 20:39 01.06.2022
1801 Rain 13 1006 46 10000 4.08 172 19:52 01.06.2022
1802 Rain 13 1006 46 10000 4.17 174 18:52 01.06.2022
1803 Clouds 14 1008 1 10000 4.55 180 17:38 01.06.2022
1804 Clouds 14 1007 1 10000 3.99 193 15:56 01.06.2022
1805 Rain 14 1007 1 10000 4.07 199 14:51 01.06.2022
1806 Rain 14 1008 1 10000 3.42 203 13:39 01.06.2022
1807 Clouds 14 1008 1 10000 1.95 213 11:32 01.06.2022
1808 Clouds 14 1008 1 10000 1.07 229 09:34 01.06.2022
1809 Clouds 13 1008 1 10000 1.04 265 08:28 01.06.2022
1810 Clouds 11 1009 1 10000 1.28 274 07:21 01.06.2022
1811 Clouds 10 1009 1 10000 1.24 290 04:58 01.06.2022
1812 Rain 12 1011 1 10000 2.06 332 23:56 31.05.2022
1813 Rain 12 1011 93 10000 1.96 322 22:51 31.05.2022
1814 Rain 13 1011 1 10000 1.83 320 22:28 31.05.2022
1815 Clouds 14 1011 89 10000 1.83 320 21:44 31.05.2022
1816 Clouds 15 1011 10 10000 1.85 330 20:44 31.05.2022
1817 Clouds 16 1011 31 10000 2.12 339 19:52 31.05.2022
1818 Clouds 16 1011 68 10000 2.55 1 18:45 31.05.2022
1819 Clouds 17 1012 53 10000 3.2 10 17:49 31.05.2022
1820 Clouds 18 1012 52 10000 3.75 17 16:48 31.05.2022
1821 Clouds 18 1012 52 10000 3.59 14 15:40 31.05.2022
1822 Clouds 18 1012 52 10000 3.59 14 15:40 31.05.2022
1823 Clouds 18 1012 52 10000 3.87 3 13:38 31.05.2022
1824 Clouds 17 1013 51 10000 3.49 33 12:19 31.05.2022
1825 Clouds 18 1013 48 10000 3.37 40 10:52 31.05.2022
1826 Clouds 13 1014 1 10000 2.32 34 08:37 31.05.2022
1827 Clouds 10 1015 1 10000 1.29 9 06:52 31.05.2022
1828 Clouds 8 1015 1 10000 1.57 4 04:46 31.05.2022
1829 Clouds 10 1015 1 10000 1.2 353 23:53 30.05.2022
1830 Clouds 11 1015 1 10000 1.55 338 23:25 30.05.2022
1831 Clouds 12 1015 1 10000 1.56 338 22:44 30.05.2022
1832 Clouds 13 1015 1 10000 1.68 328 21:47 30.05.2022
1833 Clouds 14 1014 84 10000 1.42 318 21:29 30.05.2022
1834 Clouds 16 1011 77 10000 0.89 121 19:51 30.05.2022
1835 Clouds 13 1014 1 10000 1.68 273 18:34 30.05.2022
1836 Clouds 16 1011 42 10000 1.79 121 17:23 30.05.2022
1837 Clouds 16 1011 42 10000 1.79 121 16:39 30.05.2022
1838 Rain 17 1011 65 10000 0.69 130 13:44 30.05.2022
1839 Rain 16 1013 46 9729 1.48 130 12:19 30.05.2022
1840 Clouds 14 1013 17 10000 1.74 115 10:40 30.05.2022
1841 Clouds 14 1012 11 10000 2.48 87 09:19 30.05.2022
1842 Clouds 9 1012 1 10000 1.62 57 06:30 30.05.2022
1843 Clouds 8 1011 1 10000 1.41 47 05:47 30.05.2022
1844 Clouds 9 1009 1 10000 1.88 62 01:32 30.05.2022
1845 Clouds 9 1008 1 10000 1.38 63 22:54 29.05.2022
1846 Rain 9 1008 1 10000 1.38 63 22:36 29.05.2022
1847 Clouds 11 1007 44 10000 1.8 44 20:53 29.05.2022
1848 Clouds 12 1007 53 10000 1.8 83 19:31 29.05.2022
1849 Clouds 13 1007 55 10000 1.82 84 18:37 29.05.2022
1850 Clouds 14 1007 50 10000 1.66 119 17:23 29.05.2022
1851 Clouds 14 1006 47 10000 0.89 43 15:48 29.05.2022
1852 Clouds 13 1008 49 10000 1.03 167 14:57 29.05.2022
1853 Clouds 13 1008 48 10000 1.22 155 13:52 29.05.2022
1854 Clouds 12 1009 51 10000 1.43 145 11:41 29.05.2022
1855 Clouds 12 1009 51 10000 1.65 122 10:38 29.05.2022
1856 Clouds 11 1009 54 10000 0.94 150 08:47 29.05.2022
1857 Clouds 5 1009 42 10000 0.16 98 05:48 29.05.2022
1858 Clouds 5 1009 50 10000 0.31 50 04:43 29.05.2022
1859 Clouds 7 1009 50 10000 0.43 93 03:41 29.05.2022
1860 Clouds 10 1009 76 10000 0.88 17 23:49 28.05.2022
1861 Clouds 11 1009 54 10000 1.2 64 23:26 28.05.2022
1862 Clouds 12 1009 74 10000 1.2 65 22:33 28.05.2022
1863 Clouds 13 1009 47 10000 2.38 79 21:38 28.05.2022
1864 Clouds 18 1003 39 10000 1.79 56 19:41 28.05.2022
1865 Clouds 18 1003 40 10000 1.79 56 18:47 28.05.2022
1866 Clouds 17 1006 46 10000 3.89 15 17:36 28.05.2022
1867 Clouds 17 1005 32 10000 4.64 13 16:38 28.05.2022
1868 Clouds 18 1005 31 10000 4.66 11 15:43 28.05.2022
1869 Clouds 17 1003 53 10000 2.68 87 14:23 28.05.2022
1870 Clouds 16 1003 55 10000 2.68 87 12:44 28.05.2022
1871 Clouds 16 1003 56 10000 2.68 87 12:18 28.05.2022
1872 Clouds 15 1003 56 10000 2.68 87 11:21 28.05.2022
1873 Clouds 14 1005 52 10000 3.91 329 09:57 28.05.2022
1874 Clouds 13 1005 54 10000 2.57 319 08:45 28.05.2022
1875 Clouds 11 1005 51 10000 1.76 317 07:23 28.05.2022
1876 Clouds 9 1004 30 10000 1.87 314 05:28 28.05.2022
1877 Clouds 9 1004 15 10000 1.85 321 02:44 28.05.2022
1878 Clouds 9 1003 1 10000 1.85 334 00:32 28.05.2022
1879 Clouds 9 1002 1 10000 2.41 342 22:53 27.05.2022
1880 Clouds 10 1002 1 10000 3.13 348 21:44 27.05.2022
1881 Clouds 10 1001 1 10000 3.93 353 20:50 27.05.2022
1882 Clouds 9 1001 1 10000 4.18 349 20:24 27.05.2022
1883 Rain 9 1001 1 10000 3.94 349 19:42 27.05.2022
1884 Rain 9 1001 1 10000 3.2 326 19:21 27.05.2022
1885 Rain 10 1001 1 10000 3.07 321 17:54 27.05.2022
1886 Rain 9 1001 91 6415 3.26 327 16:38 27.05.2022
1887 Clouds 13 1001 47 10000 4.34 343 15:22 27.05.2022
1888 Clouds 12 1000 50 10000 5.07 344 13:53 27.05.2022
1889 Clouds 13 1000 52 10000 4.87 343 12:43 27.05.2022
1890 Clouds 13 1000 53 10000 4.47 346 11:34 27.05.2022
1891 Clouds 13 1000 54 10000 4.11 340 10:55 27.05.2022
1892 Clouds 13 1000 53 10000 4.31 340 10:29 27.05.2022
1893 Clouds 12 1000 53 10000 4.31 340 09:34 27.05.2022
1894 Clouds 10 1000 15 10000 3.99 344 07:50 27.05.2022
1895 Clouds 5 1000 1 10000 2.28 328 05:39 27.05.2022
1896 Clouds 7 1001 9 10000 2.33 342 02:26 27.05.2022
1897 Clouds 9 1000 52 10000 2.69 321 00:26 27.05.2022
1898 Clouds 11 999 55 10000 1.66 273 22:35 26.05.2022
1899 Clouds 12 999 52 10000 1.66 273 21:37 26.05.2022
1900 Clouds 15 998 47 10000 0.49 228 19:58 26.05.2022
1901 Clouds 15 998 44 10000 0.16 310 19:19 26.05.2022
1902 Rain 16 998 47 10000 0.48 40 17:37 26.05.2022
1903 Clouds 16 998 33 10000 0.44 51 16:36 26.05.2022
1904 Clouds 15 998 46 10000 1.79 121 15:45 26.05.2022
1905 Rain 15 998 39 9570 1.79 121 14:24 26.05.2022
1906 Rain 13 1000 1 10000 0.08 97 12:36 26.05.2022
1907 Clouds 11 1000 1 10000 0.61 44 11:23 26.05.2022
1908 Rain 10 999 1 10000 0.69 36 09:40 26.05.2022
1909 Rain 10 999 1 10000 1.1 38 09:19 26.05.2022
1910 Rain 9 999 1 10000 1.19 57 07:51 26.05.2022
1911 Rain 10 1000 1 10000 2.39 161 03:35 26.05.2022
1912 Clouds 10 1001 1 10000 3.28 188 00:33 26.05.2022
1913 Clouds 11 1002 1 10000 3.71 183 23:39 25.05.2022
1914 Clouds 12 1002 1 10000 4.25 186 21:47 25.05.2022
1915 Clouds 12 1002 1 10000 4.65 185 21:28 25.05.2022
1916 Clouds 13 1002 1 10000 5.17 186 20:34 25.05.2022
1917 Clouds 13 1002 1 10000 5.31 185 19:21 25.05.2022
1918 Clouds 16 1000 41 10000 0.89 65 17:33 25.05.2022
1919 Clouds 16 1000 46 10000 0.89 65 16:36 25.05.2022
1920 Clouds 16 1000 32 10000 0.89 65 15:54 25.05.2022
1921 Clouds 17 1000 58 10000 0.89 65 14:51 25.05.2022
1922 Clouds 17 1000 58 10000 0.89 65 14:32 25.05.2022
1923 Clouds 16 1002 37 10000 5.14 196 13:42 25.05.2022
1924 Rain 14 1002 1 10000 4.63 182 12:37 25.05.2022
1925 Clouds 14 1002 1 10000 4.07 199 10:43 25.05.2022
1926 Rain 13 1002 1 10000 4.07 194 09:54 25.05.2022
1927 Rain 12 1002 1 10000 3.56 178 08:23 25.05.2022
1928 Clouds 11 1002 1 10000 2.9 170 07:22 25.05.2022
1929 Clouds 10 1002 1 10000 2.86 163 03:22 25.05.2022
1930 Rain 12 1001 1 9507 2.93 166 23:56 24.05.2022
1931 Rain 12 1001 1 9494 3.37 169 23:25 24.05.2022
1932 Rain 12 1001 1 10000 3.08 165 22:21 24.05.2022
1933 Rain 12 1001 1 10000 3.08 165 21:40 24.05.2022
1934 Rain 12 1000 1 5807 2.92 154 21:20 24.05.2022
1935 Clouds 12 1000 1 10000 2.92 145 19:45 24.05.2022
1936 Clouds 12 1000 1 10000 3.27 138 18:53 24.05.2022
1937 Rain 12 1000 47 10000 0.89 177 16:42 24.05.2022
1938 Rain 12 1001 1 6278 3.1 109 16:22 24.05.2022
1939 Rain 13 1000 47 6340 0.89 128 14:56 24.05.2022
1940 Rain 14 1001 1 6306 3.77 132 14:20 24.05.2022
1941 Clouds 17 1001 53 10000 4.85 134 12:49 24.05.2022
1942 Clouds 17 1002 53 10000 5.13 108 11:26 24.05.2022
1943 Clouds 15 1002 48 10000 4.85 112 09:44 24.05.2022
1944 Clouds 14 1003 22 10000 4.35 108 08:50 24.05.2022
1945 Clouds 12 1004 1 10000 2.79 90 06:57 24.05.2022
1946 Clouds 10 1005 1 10000 1.72 65 04:20 24.05.2022
1947 Clouds 11 1006 1 10000 0.96 39 01:55 24.05.2022
1948 Clouds 11 1006 1 10000 0.96 39 01:36 24.05.2022
1949 Clouds 12 1007 9 10000 0.72 99 23:31 23.05.2022
1950 Clouds 13 1007 26 10000 1.11 126 21:56 23.05.2022
1951 Clouds 14 1007 47 10000 1.66 165 21:29 23.05.2022
1952 Clouds 15 1007 49 10000 1.66 165 20:41 23.05.2022
1953 Clouds 16 1007 49 10000 2.71 176 19:33 23.05.2022
1954 Clouds 16 1007 50 10000 3.79 182 18:59 23.05.2022
1955 Clouds 16 1007 52 10000 4.6 183 18:31 23.05.2022
1956 Clouds 17 1007 56 10000 0.89 117 17:24 23.05.2022
1957 Clouds 17 1007 57 10000 0.89 117 15:31 23.05.2022
1958 Clouds 16 1011 52 10000 4.95 187 13:22 23.05.2022
1959 Clouds 15 1011 47 10000 4.9 185 11:34 23.05.2022
1960 Clouds 14 1011 44 10000 4.9 185 10:42 23.05.2022
1961 Clouds 14 1011 42 10000 4.6 185 09:39 23.05.2022
1962 Clouds 12 1010 1 10000 4.29 184 08:38 23.05.2022
1963 Clouds 11 1010 1 10000 3.07 171 06:47 23.05.2022
1964 Clouds 11 1011 1 8933 2.08 150 06:22 23.05.2022
1965 Clouds 10 1011 99 10000 1.38 133 02:35 23.05.2022
1966 Clouds 10 1012 1 10000 1.4 153 01:42 23.05.2022
1967 Clouds 10 1012 1 10000 1.39 154 00:44 23.05.2022
1968 Clouds 11 1012 1 10000 1.71 162 22:43 22.05.2022
1969 Clouds 12 1012 4 10000 2.34 176 21:56 22.05.2022
1970 Clouds 13 1012 9 10000 2.34 176 21:36 22.05.2022
1971 Clouds 14 1012 39 10000 3.11 177 20:37 22.05.2022
1972 Clouds 14 1011 42 10000 3.1 176 20:18 22.05.2022
1973 Clouds 16 1011 52 10000 2.56 190 18:58 22.05.2022
1974 Clouds 16 1011 53 10000 2.56 190 18:31 22.05.2022
1975 Clouds 16 1011 53 10000 2.48 196 17:51 22.05.2022
1976 Clouds 16 1011 42 10000 2.29 192 16:51 22.05.2022
1977 Clouds 16 1011 47 10000 1.84 179 14:56 22.05.2022
1978 Clouds 16 1011 47 10000 1.4 162 14:35 22.05.2022
1979 Clouds 15 1012 13 10000 1.12 112 12:54 22.05.2022
1980 Clouds 14 1012 1 10000 0.92 113 11:53 22.05.2022
1981 Clouds 13 1012 1 10000 1.13 162 10:29 22.05.2022
1982 Clouds 12 1013 1 10000 1.07 166 09:19 22.05.2022
1983 Clouds 10 1013 1 10000 0.68 174 07:34 22.05.2022
1984 Clouds 10 1013 1 10000 0.52 188 06:41 22.05.2022
1985 Clouds 10 1013 1 10000 0.48 247 03:25 22.05.2022
1986 Clouds 10 1013 1 10000 0.25 183 00:49 22.05.2022
1987 Clouds 10 1013 1 10000 0.41 200 23:56 21.05.2022
1988 Clouds 10 1013 1 10000 0.63 223 23:27 21.05.2022
1989 Clouds 11 1013 1 10000 0.67 221 21:59 21.05.2022
1990 Clouds 11 1013 1 10000 0.67 221 21:34 21.05.2022
1991 Clouds 12 1012 1 10000 0.14 111 20:34 21.05.2022
1992 Clouds 12 1012 1 10000 0.14 111 19:44 21.05.2022
1993 Clouds 12 1012 82 10000 1.18 209 18:45 21.05.2022
1994 Rain 12 1012 1 10000 1.36 202 16:57 21.05.2022
1995 Clouds 11 1012 91 10000 0.64 138 14:49 21.05.2022
1996 Clouds 11 1011 1 10000 0.98 103 13:55 21.05.2022
1997 Rain 10 1011 1 10000 1.31 109 13:25 21.05.2022
1998 Rain 10 1011 1 10000 1.31 109 12:38 21.05.2022
1999 Rain 10 1010 1 10000 1.82 97 11:25 21.05.2022
2000 Clouds 11 1009 1 5132 2.39 101 10:21 21.05.2022
2001 Rain 11 1009 1 6591 2.63 100 08:59 21.05.2022
2002 Rain 11 1009 1 6591 2.63 100 08:38 21.05.2022
2003 Clouds 11 1009 1 8171 1.71 86 06:20 21.05.2022
2004 Clouds 12 1010 1 10000 1.52 82 01:41 21.05.2022
2005 Rain 13 1011 1 10000 2.14 89 23:35 20.05.2022
2006 Clouds 13 1012 1 10000 3.12 87 22:30 20.05.2022
2007 Clouds 14 1012 1 10000 3.13 87 21:56 20.05.2022
2008 Clouds 14 1011 1 10000 3.96 80 21:19 20.05.2022
2009 Clouds 15 1011 1 10000 3.96 80 20:47 20.05.2022
2010 Clouds 15 1011 1 10000 4.25 84 19:45 20.05.2022
2011 Clouds 16 1011 18 10000 4.36 86 18:53 20.05.2022
2012 Clouds 17 1012 44 10000 4.5 82 17:53 20.05.2022
2013 Clouds 18 1012 48 10000 4.23 85 16:23 20.05.2022
2014 Clouds 19 1012 50 10000 4.23 86 15:54 20.05.2022
2015 Clouds 18 1013 42 10000 3.33 81 14:44 20.05.2022
2016 Clouds 19 1013 40 10000 3.62 81 14:26 20.05.2022
2017 Clouds 19 1014 51 10000 4.28 56 11:52 20.05.2022
2018 Clouds 18 1014 41 10000 3.69 54 10:45 20.05.2022
2019 Clouds 15 1013 1 10000 2.02 32 09:23 20.05.2022
2020 Clouds 12 1013 1 10000 0.5 336 07:43 20.05.2022
2021 Clouds 12 1013 1 10000 0.79 212 06:40 20.05.2022
2022 Clouds 11 1013 1 10000 0.44 81 05:39 20.05.2022
2023 Clouds 12 1013 1 10000 0.91 158 01:29 20.05.2022
2024 Clouds 13 1013 1 10000 0.71 174 23:46 19.05.2022
2025 Clouds 14 1013 1 10000 1.87 166 22:35 19.05.2022
2026 Clouds 15 1013 1 10000 1.87 166 21:50 19.05.2022
2027 Clouds 16 1013 72 10000 2.22 174 21:23 19.05.2022
2028 Clouds 15 1013 1 10000 2.22 175 20:47 19.05.2022
2029 Clouds 17 1013 11 10000 3.06 180 19:54 19.05.2022
2030 Clouds 17 1013 14 10000 3.66 190 19:00 19.05.2022
2031 Clouds 17 1013 1 10000 3.61 189 17:44 19.05.2022
2032 Clouds 18 1014 35 10000 3.04 200 15:51 19.05.2022
2033 Rain 18 1014 30 10000 2.44 208 14:47 19.05.2022
2034 Rain 16 1015 37 10000 2.21 206 14:20 19.05.2022
2035 Clouds 14 1016 44 10000 1.71 189 11:54 19.05.2022
2036 Clouds 15 1016 47 10000 1.37 128 10:30 19.05.2022
2037 Clouds 9 1017 66 10000 1.31 59 08:39 19.05.2022
2038 Clouds 10 1018 1 10000 1.06 58 07:18 19.05.2022
2039 Clouds 10 1019 1 10000 0.58 330 03:41 19.05.2022
2040 Clouds 10 1019 1 10000 1.03 226 00:57 19.05.2022
2041 Clouds 10 1019 1 10000 1.28 223 23:35 18.05.2022
2042 Clouds 11 1019 1 10000 1.59 205 22:43 18.05.2022
2043 Clouds 11 1019 1 10000 2.16 194 21:43 18.05.2022
2044 Clouds 11 1019 1 10000 3.01 194 21:23 18.05.2022
2045 Clouds 12 1019 1 10000 3.72 195 20:19 18.05.2022
2046 Clouds 12 1019 1 10000 4.86 190 18:56 18.05.2022
2047 Rain 12 1020 1 10000 4.53 195 17:56 18.05.2022
2048 Clouds 12 1020 69 10000 5.11 187 17:36 18.05.2022
2049 Rain 12 1020 69 10000 5.12 188 17:18 18.05.2022
2050 Rain 14 1021 15 10000 5.2 191 15:52 18.05.2022
2051 Rain 15 1021 55 10000 6.06 195 15:33 18.05.2022
2052 Clouds 17 1021 39 10000 6.02 189 14:21 18.05.2022
2053 Clouds 17 1021 37 10000 5.95 192 12:55 18.05.2022
2054 Clouds 17 1022 36 10000 5.71 194 12:24 18.05.2022
2055 Clouds 16 1022 53 10000 5.21 197 11:33 18.05.2022
2056 Clouds 16 1022 49 10000 5.21 197 10:43 18.05.2022
2057 Clear 12 1024 55 10000 2.77 190 08:19 18.05.2022
2058 Clear 10 1024 49 10000 1.91 188 07:27 18.05.2022
2059 Clear 6 1025 54 10000 1.44 175 03:59 18.05.2022
2060 Clear 9 1026 52 10000 1.46 167 00:51 18.05.2022
2061 Clear 9 1026 52 10000 1.45 168 00:51 18.05.2022
2062 Clear 9 1025 48 10000 1.57 172 23:41 17.05.2022
2063 Clear 15 1024 36 10000 2.16 195 21:22 17.05.2022
2064 Clear 17 1023 30 10000 2.16 195 20:44 17.05.2022
2065 Clear 19 1023 29 10000 3.21 189 19:41 17.05.2022
2066 Clear 19 1023 28 10000 3.18 187 19:20 17.05.2022
2067 Clear 19 1023 26 10000 2.81 191 17:49 17.05.2022
2068 Clear 20 1024 28 10000 2.51 196 16:57 17.05.2022
2069 Clear 19 1024 28 10000 2.27 196 15:59 17.05.2022
2070 Clear 18 1025 31 10000 1.95 188 14:55 17.05.2022
2071 Clear 17 1025 33 10000 1.71 173 14:28 17.05.2022
2072 Clear 16 1025 32 10000 1.64 166 13:24 17.05.2022
2073 Clear 12 1027 41 10000 1.23 127 10:42 17.05.2022
2074 Clear 10 1027 48 10000 1.61 82 08:51 17.05.2022
2075 Clear 8 1027 52 10000 1.49 72 07:55 17.05.2022
2076 Clear 6 1027 57 10000 1.24 26 06:26 17.05.2022
2077 Clear 8 1025 51 10000 2.04 32 01:34 17.05.2022
2078 Clear 9 1024 45 10000 2.55 43 23:46 16.05.2022
2079 Clear 10 1024 43 10000 2.19 36 22:39 16.05.2022
2080 Clear 13 1022 42 10000 1.17 160 21:24 16.05.2022
2081 Clear 14 1022 35 10000 1.18 160 20:42 16.05.2022
2082 Clouds 18 1021 24 10000 2.11 152 18:51 16.05.2022
2083 Clouds 17 1021 24 10000 1.28 156 17:26 16.05.2022
2084 Clouds 17 1021 26 10000 1.07 117 15:35 16.05.2022
2085 Clouds 15 1022 30 10000 0.73 121 13:48 16.05.2022
2086 Clouds 13 1023 33 10000 0.91 90 12:44 16.05.2022
2087 Clouds 12 1024 43 10000 1.7 65 10:38 16.05.2022
2088 Clouds 9 1025 51 10000 1.8 60 08:32 16.05.2022
2089 Clouds 7 1025 57 10000 1.41 61 06:30 16.05.2022
2090 Clouds 7 1025 57 10000 1.41 61 06:30 16.05.2022
2091 Clouds 10 1023 55 10000 3.09 47 01:43 16.05.2022
2092 Clouds 12 1021 56 10000 3.68 50 22:52 15.05.2022
2093 Clouds 13 1020 52 10000 1.65 44 22:25 15.05.2022
2094 Clouds 15 1017 56 10000 1.17 200 21:38 15.05.2022
2095 Clouds 16 1017 56 10000 0.95 194 20:53 15.05.2022
2096 Clouds 17 1017 52 10000 3.26 178 18:52 15.05.2022
2097 Clouds 18 1017 39 10000 2.98 202 17:29 15.05.2022
2098 Clouds 18 1017 31 10000 1.35 258 14:58 15.05.2022
2099 Clouds 17 1016 28 10000 1.61 305 13:46 15.05.2022
2100 Clouds 16 1017 45 10000 1.71 263 12:21 15.05.2022
2101 Clouds 16 1017 48 10000 1.53 249 11:29 15.05.2022
2102 Clouds 14 1017 52 10000 1.25 242 09:58 15.05.2022
2103 Clear 9 1017 42 10000 1.36 356 07:25 15.05.2022
2104 Clear 8 1017 36 10000 1.36 356 06:56 15.05.2022
2105 Clear 6 1015 48 10000 2.04 329 03:40 15.05.2022
2106 Clouds 8 1013 55 10000 2.18 310 00:47 15.05.2022
2107 Clouds 9 1013 57 10000 2.19 310 23:38 14.05.2022
2108 Clouds 10 1012 55 10000 2.56 308 22:41 14.05.2022
2109 Clouds 12 1011 49 10000 4.02 281 21:27 14.05.2022
2110 Clouds 14 1010 45 10000 4.21 280 20:30 14.05.2022
2111 Clouds 15 1009 39 10000 3.77 308 19:21 14.05.2022
2112 Clouds 16 1009 33 10000 3.76 308 18:59 14.05.2022
2113 Clouds 16 1008 30 10000 4.49 311 17:53 14.05.2022
2114 Clouds 17 1007 31 10000 4.83 307 16:23 14.05.2022
2115 Clouds 17 1006 32 10000 4.4 303 14:56 14.05.2022
2116 Clouds 17 1006 30 10000 3.49 291 14:30 14.05.2022
2117 Clouds 15 1002 51 10000 3.14 327 12:18 14.05.2022
2118 Clouds 13 1002 51 10000 3.32 331 10:53 14.05.2022
2119 Clouds 13 1002 52 10000 3.61 323 10:20 14.05.2022
2120 Clouds 13 1005 42 10000 3.61 323 09:46 14.05.2022
2121 Clouds 11 1003 55 10000 3.16 308 07:59 14.05.2022
2122 Clear 8 1000 1 10000 1.35 265 05:26 14.05.2022
2123 Clouds 10 999 31 10000 3.46 214 01:57 14.05.2022
2124 Clouds 10 1000 1 10000 4.39 225 23:31 13.05.2022
2125 Clouds 10 1000 1 10000 4.39 225 22:57 13.05.2022
2126 Clouds 11 1000 1 10000 4.42 227 22:23 13.05.2022
2127 Clouds 11 1000 1 10000 4.42 227 21:35 13.05.2022
2128 Rain 11 1000 1 10000 4.25 222 20:43 13.05.2022
2129 Rain 12 1000 1 10000 4.07 221 20:23 13.05.2022
2130 Clouds 12 1000 1 10000 5.05 223 19:21 13.05.2022
2131 Clouds 13 1000 52 10000 5.46 213 17:50 13.05.2022
2132 Clouds 13 1000 15 10000 5.25 201 17:26 13.05.2022
2133 Clouds 15 1002 55 10000 5.89 208 15:53 13.05.2022
2134 Clouds 15 1002 57 10000 0.89 64 14:51 13.05.2022
2135 Clouds 14 1001 35 10000 4.82 218 12:58 13.05.2022
2136 Clouds 14 1002 35 10000 4.5 212 12:25 13.05.2022
2137 Clouds 13 1002 53 10000 3.61 207 10:42 13.05.2022
2138 Clouds 12 1002 54 10000 2.71 230 09:29 13.05.2022
2139 Clouds 11 1003 55 10000 1.61 227 08:20 13.05.2022
2140 Clouds 10 1003 56 10000 1.1 229 07:31 13.05.2022
2141 Clouds 8 1003 51 10000 1.19 216 05:58 13.05.2022
2142 Clouds 8 1003 57 10000 1.33 238 02:43 13.05.2022
2143 Clouds 9 1002 56 10000 1.64 250 23:44 12.05.2022
2144 Clouds 10 1002 54 10000 3.05 264 22:43 12.05.2022
2145 Clouds 11 1002 48 10000 3.24 265 21:46 12.05.2022
2146 Clouds 14 1000 41 10000 4.65 269 20:23 12.05.2022
2147 Clouds 16 1000 33 10000 2.68 32 18:31 12.05.2022
2148 Clouds 16 999 39 10000 5.7 273 16:57 12.05.2022
2149 Clouds 15 999 41 10000 5.95 271 15:49 12.05.2022
2150 Clouds 15 997 42 10000 6.13 268 13:59 12.05.2022
2151 Clouds 15 997 43 10000 5.02 273 13:24 12.05.2022
2152 Clouds 14 997 50 10000 5.01 280 10:40 12.05.2022
2153 Clouds 12 996 55 10000 4.41 267 08:59 12.05.2022
2154 Clouds 12 996 55 10000 4.41 267 08:39 12.05.2022
2155 Clouds 10 995 44 10000 2.87 255 07:37 12.05.2022
2156 Clouds 7 995 1 10000 1.91 240 05:30 12.05.2022
2157 Clouds 8 995 22 10000 3.17 216 02:24 12.05.2022
2158 Clouds 9 995 1 10000 3.76 208 23:56 11.05.2022
2159 Clouds 10 995 1 10000 3.53 212 22:31 11.05.2022
2160 Clouds 11 995 1 10000 3.53 212 21:32 11.05.2022
2161 Clouds 11 995 1 10000 3.67 220 20:53 11.05.2022
2162 Clouds 12 995 50 10000 5.47 209 18:24 11.05.2022
2163 Clouds 13 996 1 10000 5.7 195 16:50 11.05.2022
2164 Rain 12 998 1 10000 6.12 205 14:50 11.05.2022
2165 Rain 13 998 56 10000 6.63 217 14:26 11.05.2022
2166 Rain 13 998 56 10000 6.63 217 13:51 11.05.2022
2167 Clouds 16 998 42 10000 6.3 193 11:51 11.05.2022
2168 Clouds 12 1000 1 10000 4.8 202 10:27 11.05.2022
2169 Clear 10 1000 1 10000 3.74 210 08:33 11.05.2022
2170 Clouds 7 1001 1 10000 1.74 212 04:44 11.05.2022
2171 Clouds 8 1000 1 10000 1.77 222 00:42 11.05.2022
2172 Clouds 10 1000 1 10000 3.38 205 22:30 10.05.2022
2173 Clouds 11 1000 1 10000 3.38 205 21:47 10.05.2022
2174 Clouds 11 1000 1 10000 4.3 204 20:52 10.05.2022
2175 Clouds 12 1001 1 10000 5.1 194 19:26 10.05.2022
2176 Clouds 12 1001 1 10000 5.46 197 17:49 10.05.2022
2177 Clouds 12 1002 1 10000 5.36 195 16:49 10.05.2022
2178 Clouds 11 1004 1 10000 5.99 187 14:33 10.05.2022
2179 Clouds 11 1005 1 9657 6.29 185 12:39 10.05.2022
2180 Rain 11 1006 1 10000 6.22 177 11:49 10.05.2022
2181 Rain 12 1007 85 10000 5.98 177 11:18 10.05.2022
2182 Rain 12 1008 1 10000 5.2 181 09:59 10.05.2022
2183 Clouds 11 1009 1 10000 4.67 180 09:25 10.05.2022
2184 Rain 9 1011 1 10000 4.82 192 06:46 10.05.2022
2185 Rain 10 1015 50 10000 4.9 196 03:29 10.05.2022
2186 Clouds 10 1017 1 10000 4.78 194 00:34 10.05.2022
2187 Clouds 11 1019 1 10000 5 191 22:52 09.05.2022
2188 Clouds 11 1019 37 10000 5.22 189 21:50 09.05.2022
2189 Clouds 13 1020 60 10000 5.89 187 20:30 09.05.2022
2190 Clouds 15 1020 55 10000 6.35 188 18:43 09.05.2022
2191 Clouds 14 1020 55 10000 6.62 184 17:44 09.05.2022
2192 Clouds 17 1021 32 10000 7.23 184 16:30 09.05.2022
2193 Clouds 17 1021 32 10000 7.23 184 16:30 09.05.2022
2194 Clouds 17 1022 39 10000 1.79 312 15:51 09.05.2022
2195 Clouds 17 1022 35 10000 1.79 312 14:54 09.05.2022
2196 Clouds 17 1022 34 10000 1.79 312 14:29 09.05.2022
2197 Clouds 17 1021 31 10000 6.36 183 13:40 09.05.2022
2198 Clouds 16 1023 42 10000 4.43 192 12:18 09.05.2022
2199 Clouds 15 1024 30 10000 3.81 192 10:55 09.05.2022
2200 Clouds 13 1024 54 10000 3.83 192 10:36 09.05.2022
2201 Clouds 10 1025 50 10000 3.81 201 08:36 09.05.2022
2202 Clouds 9 1025 28 10000 3.81 201 07:52 09.05.2022
2203 Clouds 6 1027 57 10000 2.66 186 03:19 09.05.2022
2204 Clouds 9 1028 49 10000 2.29 180 23:34 08.05.2022
2205 Clouds 9 1028 46 10000 2.08 181 22:52 08.05.2022
2206 Clouds 11 1027 39 10000 2.5 200 21:48 08.05.2022
2207 Clouds 13 1027 30 10000 3.35 202 20:35 08.05.2022
2208 Clouds 14 1026 29 10000 3.99 200 19:43 08.05.2022
2209 Clouds 15 1026 28 10000 3.8 204 18:53 08.05.2022
2210 Clouds 16 1026 28 10000 2.68 214 17:57 08.05.2022
2211 Clouds 15 1026 28 10000 2.3 221 16:42 08.05.2022
2212 Clouds 15 1027 32 10000 1.93 207 15:26 08.05.2022
2213 Clouds 14 1026 29 10000 2.08 208 14:44 08.05.2022
2214 Clouds 13 1028 33 10000 0.83 148 12:25 08.05.2022
2215 Clear 10 1028 36 10000 0.45 340 10:31 08.05.2022
2216 Clear 9 1028 37 10000 0.45 342 09:57 08.05.2022
2217 Clear 9 1028 37 10000 0.45 340 09:57 08.05.2022
2218 Clear 8 1028 43 10000 0.71 326 08:55 08.05.2022
2219 Clouds 4 1027 51 10000 0.63 10 06:58 08.05.2022
2220 Clouds 3 1025 55 10000 1.4 5 03:35 08.05.2022
2221 Clouds 4 1025 52 10000 1.61 5 02:41 08.05.2022
2222 Clouds 6 1023 46 10000 3.94 45 00:24 08.05.2022
2223 Clouds 7 1023 43 10000 3.94 45 23:49 07.05.2022
2224 Clouds 9 1022 41 10000 4.14 38 22:46 07.05.2022
2225 Clouds 10 1021 37 10000 3.85 44 21:58 07.05.2022
2226 Clouds 11 1019 39 10000 2.07 353 21:33 07.05.2022
2227 Clouds 13 1018 33 10000 4.16 7 20:28 07.05.2022
2228 Clouds 15 1016 29 10000 4.03 304 19:23 07.05.2022
2229 Clouds 16 1016 29 10000 0.92 119 17:34 07.05.2022
2230 Clouds 15 1016 32 10000 2.26 113 15:41 07.05.2022
2231 Clouds 14 1017 43 10000 3.94 80 12:50 07.05.2022
2232 Clouds 13 1016 43 10000 4.86 54 10:41 07.05.2022
2233 Clear 12 1013 50 10000 4.45 6 08:57 07.05.2022
2234 Clouds 11 1012 55 10000 3.26 340 07:50 07.05.2022
2235 Clouds 10 1011 1 10000 2.02 308 06:43 07.05.2022
2236 Clouds 8 1009 1 10000 1.54 285 04:35 07.05.2022
2237 Clouds 11 1009 1 10000 2.73 206 01:19 07.05.2022
2238 Rain 12 1010 1 10000 4.49 215 23:36 06.05.2022
2239 Rain 13 1010 1 10000 4.84 216 22:26 06.05.2022
2240 Rain 13 1010 1 10000 4.83 216 21:41 06.05.2022
2241 Clouds 14 1010 54 10000 5.26 221 20:24 06.05.2022
2242 Clouds 16 1010 45 10000 5.1 215 19:29 06.05.2022
2243 Clouds 16 1010 45 10000 5.1 215 19:29 06.05.2022
2244 Clouds 18 1010 45 10000 5.1 216 18:56 06.05.2022
2245 Clouds 17 1010 53 10000 5.1 183 17:38 06.05.2022
2246 Clouds 18 1012 51 10000 5.69 180 15:56 06.05.2022
2247 Clouds 19 1012 43 10000 5.69 180 15:38 06.05.2022
2248 Clouds 19 1013 33 10000 4.85 189 14:23 06.05.2022
2249 Clouds 17 1013 44 10000 4.18 197 12:53 06.05.2022
2250 Clear 17 1014 45 10000 3.56 197 12:30 06.05.2022
2251 Clear 16 1014 46 10000 3.56 197 11:38 06.05.2022
2252 Clear 13 1016 54 10000 2.28 210 09:49 06.05.2022
2253 Clear 12 1016 55 10000 1.54 207 09:19 06.05.2022
2254 Clear 9 1017 56 10000 0.84 236 07:57 06.05.2022
2255 Clear 5 1016 47 10000 1.11 312 06:29 06.05.2022
2256 Clear 5 1016 57 10000 1.23 313 04:37 06.05.2022
2257 Clear 6 1016 58 10000 1.46 312 02:43 06.05.2022
2258 Clouds 9 1015 58 10000 0.84 315 23:34 05.05.2022
2259 Clouds 11 1014 51 10000 0.34 241 21:52 05.05.2022
2260 Clouds 14 1014 44 10000 1.06 178 20:53 05.05.2022
2261 Clouds 16 1013 39 10000 1.76 180 19:49 05.05.2022
2262 Clouds 18 1011 53 10000 2.48 214 16:53 05.05.2022
2263 Clouds 18 1011 51 10000 2.66 209 15:52 05.05.2022
2264 Clouds 18 1011 49 10000 2.87 218 14:43 05.05.2022
2265 Clouds 17 1011 50 10000 2.45 238 13:20 05.05.2022
2266 Clouds 16 1011 50 10000 2.55 237 12:24 05.05.2022
2267 Clouds 13 1011 56 10000 1.97 232 10:30 05.05.2022
2268 Clouds 11 1011 39 10000 1.97 232 09:34 05.05.2022
2269 Clouds 7 1012 1 10000 0.51 257 07:19 05.05.2022
2270 Clouds 6 1013 5 10000 0.98 196 02:33 05.05.2022
2271 Clouds 6 1013 28 10000 1.01 183 01:47 05.05.2022
2272 Clouds 7 1013 32 10000 1.82 176 01:21 05.05.2022
2273 Clouds 8 1013 49 10000 3.13 182 23:31 04.05.2022
2274 Clouds 9 1013 55 10000 3.61 183 22:25 04.05.2022
2275 Clouds 9 1013 58 10000 3.6 183 21:49 04.05.2022
2276 Clouds 10 1013 57 10000 4.29 184 21:26 04.05.2022
2277 Clouds 11 1013 50 10000 4.63 182 20:22 04.05.2022
2278 Clouds 12 1013 61 10000 4.53 182 19:51 04.05.2022
2279 Clouds 12 1013 42 10000 4.76 180 18:49 04.05.2022
2280 Clouds 12 1013 40 10000 5.1 184 18:20 04.05.2022
2281 Clouds 13 1014 45 10000 5.46 187 17:29 04.05.2022
2282 Clouds 13 1014 46 10000 5.37 188 15:38 04.05.2022
2283 Clouds 13 1014 46 10000 5.37 188 15:38 04.05.2022
2284 Clouds 13 1014 46 10000 5.37 188 14:59 04.05.2022
2285 Clouds 13 1015 47 10000 5.03 190 14:20 04.05.2022
2286 Clouds 12 1015 56 10000 4.31 193 13:18 04.05.2022
2287 Clouds 12 1016 55 10000 3.95 195 12:29 04.05.2022
2288 Clouds 9 1017 53 10000 3.5 190 10:33 04.05.2022
2289 Clouds 7 1018 52 10000 1.59 162 09:28 04.05.2022
2290 Clouds 6 1018 51 10000 1.59 162 08:33 04.05.2022
2291 Clouds 1 1018 1 10000 1.17 51 05:50 04.05.2022
2292 Clouds 2 1019 31 10000 1.24 50 02:43 04.05.2022
2293 Clouds 5 1018 58 10000 1.2 108 23:31 03.05.2022
2294 Clouds 7 1017 58 10000 1.65 155 22:20 03.05.2022
2295 Clouds 8 1017 56 10000 1.65 155 21:36 03.05.2022
2296 Clouds 9 1017 46 10000 2.69 190 20:52 03.05.2022
2297 Clouds 11 1016 40 10000 4.21 195 19:45 03.05.2022
2298 Clouds 11 1016 42 10000 4.79 187 18:50 03.05.2022
2299 Clouds 12 1016 35 10000 5.28 185 17:45 03.05.2022
2300 Clouds 13 1015 30 10000 5.22 193 16:35 03.05.2022
2301 Clouds 13 1016 31 10000 3.25 213 14:51 03.05.2022
2302 Clouds 11 1017 36 10000 1.76 194 12:47 03.05.2022
2303 Clouds 10 1018 38 10000 1.54 204 12:27 03.05.2022
2304 Clouds 10 1018 39 10000 1.02 184 10:52 03.05.2022
2305 Clouds 7 1018 44 10000 1.73 99 08:58 03.05.2022
2306 Clear 4 1017 57 10000 1.71 66 06:46 03.05.2022
2307 Clear 3 1016 57 10000 1.13 10 04:58 03.05.2022
2308 Clouds 7 1013 43 10000 1.94 32 00:19 03.05.2022
2309 Clouds 9 1012 36 10000 2.48 22 22:36 02.05.2022
2310 Clouds 10 1012 33 10000 2.48 22 21:51 02.05.2022
2311 Clouds 11 1011 35 10000 4.06 33 20:51 02.05.2022
2312 Clouds 15 1007 37 10000 3.27 313 18:37 02.05.2022
2313 Clouds 15 1007 38 10000 3.27 313 17:53 02.05.2022
2314 Clouds 15 1007 38 10000 3.27 313 17:33 02.05.2022
2315 Clouds 14 1008 44 10000 3.02 296 16:21 02.05.2022
2316 Clouds 14 1008 45 10000 2.89 299 15:29 02.05.2022
2317 Clouds 14 1008 44 10000 3.21 293 13:50 02.05.2022
2318 Clouds 14 1009 39 10000 3.59 285 12:18 02.05.2022
2319 Clouds 13 1009 46 10000 3.59 285 10:38 02.05.2022
2320 Clear 11 1010 49 10000 2 264 08:49 02.05.2022
2321 Clouds 9 1011 55 10000 1.28 253 07:39 02.05.2022
2322 Clouds 9 1011 55 10000 1.28 253 07:39 02.05.2022
2323 Clouds 6 1014 57 10000 1.37 199 02:51 02.05.2022
2324 Clouds 9 1017 46 10000 2.5 181 00:24 02.05.2022
2325 Clouds 9 1017 46 10000 2.5 181 23:47 01.05.2022
2326 Clouds 10 1018 45 10000 2.99 185 22:20 01.05.2022
2327 Clouds 11 1018 46 10000 3.59 184 21:18 01.05.2022
2328 Clouds 14 1018 45 10000 3.91 184 19:51 01.05.2022
2329 Clouds 14 1018 35 10000 3.97 181 18:57 01.05.2022
2330 Clouds 15 1018 32 10000 4.63 187 18:27 01.05.2022
2331 Clouds 15 1018 30 10000 4.52 199 17:26 01.05.2022
2332 Clouds 15 1019 33 10000 3.25 207 16:23 01.05.2022
2333 Clouds 15 1020 33 10000 2.95 210 15:24 01.05.2022
2334 Clouds 15 1020 39 10000 2.8 210 13:42 01.05.2022
2335 Clouds 12 1022 49 10000 1.39 187 10:53 01.05.2022
2336 Clouds 9 1023 55 10000 0.4 80 08:53 01.05.2022
2337 Clouds 9 1023 55 10000 0.4 80 08:53 01.05.2022
2338 Clouds 7 1023 53 10000 0.78 17 07:55 01.05.2022
2339 Clouds 6 1022 55 10000 0.64 22 03:31 01.05.2022
2340 Clouds 7 1022 55 10000 0.05 69 23:49 30.04.2022
2341 Clouds 9 1022 54 10000 0.95 219 21:44 30.04.2022
2342 Clouds 11 1021 47 10000 1.3 216 20:45 30.04.2022
2343 Clouds 12 1020 42 10000 1.73 215 19:41 30.04.2022
2344 Clouds 13 1020 38 10000 1.92 224 17:45 30.04.2022
2345 Clouds 13 1021 37 10000 2.01 226 16:42 30.04.2022
2346 Clouds 13 1021 37 10000 1.87 221 15:46 30.04.2022
2347 Clouds 13 1022 36 10000 1.75 222 14:43 30.04.2022
2348 Clouds 13 1023 35 10000 1.7 221 12:42 30.04.2022
2349 Clouds 13 1024 39 10000 0.82 205 11:34 30.04.2022
2350 Clouds 12 1024 42 10000 0.82 205 10:44 30.04.2022
2351 Clear 10 1025 45 10000 0.36 45 09:25 30.04.2022
2352 Clouds 5 1026 57 10000 0.76 20 06:43 30.04.2022
2353 Clouds 7 1026 57 10000 0.78 10 02:36 30.04.2022
2354 Clouds 9 1026 46 10000 0.65 335 23:37 29.04.2022
2355 Clouds 9 1026 48 10000 0.25 16 22:31 29.04.2022
2356 Clouds 9 1026 49 10000 0.25 16 21:39 29.04.2022
2357 Clouds 11 1026 44 10000 0.36 87 20:49 29.04.2022
2358 Clouds 12 1025 40 10000 0.29 85 19:45 29.04.2022
2359 Clouds 13 1026 34 10000 0.76 283 17:55 29.04.2022
2360 Clouds 14 1026 36 10000 0.93 275 17:21 29.04.2022
2361 Clouds 13 1026 34 10000 0.91 271 15:49 29.04.2022
2362 Clouds 13 1027 35 10000 0.27 265 14:22 29.04.2022
2363 Clouds 11 1028 37 10000 0.43 127 12:52 29.04.2022
2364 Clouds 11 1005 35 10000 2.24 225 11:49 29.04.2022
2365 Clouds 8 1006 46 10000 1.59 66 08:51 29.04.2022
2366 Clouds 6 1006 53 10000 0.45 270 07:28 29.04.2022
2367 Clouds 5 1005 54 10000 0.45 270 06:39 29.04.2022
2368 Clouds 5 1029 57 10000 1.55 7 04:53 29.04.2022
2369 Clouds 7 1004 49 10000 0.45 270 00:39 29.04.2022
2370 Clouds 8 1003 41 10000 0.45 225 23:28 28.04.2022
2371 Clouds 9 1028 51 10000 3.43 47 22:41 28.04.2022
2372 Clouds 9 1027 47 10000 2.41 34 21:47 28.04.2022
2373 Clouds 9 1026 45 10000 1.37 20 21:19 28.04.2022
2374 Clouds 12 1002 35 10000 2 2 20:25 28.04.2022
2375 Clouds 13 1025 36 10000 2 2 19:41 28.04.2022
2376 Clouds 13 1001 35 10000 2.07 349 19:22 28.04.2022
2377 Clouds 14 1001 35 10000 0.45 225 18:36 28.04.2022
2378 Clouds 14 1001 35 10000 1.35 336 17:24 28.04.2022
2379 Clouds 13 1024 42 10000 1.36 336 16:40 28.04.2022
2380 Clouds 14 1001 37 10000 1.51 333 16:18 28.04.2022
2381 Clouds 14 1002 38 10000 2.16 331 15:28 28.04.2022
2382 Clouds 11 1002 46 10000 0.45 90 13:44 28.04.2022
2383 Clouds 11 1002 45 10000 0.45 90 12:44 28.04.2022
2384 Clouds 11 1002 47 10000 2.08 331 11:58 28.04.2022
2385 Clouds 10 1002 49 10000 1.8 331 10:46 28.04.2022
2386 Clouds 9 1002 52 10000 1.51 323 09:54 28.04.2022
2387 Clouds 5 1024 49 10000 0.93 305 08:31 28.04.2022
2388 Clouds 4 1001 36 10000 0.45 90 07:19 28.04.2022
2389 Clouds 3 1001 36 10000 0.45 90 05:56 28.04.2022
2390 Clouds 1 1024 8 10000 0.89 298 05:38 28.04.2022
2391 Clouds 3 1001 41 10000 0.71 286 04:39 28.04.2022
2392 Clouds 4 1025 59 10000 1.37 160 00:30 28.04.2022
2393 Clouds 5 1002 56 10000 1.3 150 22:40 27.04.2022
2394 Clouds 6 1001 56 10000 0.45 315 21:55 27.04.2022
2395 Clouds 7 1002 55 10000 0.45 90 21:18 27.04.2022
2396 Clouds 8 1001 48 10000 0.45 90 20:37 27.04.2022
2397 Clouds 9 1002 44 10000 0.45 218 19:38 27.04.2022
2398 Clouds 10 1001 42 10000 0.45 90 19:18 27.04.2022
2399 Clouds 10 1002 41 10000 1.63 20 18:22 27.04.2022
2400 Clouds 10 1002 41 10000 1.63 20 18:22 27.04.2022
2401 Clouds 10 1002 41 10000 1.63 20 18:22 27.04.2022
2402 Clouds 10 1002 41 10000 1.63 20 18:22 27.04.2022
2403 Clouds 9 1025 51 10000 1.67 15 16:58 27.04.2022
2404 Clouds 9 1003 42 10000 0.45 225 15:21 27.04.2022
2405 Clouds 9 1004 42 10000 0.45 270 12:25 27.04.2022
2406 Rain 6 1004 60 10000 0.89 133 11:20 27.04.2022
2407 Rain 4 1004 58 10000 0.89 225 09:43 27.04.2022
2408 Rain 4 1003 52 10000 0.45 272 07:18 27.04.2022
2409 Clouds 4 1002 49 10000 1.95 36 04:45 27.04.2022
2410 Clouds 5 1001 45 10000 0.45 225 01:34 27.04.2022
2411 Clouds 5 1000 45 10000 0.89 268 00:38 27.04.2022
2412 Clouds 6 1000 45 10000 0.45 250 23:39 26.04.2022
2413 Clouds 6 1000 45 10000 0.45 270 23:18 26.04.2022
2414 Clouds 7 999 45 10000 0.45 248 22:39 26.04.2022
2415 Clouds 7 999 44 10000 0.45 270 21:37 26.04.2022
2416 Clouds 8 1022 47 10000 3.44 47 20:52 26.04.2022
2417 Clouds 9 1021 48 10000 3.16 46 20:30 26.04.2022
2418 Clouds 11 997 34 10000 0.45 270 19:32 26.04.2022
2419 Clouds 11 997 35 10000 3.66 40 18:45 26.04.2022
2420 Clouds 11 1020 39 10000 3.57 36 17:59 26.04.2022
2421 Clouds 12 997 35 10000 0.45 270 16:58 26.04.2022
2422 Clouds 11 1019 40 10000 3.16 36 14:27 26.04.2022
2423 Clouds 11 1019 41 10000 3.25 38 13:33 26.04.2022
2424 Clouds 9 1019 47 10000 3.47 41 11:57 26.04.2022
2425 Rain 9 1019 49 10000 3.77 44 10:37 26.04.2022
2426 Clouds 7 996 51 10000 0.45 270 09:25 26.04.2022
2427 Clouds 6 995 53 10000 0.45 270 07:38 26.04.2022
2428 Clouds 8 993 54 10000 0.89 266 04:33 26.04.2022
2429 Clouds 9 1016 52 10000 3.51 38 01:30 26.04.2022
2430 Clouds 11 992 45 10000 0.45 270 00:26 26.04.2022
2431 Clouds 11 1015 49 10000 3.38 38 22:46 25.04.2022
2432 Clouds 12 1015 49 10000 3.59 48 21:42 25.04.2022
2433 Clouds 13 1014 43 10000 4.03 53 20:40 25.04.2022
2434 Clouds 17 1012 39 10000 3.96 56 18:58 25.04.2022
2435 Clouds 18 1012 30 10000 4.36 51 17:54 25.04.2022
2436 Clouds 18 1012 31 10000 3.7 47 16:59 25.04.2022
2437 Clouds 18 1012 33 10000 2.51 24 15:29 25.04.2022
2438 Clouds 17 1012 35 10000 2.51 24 14:46 25.04.2022
2439 Clouds 17 1013 36 10000 2.23 17 13:35 25.04.2022
2440 Clouds 14 1013 39 10000 1.83 347 11:43 25.04.2022
2441 Clouds 12 1014 49 10000 1.47 317 10:26 25.04.2022
2442 Clouds 8 992 54 10000 1.26 308 08:46 25.04.2022
2443 Clouds 6 992 60 10000 1.11 315 06:45 25.04.2022
2444 Clouds 5 993 50 10000 1.02 317 04:27 25.04.2022
2445 Clouds 4 1017 57 10000 1.76 359 00:58 25.04.2022
2446 Clouds 4 1017 57 10000 1.88 3 23:51 24.04.2022
2447 Clouds 6 1017 58 10000 2.01 5 22:45 24.04.2022
2448 Clouds 6 1017 56 10000 2.1 358 22:26 24.04.2022
2449 Clear 9 993 46 10000 2 2 21:26 24.04.2022
2450 Clear 9 1017 52 10000 2 2 20:54 24.04.2022
2451 Clear 10 1017 49 10000 2 2 20:35 24.04.2022
2452 Clouds 12 994 36 10000 0.89 91 19:46 24.04.2022
2453 Clouds 13 994 34 10000 0.45 270 18:20 24.04.2022
2454 Clouds 14 994 29 10000 0.89 269 17:28 24.04.2022
2455 Clouds 14 1017 35 10000 3 44 16:59 24.04.2022
2456 Clouds 13 1017 34 10000 3 44 16:32 24.04.2022
2457 Clouds 13 1017 30 10000 3.07 47 15:54 24.04.2022
2458 Clouds 13 1018 35 10000 3.27 45 15:29 24.04.2022
2459 Clouds 12 1019 37 10000 3.5 46 13:56 24.04.2022
2460 Clouds 12 1019 38 10000 3.78 45 13:25 24.04.2022
2461 Clear 9 1020 51 10000 4.07 46 11:56 24.04.2022
2462 Clear 10 997 45 10000 0.45 270 11:28 24.04.2022
2463 Clear 8 997 46 10000 0.45 248 10:24 24.04.2022
2464 Clear 7 997 51 10000 4.62 41 09:19 24.04.2022
2465 Clouds 5 997 54 10000 0.45 225 06:18 24.04.2022
2466 Clouds 6 1022 55 10000 2.74 19 03:43 24.04.2022
2467 Clear 7 999 49 10000 0.45 225 01:38 24.04.2022
2468 Clear 8 999 45 10000 2.97 55 00:22 24.04.2022
2469 Clouds 9 998 46 10000 3.25 37 23:26 23.04.2022
2470 Clouds 9 998 46 10000 0.89 270 22:55 23.04.2022
2471 Clouds 9 998 46 10000 0.45 270 21:51 23.04.2022
2472 Clouds 9 998 46 10000 0.89 270 21:32 23.04.2022
2473 Clouds 10 997 42 10000 0.45 227 20:36 23.04.2022
2474 Clouds 12 997 40 10000 0.45 270 19:46 23.04.2022
2475 Clouds 13 997 37 10000 0.45 225 19:19 23.04.2022
2476 Clouds 13 997 35 10000 1.34 225 18:46 23.04.2022
2477 Clouds 14 997 35 10000 0.45 270 17:50 23.04.2022
2478 Clouds 14 1021 39 10000 5 27 16:56 23.04.2022
2479 Clouds 15 1021 36 10000 5.49 36 16:23 23.04.2022
2480 Clouds 16 998 32 10000 0.89 270 14:47 23.04.2022
2481 Clouds 14 1022 43 10000 4.25 40 12:22 23.04.2022
2482 Clouds 11 1023 48 10000 4.04 46 10:40 23.04.2022
2483 Clouds 12 1023 48 10000 4.05 46 10:40 23.04.2022
2484 Clouds 10 1000 50 10000 0.89 270 08:55 23.04.2022
2485 Clouds 8 1000 53 10000 2.05 42 05:47 23.04.2022
2486 Clouds 10 1000 53 10000 2.46 56 03:54 23.04.2022
2487 Clouds 11 1023 53 10000 2.69 37 00:46 23.04.2022
2488 Clouds 13 999 41 10000 0.45 270 23:27 22.04.2022
2489 Clouds 15 998 39 10000 0.45 270 21:59 22.04.2022
2490 Clouds 14 1022 46 10000 3.66 39 21:40 22.04.2022
2491 Clouds 16 1022 42 10000 4.19 42 20:45 22.04.2022
2492 Clouds 17 1022 40 10000 4.27 56 20:25 22.04.2022
2493 Clouds 18 1021 38 10000 4.38 54 19:18 22.04.2022
2494 Clouds 18 1021 54 10000 4.38 54 18:35 22.04.2022
2495 Clouds 18 1021 52 10000 4.59 54 17:37 22.04.2022
2496 Clouds 21 1021 33 10000 4.43 45 16:30 22.04.2022
2497 Clouds 20 1022 40 10000 4.4 46 15:32 22.04.2022
2498 Clouds 20 1022 35 10000 4.4 46 14:43 22.04.2022
2499 Clear 19 1022 37 10000 4.08 42 13:42 22.04.2022
2500 Clear 18 1023 39 10000 4.53 42 12:55 22.04.2022
2501 Clear 17 1023 42 10000 4.55 45 11:41 22.04.2022
2502 Clear 16 1024 42 10000 4.17 46 11:18 22.04.2022
2503 Clear 15 1024 44 10000 4.17 46 10:47 22.04.2022
2504 Clear 15 1024 44 10000 3.86 40 10:25 22.04.2022
2505 Clear 14 1024 48 10000 3.87 40 09:42 22.04.2022
2506 Clear 12 1001 48 10000 1.34 270 08:49 22.04.2022
2507 Clouds 8 1024 47 10000 2.05 13 06:56 22.04.2022
2508 Clouds 8 1025 56 10000 2.1 9 01:49 22.04.2022
2509 Clouds 9 1025 57 10000 2.25 7 23:49 21.04.2022
2510 Clouds 10 1025 56 10000 2.32 14 22:52 21.04.2022
2511 Clouds 12 1025 53 10000 2.54 24 21:56 21.04.2022
2512 Clouds 15 1024 43 10000 2.94 40 20:34 21.04.2022
2513 Clouds 16 1024 40 10000 2.83 38 19:51 21.04.2022
2514 Clouds 19 1000 33 10000 0.89 270 18:34 21.04.2022
2515 Clouds 19 1024 35 10000 3.4 43 17:47 21.04.2022
2516 Clouds 19 1024 36 10000 3.71 45 16:28 21.04.2022
2517 Clouds 18 1025 40 10000 3.68 45 15:20 21.04.2022
2518 Clouds 18 1025 42 10000 3.69 45 14:38 21.04.2022
2519 Clouds 16 1025 48 10000 3.63 46 13:23 21.04.2022
2520 Clouds 16 1025 48 10000 3.63 46 13:23 21.04.2022
2521 Clouds 16 1026 50 10000 3.47 47 12:36 21.04.2022
2522 Clouds 12 1026 56 10000 2.75 42 10:20 21.04.2022
2523 Clouds 10 1026 48 10000 2.21 39 08:54 21.04.2022
2524 Clouds 9 1002 34 10000 0.45 270 06:55 21.04.2022
2525 Clouds 9 1002 34 10000 0.45 270 06:55 21.04.2022
2526 Clouds 7 1025 23 10000 1.31 27 04:36 21.04.2022
2527 Clouds 8 1025 45 10000 1.46 37 03:26 21.04.2022
2528 Clouds 9 1025 50 10000 1.47 37 02:46 21.04.2022
2529 Clouds 9 1025 50 10000 1.47 37 02:46 21.04.2022
2530 Clouds 10 1025 56 10000 1.94 34 00:43 21.04.2022
2531 Clouds 10 1024 56 10000 1.99 26 23:49 20.04.2022
2532 Clouds 10 1024 56 10000 1.95 33 23:21 20.04.2022
2533 Clouds 11 1024 55 10000 1.96 32 22:45 20.04.2022
2534 Clouds 12 1024 54 10000 1.95 39 22:26 20.04.2022
2535 Clouds 14 1023 51 10000 1.87 50 21:24 20.04.2022
2536 Clear 16 1023 43 10000 1.91 67 20:23 20.04.2022
2537 Clear 16 1023 43 10000 1.91 67 20:23 20.04.2022
2538 Clear 17 1023 42 10000 1.91 67 19:51 20.04.2022
2539 Clear 20 1000 33 10000 0.45 270 18:55 20.04.2022
2540 Clear 21 999 33 10000 0.45 270 17:53 20.04.2022
2541 Clear 21 1022 35 10000 2.52 71 16:40 20.04.2022
2542 Clear 20 1023 37 10000 2.34 70 15:50 20.04.2022
2543 Clouds 18 1023 42 10000 2.17 68 13:50 20.04.2022
2544 Clouds 15 1024 47 10000 1.67 66 11:44 20.04.2022
2545 Clouds 14 1024 52 10000 1.33 70 10:56 20.04.2022
2546 Clouds 11 1025 56 10000 0.94 70 09:46 20.04.2022
2547 Clouds 11 1002 49 10000 0.91 58 08:59 20.04.2022
2548 Clear 9 1002 48 10000 0.81 35 08:20 20.04.2022
2549 Clear 9 1002 49 10000 0.87 44 06:56 20.04.2022
2550 Clear 10 1000 40 10000 1.24 12 03:34 20.04.2022
2551 Clear 11 1000 39 10000 0.9 21 00:22 20.04.2022
2552 Clear 11 1000 37 10000 0.9 21 23:37 19.04.2022
2553 Clear 10 1022 34 10000 1.06 347 22:25 19.04.2022
2554 Clear 12 999 31 10000 1.06 347 21:55 19.04.2022
2555 Clear 11 1022 34 10000 1.2 309 21:22 19.04.2022
2556 Clear 13 1022 43 10000 1.2 309 20:41 19.04.2022
2557 Clear 14 1021 38 10000 1.21 277 19:52 19.04.2022
2558 Clear 18 998 27 10000 1.27 250 18:47 19.04.2022
2559 Clear 19 1021 30 10000 1.37 204 17:32 19.04.2022
2560 Clear 18 1021 38 10000 1.37 204 16:43 19.04.2022
2561 Clear 18 1021 36 10000 1.33 191 16:22 19.04.2022
2562 Clear 17 1021 39 10000 1.37 171 14:50 19.04.2022
2563 Clouds 17 1021 45 10000 1.3 157 13:49 19.04.2022
2564 Clouds 15 1021 47 10000 1.19 144 12:50 19.04.2022
2565 Clouds 13 1021 52 10000 0.84 133 11:55 19.04.2022
2566 Clouds 11 1021 56 10000 0.3 124 10:46 19.04.2022
2567 Clouds 7 1021 12 10000 0.41 78 09:19 19.04.2022
2568 Clouds 4 997 73 10000 0.54 20 05:56 19.04.2022
2569 Clouds 4 997 39 10000 0.28 120 03:26 19.04.2022
2570 Clouds 3 1020 1 10000 0.61 157 00:55 19.04.2022
2571 Clouds 6 997 40 10000 0.89 171 23:30 18.04.2022
2572 Clouds 8 1020 31 10000 1.6 184 21:30 18.04.2022
2573 Clouds 9 1020 48 10000 1.6 184 20:56 18.04.2022
2574 Clouds 12 997 53 10000 2.11 174 20:32 18.04.2022
2575 Clouds 11 1020 57 10000 2.11 174 19:51 18.04.2022
2576 Clouds 14 997 47 10000 0.45 180 18:57 18.04.2022
2577 Clouds 15 997 45 10000 0.45 180 17:57 18.04.2022
2578 Clouds 15 997 44 10000 0.45 180 17:34 18.04.2022
2579 Clouds 14 1020 52 10000 2.93 188 16:59 18.04.2022
2580 Clouds 14 1020 54 10000 2.88 191 16:32 18.04.2022
2581 Clouds 14 999 47 10000 2.75 195 14:59 18.04.2022
2582 Clouds 15 999 42 10000 0.45 180 13:39 18.04.2022
2583 Clouds 14 1000 44 10000 0.45 226 12:32 18.04.2022
2584 Clouds 12 1000 52 10000 0.45 90 11:35 18.04.2022
2585 Clouds 2 1022 61 10000 1.14 186 10:32 18.04.2022
2586 Clouds 2 1022 61 10000 1.14 186 09:31 18.04.2022
2587 Clouds 3 1001 50 10000 0.54 177 08:18 18.04.2022
2588 Clouds 3 1001 47 10000 0.45 315 05:45 18.04.2022
2589 Clouds 5 1002 48 10000 1.23 172 00:49 18.04.2022
2590 Clouds 6 1002 42 10000 1.35 184 22:42 17.04.2022
2591 Clouds 7 1003 41 10000 1.48 193 21:49 17.04.2022
2592 Clouds 7 1003 38 10000 0.45 270 21:27 17.04.2022
2593 Clouds 9 1003 36 10000 0.45 270 20:50 17.04.2022
2594 Clouds 11 1003 46 10000 0.89 270 19:40 17.04.2022
2595 Clouds 13 1003 50 10000 0.89 270 18:21 17.04.2022
2596 Clouds 15 1026 51 10000 2.04 197 16:32 17.04.2022
2597 Clouds 14 1027 55 10000 1.86 196 15:28 17.04.2022
2598 Clouds 16 1005 42 10000 0.89 270 14:25 17.04.2022
2599 Clouds 15 1006 45 10000 0.45 270 13:20 17.04.2022
2600 Clouds 11 1028 51 10000 0.8 136 12:28 17.04.2022
2601 Clouds 8 1029 58 10000 0.61 112 10:46 17.04.2022
2602 Clouds 8 1029 64 10000 0.68 82 10:28 17.04.2022
2603 Clouds 4 1029 64 10000 0.68 82 09:37 17.04.2022
2604 Clouds 5 1007 81 10000 0.68 50 08:54 17.04.2022
2605 Clouds 4 1007 46 10000 0.67 30 07:53 17.04.2022
2606 Clouds 4 1007 49 10000 0.75 1 04:51 17.04.2022
2607 Clouds 3 1031 1 10000 0.71 352 01:38 17.04.2022
2608 Clouds 5 1008 42 10000 0.35 49 23:57 16.04.2022
2609 Clouds 6 1008 73 10000 0.45 90 22:41 16.04.2022
2610 Clouds 7 1009 41 10000 0.89 266 21:41 16.04.2022
2611 Clouds 8 1008 47 10000 0.45 248 20:35 16.04.2022
2612 Clouds 11 1008 50 10000 0.45 180 19:20 16.04.2022
2613 Clouds 13 1008 47 10000 0.45 270 18:32 16.04.2022
2614 Clouds 15 1031 43 10000 1.95 208 16:41 16.04.2022
2615 Clouds 15 1032 36 10000 1.7 215 15:46 16.04.2022
2616 Clouds 15 1032 36 10000 1.81 223 14:57 16.04.2022
2617 Clouds 14 1033 40 10000 1.75 226 13:58 16.04.2022
2618 Clouds 14 1033 40 10000 1.44 223 13:40 16.04.2022
2619 Clouds 13 1034 51 10000 1.04 234 12:33 16.04.2022
2620 Clouds 11 1034 56 10000 0.65 237 11:19 16.04.2022
2621 Clouds 7 1034 47 10000 0.42 270 09:57 16.04.2022
2622 Clouds 6 1011 52 10000 0.45 135 08:59 16.04.2022
2623 Clouds 5 1011 44 10000 0.45 137 08:31 16.04.2022
2624 Clouds 4 1011 65 10000 0.51 291 06:59 16.04.2022
2625 Clouds 2 1034 35 10000 0.44 257 03:48 16.04.2022
2626 Clouds 4 1034 56 10000 0.59 207 00:35 16.04.2022
2627 Clouds 6 1034 59 10000 0.62 239 23:27 15.04.2022
2628 Clouds 7 1034 53 10000 0.62 239 22:37 15.04.2022
2629 Clouds 8 1034 51 10000 0.47 232 21:59 15.04.2022
2630 Clouds 8 1033 50 10000 0.42 217 21:18 15.04.2022
2631 Clouds 9 1033 48 10000 0.42 216 21:18 15.04.2022
2632 Clouds 9 1033 50 10000 0.44 216 21:18 15.04.2022
2633 Clouds 10 1032 51 10000 0.48 223 20:27 15.04.2022
2634 Clouds 11 1033 43 10000 0.24 359 19:40 15.04.2022
2635 Clouds 14 1008 33 10000 0.45 270 18:55 15.04.2022
2636 Clouds 14 1008 31 10000 0.45 270 18:26 15.04.2022
2637 Clouds 14 1032 35 10000 0.46 286 17:49 15.04.2022
2638 Clouds 14 1031 35 10000 0.7 271 17:22 15.04.2022
2639 Clouds 14 1031 36 10000 0.45 271 16:24 15.04.2022
2640 Clouds 13 1031 38 10000 0.43 258 15:37 15.04.2022
2641 Clouds 12 1032 42 10000 0.31 288 13:55 15.04.2022
2642 Clouds 12 1031 45 10000 0.11 200 12:46 15.04.2022
2643 Clouds 11 1031 48 10000 0.45 156 11:59 15.04.2022
2644 Clouds 11 1031 49 10000 0.44 155 11:40 15.04.2022
2645 Clouds 10 1031 57 10000 0.46 154 10:45 15.04.2022
2646 Clouds 8 1030 37 10000 0.7 151 09:57 15.04.2022
2647 Clouds 6 1030 15 10000 0.59 103 09:21 15.04.2022
2648 Clouds 3 1030 1 10000 0.67 49 08:24 15.04.2022
2649 Clouds 1 1029 1 10000 1.22 30 06:47 15.04.2022
2650 Clouds 3 1004 45 10000 1.77 356 04:28 15.04.2022
2651 Clouds 4 1001 45 10000 1.68 347 00:32 15.04.2022
2652 Clouds 4 1001 44 10000 1.89 358 23:20 14.04.2022
2653 Clouds 5 1001 44 10000 1.89 358 22:44 14.04.2022
2654 Clouds 5 1000 44 10000 2.07 7 22:25 14.04.2022
2655 Clouds 6 1000 44 10000 0.45 270 21:39 14.04.2022
2656 Clouds 7 1021 1 10000 2.52 24 19:24 14.04.2022
2657 Clouds 8 997 42 10000 0.45 270 18:38 14.04.2022
2658 Clouds 7 1021 1 10000 3.01 35 17:45 14.04.2022
2659 Clouds 7 1020 1 10000 3.13 35 16:49 14.04.2022
2660 Clouds 7 1020 1 10000 3.17 31 15:50 14.04.2022
2661 Clouds 6 995 44 10000 0.45 275 13:52 14.04.2022
2662 Clouds 6 995 44 533 0.45 270 13:20 14.04.2022
2663 Clouds 6 994 45 243 0.45 272 12:32 14.04.2022
2664 Clouds 5 1018 1 40 2 8 11:37 14.04.2022
2665 Clouds 5 994 46 33 2 3 10:58 14.04.2022
2666 Clouds 5 993 46 32 0.89 132 10:31 14.04.2022
2667 Clouds 4 993 48 42 0.45 270 09:28 14.04.2022
2668 Clouds 4 992 49 42 0.45 313 07:54 14.04.2022
2669 Clouds 4 992 48 46 0.45 310 05:35 14.04.2022
2670 Clouds 4 993 48 65 1.89 2 00:22 14.04.2022
2671 Clouds 4 994 48 72 0.45 270 22:37 13.04.2022
2672 Clouds 4 994 48 79 1.74 12 21:42 13.04.2022
2673 Clouds 4 994 48 83 0.45 251 20:39 13.04.2022
2674 Clouds 4 995 48 63 0.45 312 19:48 13.04.2022
2675 Clouds 4 994 49 60 0.45 270 18:37 13.04.2022
2676 Rain 4 994 48 103 0.45 227 17:25 13.04.2022
2677 Rain 4 995 48 104 0.89 270 16:52 13.04.2022
2678 Rain 4 995 46 2102 0.45 267 15:45 13.04.2022
2679 Rain 4 995 46 3903 2.16 87 15:23 13.04.2022
2680 Rain 5 997 46 4940 0.45 270 14:34 13.04.2022
2681 Clouds 5 1021 1 7522 1.13 71 13:37 13.04.2022
2682 Rain 5 1021 1 7712 1.14 71 12:51 13.04.2022
2683 Rain 5 998 46 6087 0.45 47 11:32 13.04.2022
2684 Rain 5 998 43 10000 0.45 90 10:27 13.04.2022
2685 Rain 5 998 60 10000 0.45 270 08:45 13.04.2022
2686 Clouds 5 998 56 10000 0.5 89 07:57 13.04.2022
2687 Clouds 4 1020 59 10000 0.53 51 06:48 13.04.2022
2688 Clouds 4 1020 59 10000 0.62 106 06:24 13.04.2022
2689 Clouds 4 1021 58 10000 0.72 142 01:51 13.04.2022
2690 Clouds 5 1022 57 10000 0.77 161 00:19 13.04.2022
2691 Clouds 5 1022 54 10000 0.8 186 22:33 12.04.2022
2692 Clouds 6 1022 49 10000 1.15 196 21:51 12.04.2022
2693 Clouds 7 1021 48 10000 0.99 165 20:48 12.04.2022
2694 Clouds 8 1021 46 10000 1.52 190 20:19 12.04.2022
2695 Clouds 8 1021 43 10000 1.65 194 19:40 12.04.2022
2696 Clouds 8 1021 43 10000 1.65 194 19:40 12.04.2022
2697 Clouds 9 1021 39 10000 2.37 176 18:56 12.04.2022
2698 Clouds 10 1020 35 10000 2.44 186 17:39 12.04.2022
2699 Clouds 10 1020 37 10000 2.52 199 16:46 12.04.2022
2700 Clouds 11 998 28 10000 2.52 206 15:34 12.04.2022
2701 Clouds 11 1020 36 10000 2.46 206 14:48 12.04.2022
2702 Clouds 10 1020 33 10000 2.24 207 13:45 12.04.2022
2703 Clouds 10 1021 35 10000 1.69 202 13:24 12.04.2022
2704 Clouds 9 1020 42 10000 1.17 185 11:57 12.04.2022
2705 Clouds 7 1021 46 10000 0.76 154 11:32 12.04.2022
2706 Clouds 5 1021 49 10000 0.29 141 09:47 12.04.2022
2707 Clouds 4 997 49 10000 0.26 32 08:38 12.04.2022
2708 Clouds 1 996 52 10000 0.52 341 06:46 12.04.2022
2709 Clouds -1 1020 60 10000 0.71 358 05:40 12.04.2022
2710 Clouds 0 1019 59 10000 0.97 340 02:36 12.04.2022
2711 Clouds 2 1018 57 10000 1.09 337 23:20 11.04.2022
2712 Clouds 4 1017 51 10000 1.46 346 21:59 11.04.2022
2713 Clouds 5 1017 48 10000 1.66 350 21:22 11.04.2022
2714 Clouds 6 1016 42 10000 1.68 353 20:34 11.04.2022
2715 Clear 8 1016 38 10000 1.39 359 19:59 11.04.2022
2716 Clear 9 1015 33 10000 1.54 344 19:26 11.04.2022
2717 Clear 9 1015 31 10000 1.54 344 18:53 11.04.2022
2718 Clear 10 1015 27 10000 1.67 346 17:58 11.04.2022
2719 Clear 10 1015 27 10000 1.67 346 17:38 11.04.2022
2720 Clear 11 1014 26 10000 1.85 342 16:33 11.04.2022
2721 Clear 10 1014 29 10000 2.67 309 14:49 11.04.2022
2722 Clouds 10 1014 30 10000 2.17 289 13:34 11.04.2022
2723 Clouds 9 1013 33 10000 1.9 298 12:38 11.04.2022
2724 Clouds 9 1013 35 10000 1.77 306 12:19 11.04.2022
2725 Clouds 7 1013 40 10000 1.54 315 10:36 11.04.2022
2726 Clouds 5 1012 46 10000 1.38 307 09:41 11.04.2022
2727 Clouds 2 989 53 10000 1.34 313 07:58 11.04.2022
2728 Clouds 2 986 53 10000 1.04 308 04:18 11.04.2022
2729 Clouds 5 1006 54 10000 1.43 306 23:27 10.04.2022
2730 Clouds 6 1005 52 10000 1.4 300 22:26 10.04.2022
2731 Clouds 6 1005 50 10000 1.4 300 21:43 10.04.2022
2732 Clouds 7 1005 48 10000 1.73 293 20:50 10.04.2022
2733 Clouds 8 1004 42 10000 1.96 291 19:54 10.04.2022
2734 Clouds 9 1004 41 10000 1.96 291 19:33 10.04.2022
2735 Clouds 10 1003 38 10000 2.22 297 18:46 10.04.2022
2736 Clouds 12 1002 34 10000 2.98 304 18:20 10.04.2022
2737 Clouds 12 1002 33 10000 2.99 304 17:41 10.04.2022
2738 Clouds 12 1001 32 10000 3.6 303 16:47 10.04.2022
2739 Clouds 12 1001 31 10000 4 296 15:37 10.04.2022
2740 Clouds 12 1000 31 10000 4.39 288 14:37 10.04.2022
2741 Clouds 11 999 34 10000 4.45 296 12:50 10.04.2022
2742 Clouds 11 999 34 10000 4.48 298 12:26 10.04.2022
2743 Clouds 9 998 38 10000 4.28 297 11:29 10.04.2022
2744 Clouds 9 998 42 10000 4.27 297 10:57 10.04.2022
2745 Clouds 8 997 45 10000 4.36 291 10:20 10.04.2022
2746 Clouds 7 998 44 10000 4.37 291 09:39 10.04.2022
2747 Clouds 6 975 45 10000 0.45 225 08:24 10.04.2022
2748 Clouds 5 974 46 10000 0.45 268 07:47 10.04.2022
2749 Clouds 5 973 48 10000 0.45 227 06:19 10.04.2022
2750 Clouds 5 971 48 10000 4.28 280 02:37 10.04.2022
2751 Clouds 4 970 50 10000 0.45 270 00:34 10.04.2022
2752 Clouds 3 993 56 10000 2.95 278 23:49 09.04.2022
2753 Clouds 4 970 48 10000 2.85 282 22:50 09.04.2022
2754 Clouds 5 992 50 10000 2.6 281 21:48 09.04.2022
2755 Clouds 5 991 49 10000 2.55 281 20:57 09.04.2022
2756 Clouds 6 968 45 10000 2.46 282 20:26 09.04.2022
2757 Clouds 7 967 43 10000 0.45 270 19:42 09.04.2022
2758 Clouds 8 967 39 10000 0.45 270 19:18 09.04.2022
2759 Clouds 8 988 42 10000 2.79 304 18:21 09.04.2022
2760 Clouds 9 966 37 10000 0.45 225 17:39 09.04.2022
2761 Clouds 9 988 43 10000 3.29 311 16:53 09.04.2022
2762 Clouds 9 987 40 10000 3.35 319 15:59 09.04.2022
2763 Clouds 9 987 41 10000 3.35 319 15:41 09.04.2022
2764 Clouds 9 964 33 10000 0.45 313 14:44 09.04.2022
2765 Clouds 8 986 37 10000 4.49 321 14:23 09.04.2022
2766 Clouds 8 986 36 10000 4.89 315 13:20 09.04.2022
2767 Clouds 8 986 37 10000 4.88 315 12:50 09.04.2022
2768 Clouds 7 962 37 10000 0.45 263 11:38 09.04.2022
2769 Clouds 5 961 44 10000 0.45 270 10:21 09.04.2022
2770 Clouds 5 961 45 10000 0.45 135 09:42 09.04.2022
2771 Clouds 4 961 44 10000 4.33 301 08:54 09.04.2022
2772 Clouds 3 960 46 10000 2.92 286 07:22 09.04.2022
2773 Clouds 1 959 47 10000 1.99 281 02:53 09.04.2022
2774 Clouds 1 960 41 10000 2.6 289 23:53 08.04.2022
2775 Clouds 1 960 40 10000 2.05 290 22:55 08.04.2022
2776 Clear 0 983 42 10000 2.81 316 21:32 08.04.2022
2777 Clear 1 983 36 10000 3.22 316 20:40 08.04.2022
2778 Clouds 3 982 33 10000 3.26 326 19:32 08.04.2022
2779 Clouds 4 982 32 10000 4.17 330 18:31 08.04.2022
2780 Clouds 5 981 28 10000 4.77 330 17:52 08.04.2022
2781 Clouds 6 981 28 10000 5 329 17:26 08.04.2022
2782 Clouds 5 981 29 10000 5.02 329 16:51 08.04.2022
2783 Clouds 5 981 30 10000 5.23 332 15:59 08.04.2022
2784 Clouds 5 980 32 10000 5.64 334 15:27 08.04.2022
2785 Clouds 5 980 34 10000 5.64 334 14:39 08.04.2022
2786 Clouds 4 980 35 10000 5.88 334 13:48 08.04.2022
2787 Clouds 4 980 38 10000 5.79 336 13:29 08.04.2022
2788 Clouds 3 980 40 10000 5.79 336 12:32 08.04.2022
2789 Clouds 3 957 45 10000 0.45 206 10:38 08.04.2022
2790 Clouds 1 957 48 10000 0.89 249 09:39 08.04.2022
2791 Clouds 1 957 51 10000 0.45 270 08:58 08.04.2022
2792 Clouds 1 956 55 10000 0.89 270 07:38 08.04.2022
2793 Clouds 1 955 55 10000 0.45 227 06:38 08.04.2022
2794 Clouds 2 954 54 10000 0.89 312 01:45 08.04.2022
2795 Clouds 1 977 57 10000 5.84 19 00:26 08.04.2022
2796 Clouds 2 977 57 10000 5.65 26 23:00 07.04.2022
2797 Clouds 2 977 57 10000 5.66 26 22:40 07.04.2022
2798 Clouds 2 977 58 10000 5.6 28 22:22 07.04.2022
2799 Clouds 3 954 54 10000 0.89 226 21:56 07.04.2022
2800 Clouds 3 954 56 10000 5.59 33 21:19 07.04.2022
2801 Rain 3 977 59 10000 5.59 33 20:41 07.04.2022
2802 Clouds 4 977 57 10000 5.57 37 18:54 07.04.2022
2803 Clouds 5 954 46 10000 0.45 270 17:27 07.04.2022
2804 Clouds 5 954 48 10000 0.89 180 16:45 07.04.2022
2805 Clouds 6 955 48 10000 0.89 315 16:23 07.04.2022
2806 Clouds 5 978 58 10000 5.47 52 15:37 07.04.2022
2807 Clouds 4 979 55 10000 5.28 69 13:51 07.04.2022
2808 Clouds 5 957 46 10000 1.34 315 13:23 07.04.2022
2809 Clouds 3 980 54 10000 5.06 67 11:49 07.04.2022
2810 Clouds 3 959 49 10000 4.16 62 10:30 07.04.2022
2811 Clouds 0 960 53 10000 0.89 270 08:40 07.04.2022
2812 Clouds -1 960 50 10000 0.45 270 06:58 07.04.2022
2813 Clouds -3 985 46 10000 1.44 15 04:26 07.04.2022
2814 Clouds -2 986 50 10000 1.18 20 02:29 07.04.2022
2815 Clouds -2 986 61 10000 1.33 20 00:42 07.04.2022
2816 Clouds -1 987 58 10000 1.17 47 22:58 06.04.2022
2817 Clouds -1 987 57 10000 1.17 47 22:39 06.04.2022
2818 Clouds 0 987 51 10000 1.37 42 21:47 06.04.2022
2819 Clouds 0 987 51 10000 1.37 42 21:47 06.04.2022
2820 Clouds 1 986 52 10000 1.5 37 20:43 06.04.2022
2821 Clouds 3 986 48 10000 1.34 44 19:59 06.04.2022
2822 Clouds 5 986 44 10000 0.8 64 19:19 06.04.2022
2823 Clouds 5 986 42 10000 0.78 64 18:47 06.04.2022
2824 Clouds 6 987 38 10000 0.71 109 17:35 06.04.2022
2825 Clouds 6 987 32 10000 0.92 144 16:39 06.04.2022
2826 Clouds 6 988 44 10000 1.21 154 15:57 06.04.2022
2827 Clouds 6 988 44 10000 1.21 154 15:39 06.04.2022
2828 Clouds 5 989 46 10000 1.53 100 13:31 06.04.2022
2829 Clouds 4 990 47 10000 1.26 86 12:28 06.04.2022
2830 Clouds 4 968 46 10000 0.99 57 10:57 06.04.2022
2831 Clouds 1 991 56 10000 0.88 26 10:32 06.04.2022
2832 Clouds 2 969 50 10000 0.88 26 09:43 06.04.2022
2833 Clouds 0 969 55 10000 0.33 347 08:39 06.04.2022
2834 Clouds -1 969 56 10000 0.42 292 07:57 06.04.2022
2835 Clouds -2 970 53 10000 0.92 279 05:23 06.04.2022
2836 Clear -1 993 51 10000 1.27 263 23:58 05.04.2022
2837 Clear 0 994 49 10000 1.37 281 23:33 05.04.2022
2838 Clear 1 993 39 10000 1.63 283 21:48 05.04.2022
2839 Clear 1 993 41 10000 1.63 283 21:48 05.04.2022
2840 Clear 2 993 35 10000 1.62 276 20:58 05.04.2022
2841 Clouds 2 993 33 10000 1.37 271 20:23 05.04.2022
2842 Clouds 5 992 24 10000 3.34 332 18:28 05.04.2022
2843 Clouds 6 992 23 10000 3.73 337 17:20 05.04.2022
2844 Clouds 6 992 23 10000 3.73 337 16:42 05.04.2022
2845 Clouds 6 992 29 10000 3.94 348 15:50 05.04.2022
2846 Clouds 5 991 37 10000 3.93 340 15:30 05.04.2022
2847 Clouds 5 991 37 10000 2.79 314 13:45 05.04.2022
2848 Clouds 4 991 44 10000 2 321 12:29 05.04.2022
2849 Clouds 4 991 42 10000 2 321 11:43 05.04.2022
2850 Clouds 3 992 44 10000 2.11 336 11:24 05.04.2022
2851 Clouds 2 991 50 10000 1.95 352 09:31 05.04.2022
2852 Clear -1 968 56 10000 1 285 08:27 05.04.2022
2853 Clear -2 967 56 10000 0.94 312 03:38 05.04.2022
2854 Clouds 0 965 55 10000 3.66 348 23:42 04.04.2022
2855 Clouds 1 964 57 10000 0.89 231 22:37 04.04.2022
2856 Clouds 1 964 58 10000 0.45 270 21:48 04.04.2022
2857 Clouds 2 963 59 10000 0.45 227 21:19 04.04.2022
2858 Clouds 2 963 58 10000 4.49 3 20:47 04.04.2022
2859 Clouds 3 962 57 10000 0.45 270 19:28 04.04.2022
2860 Clouds 3 962 57 10000 0.89 290 18:43 04.04.2022
2861 Clouds 3 961 53 10000 0.45 270 17:20 04.04.2022
2862 Clouds 4 960 50 10000 1.34 273 16:31 04.04.2022
2863 Clouds 4 960 41 10000 0.45 313 15:34 04.04.2022
2864 Rain 5 959 42 10000 0.89 225 14:46 04.04.2022
2865 Rain 4 982 1 3810 3.83 15 14:27 04.04.2022
2866 Rain 4 959 45 1750 0.45 271 12:59 04.04.2022
2867 Rain 2 983 1 25 1.38 29 11:29 04.04.2022
2868 Rain 2 961 50 25 0.66 78 10:29 04.04.2022
2869 Clouds 4 965 47 10000 0.45 178 06:58 04.04.2022
2870 Rain 5 971 57 10000 0.45 185 03:18 04.04.2022
2871 Clouds 5 996 55 10000 0.22 252 23:42 03.04.2022
2872 Clouds 5 998 55 10000 0.94 222 22:24 03.04.2022
2873 Clouds 5 998 55 10000 0.94 222 21:32 03.04.2022
2874 Clouds 6 999 53 10000 1.31 199 20:35 03.04.2022
2875 Clouds 8 978 51 10000 0.45 272 18:51 03.04.2022
2876 Clouds 8 979 50 10000 0.45 289 17:57 03.04.2022
2877 Clouds 8 1001 52 10000 2.85 225 17:37 03.04.2022
2878 Clouds 9 980 46 10000 3.24 236 16:50 03.04.2022
2879 Clouds 8 981 48 10000 1.34 270 15:59 03.04.2022
2880 Clouds 8 983 46 10000 0.45 225 14:27 03.04.2022
2881 Rain 7 1006 49 10000 3.75 220 13:38 03.04.2022
2882 Clouds 7 1008 45 10000 2.84 223 11:59 03.04.2022
2883 Clouds 4 1010 53 10000 1.27 227 10:22 03.04.2022
2884 Clouds 2 1011 53 10000 0.82 240 09:19 03.04.2022
2885 Clouds -1 1012 59 10000 0.87 273 07:24 03.04.2022
2886 Clouds 0 1014 59 10000 0.99 276 03:37 03.04.2022
2887 Clouds 2 992 52 10000 1.01 275 00:29 03.04.2022
2888 Clouds 1 1016 60 10000 0.92 268 22:52 02.04.2022
2889 Clouds 2 1016 57 10000 0.94 264 21:57 02.04.2022
2890 Clouds 3 1016 55 10000 1.08 247 21:28 02.04.2022
2891 Clouds 3 1016 52 10000 1.07 247 20:41 02.04.2022
2892 Clouds 6 1016 35 10000 0.31 267 18:57 02.04.2022
2893 Clouds 8 1016 30 10000 1.1 304 18:20 02.04.2022
2894 Clouds 8 1016 29 10000 1.09 304 17:46 02.04.2022
2895 Clouds 8 1017 30 10000 1.71 310 15:59 02.04.2022
2896 Clouds 7 1017 31 10000 1.91 308 15:21 02.04.2022
2897 Clouds 7 1017 33 10000 1.91 308 14:42 02.04.2022
2898 Clouds 6 1018 35 10000 2 298 13:34 02.04.2022
2899 Clouds 6 1018 42 10000 2 298 12:37 02.04.2022
2900 Clouds 3 1019 56 10000 1.6 290 10:56 02.04.2022
2901 Clear -1 996 60 10000 1.22 296 08:44 02.04.2022
2902 Clouds -2 996 56 10000 1.03 302 06:49 02.04.2022
2903 Clouds -2 996 52 10000 0.94 309 03:39 02.04.2022
2904 Clouds -3 1020 54 10000 0.85 342 23:55 01.04.2022
2905 Clouds -2 1020 59 10000 0.98 355 23:18 01.04.2022
2906 Clouds 0 996 52 10000 0.99 3 21:33 01.04.2022
2907 Clouds 0 1020 59 10000 1 10 20:51 01.04.2022
2908 Clouds 1 1019 53 10000 0.74 21 19:57 01.04.2022
2909 Clouds 2 1018 50 10000 0.9 26 19:31 01.04.2022
2910 Clouds 3 1018 45 10000 0.9 26 18:45 01.04.2022
2911 Clouds 4 1018 39 10000 1.28 19 17:46 01.04.2022
2912 Clouds 4 1018 39 10000 1.45 9 16:48 01.04.2022
2913 Clouds 5 1018 36 10000 1.29 15 15:36 01.04.2022
2914 Clouds 4 1018 34 10000 1.11 32 14:20 01.04.2022
2915 Clouds 5 1018 37 10000 0.79 24 13:33 01.04.2022
2916 Clouds 4 1019 44 10000 0.85 40 12:32 01.04.2022
2917 Clouds 3 1019 49 10000 0.98 43 11:40 01.04.2022
2918 Clouds 0 1019 56 10000 0.98 48 10:19 01.04.2022
2919 Clear -1 994 51 10000 0.95 38 08:47 01.04.2022
2920 Clouds -5 1018 56 10000 1.04 39 06:54 01.04.2022
2921 Clouds -2 993 52 10000 1.18 18 04:49 01.04.2022
2922 Clouds -2 993 51 10000 1.35 15 04:30 01.04.2022
2923 Clouds -3 1017 50 10000 1.63 8 01:56 01.04.2022
2924 Clouds -1 992 55 10000 2.11 1 22:58 31.03.2022
2925 Clouds -1 1016 61 10000 2.3 3 21:51 31.03.2022
2926 Clouds 0 991 54 10000 2.31 3 21:32 31.03.2022
2927 Clouds 2 991 49 10000 1.93 16 20:29 31.03.2022
2928 Clouds 2 1014 52 10000 1.93 16 19:49 31.03.2022
2929 Clouds 4 989 45 10000 2.18 9 18:44 31.03.2022
2930 Clouds 5 989 36 10000 0.89 271 17:49 31.03.2022
2931 Clouds 5 1013 35 10000 3.56 8 16:38 31.03.2022
2932 Clouds 5 1013 35 10000 4.08 14 15:43 31.03.2022
2933 Clouds 6 1013 37 10000 4.12 7 15:19 31.03.2022
2934 Clouds 6 1013 39 10000 4.1 7 14:36 31.03.2022
2935 Clouds 5 1013 44 10000 2.77 2 11:57 31.03.2022
2936 Clouds 4 1013 47 10000 2.46 0 11:22 31.03.2022
2937 Clouds 2 1012 53 10000 1.92 355 09:45 31.03.2022
2938 Clouds 2 1012 53 10000 1.92 355 09:45 31.03.2022
2939 Clouds -2 988 56 10000 1.36 325 07:59 31.03.2022
2940 Clouds -1 988 55 10000 1.56 317 05:42 31.03.2022
2941 Clouds -1 1011 61 10000 1.51 316 23:58 30.03.2022
2942 Clouds 0 987 52 10000 1.53 315 22:43 30.03.2022
2943 Clouds 1 987 50 10000 1.51 328 21:39 30.03.2022
2944 Clouds 0 1011 56 10000 1.61 342 20:54 30.03.2022
2945 Clouds 1 1011 54 10000 1.74 348 20:20 30.03.2022
2946 Clouds 1 1011 55 10000 1.61 350 20:20 30.03.2022
2947 Clouds 2 1010 47 10000 2.37 9 19:28 30.03.2022
2948 Clouds 4 1010 36 10000 2.9 359 18:19 30.03.2022
2949 Clouds 4 1010 35 10000 2.9 359 17:45 30.03.2022
2950 Clouds 5 1010 31 10000 2.9 354 16:56 30.03.2022
2951 Clouds 5 1010 28 10000 2.9 354 16:32 30.03.2022
2952 Clouds 4 1010 25 10000 3.4 353 14:59 30.03.2022
2953 Clear 4 1010 24 10000 3.3 348 13:42 30.03.2022
2954 Clear 4 1011 30 10000 3.37 341 12:47 30.03.2022
2955 Clear 2 1011 43 10000 2.78 326 10:58 30.03.2022
2956 Clear 0 1011 55 10000 2.28 318 09:59 30.03.2022
2957 Clear -2 1011 53 10000 2.01 319 09:23 30.03.2022
2958 Clouds -3 988 36 10000 1.49 307 07:32 30.03.2022
2959 Clouds -2 988 31 10000 1.45 306 05:40 30.03.2022
2960 Clouds -1 988 30 10000 1.13 306 03:39 30.03.2022
2961 Clouds -1 987 42 10000 0.45 292 00:31 30.03.2022
2962 Clouds -1 1010 26 10000 3.11 51 22:20 29.03.2022
2963 Clouds 0 986 43 10000 3.11 51 21:44 29.03.2022
2964 Clouds 0 986 47 10000 2.85 52 20:49 29.03.2022
2965 Clouds 2 985 56 10000 2.57 46 19:47 29.03.2022
2966 Clouds 2 985 54 10000 0.45 90 18:54 29.03.2022
2967 Rain 2 1008 53 10000 2.83 40 18:19 29.03.2022
2968 Clouds 2 1008 53 10000 2.6 32 17:21 29.03.2022
2969 Clouds 4 985 48 10000 2.61 32 17:21 29.03.2022
2970 Clouds 3 1008 56 10000 2.61 32 16:56 29.03.2022
2971 Clouds 5 985 56 10000 1.75 14 15:57 29.03.2022
2972 Clouds 5 1009 42 10000 1.62 343 14:48 29.03.2022
2973 Clouds 5 1009 44 10000 1.7 49 13:53 29.03.2022
2974 Clouds 4 1009 48 10000 1.91 51 12:47 29.03.2022
2975 Clouds 3 1009 51 10000 1.31 26 11:31 29.03.2022
2976 Clouds 2 1010 57 10000 0.7 8 10:27 29.03.2022
2977 Clouds 0 1010 61 10000 1.05 45 09:23 29.03.2022
2978 Clouds -2 1009 57 10000 0.65 347 06:55 29.03.2022
2979 Clouds 1 987 52 10000 1.33 301 03:47 29.03.2022
2980 Clouds 3 988 44 10000 0.45 270 23:54 28.03.2022
2981 Clouds 4 988 45 10000 0.45 275 23:19 28.03.2022
2982 Clouds 4 988 43 10000 0.89 270 22:47 28.03.2022
2983 Clouds 5 988 42 10000 0.45 227 22:22 28.03.2022
2984 Clouds 6 988 41 10000 0.45 269 20:53 28.03.2022
2985 Clouds 7 1011 45 10000 2.84 11 19:59 28.03.2022
2986 Clouds 7 1011 44 10000 2.84 11 19:40 28.03.2022
2987 Clouds 8 1010 42 10000 3.12 3 18:52 28.03.2022
2988 Clouds 10 986 34 10000 0.45 227 18:19 28.03.2022
2989 Clouds 10 1010 31 10000 3.48 340 17:30 28.03.2022
2990 Clouds 11 1010 32 10000 4.88 316 15:48 28.03.2022
2991 Clouds 11 1009 32 10000 5.16 303 14:24 28.03.2022
2992 Clouds 11 1009 33 10000 5.16 303 13:35 28.03.2022
2993 Clouds 10 1008 35 10000 4.15 332 11:57 28.03.2022
2994 Clouds 10 1008 41 10000 4.07 329 10:49 28.03.2022
2995 Clouds 11 984 45 10000 0.45 315 09:38 28.03.2022
2996 Clouds 11 984 51 10000 0.89 225 08:46 28.03.2022
2997 Clouds 10 985 52 10000 0.89 247 08:21 28.03.2022
2998 Clouds 10 985 55 10000 0.45 270 07:27 28.03.2022
2999 Clouds 8 1012 57 10000 4.22 250 02:48 28.03.2022
3000 Clouds 10 993 52 10000 0.45 180 22:59 27.03.2022
3001 Clouds 10 994 52 10000 1.34 225 22:22 27.03.2022
3002 Clouds 11 994 53 10000 0.45 270 21:40 27.03.2022
3003 Clouds 11 1017 54 10000 4.53 259 20:42 27.03.2022
3004 Clouds 12 1017 53 10000 3.97 256 19:44 27.03.2022
3005 Clouds 13 1017 51 10000 3.83 258 18:47 27.03.2022
3006 Clouds 13 1017 51 10000 3.83 258 18:47 27.03.2022
3007 Clouds 14 1018 47 10000 5.03 271 18:25 27.03.2022
3008 Clouds 15 1018 46 10000 5.05 271 17:37 27.03.2022
3009 Clouds 14 1019 49 10000 4.04 281 15:57 27.03.2022
3010 Clouds 9 1022 51 10000 1.69 239 14:22 27.03.2022
3011 Clouds 9 999 44 10000 0.45 270 13:42 27.03.2022
3012 Clouds 6 1001 51 10000 0.94 276 11:46 27.03.2022
3013 Clouds 5 1001 41 10000 0.45 270 10:23 27.03.2022
3014 Clouds 2 1025 1 10000 0.65 350 07:55 27.03.2022
3015 Clouds 3 1002 53 10000 0.69 67 05:18 27.03.2022
3016 Clouds 5 1029 53 10000 1.2 156 00:37 27.03.2022
3017 Clouds 6 1006 47 10000 0.45 90 22:58 26.03.2022
3018 Clouds 6 1006 46 10000 1.3 146 22:27 26.03.2022
3019 Clouds 6 1007 45 10000 0.45 225 21:31 26.03.2022
3020 Clouds 5 1031 54 10000 1.78 105 19:45 26.03.2022
3021 Clouds 8 1006 40 10000 2.45 94 18:56 26.03.2022
3022 Clouds 9 1029 42 10000 2.35 96 17:44 26.03.2022
3023 Clouds 9 1029 42 10000 2.35 96 17:44 26.03.2022
3024 Clouds 11 1029 35 10000 1.12 104 16:47 26.03.2022
3025 Clouds 11 1029 37 10000 0.39 115 15:52 26.03.2022
3026 Clouds 12 1029 35 10000 0.19 322 14:21 26.03.2022
3027 Clouds 11 1029 33 10000 0.19 327 13:51 26.03.2022
3028 Clouds 11 1029 36 10000 0.92 348 12:36 26.03.2022
3029 Clouds 9 1028 42 10000 1.39 356 10:56 26.03.2022
3030 Clouds 7 1027 46 10000 1.27 36 09:22 26.03.2022
3031 Clouds 2 1025 59 10000 1.54 354 07:36 26.03.2022
3032 Clouds 2 1024 60 10000 1.52 4 05:52 26.03.2022
3033 Clouds 4 1021 51 10000 1.73 1 03:22 26.03.2022
3034 Clouds 9 1017 56 10000 2.17 302 22:50 25.03.2022
3035 Clouds 10 1017 57 10000 2.3 284 20:58 25.03.2022
3036 Clouds 10 1017 57 10000 2.29 285 20:37 25.03.2022
3037 Clouds 12 994 55 10000 3.59 254 19:21 25.03.2022
3038 Clouds 12 1016 56 10000 3.59 253 18:37 25.03.2022
3039 Clouds 14 994 50 10000 0.45 40 17:34 25.03.2022
3040 Clouds 14 995 49 10000 0.45 270 16:38 25.03.2022
3041 Clouds 14 995 47 10000 0.45 248 15:46 25.03.2022
3042 Clouds 14 996 48 10000 0.45 227 13:32 25.03.2022
3043 Clouds 13 997 52 10000 0.89 181 11:38 25.03.2022
3044 Clouds 11 997 55 10000 0.89 273 09:46 25.03.2022
3045 Clouds 11 997 58 10000 0.45 226 08:59 25.03.2022
3046 Clouds 8 997 41 10000 0.45 94 07:47 25.03.2022
3047 Clouds 6 1020 11 10000 2.28 274 07:20 25.03.2022
3048 Clouds 6 998 41 10000 1.57 272 03:58 25.03.2022
3049 Clouds 5 1022 1 10000 1.36 283 23:54 24.03.2022
3050 Clouds 7 1001 39 10000 1.11 282 22:24 24.03.2022
3051 Clouds 6 1023 1 10000 1.46 288 21:24 24.03.2022
3052 Clouds 7 1001 39 10000 1.25 289 19:50 24.03.2022
3053 Clouds 9 1001 68 10000 0.91 273 18:45 24.03.2022
3054 Clouds 11 1000 63 10000 0.99 283 17:38 24.03.2022
3055 Clouds 13 1001 60 10000 1.24 292 16:39 24.03.2022
3056 Clear 12 1022 57 10000 2.05 271 14:53 24.03.2022
3057 Clear 13 1022 57 10000 2.05 271 14:32 24.03.2022
3058 Clear 11 1023 54 10000 1.71 258 13:36 24.03.2022
3059 Clouds 9 1023 58 10000 1.07 260 12:35 24.03.2022
3060 Clouds 6 1024 61 10000 0.95 253 11:31 24.03.2022
3061 Clouds 1 1024 65 10000 0.7 246 09:34 24.03.2022
3062 Clouds 3 1003 96 10000 0.45 272 08:39 24.03.2022
3063 Clouds 2 1003 52 10000 0.82 304 05:45 24.03.2022
3064 Clouds 2 1005 45 10000 0.45 180 00:47 24.03.2022
3065 Clear 3 1006 42 10000 0.44 241 22:23 23.03.2022
3066 Clear 4 1006 39 10000 0.45 271 21:24 23.03.2022
3067 Clear 4 1029 1 10000 0.43 241 20:45 23.03.2022
3068 Clear 5 1029 15 10000 0.37 229 19:33 23.03.2022
3069 Clear 7 1029 53 10000 0.82 221 18:19 23.03.2022
3070 Clear 10 1029 56 10000 1.14 224 17:26 23.03.2022
3071 Clear 11 1029 49 10000 1.35 232 16:18 23.03.2022
3072 Clear 11 1030 49 10000 1.42 230 14:49 23.03.2022
3073 Clear 11 1031 50 10000 1.51 242 13:34 23.03.2022
3074 Clear 8 1032 58 10000 1.28 248 11:38 23.03.2022
3075 Clear 3 1033 52 10000 0.73 275 08:49 23.03.2022
3076 Clear 0 1009 41 10000 0.94 298 06:25 23.03.2022
3077 Clear -1 1033 25 10000 1.07 290 03:44 23.03.2022
3078 Clear 1 1033 57 10000 1.33 300 00:28 23.03.2022
3079 Clear 4 1034 60 10000 1.36 305 21:56 22.03.2022
3080 Clear 4 1033 60 10000 1.37 312 21:26 22.03.2022
3081 Clear 4 1033 60 10000 1.26 316 20:30 22.03.2022
3082 Clear 5 1032 58 10000 1.2 316 19:27 22.03.2022
3083 Clear 6 1032 57 10000 1.31 338 18:50 22.03.2022
3084 Clear 8 1032 58 10000 1.08 340 17:44 22.03.2022
3085 Clouds 9 1031 59 10000 1.33 323 17:18 22.03.2022
3086 Clouds 10 1031 51 10000 2.21 298 15:49 22.03.2022
3087 Clouds 10 1031 52 10000 2.39 269 15:21 22.03.2022
3088 Clouds 9 1031 54 10000 2.37 269 14:45 22.03.2022
3089 Clouds 10 1031 55 10000 2.43 247 14:24 22.03.2022
3090 Clouds 8 1031 52 10000 2.18 252 12:41 22.03.2022
3091 Clouds 6 1031 32 10000 1.94 249 11:26 22.03.2022
3092 Clouds 4 1009 51 10000 0.45 179 09:55 22.03.2022
3093 Clouds 2 1009 59 10000 0.89 270 07:48 22.03.2022
3094 Clouds 0 1033 56 10000 0.33 138 04:36 22.03.2022
3095 Clouds 0 1033 61 10000 0.75 76 02:54 22.03.2022
3096 Clouds 1 1035 61 10000 0.71 52 23:21 21.03.2022
3097 Clouds 2 1036 60 10000 0.52 77 21:51 21.03.2022
3098 Clouds 2 1036 60 10000 0.52 78 21:51 21.03.2022
3099 Clouds 3 1036 60 10000 0.61 114 20:45 21.03.2022
3100 Clouds 3 1036 59 10000 0.63 161 20:26 21.03.2022
3101 Clouds 3 1036 57 10000 0.63 161 19:53 21.03.2022
3102 Clear 4 1036 53 10000 0.94 171 19:23 21.03.2022
3103 Clear 8 1036 45 10000 1.39 187 17:43 21.03.2022
3104 Clear 9 1036 41 10000 2.4 201 17:00 21.03.2022
3105 Clear 10 1036 41 10000 3.06 199 16:37 21.03.2022
3106 Clear 11 1036 38 10000 3.06 199 15:46 21.03.2022
3107 Clear 10 1037 44 10000 2.93 195 14:48 21.03.2022
3108 Clear 10 1037 47 10000 2.49 187 13:35 21.03.2022
3109 Clear 8 1037 55 10000 2.04 183 12:31 21.03.2022
3110 Clear 7 1038 59 10000 1.65 180 11:43 21.03.2022
3111 Clear 5 1039 56 10000 0.9 163 10:20 21.03.2022
3112 Clear 0 1039 1 10000 0.18 133 08:26 21.03.2022
3113 Clear 1 1015 64 10000 0.13 20 06:31 21.03.2022
3114 Clear -1 1040 16 10000 0.26 216 02:40 21.03.2022
3115 Clear 0 1041 58 10000 0.66 179 23:40 20.03.2022
3116 Clear 1 1041 61 10000 0.54 185 22:43 20.03.2022
3117 Clear 2 1042 61 10000 0.61 183 21:50 20.03.2022
3118 Clear 3 1042 56 10000 0.58 222 21:20 20.03.2022
3119 Clear 3 1042 54 10000 0.58 222 20:42 20.03.2022
3120 Clear 4 1042 50 10000 0.74 224 19:57 20.03.2022
3121 Clear 5 1042 48 10000 1.07 207 19:26 20.03.2022
3122 Clear 8 1041 37 10000 1.45 197 17:52 20.03.2022
3123 Clear 7 1041 72 10000 1.45 198 17:30 20.03.2022
3124 Clear 11 1041 32 10000 1.9 198 16:52 20.03.2022
3125 Clouds 11 1042 34 10000 1.9 196 15:27 20.03.2022
3126 Clouds 11 1043 56 10000 1.86 193 14:23 20.03.2022
3127 Clouds 10 1044 58 10000 0.94 179 12:29 20.03.2022
3128 Clouds 6 1045 50 10000 0.82 176 10:55 20.03.2022
3129 Clear 2 1046 1 10000 0.33 98 08:42 20.03.2022
3130 Clear -1 1047 1 10000 0.74 4 07:26 20.03.2022
3131 Clear -1 1047 1 10000 0.66 7 04:23 20.03.2022
3132 Clear 0 1047 1 10000 0.81 340 01:29 20.03.2022
3133 Clear 0 1048 1 10000 0.78 346 00:39 20.03.2022
3134 Clear 1 1048 1 10000 0.64 346 23:19 19.03.2022
3135 Clear 3 1048 29 10000 0.46 338 21:27 19.03.2022
3136 Clear 4 1048 46 10000 0.46 338 20:39 19.03.2022
3137 Clouds 6 1047 59 10000 0.79 191 18:58 19.03.2022
3138 Clouds 7 1047 58 10000 0.76 205 18:23 19.03.2022
3139 Clouds 8 1047 53 10000 0.77 205 17:35 19.03.2022
3140 Clouds 8 1047 55 10000 0.77 205 17:35 19.03.2022
3141 Clouds 11 1046 44 10000 1.05 213 15:43 19.03.2022
3142 Clouds 11 1047 44 10000 1.19 210 14:44 19.03.2022
3143 Clouds 11 1047 52 10000 1.23 210 13:19 19.03.2022
3144 Clouds 10 1047 55 10000 1.11 198 12:40 19.03.2022
3145 Clouds 9 1047 58 10000 0.58 227 11:54 19.03.2022
3146 Clouds 6 1047 54 10000 0.75 268 10:47 19.03.2022
3147 Clouds 0 1047 14 10000 0.98 257 06:51 19.03.2022
3148 Clouds 0 1046 58 10000 0.89 258 03:24 19.03.2022
3149 Clear 1 1047 58 10000 0.8 245 02:29 19.03.2022
3150 Clear 1 1047 58 10000 0.79 246 23:45 18.03.2022
3151 Clear 2 1046 60 10000 0.75 257 22:28 18.03.2022
3152 Clear 2 1046 61 10000 0.75 257 21:45 18.03.2022
3153 Clear 5 1045 55 10000 0.61 273 19:51 18.03.2022
3154 Clear 5 1044 59 10000 0.61 290 19:21 18.03.2022
3155 Clear 7 1043 53 10000 0.67 304 17:52 18.03.2022
3156 Clear 9 1042 46 10000 0.83 283 16:49 18.03.2022
3157 Clear 10 1041 49 10000 1.3 318 15:32 18.03.2022
3158 Clear 10 1039 53 10000 2.53 319 14:23 18.03.2022
3159 Clouds 9 1037 58 10000 2.97 323 12:36 18.03.2022
3160 Clouds 7 1034 11 10000 3.82 284 10:53 18.03.2022
3161 Clouds 4 1032 1 10000 1.84 254 09:30 18.03.2022
3162 Clouds 3 1009 52 10000 1.84 254 08:32 18.03.2022
3163 Clouds 2 1007 53 10000 1.31 250 06:37 18.03.2022
3164 Clouds 2 1004 52 1267 0.45 223 02:57 18.03.2022
3165 Clouds 3 1002 52 657 1.12 209 00:39 18.03.2022
3166 Clouds 3 1001 52 301 1.28 240 23:38 17.03.2022
3167 Clouds 3 1000 52 323 0.6 185 22:25 17.03.2022
3168 Clouds 3 1000 52 323 0.6 185 21:48 17.03.2022
3169 Clouds 3 999 52 267 0.89 199 21:26 17.03.2022
3170 Clouds 3 999 51 267 0.45 89 20:45 17.03.2022
3171 Clouds 3 999 51 123 0.45 272 19:50 17.03.2022
3172 Rain 3 999 51 103 1.46 172 19:29 17.03.2022
3173 Rain 3 998 51 259 0.89 49 18:46 17.03.2022
3174 Rain 3 999 88 10000 2.24 184 17:18 17.03.2022
3175 Rain 4 999 44 10000 2.24 91 15:44 17.03.2022
3176 Rain 4 1000 42 10000 2.24 141 15:26 17.03.2022
3177 Clouds 4 1000 43 10000 1.34 247 14:38 17.03.2022
3178 Clouds 4 1002 82 10000 0.89 314 12:55 17.03.2022
3179 Clouds 3 1002 82 10000 1.91 134 12:25 17.03.2022
3180 Clouds 3 1003 83 10000 0.45 45 11:29 17.03.2022
3181 Clouds 3 1004 82 10000 0.89 137 10:32 17.03.2022
3182 Clouds 1 1029 1 3838 1.25 55 08:40 17.03.2022
3183 Clouds 2 1005 49 3944 0.45 314 07:36 17.03.2022
3184 Clouds 2 1030 1 10000 0.91 59 05:47 17.03.2022
3185 Clouds 3 1031 1 4851 0.49 84 01:37 17.03.2022
3186 Clouds 3 1008 51 4813 0.9 156 23:56 16.03.2022
3187 Clouds 3 1031 1 4708 0.98 165 22:50 16.03.2022
3188 Clouds 3 1031 1 5213 1.24 147 22:32 16.03.2022
3189 Clouds 3 1031 1 5213 1.24 147 21:42 16.03.2022
3190 Clouds 4 1007 49 10000 2.04 165 20:26 16.03.2022
3191 Clouds 4 1007 48 10000 0.45 270 19:21 16.03.2022
3192 Clouds 4 1007 48 10000 0.45 227 18:38 16.03.2022
3193 Clouds 4 1007 49 10000 0.45 268 17:43 16.03.2022
3194 Clouds 4 1007 49 10000 0.89 312 17:20 16.03.2022
3195 Clouds 4 1007 49 10000 0.89 227 15:55 16.03.2022
3196 Clouds 3 1029 75 10000 3.7 185 14:27 16.03.2022
3197 Clouds 3 1029 75 10000 3.7 185 13:31 16.03.2022
3198 Clouds 4 1006 93 10000 0.45 337 11:56 16.03.2022
3199 Clouds 3 1006 52 10000 0.45 270 11:21 16.03.2022
3200 Clouds 3 1006 53 10000 0.45 275 10:23 16.03.2022
3201 Clouds 2 1005 52 5047 0.5 187 08:53 16.03.2022
3202 Clouds 1 1026 1 8772 0.38 254 06:27 16.03.2022
3203 Clouds 1 1002 45 10000 0.1 172 01:45 16.03.2022
3204 Clouds 1 1025 1 10000 0.43 143 22:38 15.03.2022
3205 Clouds 2 1024 29 10000 0.57 165 21:55 15.03.2022
3206 Clouds 3 1024 54 10000 0.92 197 20:28 15.03.2022
3207 Clouds 4 1024 86 10000 1.07 192 18:57 15.03.2022
3208 Clouds 7 1023 56 10000 1.9 195 16:59 15.03.2022
3209 Clouds 7 1023 56 10000 2.53 193 16:32 15.03.2022
3210 Clouds 8 1023 55 10000 2.38 192 15:21 15.03.2022
3211 Clouds 9 1023 52 10000 2.38 192 14:40 15.03.2022
3212 Clouds 7 1023 54 10000 2.16 197 13:38 15.03.2022
3213 Clouds 6 1024 54 10000 1.76 192 12:24 15.03.2022
3214 Clouds 6 1024 57 10000 1.76 192 11:31 15.03.2022
3215 Clouds 2 1025 61 10000 0.84 196 09:45 15.03.2022
3216 Clouds 0 1025 74 10000 0.47 186 08:42 15.03.2022
3217 Clear -2 1026 27 10000 0.4 357 07:51 15.03.2022
3218 Clouds -4 1026 8 10000 1.03 347 07:28 15.03.2022
3219 Clear -3 1026 42 10000 0.95 341 03:41 15.03.2022
3220 Clouds -1 1027 62 10000 1.42 354 23:44 14.03.2022
3221 Clouds -1 1028 62 10000 1.25 358 23:23 14.03.2022
3222 Clouds 0 1028 61 10000 1.22 5 22:26 14.03.2022
3223 Clouds 1 1028 57 10000 1.22 5 21:30 14.03.2022
3224 Clouds 1 1028 54 10000 1.37 11 20:48 14.03.2022
3225 Clouds 2 1028 52 10000 1.41 11 20:20 14.03.2022
3226 Clouds 4 1028 47 10000 1.28 359 18:55 14.03.2022
3227 Clouds 6 1028 46 10000 0.99 352 17:54 14.03.2022
3228 Clouds 9 1027 35 10000 0.56 340 16:58 14.03.2022
3229 Clouds 10 1027 34 10000 0.1 240 15:43 14.03.2022
3230 Clouds 9 1027 33 10000 0.62 162 14:40 14.03.2022
3231 Clouds 7 1028 41 10000 0.65 123 12:29 14.03.2022
3232 Clouds 5 1029 50 10000 0.51 91 10:54 14.03.2022
3233 Clouds 3 1029 57 10000 0.7 63 09:52 14.03.2022
3234 Clouds 1 1029 60 10000 0.76 42 09:22 14.03.2022
3235 Clouds 0 1029 61 10000 0.76 41 08:55 14.03.2022
3236 Clouds 0 1004 52 10000 1.13 26 07:32 14.03.2022
3237 Clouds -1 1004 52 10000 1.41 17 05:45 14.03.2022
3238 Clouds -2 1028 54 10000 1.3 34 01:55 14.03.2022
3239 Clouds -2 1028 56 10000 1.34 32 01:28 14.03.2022
3240 Clouds 0 1028 61 10000 1.49 18 22:44 13.03.2022
3241 Clouds 0 1028 62 10000 1.42 31 21:31 13.03.2022
3242 Clouds 0 1028 62 10000 1.42 31 20:56 13.03.2022
3243 Clouds 1 1028 62 10000 1.42 31 20:31 13.03.2022
3244 Clouds 1 1028 61 10000 1.49 14 19:49 13.03.2022
3245 Clouds 2 1027 60 10000 1.46 17 19:28 13.03.2022
3246 Clouds 2 1027 57 10000 1.33 16 18:59 13.03.2022
3247 Clouds 3 1027 56 10000 1.29 21 18:35 13.03.2022
3248 Clouds 5 1027 52 10000 1.28 21 17:41 13.03.2022
3249 Clouds 6 1026 50 10000 0.95 9 17:19 13.03.2022
3250 Clouds 5 1026 68 10000 0.45 24 16:30 13.03.2022
3251 Clouds 6 1026 68 10000 0.45 24 15:47 13.03.2022
3252 Clouds 8 1026 42 10000 0.51 123 14:56 13.03.2022
3253 Clouds 7 1026 48 10000 0.83 117 13:43 13.03.2022
3254 Clouds 6 1027 52 10000 1.06 94 12:38 13.03.2022
3255 Clouds 5 1027 57 10000 1.04 84 11:52 13.03.2022
3256 Clouds 5 1027 58 10000 1.04 84 11:32 13.03.2022
3257 Clouds 2 1027 61 10000 0.89 71 10:47 13.03.2022
3258 Clouds 2 1027 58 10000 0.75 60 10:22 13.03.2022
3259 Clouds 1 1027 41 10000 0.75 60 09:40 13.03.2022
3260 Clouds -1 1026 17 10000 0.95 42 08:45 13.03.2022
3261 Clouds -1 1002 35 10000 1.05 30 07:41 13.03.2022
3262 Clouds -4 1026 11 10000 1.08 4 05:40 13.03.2022
3263 Clouds -3 1026 22 10000 0.86 19 02:43 13.03.2022
3264 Clouds -2 1027 28 10000 0.96 6 23:56 12.03.2022
3265 Clouds -1 1026 42 10000 1.22 41 22:27 12.03.2022
3266 Clouds 0 1027 52 10000 1.15 9 20:34 12.03.2022
3267 Clouds 0 1027 57 10000 1.15 9 19:47 12.03.2022
3268 Clear 1 1026 60 10000 0.9 327 19:27 12.03.2022
3269 Clear 2 1026 62 10000 0.97 270 18:23 12.03.2022
3270 Clear 4 1026 61 10000 0.97 270 17:31 12.03.2022
3271 Clear 7 1021 47 10000 1.36 188 16:23 12.03.2022
3272 Clear 6 1023 51 10000 1.8 177 15:23 12.03.2022
3273 Clear 6 1026 51 10000 1.56 170 14:28 12.03.2022
3274 Clear 4 1026 57 10000 1.24 161 12:56 12.03.2022
3275 Clear 4 1023 55 10000 1.09 129 11:56 12.03.2022
3276 Clear 4 1023 54 10000 0.83 103 11:35 12.03.2022
3277 Clear 2 1027 47 10000 0.83 103 10:58 12.03.2022
3278 Clear 0 1027 1 10000 0.51 79 09:45 12.03.2022
3279 Clear -1 1027 1 10000 0.74 42 08:56 12.03.2022
3280 Clear -3 1003 40 10000 1.13 358 07:20 12.03.2022
3281 Clear -2 1004 42 10000 1.13 20 02:36 12.03.2022
3282 Clear -1 1005 40 10000 0.91 8 23:56 11.03.2022
3283 Clear -1 1005 40 10000 0.91 8 23:56 11.03.2022
3284 Clear -2 1030 1 10000 0.72 16 22:56 11.03.2022
3285 Clear -2 1030 1 10000 0.63 51 21:35 11.03.2022
3286 Clear -2 1030 1 10000 0.65 51 20:55 11.03.2022
3287 Clear -1 1030 3 10000 0.44 12 20:29 11.03.2022
3288 Clear -1 1030 7 10000 0.44 12 19:49 11.03.2022
3289 Clouds 0 1030 23 10000 0.28 345 19:22 11.03.2022
3290 Clouds 3 1030 54 10000 0.93 188 17:30 11.03.2022
3291 Clouds 5 1030 59 10000 2.91 190 16:27 11.03.2022
3292 Clouds 5 1030 54 10000 2.91 190 15:53 11.03.2022
3293 Clouds 4 1030 20 10000 3.12 198 14:19 11.03.2022
3294 Clouds 5 1007 49 10000 0.45 270 12:44 11.03.2022
3295 Clouds 4 1007 47 10000 3.47 191 12:21 11.03.2022
3296 Clouds 3 1007 44 10000 3.47 191 11:51 11.03.2022
3297 Clouds 2 1007 47 10000 0.45 133 09:50 11.03.2022
3298 Clouds 2 1007 48 10000 2.31 190 08:56 11.03.2022
3299 Clouds 1 1030 1 10000 2.21 185 08:21 11.03.2022
3300 Clouds 2 1007 47 10000 0.45 225 07:40 11.03.2022
3301 Clouds 1 1030 1 10000 2.46 183 05:44 11.03.2022
3302 Clouds 2 1007 45 10000 0.45 228 03:41 11.03.2022
3303 Clouds 2 1031 1 10000 2.75 193 23:31 10.03.2022
3304 Clouds 3 1008 45 10000 3.17 193 22:29 10.03.2022
3305 Clouds 3 1008 45 10000 0.89 184 21:27 10.03.2022
3306 Clouds 3 1018 58 10000 3.36 193 20:55 10.03.2022
3307 Clouds 3 1018 60 10000 0.45 136 19:23 10.03.2022
3308 Clouds 3 1021 66 10000 1.34 265 18:40 10.03.2022
3309 Clouds 3 1018 58 10000 0.45 180 16:54 10.03.2022
3310 Clouds 3 1018 58 10000 1.34 45 15:50 10.03.2022
3311 Clouds 2 1018 59 10000 0.45 182 14:39 10.03.2022
3312 Clouds 2 1018 62 10000 0.45 265 12:53 10.03.2022
3313 Clouds 2 1008 90 10000 4.54 188 11:42 10.03.2022
3314 Clouds 1 1008 86 10000 0.45 270 10:24 10.03.2022
3315 Clouds 0 1029 1 8752 3.44 190 08:49 10.03.2022
3316 Clouds -1 1006 49 9608 0.45 92 06:58 10.03.2022
3317 Clouds -1 1006 48 10000 0.45 93 03:52 10.03.2022
3318 Clouds -2 1006 45 10000 1.24 157 00:51 10.03.2022
3319 Clouds -2 1005 46 10000 1.21 157 22:46 09.03.2022
3320 Clouds -2 1005 45 10000 0.45 270 21:48 09.03.2022
3321 Clouds -2 1005 45 10000 1.24 156 21:23 09.03.2022
3322 Clouds -1 1005 44 10000 0.45 203 19:40 09.03.2022
3323 Clouds -1 1005 43 10000 0.45 270 18:19 09.03.2022
3324 Clouds 2 1027 75 10000 1.78 176 17:26 09.03.2022
3325 Clouds 4 1027 66 10000 2.28 178 16:24 09.03.2022
3326 Clouds 3 1027 58 10000 2.67 188 14:32 09.03.2022
3327 Clouds 1 1027 58 10000 2.67 188 13:52 09.03.2022
3328 Clouds -1 1027 59 10000 2.55 190 12:36 09.03.2022
3329 Clouds -2 1027 63 10000 2.29 189 11:48 09.03.2022
3330 Clouds -3 1027 69 10000 1.86 189 11:18 09.03.2022
3331 Clouds -1 1004 91 10000 1.32 191 09:41 09.03.2022
3332 Clouds -1 1003 49 10000 0.45 225 08:47 09.03.2022
3333 Clouds -2 1003 48 10000 0.71 325 06:27 09.03.2022
3334 Clouds -2 1002 44 10000 0.44 338 01:53 09.03.2022
3335 Clouds -2 1002 41 10000 0.74 355 00:26 09.03.2022
3336 Clouds -1 1001 40 10000 0.66 342 22:46 08.03.2022
3337 Clouds -1 1001 39 10000 0.75 1 21:52 08.03.2022
3338 Clouds -2 1025 1 10000 0.86 350 21:21 08.03.2022
3339 Clouds -1 1025 1 10000 0.89 339 20:22 08.03.2022
3340 Clouds 0 1024 1 10000 0.91 330 19:24 08.03.2022
3341 Clouds 2 1020 48 10000 0.78 306 18:22 08.03.2022
3342 Clouds 4 1024 45 10000 0.52 300 16:44 08.03.2022
3343 Clouds 5 1022 55 10000 0.58 340 14:57 08.03.2022
3344 Clouds 4 1022 39 10000 0.52 311 13:45 08.03.2022
3345 Clouds 2 1024 68 10000 0.65 7 12:23 08.03.2022
3346 Clouds 1 1024 68 10000 0.65 7 11:42 08.03.2022
3347 Clouds 0 1001 80 10000 0.94 19 10:28 08.03.2022
3348 Clouds -1 1001 45 10000 1.11 9 08:57 08.03.2022
3349 Clouds -2 1000 47 10000 1.46 3 06:30 08.03.2022
3350 Clouds -1 1000 46 10000 1.06 349 02:37 08.03.2022
3351 Clouds -1 1024 1 10000 0.87 297 22:43 07.03.2022
3352 Clouds 0 1025 9 10000 0.82 324 21:44 07.03.2022
3353 Clouds 1 1024 33 10000 0.84 325 20:56 07.03.2022
3354 Clouds 1 1024 43 10000 0.78 315 20:33 07.03.2022
3355 Clouds 2 1024 52 10000 0.78 315 19:49 07.03.2022
3356 Clouds 5 1024 86 10000 0.77 312 18:57 07.03.2022
3357 Clouds 6 1024 83 10000 0.74 291 18:29 07.03.2022
3358 Clouds 5 1024 78 10000 0.75 243 17:31 07.03.2022
3359 Clouds 7 1024 78 10000 0.75 243 16:43 07.03.2022
3360 Clouds 7 1024 59 10000 0.84 244 14:51 07.03.2022
3361 Clouds 7 1024 59 10000 0.54 257 12:34 07.03.2022
3362 Clouds 5 1025 58 10000 0.62 337 11:26 07.03.2022
3363 Clouds 4 1025 60 10000 0.76 330 10:30 07.03.2022
3364 Clouds 0 1025 47 10000 0.85 312 08:34 07.03.2022
3365 Clouds 1 1026 62 10000 1.55 321 02:25 07.03.2022
3366 Clouds 0 1026 63 10000 1.38 318 00:20 07.03.2022
3367 Clouds 1 1027 63 10000 1.35 317 23:23 06.03.2022
3368 Clouds 2 1027 60 10000 1.21 303 22:27 06.03.2022
3369 Clouds 1 1026 84 10000 1.41 305 21:24 06.03.2022
3370 Clouds 4 1026 84 10000 1.29 299 20:29 06.03.2022
3371 Clouds 4 1026 84 10000 1.29 299 19:39 06.03.2022
3372 Clouds 6 1027 85 10000 1.42 323 18:50 06.03.2022
3373 Clouds 6 1027 82 10000 1.42 320 17:46 06.03.2022
3374 Clear 5 1026 75 10000 1.17 309 17:19 06.03.2022
3375 Clear 7 1026 64 10000 1.27 302 16:28 06.03.2022
3376 Clear 7 1026 55 10000 1.47 292 15:25 06.03.2022
3377 Clear 8 1026 38 10000 1.47 292 14:42 06.03.2022
3378 Clear 8 1026 53 10000 1.49 279 13:49 06.03.2022
3379 Clear 7 1026 46 10000 1.13 278 12:40 06.03.2022
3380 Clear 6 1026 49 10000 1.23 286 11:45 06.03.2022
3381 Clear 1 1027 61 10000 1.42 295 10:39 06.03.2022
3382 Clear 1 1027 51 10000 1.51 304 09:18 06.03.2022
3383 Clear -2 1027 36 10000 1.63 316 08:27 06.03.2022
3384 Clear -3 1002 48 10000 1.84 326 07:25 06.03.2022
3385 Clear -2 1025 57 10000 1.76 318 02:22 06.03.2022
3386 Clouds -1 1025 60 10000 1.62 328 00:35 06.03.2022
3387 Clouds -1 1025 57 10000 1.47 329 23:59 05.03.2022
3388 Clouds -1 1025 59 10000 1.64 339 23:19 05.03.2022
3389 Clouds 0 1025 57 10000 1.41 342 22:34 05.03.2022
3390 Clouds -1 1024 57 10000 1.52 338 21:29 05.03.2022
3391 Clouds 0 1020 62 10000 1.63 334 20:32 05.03.2022
3392 Clouds 1 1024 62 10000 1.41 328 19:19 05.03.2022
3393 Clouds 1 1022 55 10000 1.25 327 18:37 05.03.2022
3394 Clouds 2 1023 83 10000 1.25 327 17:34 05.03.2022
3395 Clouds 5 1021 50 10000 0.91 297 16:18 05.03.2022
3396 Clouds 4 1021 43 10000 0.86 290 15:20 05.03.2022
3397 Clouds 5 1023 49 10000 0.86 290 14:36 05.03.2022
3398 Clouds 4 1022 53 10000 0.97 293 13:42 05.03.2022
3399 Clouds 3 1022 51 10000 1 299 12:40 05.03.2022
3400 Clouds 1 1022 32 10000 0.64 260 11:20 05.03.2022
3401 Clouds 2 1024 11 10000 0.64 260 10:52 05.03.2022
3402 Clouds 0 1024 1 10000 0.82 260 09:31 05.03.2022
3403 Clouds -2 1024 1 10000 0.87 242 08:28 05.03.2022
3404 Clouds -3 1001 45 10000 0.45 270 07:21 05.03.2022
3405 Clouds -2 1001 45 8794 0.45 313 05:25 05.03.2022
3406 Clouds -1 1002 45 8713 0.45 222 00:33 05.03.2022
3407 Clouds -1 1002 43 10000 0.89 270 22:58 04.03.2022
3408 Clouds 0 1002 42 10000 0.45 203 22:38 04.03.2022
3409 Clouds 0 1002 39 10000 1.37 191 21:43 04.03.2022
3410 Clouds 1 1003 37 10000 1.45 190 20:42 04.03.2022
3411 Clouds 1 1026 33 10000 1.56 182 19:37 04.03.2022
3412 Clear 2 1026 49 10000 1.46 175 18:56 04.03.2022
3413 Clear 2 1026 49 10000 1.38 180 18:33 04.03.2022
3414 Clear 4 1026 61 10000 2.17 178 17:29 04.03.2022
3415 Clear 5 1025 55 10000 2.48 193 15:54 04.03.2022
3416 Clear 5 1025 56 10000 2.6 203 15:25 04.03.2022
3417 Clouds 5 1025 56 10000 2.13 202 13:36 04.03.2022
3418 Clouds 3 1025 56 10000 2.03 207 12:47 04.03.2022
3419 Clouds 3 1025 55 10000 1.63 205 11:37 04.03.2022
3420 Clouds 3 1025 55 10000 1.63 205 11:37 04.03.2022
3421 Clouds -1 1025 41 10000 0.68 216 10:25 04.03.2022
3422 Clouds -2 1028 1 10000 0.38 262 09:28 04.03.2022
3423 Clouds -3 1004 37 10000 0.51 345 07:48 04.03.2022
3424 Clear -4 1004 36 10000 0.71 342 06:21 04.03.2022
3425 Clear -4 1028 1 10000 1.04 353 02:26 04.03.2022
3426 Clear -3 1028 26 10000 1.24 3 23:41 03.03.2022
3427 Clear -2 1028 47 10000 0.97 11 22:18 03.03.2022
3428 Clear -2 1028 52 10000 0.97 11 21:36 03.03.2022
3429 Clear -1 1028 55 10000 0.88 8 20:48 03.03.2022
3430 Clear 0 1027 62 10000 0.83 353 19:34 03.03.2022
3431 Clear 2 1026 63 10000 0.72 15 18:33 03.03.2022
3432 Clear 4 1026 61 10000 0.72 16 17:39 03.03.2022
3433 Clear 4 1026 56 10000 0.39 16 17:18 03.03.2022
3434 Clear 5 1026 71 10000 0.38 340 15:46 03.03.2022
3435 Clear 7 1026 51 10000 0.5 345 14:45 03.03.2022
3436 Clear 7 1026 50 10000 0.51 27 14:27 03.03.2022
3437 Clear 5 1026 54 10000 0.89 56 12:43 03.03.2022
3438 Clear 5 1027 57 10000 1.13 18 11:32 03.03.2022
3439 Clear 3 1027 61 10000 1.13 18 10:39 03.03.2022
3440 Clear -1 1027 59 10000 1.2 360 08:44 03.03.2022
3441 Clear -3 1027 54 10000 1.71 338 06:58 03.03.2022
3442 Clear -2 1003 55 10000 1.7 328 06:23 03.03.2022
3443 Clear 0 1027 63 10000 1.68 343 00:43 03.03.2022
3444 Clear 1 1026 62 10000 1.73 341 23:28 02.03.2022
3445 Clear 1 1026 63 10000 1.73 341 22:48 02.03.2022
3446 Clear 2 1026 62 10000 1.77 340 21:23 02.03.2022
3447 Clear 2 1026 62 10000 1.77 340 21:23 02.03.2022
3448 Clear 3 1025 61 10000 1.64 342 20:30 02.03.2022
3449 Clear 4 1025 61 10000 1.64 342 19:49 02.03.2022
3450 Clear 4 1025 60 10000 1.52 354 19:30 02.03.2022
3451 Clear 5 1024 87 10000 1.75 349 18:39 02.03.2022
3452 Clear 5 1025 88 10000 1.38 356 18:39 02.03.2022
3453 Clear 5 1025 88 10000 1.38 356 18:39 02.03.2022
3454 Clear 7 1024 87 10000 1.75 349 17:45 02.03.2022
3455 Clear 9 1024 84 10000 1.71 339 16:56 02.03.2022
3456 Clear 9 1024 76 10000 1.65 324 16:36 02.03.2022
3457 Clear 10 1023 68 10000 1.81 318 14:42 02.03.2022
3458 Clear 10 1024 62 10000 1.69 301 13:24 02.03.2022
3459 Clear 8 1024 65 10000 1.68 296 12:41 02.03.2022
3460 Clear 7 1024 66 10000 1.64 299 11:39 02.03.2022
3461 Clear 6 1024 67 10000 1.56 293 11:18 02.03.2022
3462 Clear 4 1024 60 10000 1.28 304 09:41 02.03.2022
3463 Clear 2 1024 53 10000 1.17 298 08:52 02.03.2022
3464 Clouds 0 1024 40 10000 1.35 254 07:28 02.03.2022
3465 Clouds -1 1025 93 10000 1.28 277 05:44 02.03.2022
3466 Clouds 1 1026 93 10000 1.07 277 00:58 02.03.2022
3467 Clouds 1 1025 94 10000 1.02 250 23:47 01.03.2022
3468 Clouds 2 1026 94 10000 1 248 22:45 01.03.2022
3469 Clouds 1 1026 94 10000 1.09 250 21:57 01.03.2022
3470 Clouds 1 1025 95 10000 1.09 251 21:24 01.03.2022
3471 Clouds 2 1025 95 10000 1.09 251 20:30 01.03.2022
3472 Clouds 2 1025 95 10000 1.09 251 20:30 01.03.2022
3473 Clouds 3 1025 96 10000 1.04 251 20:30 01.03.2022
3474 Clouds 3 1025 96 10000 1.04 251 19:38 01.03.2022
3475 Clouds 5 1025 97 10000 0.93 229 18:49 01.03.2022
3476 Clouds 5 1025 97 10000 1.08 219 18:20 01.03.2022
3477 Clouds 6 1025 97 10000 1.08 219 17:30 01.03.2022
3478 Clouds 7 1024 45 10000 1.33 215 16:34 01.03.2022
3479 Clouds 7 1024 50 10000 1.33 215 15:41 01.03.2022
3480 Clouds 8 1024 49 10000 1.77 234 14:35 01.03.2022
3481 Clouds 7 1024 42 10000 1.77 234 13:58 01.03.2022
3482 Clouds 7 1024 25 10000 1.58 236 13:25 01.03.2022
3483 Clouds 6 1024 1 10000 1.49 227 12:32 01.03.2022
3484 Clouds 5 1023 1 3925 1.36 220 10:37 01.03.2022
3485 Clouds 4 1000 50 129 0.45 135 08:45 01.03.2022
3486 Clouds 3 1000 50 66 1.79 313 07:54 01.03.2022
3487 Rain 4 999 49 97 1.34 138 06:20 01.03.2022
3488 Clouds 4 1001 45 10000 0.45 42 02:44 01.03.2022
3489 Clouds 4 1001 47 10000 1.34 178 00:36 01.03.2022
3490 Clouds 3 1002 47 10000 1.34 314 23:31 28.02.2022
3491 Clouds 3 1003 44 10000 1.34 225 22:18 28.02.2022
3492 Clouds 3 1003 43 10000 0.89 184 21:37 28.02.2022
3493 Clouds 3 1014 58 10000 1.34 179 19:56 28.02.2022
3494 Clouds 3 1014 60 10000 0.89 269 19:36 28.02.2022
3495 Clouds 3 1014 59 10000 0.45 91 18:44 28.02.2022
3496 Clouds 4 1016 59 10000 1.34 315 17:33 28.02.2022
3497 Clouds 4 1016 59 10000 0.89 220 16:34 28.02.2022
3498 Clouds 4 1016 59 10000 1.34 180 15:27 28.02.2022
3499 Clouds 4 1016 59 10000 0.45 140 14:32 28.02.2022
3500 Clouds 5 1016 59 10000 0.45 268 13:48 28.02.2022
3501 Clouds 4 1007 52 10000 1.34 225 12:48 28.02.2022
3502 Clouds 4 1007 43 10000 1.34 135 11:58 28.02.2022
3503 Clouds 4 1007 46 10000 0.45 264 11:18 28.02.2022
3504 Clouds 3 1007 47 10000 0.45 177 10:21 28.02.2022
3505 Clouds 3 1007 47 10000 0.45 313 09:36 28.02.2022
3506 Clear 2 1007 48 10000 0.45 220 08:44 28.02.2022
3507 Clouds 2 1007 48 10000 0.45 268 07:43 28.02.2022
3508 Clouds 1 1007 48 10000 1.34 271 05:25 28.02.2022
3509 Clouds 2 1007 48 10000 0.45 43 04:27 28.02.2022
3510 Clouds 3 1009 47 10000 0.89 140 23:45 27.02.2022
3511 Clouds 3 1009 47 10000 2.24 267 22:36 27.02.2022
3512 Clouds 3 1009 47 10000 1.34 138 21:52 27.02.2022
3513 Clouds 3 1009 47 10000 0.89 180 21:27 27.02.2022
3514 Clouds 3 1009 46 10000 0.89 180 20:37 27.02.2022
3515 Clouds 3 1009 46 10000 1.34 228 19:58 27.02.2022
3516 Clouds 3 1009 45 10000 0.89 222 19:27 27.02.2022
3517 Clouds 3 1009 45 10000 0.89 222 19:27 27.02.2022
3518 Clouds 4 1008 44 10000 0.89 181 18:48 27.02.2022
3519 Clear 4 1009 42 10000 0.89 0 17:57 27.02.2022
3520 Clear 5 1031 13 10000 3.77 198 17:20 27.02.2022
3521 Clouds 6 1031 52 10000 4.25 201 16:22 27.02.2022
3522 Clouds 6 1031 54 10000 4.94 199 13:40 27.02.2022
3523 Clouds 6 1031 48 10000 4.59 199 12:33 27.02.2022
3524 Clouds 6 1031 36 10000 4.39 200 11:28 27.02.2022
3525 Clouds 5 1031 1 10000 4.41 201 10:24 27.02.2022
3526 Clouds 5 1031 1 10000 4.41 201 09:51 27.02.2022
3527 Clouds 4 1031 1 10000 4.56 200 09:21 27.02.2022
3528 Clouds 4 1009 47 10000 1.34 199 08:31 27.02.2022
3529 Clouds 4 1031 1 8747 3.34 204 05:39 27.02.2022
3530 Clouds 4 1031 1 8554 2.83 206 02:45 27.02.2022
3531 Clouds 4 1030 1 8681 2.45 212 23:34 26.02.2022
3532 Clouds 3 1030 1 10000 2.65 201 22:31 26.02.2022
3533 Clouds 3 1030 1 10000 2.28 200 21:19 26.02.2022
3534 Clouds 3 1030 21 10000 2.28 200 20:33 26.02.2022
3535 Clouds 3 1030 40 10000 2.15 202 19:52 26.02.2022
3536 Clouds 3 1030 40 10000 2.15 202 19:33 26.02.2022
3537 Clouds 3 1029 51 10000 2.36 198 17:58 26.02.2022
3538 Clouds 3 1027 59 10000 2.36 198 17:30 26.02.2022
3539 Clouds 4 1016 61 10000 0.89 93 16:36 26.02.2022
3540 Clouds 4 1016 61 10000 1.34 313 15:27 26.02.2022
3541 Clouds 4 1016 59 10000 0.89 134 14:58 26.02.2022
3542 Clouds 4 1016 58 10000 1.34 315 14:39 26.02.2022
3543 Clouds 4 1006 61 10000 2.24 225 13:46 26.02.2022
3544 Clouds 4 1006 56 10000 0.89 268 12:53 26.02.2022
3545 Clouds 3 1030 61 10000 3.63 201 11:39 26.02.2022
3546 Clouds 1 1030 61 10000 2.75 207 10:59 26.02.2022
3547 Clouds -3 1029 45 10000 1.03 206 09:22 26.02.2022
3548 Clouds -6 1030 1 10000 0.25 307 07:57 26.02.2022
3549 Clear -5 1027 92 10000 1.03 313 04:22 26.02.2022
3550 Clear -1 1021 91 10000 1.08 343 23:35 25.02.2022
3551 Clear -1 1020 89 10000 1.32 1 22:31 25.02.2022
3552 Clear 0 1020 89 10000 1.32 1 21:30 25.02.2022
3553 Clear 0 1016 89 10000 1.88 343 20:34 25.02.2022
3554 Clear 1 1016 89 10000 1.88 343 19:56 25.02.2022
3555 Clear 4 1011 93 10000 1.72 335 17:54 25.02.2022
3556 Clear 5 1009 90 10000 1.37 328 16:47 25.02.2022
3557 Clear 4 1007 77 10000 2.21 324 15:49 25.02.2022
3558 Clear 4 1005 72 10000 2.62 328 15:23 25.02.2022
3559 Clear 5 1005 61 10000 2.62 328 14:50 25.02.2022
3560 Clear 4 1004 62 10000 2.95 343 14:19 25.02.2022
3561 Clouds 3 1002 67 10000 2.42 338 13:23 25.02.2022
3562 Clouds 2 1000 40 10000 2.69 333 11:56 25.02.2022
3563 Clouds 1 998 3 10000 2.27 321 11:20 25.02.2022
3564 Clouds 0 997 11 10000 1.51 297 10:23 25.02.2022
3565 Clouds -1 997 75 10000 1.51 297 09:42 25.02.2022
3566 Clouds -1 997 75 10000 1.51 297 09:42 25.02.2022
3567 Clouds -3 995 1 10000 1.03 299 07:53 25.02.2022
3568 Clouds -3 994 1 10000 1.08 284 06:54 25.02.2022
3569 Clouds -3 993 95 10000 1.04 278 05:40 25.02.2022
3570 Clouds -1 992 1 10000 1.28 248 02:43 25.02.2022
3571 Clouds 0 992 1 10000 0.85 192 22:37 24.02.2022
3572 Clouds 1 992 1 10000 0.85 192 21:50 24.02.2022
3573 Clouds 1 969 42 10000 0.45 90 21:30 24.02.2022
3574 Clouds 1 992 1 10000 1.02 198 20:44 24.02.2022
3575 Clouds 2 992 3 10000 1.66 182 19:31 24.02.2022
3576 Clouds 3 969 47 10000 1.34 269 18:20 24.02.2022
3577 Clouds 3 969 45 10000 1.34 170 17:54 24.02.2022
3578 Clouds 3 969 49 10000 1.34 273 17:20 24.02.2022
3579 Clouds 4 969 58 10000 0.89 182 16:28 24.02.2022
3580 Clouds 4 992 54 10000 3.37 193 15:43 24.02.2022
3581 Clouds 4 969 60 10000 1.34 270 14:45 24.02.2022
3582 Clouds 4 970 60 10000 0.45 136 13:59 24.02.2022
3583 Clouds 4 970 59 10000 0.89 224 13:37 24.02.2022
3584 Clouds 4 993 26 10000 3.9 191 11:41 24.02.2022
3585 Clouds 3 994 1 10000 3.75 192 10:32 24.02.2022
3586 Clouds 2 971 43 10000 1.34 226 08:43 24.02.2022
3587 Clouds 2 970 42 10000 0.45 263 07:22 24.02.2022
3588 Clouds 3 969 43 10000 1.34 270 05:43 24.02.2022
3589 Clouds 6 968 46 9788 1.79 225 00:32 24.02.2022
3590 Clouds 5 970 45 10000 2.68 93 22:25 23.02.2022
3591 Rain 5 973 47 9528 2.24 90 20:48 23.02.2022
3592 Rain 5 974 47 10000 1.79 138 20:28 23.02.2022
3593 Clouds 5 986 56 10000 1.34 228 19:35 23.02.2022
3594 Clouds 5 987 56 10000 3.13 92 18:27 23.02.2022
3595 Clouds 5 988 54 10000 2.24 158 16:33 23.02.2022
3596 Clouds 5 990 57 10000 1.34 138 14:33 23.02.2022
3597 Clouds 4 1004 38 10000 3.21 194 12:37 23.02.2022
3598 Clouds 2 982 36 10000 0.45 270 11:23 23.02.2022
3599 Clouds 0 1005 1 10000 1.34 215 10:24 23.02.2022
3600 Clouds -1 981 48 10000 0.45 4 08:56 23.02.2022
3601 Clouds -3 1005 1 10000 1.09 279 07:56 23.02.2022
3602 Clouds -2 978 45 10000 0.45 139 03:47 23.02.2022
3603 Clouds -2 978 44 1113 0.23 331 00:19 23.02.2022
3604 Clouds -2 977 43 167 0.31 18 23:34 22.02.2022
3605 Snow -2 977 44 125 0.55 94 22:28 22.02.2022
3606 Snow -2 977 44 125 0.45 270 21:48 22.02.2022
3607 Snow -2 977 44 153 1.29 129 21:24 22.02.2022
3608 Snow -2 977 44 153 0.89 229 20:47 22.02.2022
3609 Snow -2 977 44 373 2.08 158 20:28 22.02.2022
3610 Snow -2 977 42 373 0.45 113 19:34 22.02.2022
3611 Snow -1 989 51 6161 0.89 270 18:58 22.02.2022
3612 Snow -1 989 59 10000 1.34 185 17:36 22.02.2022
3613 Snow -1 989 59 10000 0.89 245 17:18 22.02.2022
3614 Snow 0 989 63 10000 1.34 225 16:36 22.02.2022
3615 Clouds 0 990 60 10000 0.89 225 15:37 22.02.2022
3616 Clouds 1 990 65 10000 0.89 225 14:42 22.02.2022
3617 Clouds 0 1004 59 10000 1.48 196 11:54 22.02.2022
3618 Clouds -3 1006 64 10000 0.75 278 10:24 22.02.2022
3619 Clear -6 1006 77 10000 1.68 299 07:43 22.02.2022
3620 Clear -6 1005 79 10000 1.78 305 07:25 22.02.2022
3621 Clear -6 1005 79 10000 1.78 305 07:25 22.02.2022
3622 Clear -1 979 59 10000 0.45 270 02:51 22.02.2022
3623 Clouds -1 1001 81 10000 2.41 330 00:48 22.02.2022
3624 Clouds 0 999 82 10000 2.43 335 22:38 21.02.2022
3625 Clear -1 995 60 10000 3.27 355 21:25 21.02.2022
3626 Clouds -1 990 73 10000 3.37 354 20:29 21.02.2022
3627 Clouds 0 977 64 10000 0.45 270 18:41 21.02.2022
3628 Clouds 1 985 66 10000 5.12 4 16:47 21.02.2022
3629 Clouds 2 960 60 10000 0.89 270 14:24 21.02.2022
3630 Clouds 2 959 59 10000 0.89 274 13:59 21.02.2022
3631 Clouds 1 957 55 10000 1.34 270 12:58 21.02.2022
3632 Snow 1 956 57 10000 0.45 270 12:22 21.02.2022
3633 Clouds 0 954 58 4158 0.45 227 10:35 21.02.2022
3634 Clouds -1 951 44 630 0.45 292 08:44 21.02.2022
3635 Snow 0 975 1 136 3.42 35 02:31 21.02.2022
3636 Snow 0 977 1 158 3.41 81 22:45 20.02.2022
3637 Clouds 1 955 48 218 1.34 134 22:19 20.02.2022
3638 Clouds 1 955 48 219 1.34 134 22:19 20.02.2022
3639 Clouds 1 956 47 219 1.79 137 21:41 20.02.2022
3640 Clouds 0 957 46 213 0.89 86 20:51 20.02.2022
3641 Snow 0 958 46 161 1.34 0 20:22 20.02.2022
3642 Snow 0 960 45 176 0.89 135 19:29 20.02.2022
3643 Snow 0 960 44 129 1.34 140 18:49 20.02.2022
3644 Snow 1 960 43 129 2.24 114 18:30 20.02.2022
3645 Snow 1 962 55 2144 1.34 135 17:30 20.02.2022
3646 Clouds 2 965 56 10000 0.45 90 15:30 20.02.2022
3647 Clouds 2 989 61 10000 1.61 186 14:39 20.02.2022
3648 Clouds 2 967 53 10000 0.89 90 13:22 20.02.2022
3649 Clouds 2 967 53 10000 0.89 90 13:22 20.02.2022
3650 Clouds 2 992 61 10000 0.99 191 12:20 20.02.2022
3651 Clouds -1 994 63 10000 0.88 291 10:21 20.02.2022
3652 Clouds -2 994 61 10000 0.89 291 09:52 20.02.2022
3653 Clear -4 971 62 10000 1.1 286 06:46 20.02.2022
3654 Clouds -3 971 63 10000 1.66 312 00:33 20.02.2022
3655 Clouds -2 971 62 10000 1.73 319 23:42 19.02.2022
3656 Clouds -3 994 61 10000 1.72 330 22:25 19.02.2022
3657 Clouds -3 994 58 10000 1.73 330 21:54 19.02.2022
3658 Clouds -2 993 61 10000 1.69 326 20:48 19.02.2022
3659 Clouds 0 993 63 10000 1.48 332 19:41 19.02.2022
3660 Clouds 0 992 64 10000 1.31 333 18:41 19.02.2022
3661 Clouds 0 992 64 10000 1.31 333 18:41 19.02.2022
3662 Clouds 1 992 63 10000 1.36 340 18:19 19.02.2022
3663 Clouds 1 989 61 10000 1.58 327 17:33 19.02.2022
3664 Clouds 3 991 54 10000 1.27 297 15:59 19.02.2022
3665 Clear 3 991 52 10000 1.13 278 14:56 19.02.2022
3666 Clear 3 990 51 10000 1.13 278 13:59 19.02.2022
3667 Clouds 2 989 55 10000 1.17 274 11:59 19.02.2022
3668 Clouds 2 988 59 10000 1.13 286 11:36 19.02.2022
3669 Clouds -2 987 60 10000 1.29 300 09:27 19.02.2022
3670 Clouds -3 984 45 10000 1.83 316 06:51 19.02.2022
3671 Clouds 0 979 48 10000 3.09 354 01:39 19.02.2022
3672 Clouds 0 977 36 10000 3.01 14 22:54 18.02.2022
3673 Clouds 0 978 24 10000 2.06 24 21:28 18.02.2022
3674 Clouds 0 978 25 10000 2.06 24 20:31 18.02.2022
3675 Clouds 0 979 43 10000 0.98 57 19:51 18.02.2022
3676 Clouds 1 979 45 10000 1.36 46 18:39 18.02.2022
3677 Clouds 1 980 50 10000 1.43 46 18:19 18.02.2022
3678 Clouds 2 982 61 10000 0.75 81 17:20 18.02.2022
3679 Clouds 6 985 56 10000 1.92 208 14:39 18.02.2022
3680 Clouds 6 985 56 10000 1.92 207 13:47 18.02.2022
3681 Clear 5 987 58 10000 1.78 212 12:51 18.02.2022
3682 Clear 5 987 52 10000 0.6 243 11:57 18.02.2022
3683 Clear 4 987 57 10000 0.89 258 10:47 18.02.2022
3684 Clear 1 987 62 10000 1.5 298 09:20 18.02.2022
3685 Clouds 1 987 58 10000 1.74 288 06:50 18.02.2022
3686 Clouds 0 962 61 10000 2.03 291 05:36 18.02.2022
3687 Clouds 1 959 60 10000 0.45 225 22:43 17.02.2022
3688 Clouds 1 959 56 10000 1.11 260 21:42 17.02.2022
3689 Clouds 1 959 59 10000 0.71 265 20:52 17.02.2022
3690 Clouds 1 958 56 10000 0.71 265 20:33 17.02.2022
3691 Clouds 0 958 58 10000 0.83 300 19:42 17.02.2022
3692 Clouds 0 980 34 10000 1.21 326 18:34 17.02.2022
3693 Clouds 1 980 29 10000 1.21 326 17:46 17.02.2022
3694 Clouds 3 976 66 10000 1.22 279 16:19 17.02.2022
3695 Clouds 3 978 62 10000 1.58 296 14:30 17.02.2022
3696 Clouds 3 978 60 10000 1.34 288 13:47 17.02.2022
3697 Clouds 2 977 52 10000 1.14 249 11:55 17.02.2022
3698 Clouds 2 977 48 10000 0.97 261 11:21 17.02.2022
3699 Clouds 1 952 43 10000 1.31 294 07:57 17.02.2022
3700 Clouds 1 974 1 10000 1.93 29 00:20 17.02.2022
3701 Clouds 1 974 1 6865 1.53 33 22:38 16.02.2022
3702 Clouds 1 952 48 10000 0.45 133 20:24 16.02.2022
3703 Clouds 1 954 47 10000 0.45 285 19:27 16.02.2022
3704 Clouds 2 954 46 10000 0.45 90 18:35 16.02.2022
3705 Clouds 3 955 43 10000 0.45 270 17:27 16.02.2022
3706 Clouds 5 957 51 10000 0.45 270 15:24 16.02.2022
3707 Clouds 4 958 41 10000 0.89 304 13:47 16.02.2022
3708 Clouds 4 959 46 10000 0.45 230 12:31 16.02.2022
3709 Clouds 4 960 51 10000 0.45 263 11:46 16.02.2022
3710 Clouds 2 961 51 10000 0.45 136 10:35 16.02.2022
3711 Clouds 2 961 51 10000 0.45 267 09:54 16.02.2022
3712 Clouds 2 961 50 49 0.45 0 06:44 16.02.2022
3713 Snow 2 962 49 23 0.89 221 02:48 16.02.2022
3714 Rain 2 967 48 51 0.89 291 22:34 15.02.2022
3715 Rain 2 968 46 452 0.45 140 21:51 15.02.2022
3716 Rain 3 968 45 452 0.45 268 21:31 15.02.2022
3717 Rain 2 969 44 10000 0.45 262 20:58 15.02.2022
3718 Clouds 2 979 63 10000 0.45 43 20:38 15.02.2022
3719 Clouds 2 980 67 10000 0.45 180 19:48 15.02.2022
3720 Clouds 2 992 28 10000 1.32 224 18:28 15.02.2022
3721 Clouds 2 992 21 10000 1.32 224 17:57 15.02.2022
3722 Clouds 2 992 19 10000 1.32 224 17:38 15.02.2022
3723 Clouds 3 992 6 10000 1.41 218 15:44 15.02.2022
3724 Clouds 4 991 1 10000 1.39 224 14:35 15.02.2022
3725 Clouds 3 991 1 10000 1.41 215 13:26 15.02.2022
3726 Clouds 2 968 46 10000 0.45 223 11:43 15.02.2022
3727 Clouds 1 991 1 10000 1.23 233 10:32 15.02.2022
3728 Clouds 1 966 48 10000 0.89 270 08:56 15.02.2022
3729 Snow 2 964 49 1996 0.45 223 06:47 15.02.2022
3730 Snow 2 991 99 116 0.95 338 00:26 15.02.2022
3731 Rain 2 967 50 88 0.45 223 21:59 14.02.2022
3732 Rain 2 978 62 85 0.89 270 20:57 14.02.2022
3733 Rain 2 978 61 75 0.89 270 19:52 14.02.2022
3734 Snow 2 978 61 75 0.45 225 19:30 14.02.2022
3735 Rain 2 978 61 40 0.45 270 18:24 14.02.2022
3736 Snow 2 978 61 40 0.45 269 17:37 14.02.2022
3737 Snow 2 978 61 33 0.89 231 17:18 14.02.2022
3738 Rain 2 979 65 32 0.45 273 15:52 14.02.2022
3739 Rain 2 979 65 23 0.45 270 13:37 14.02.2022
3740 Rain 2 970 49 22 0.45 270 12:59 14.02.2022
3741 Clouds 2 969 49 22 1.48 47 12:32 14.02.2022
3742 Clouds 2 970 49 22 1.08 49 11:39 14.02.2022
3743 Clouds 2 993 1 23 0.89 92 10:22 14.02.2022
3744 Clouds 2 969 50 25 0.45 90 08:32 14.02.2022
3745 Snow 2 969 50 23 0.45 227 07:26 14.02.2022
3746 Rain 5 973 50 10000 0.45 291 23:19 13.02.2022
3747 Rain 5 973 50 10000 0.45 266 22:41 13.02.2022
3748 Rain 5 973 49 10000 0.89 283 22:22 13.02.2022
3749 Rain 6 973 49 10000 0.89 270 21:24 13.02.2022
3750 Clouds 5 984 62 10000 1.79 93 20:30 13.02.2022
3751 Clouds 5 995 46 10000 4.36 198 19:23 13.02.2022
3752 Clouds 5 995 46 10000 4.43 198 18:41 13.02.2022
3753 Clouds 6 995 46 10000 4.48 201 17:41 13.02.2022
3754 Clouds 7 984 58 10000 2.24 157 15:53 13.02.2022
3755 Clouds 7 984 57 10000 2.68 267 14:52 13.02.2022
3756 Clouds 7 984 57 10000 1.34 223 13:42 13.02.2022
3757 Clouds 6 984 57 10000 2.24 180 12:49 13.02.2022
3758 Clouds 6 984 57 10000 1.34 91 10:50 13.02.2022
3759 Clouds 6 984 59 10000 0.89 135 10:27 13.02.2022
3760 Clouds 5 984 59 10000 1.34 158 09:36 13.02.2022
3761 Clouds 5 974 53 10000 0.89 225 06:21 13.02.2022
3762 Clouds 4 979 49 64 1.79 139 00:35 13.02.2022
3763 Clouds 5 980 51 57 1.34 135 22:59 12.02.2022
3764 Clouds 5 980 51 58 1.34 270 22:33 12.02.2022
3765 Clouds 5 981 51 85 1.79 223 21:19 12.02.2022
3766 Rain 4 992 62 115 2.24 135 20:25 12.02.2022
3767 Clouds 4 995 62 102 1.34 180 19:21 12.02.2022
3768 Clouds 4 995 62 102 2.24 90 18:50 12.02.2022
3769 Clouds 4 995 61 89 1.34 199 18:32 12.02.2022
3770 Clouds 4 996 58 66 1.34 225 16:55 12.02.2022
3771 Rain 4 996 57 278 2.24 137 16:25 12.02.2022
3772 Clouds 4 996 56 278 2.24 138 15:49 12.02.2022
3773 Clouds 4 998 58 10000 2.24 224 14:30 12.02.2022
3774 Clouds 4 989 59 10000 0.89 45 12:55 12.02.2022
3775 Clouds 3 990 62 10000 0.89 180 10:36 12.02.2022
3776 Clouds 3 990 60 10000 0.89 90 09:39 12.02.2022
3777 Clouds 3 991 62 10000 0.89 269 08:48 12.02.2022
3778 Clouds 2 991 60 10000 0.89 264 07:53 12.02.2022
3779 Clouds 2 992 61 10000 0.89 221 05:33 12.02.2022
3780 Clouds 1 992 61 10000 0.45 270 04:27 12.02.2022
3781 Clouds 1 993 63 10000 0.45 135 02:18 12.02.2022
3782 Clouds -1 994 56 10000 0.45 248 22:28 11.02.2022
3783 Clouds 0 995 53 10000 0.45 180 21:51 11.02.2022
3784 Clouds 0 994 46 10000 0.45 289 20:40 11.02.2022
3785 Clouds 0 1018 49 10000 1.86 233 19:40 11.02.2022
3786 Clouds 0 1018 48 10000 1.59 221 19:20 11.02.2022
3787 Clouds 1 1018 48 10000 1.54 226 17:48 11.02.2022
3788 Clouds 1 1019 48 10000 1.39 225 17:23 11.02.2022
3789 Clouds 1 1018 45 10000 1.55 238 16:22 11.02.2022
3790 Clear 3 1019 40 10000 1.73 256 14:43 11.02.2022
3791 Clear 3 1018 43 10000 1.85 266 14:21 11.02.2022
3792 Clear 3 1018 42 10000 1.85 266 13:57 11.02.2022
3793 Clear 2 1018 43 10000 1.85 266 13:39 11.02.2022
3794 Clear 1 1017 51 10000 2.04 297 11:41 11.02.2022
3795 Clear -2 1016 58 10000 1.95 309 09:57 11.02.2022
3796 Clear -3 991 56 10000 1.93 314 08:42 11.02.2022
3797 Clear -3 991 56 10000 1.93 314 08:42 11.02.2022
3798 Clear -2 991 56 10000 1.86 312 08:22 11.02.2022
3799 Clouds -3 989 58 10000 0.45 225 07:18 11.02.2022
3800 Clouds -1 985 57 10000 1.83 315 02:26 11.02.2022
3801 Clouds -1 985 58 10000 0.45 225 00:51 11.02.2022
3802 Clouds -1 983 57 10000 1.71 299 22:51 10.02.2022
3803 Clear 0 983 58 10000 1.62 298 21:46 10.02.2022
3804 Clear 1 982 57 10000 1.89 303 20:59 10.02.2022
3805 Clear 1 982 56 10000 2.11 306 20:35 10.02.2022
3806 Clouds 1 981 62 10000 1.99 298 19:26 10.02.2022
3807 Clouds 1 980 61 10000 1.98 298 18:46 10.02.2022
3808 Clouds 3 1001 63 10000 1.26 258 17:26 10.02.2022
3809 Clouds 3 1001 60 10000 1.26 258 16:50 10.02.2022
3810 Clouds 4 978 56 10000 0.45 270 15:51 10.02.2022
3811 Clouds 4 978 57 10000 0.45 225 15:30 10.02.2022
3812 Clouds 5 989 55 10000 1.79 210 14:48 10.02.2022
3813 Clear 5 1000 57 10000 1.79 210 14:24 10.02.2022
3814 Clear 5 978 52 10000 0.45 270 13:29 10.02.2022
3815 Clear 5 1001 54 10000 3.56 228 12:50 10.02.2022
3816 Clear 4 1001 58 10000 3.28 226 11:34 10.02.2022
3817 Clear 3 1002 61 10000 2.93 225 10:55 10.02.2022
3818 Clear 2 1002 62 10000 2.51 217 09:59 10.02.2022
3819 Clear 2 1001 63 10000 1.99 209 09:24 10.02.2022
3820 Clear 1 978 62 10000 0.89 225 07:36 10.02.2022
3821 Clear 2 978 62 10000 0.45 136 04:58 10.02.2022
3822 Clear 2 979 63 10000 0.89 270 01:51 10.02.2022
3823 Clear 3 979 62 10000 0.89 270 00:49 10.02.2022
3824 Clear 3 979 62 10000 0.45 269 00:28 10.02.2022
3825 Clear 2 979 62 10000 1.34 313 23:23 09.02.2022
3826 Clear 2 978 62 10000 2.68 270 22:35 09.02.2022
3827 Clear 2 988 63 10000 0.45 269 21:51 09.02.2022
3828 Clear 2 988 63 10000 1.34 248 21:29 09.02.2022
3829 Clear 2 988 62 10000 0.45 225 20:47 09.02.2022
3830 Clear 2 988 62 10000 0.45 225 20:27 09.02.2022
3831 Clear 2 988 63 10000 2.24 270 19:54 09.02.2022
3832 Clear 3 988 61 10000 1.34 225 19:31 09.02.2022
3833 Clear 4 987 49 10000 1.34 180 17:37 09.02.2022
3834 Clear 5 988 49 10000 1.34 270 16:48 09.02.2022
3835 Clear 5 1000 53 10000 5.76 250 15:50 09.02.2022
3836 Clear 7 997 46 10000 6.07 247 14:35 09.02.2022
3837 Clouds 7 998 59 10000 5.49 243 12:28 09.02.2022
3838 Clouds 5 998 53 10000 5.24 245 10:54 09.02.2022
3839 Clouds 4 998 40 10000 5.01 234 10:26 09.02.2022
3840 Clouds 4 976 43 10000 0.45 272 09:40 09.02.2022
3841 Clouds 3 976 44 10000 0.45 227 09:19 09.02.2022
3842 Clouds 3 976 45 10000 1.34 315 07:53 09.02.2022
3843 Clouds 2 978 49 10000 0.89 270 05:30 09.02.2022
3844 Clouds 2 978 49 10000 0.89 270 05:30 09.02.2022
3845 Clouds 2 980 59 10000 0.45 266 03:50 09.02.2022
3846 Clouds 2 980 59 10000 0.45 266 03:50 09.02.2022
3847 Clouds 2 982 64 10000 1.34 267 00:39 09.02.2022
3848 Clouds 2 982 61 10000 0.45 201 23:32 08.02.2022
3849 Clouds 2 982 61 10000 0.45 201 23:32 08.02.2022
3850 Clouds 2 982 61 10000 0.45 201 23:32 08.02.2022
3851 Clouds 2 982 61 10000 0.45 201 23:32 08.02.2022
3852 Clouds 3 1005 63 10000 2.62 207 22:46 08.02.2022
3853 Clouds 3 1005 61 10000 2.17 210 22:21 08.02.2022
3854 Clouds 3 1005 61 10000 2.19 211 21:39 08.02.2022
3855 Clouds 3 1005 62 10000 1.96 215 21:20 08.02.2022
3856 Clouds 3 1005 60 10000 1.96 215 20:43 08.02.2022
3857 Clouds 3 1005 59 10000 1.83 219 19:46 08.02.2022
3858 Clear 4 1004 56 10000 1.94 219 18:38 08.02.2022
3859 Clear 5 1004 52 10000 2.06 223 17:40 08.02.2022
3860 Clear 7 1002 49 10000 2.22 223 16:29 08.02.2022
3861 Clear 8 997 42 10000 2.98 241 15:29 08.02.2022
3862 Clear 8 997 42 10000 2.98 241 14:31 08.02.2022
3863 Clouds 8 1001 54 10000 2.62 240 13:20 08.02.2022
3864 Clouds 6 1000 61 10000 2.54 253 11:33 08.02.2022
3865 Clouds 3 999 77 10000 1.95 232 10:23 08.02.2022
3866 Clouds 4 999 35 10000 1.95 232 10:23 08.02.2022
3867 Clouds 4 999 34 10000 1.96 233 09:44 08.02.2022
3868 Clouds 3 998 1 10000 1.54 238 07:51 08.02.2022
3869 Clouds 4 974 46 9065 1.34 182 05:40 08.02.2022
3870 Clouds 3 975 47 10000 0.89 226 04:39 08.02.2022
3871 Clouds 3 975 51 10000 1.34 138 04:21 08.02.2022
3872 Clouds 4 976 57 10000 1.34 313 03:36 08.02.2022
3873 Clouds 4 976 58 10000 1.79 179 03:18 08.02.2022
3874 Clouds 3 976 59 10000 1.34 225 02:58 08.02.2022
3875 Clouds 4 977 59 10000 1.34 267 02:36 08.02.2022
3876 Clouds 3 1000 45 10000 3.19 204 02:18 08.02.2022
3877 Clouds 3 1000 57 10000 3.19 204 01:43 08.02.2022
3878 Clouds 3 1001 60 10000 3.01 198 01:24 08.02.2022
3879 Clouds 3 1001 60 10000 3.01 198 00:53 08.02.2022
3880 Clouds 2 1001 63 10000 1.62 185 23:54 07.02.2022
3881 Clouds 2 1001 63 10000 1.62 185 23:36 07.02.2022
3882 Snow 1 1003 93 5132 1.49 182 23:18 07.02.2022
3883 Clouds 1 1004 92 10000 1.01 194 22:19 07.02.2022
3884 Clouds 1 1004 93 10000 0.99 193 21:53 07.02.2022
3885 Clouds 1 1005 93 10000 1.11 202 21:29 07.02.2022
3886 Clouds 1 1005 93 10000 1.11 202 20:56 07.02.2022
3887 Clouds 1 1005 93 10000 1.11 202 20:38 07.02.2022
3888 Clouds 1 1006 94 10000 0.66 205 19:49 07.02.2022
3889 Clouds 1 1006 94 10000 0.66 205 19:31 07.02.2022
3890 Clouds 2 1008 93 10000 0.64 295 17:52 07.02.2022
3891 Clear 5 1007 92 10000 0.52 280 16:52 07.02.2022
3892 Clear 6 1006 90 10000 0.4 279 15:49 07.02.2022
3893 Clear 6 1005 81 10000 0.95 263 14:48 07.02.2022
3894 Clouds 6 1002 64 10000 1.57 294 13:28 07.02.2022
3895 Clouds 5 1002 64 10000 1.57 294 12:38 07.02.2022
3896 Clouds 5 1001 65 10000 1.92 294 11:57 07.02.2022
3897 Clouds 3 999 68 10000 1.75 301 11:34 07.02.2022
3898 Clouds 3 999 68 10000 1.75 301 10:49 07.02.2022
3899 Clouds 1 998 75 10000 1.86 302 10:29 07.02.2022
3900 Clouds -1 998 75 10000 1.87 302 09:53 07.02.2022
3901 Clouds -1 996 80 10000 1.75 300 09:18 07.02.2022
3902 Clear -2 994 84 10000 1.46 306 08:24 07.02.2022
3903 Clouds -2 993 80 10000 1.53 303 06:54 07.02.2022
3904 Clouds -3 993 80 10000 1.53 303 06:33 07.02.2022
3905 Clouds -3 989 59 10000 1.9 297 02:58 07.02.2022
3906 Clouds -3 986 86 10000 1.9 312 00:44 07.02.2022
3907 Clouds -2 985 63 10000 1.91 307 23:42 06.02.2022
3908 Clouds -2 983 88 10000 1.63 302 22:47 06.02.2022
3909 Clouds -2 982 87 10000 1.2 304 21:54 06.02.2022
3910 Clouds -2 982 87 10000 1.2 304 21:35 06.02.2022
3911 Clouds -2 981 91 10000 1.13 291 20:53 06.02.2022
3912 Clouds -2 981 91 10000 1.13 291 20:31 06.02.2022
3913 Clouds 0 979 91 10000 1.47 242 19:37 06.02.2022
3914 Clouds 0 979 91 10000 1.5 229 18:38 06.02.2022
3915 Clouds 0 979 90 10000 1.52 215 17:55 06.02.2022
3916 Clouds 1 978 90 10000 1.79 201 17:18 06.02.2022
3917 Clouds 2 978 90 10000 1.79 201 16:38 06.02.2022
3918 Clouds 2 978 63 10000 2.25 191 15:48 06.02.2022
3919 Clouds 3 977 64 10000 3.01 208 15:26 06.02.2022
3920 Clouds 3 978 61 10000 3.34 212 14:36 06.02.2022
3921 Clouds 3 978 63 10000 3.4 218 13:25 06.02.2022
3922 Clouds 3 955 59 10000 0.45 140 12:51 06.02.2022
3923 Clouds 2 979 62 10000 3.26 210 11:32 06.02.2022
3924 Clouds 1 979 55 10000 2.7 201 10:30 06.02.2022
3925 Clouds 0 957 59 10000 0.45 249 08:53 06.02.2022
3926 Clouds 0 957 58 10000 0.45 270 08:30 06.02.2022
3927 Clear 1 957 62 10000 0.45 181 05:31 06.02.2022
3928 Clear 1 957 62 10000 0.45 181 05:31 06.02.2022
3929 Clear 3 958 62 10000 0.45 225 02:49 06.02.2022
3930 Clear 3 958 58 10000 0.45 268 02:24 06.02.2022
3931 Clouds 4 958 45 10000 0.45 269 00:27 06.02.2022
3932 Clouds 4 959 47 9659 1.34 93 22:31 05.02.2022
3933 Clouds 4 960 47 9656 2.24 183 21:32 05.02.2022
3934 Clouds 4 962 44 9069 2.68 180 20:24 05.02.2022
3935 Clouds 3 964 45 9069 1.34 227 19:46 05.02.2022
3936 Clouds 3 966 54 10000 1.79 183 18:58 05.02.2022
3937 Clouds 3 967 51 10000 1.34 116 17:45 05.02.2022
3938 Clouds 3 968 55 10000 1.79 267 17:25 05.02.2022
3939 Clouds 3 991 62 10000 3.11 197 15:40 05.02.2022
3940 Clouds 3 992 63 10000 2.62 202 15:21 05.02.2022
3941 Clouds 3 993 62 10000 2.19 198 12:47 05.02.2022
3942 Clouds 3 993 62 10000 1.89 204 12:27 05.02.2022
3943 Clouds 2 993 61 10000 1.11 203 10:48 05.02.2022
3944 Clouds 0 993 83 10000 1.12 235 10:22 05.02.2022
3945 Clouds 0 993 83 10000 1.12 235 09:44 05.02.2022
3946 Clouds -2 992 90 10000 1.15 261 07:51 05.02.2022
3947 Clouds -2 992 93 10000 1.36 254 06:57 05.02.2022
3948 Clouds -1 990 95 10000 1.2 245 04:30 05.02.2022
3949 Clouds -1 989 11 10000 1.59 210 01:19 05.02.2022
3950 Clouds -1 989 11 10000 1.42 223 00:53 05.02.2022
3951 Clouds -1 989 1 10000 1.69 210 23:46 04.02.2022
3952 Clouds -1 989 1 10000 1.94 201 23:28 04.02.2022
3953 Clouds 0 989 3 10000 1.88 192 21:54 04.02.2022
3954 Clouds 0 989 1 10000 1.88 192 21:36 04.02.2022
3955 Clouds 0 989 1 10000 1.8 203 21:18 04.02.2022
3956 Clouds 1 989 49 10000 2.06 211 19:59 04.02.2022
3957 Clouds 2 966 42 10000 0.45 225 17:43 04.02.2022
3958 Clouds 3 966 55 10000 0.89 267 15:39 04.02.2022
3959 Clouds 4 966 49 10000 3.79 217 14:55 04.02.2022
3960 Clouds 4 966 40 10000 0.45 222 13:33 04.02.2022
3961 Clouds 4 967 49 10000 0.45 355 12:43 04.02.2022
3962 Clouds 4 966 51 10000 0.45 225 11:42 04.02.2022
3963 Clouds 4 966 51 10000 0.45 250 10:36 04.02.2022
3964 Clouds 4 966 52 6318 0.89 224 08:36 04.02.2022
3965 Rain 5 966 51 152 2.68 161 06:47 04.02.2022
3966 Clouds -1 971 47 88 3 182 02:44 04.02.2022
3967 Clouds -2 973 46 335 1.26 171 01:52 04.02.2022
3968 Clouds -3 975 43 1101 0.45 114 23:29 03.02.2022
3969 Clouds -3 976 43 588 0.89 221 22:33 03.02.2022
3970 Clouds -3 977 41 585 0.82 58 21:49 03.02.2022
3971 Snow -4 978 40 797 1.04 34 20:38 03.02.2022
3972 Snow -4 979 40 234 1.18 17 20:18 03.02.2022
3973 Snow -4 979 39 155 1.27 22 19:30 03.02.2022
3974 Snow -4 980 39 176 1.56 17 18:35 03.02.2022
3975 Snow -4 981 39 134 1.42 33 17:32 03.02.2022
3976 Snow -4 981 39 129 1.24 38 16:26 03.02.2022
3977 Snow -4 982 39 133 0.45 267 14:45 03.02.2022
3978 Clouds -4 984 39 117 1.6 46 12:52 03.02.2022
3979 Snow -5 985 38 158 1.28 50 10:58 03.02.2022
3980 Clouds -6 985 38 10000 0.45 228 08:37 03.02.2022
3981 Clouds -8 1010 94 10000 1.53 19 05:26 03.02.2022
3982 Clouds -9 1009 1 10000 1.53 348 00:32 03.02.2022
3983 Clouds -9 1009 1 10000 1.21 325 23:39 02.02.2022
3984 Clouds -8 1008 1 10000 1.05 326 22:19 02.02.2022
3985 Clouds -8 1008 1 10000 1.05 326 21:34 02.02.2022
3986 Clouds -8 1008 1 10000 1.19 350 20:49 02.02.2022
3987 Clouds -7 1008 1 8518 0.93 322 19:58 02.02.2022
3988 Clouds -7 1008 1 7523 0.68 327 19:27 02.02.2022
3989 Clouds -7 1008 1 6825 0.69 355 18:45 02.02.2022
3990 Clouds -6 1008 1 7354 0.77 313 17:56 02.02.2022
3991 Clouds -5 1008 1 10000 0.51 266 17:19 02.02.2022
3992 Clouds -5 1008 2 10000 0.51 266 16:42 02.02.2022
3993 Clouds -3 982 42 10000 0.45 270 13:28 02.02.2022
3994 Clouds -5 1006 1 10000 1.07 218 12:20 02.02.2022
3995 Clouds -5 1005 1 10000 0.68 219 11:33 02.02.2022
3996 Clouds -6 981 39 10000 0.45 270 10:22 02.02.2022
3997 Clouds -8 979 39 8879 0.8 343 07:35 02.02.2022
3998 Clouds -4 969 41 204 0.89 137 22:52 01.02.2022
3999 Snow -4 969 41 170 0.45 226 21:50 01.02.2022
4000 Snow -4 968 40 127 0.89 90 20:35 01.02.2022
4001 Snow -4 968 39 153 0.45 268 17:44 01.02.2022
4002 Snow -4 968 38 123 0.45 270 16:39 01.02.2022
4003 Snow -4 968 38 123 0.45 226 16:39 01.02.2022
4004 Snow -4 969 38 123 1.24 24 14:24 01.02.2022
4005 Snow -5 970 37 124 1.22 22 12:43 01.02.2022
4006 Snow -5 971 36 1695 0.73 59 11:30 01.02.2022
4007 Clouds -6 979 38 10000 1.22 356 04:53 01.02.2022
4008 Clouds -5 981 38 10000 1.2 357 23:41 31.01.2022
4009 Clouds -5 981 38 10000 1.58 337 22:58 31.01.2022
4010 Clouds -5 982 37 10000 1.18 13 21:40 31.01.2022
4011 Clouds -5 982 40 10000 1.33 1 21:19 31.01.2022
4012 Clouds -6 1007 21 10000 1.19 353 20:32 31.01.2022
4013 Clouds -5 1007 28 10000 1.19 353 19:35 31.01.2022
4014 Clouds -3 982 54 10000 0.66 336 18:26 31.01.2022
4015 Clouds -3 983 57 10000 0.34 335 17:41 31.01.2022
4016 Clouds -2 983 61 10000 0.45 267 16:38 31.01.2022
4017 Clouds -2 983 60 10000 0.45 270 15:41 31.01.2022
4018 Clouds -2 983 56 10000 0.45 270 14:22 31.01.2022
4019 Clouds -3 1007 46 10000 0.55 217 12:39 31.01.2022
4020 Clouds -3 1007 45 10000 0.47 253 11:56 31.01.2022
4021 Clouds -5 1007 31 10000 0.09 312 10:50 31.01.2022
4022 Clouds -4 984 49 10000 0.66 337 10:30 31.01.2022
4023 Clouds -4 984 55 10000 1.05 332 09:26 31.01.2022
4024 Clouds -5 983 55 10000 1.05 332 08:50 31.01.2022
4025 Clouds -5 983 54 10000 1.3 332 08:20 31.01.2022
4026 Clouds -6 1007 31 10000 1.2 333 06:18 31.01.2022
4027 Clouds -3 985 56 10000 1.24 319 02:18 31.01.2022
4028 Clouds -4 1012 66 10000 0.52 330 23:18 30.01.2022
4029 Clouds -2 988 56 10000 0.45 292 22:29 30.01.2022
4030 Clouds -2 988 56 10000 0.22 174 21:42 30.01.2022
4031 Clouds -1 988 54 10000 0.48 57 21:19 30.01.2022
4032 Clouds -1 989 53 10000 0.48 56 20:47 30.01.2022
4033 Clouds -1 989 53 10000 0.75 358 20:28 30.01.2022
4034 Clouds -1 1014 83 10000 0.76 359 19:52 30.01.2022
4035 Clouds 0 1014 82 10000 0.92 322 18:43 30.01.2022
4036 Clear 1 1014 80 10000 1.14 321 18:20 30.01.2022
4037 Clear 2 1013 74 10000 1.47 355 17:22 30.01.2022
4038 Clear 3 1013 74 10000 1.49 356 16:40 30.01.2022
4039 Clear 3 1013 44 10000 1.9 354 16:22 30.01.2022
4040 Clear 4 1013 66 10000 1.9 354 15:50 30.01.2022
4041 Clear 4 988 39 10000 0.89 226 15:32 30.01.2022
4042 Clear 5 982 29 10000 1.79 21 14:46 30.01.2022
4043 Clear 5 1011 39 10000 5.53 345 12:47 30.01.2022
4044 Clear 5 1010 38 10000 6.57 340 12:25 30.01.2022
4045 Clear 5 1008 46 10000 6.6 338 10:36 30.01.2022
4046 Clear 5 983 43 10000 0.89 288 09:56 30.01.2022
4047 Clouds 5 981 43 10000 1.34 269 08:58 30.01.2022
4048 Clouds 5 978 48 10000 0.89 226 07:55 30.01.2022
4049 Clear 5 965 50 10000 0.89 268 02:29 30.01.2022
4050 Clouds 4 961 52 5108 0.45 90 00:41 30.01.2022
4051 Clouds 4 960 48 10000 0.45 180 23:21 29.01.2022
4052 Clouds 4 957 45 10000 0.89 314 21:59 29.01.2022
4053 Clouds 5 957 48 10000 0.45 225 21:26 29.01.2022
4054 Clouds 6 955 49 10000 1.34 232 20:36 29.01.2022
4055 Clouds 7 953 48 10000 2.24 228 19:36 29.01.2022
4056 Clouds 8 953 51 10000 0.45 270 18:58 29.01.2022
4057 Clouds 8 952 52 10000 0.89 225 18:30 29.01.2022
4058 Clouds 8 949 64 10000 0.89 270 17:41 29.01.2022
4059 Clouds 7 948 60 10000 0.89 270 16:38 29.01.2022
4060 Clouds 7 952 54 4623 1.34 180 14:24 29.01.2022
4061 Clouds 7 955 45 4603 0.45 230 13:45 29.01.2022
4062 Clouds 7 956 44 4455 1.79 139 13:24 29.01.2022
4063 Clouds 6 979 1 4455 2.51 207 12:35 29.01.2022
4064 Clouds 6 961 50 398 0.89 244 11:38 29.01.2022
4065 Clouds 5 965 50 3106 0.45 187 09:49 29.01.2022
4066 Clouds 5 971 49 758 0.45 181 06:55 29.01.2022
4067 Clouds 3 982 49 10000 1.34 221 00:49 29.01.2022
4068 Clouds 2 982 49 10000 1.34 122 00:31 29.01.2022
4069 Snow 0 986 53 10000 0.89 227 22:52 28.01.2022
4070 Snow 1 987 62 10000 1.34 226 22:27 28.01.2022
4071 Snow 1 1011 60 10000 2.21 183 21:52 28.01.2022
4072 Snow 1 1014 63 10000 1.05 193 20:30 28.01.2022
4073 Snow 1 1014 63 10000 1.04 193 20:30 28.01.2022
4074 Snow 1 1016 93 10000 0.71 280 19:33 28.01.2022
4075 Clouds 1 1016 61 10000 0.71 280 18:46 28.01.2022
4076 Clouds 1 1018 93 10000 0.71 212 17:31 28.01.2022
4077 Clouds 2 1019 84 10000 0.69 240 15:21 28.01.2022
4078 Clouds 3 1020 78 10000 0.97 256 13:57 28.01.2022
4079 Clouds 2 1021 74 10000 1.08 260 12:31 28.01.2022
4080 Clouds 2 1021 74 10000 1.08 260 11:36 28.01.2022
4081 Clear -1 1020 82 10000 1.35 290 09:52 28.01.2022
4082 Clear -1 1019 86 10000 1.61 310 08:26 28.01.2022
4083 Clouds 1 1018 77 10000 1.95 320 07:34 28.01.2022
4084 Clouds 2 1016 77 10000 2.68 327 05:23 28.01.2022
4085 Clouds 3 1014 91 10000 2.03 316 03:44 28.01.2022
4086 Clouds 4 1011 85 10000 2.45 322 02:22 28.01.2022
4087 Clouds 4 1011 85 10000 2.45 322 01:33 28.01.2022
4088 Clouds 5 1005 81 10000 2.5 327 23:25 27.01.2022
4089 Clouds 5 1003 80 10000 2.47 318 21:49 27.01.2022
4090 Clouds 5 1001 79 10000 2.52 318 21:29 27.01.2022
4091 Clouds 5 1001 79 10000 2.52 318 20:44 27.01.2022
4092 Clouds 5 998 80 10000 2.66 321 18:55 27.01.2022
4093 Clouds 5 996 69 10000 3.6 336 17:56 27.01.2022
4094 Clouds 5 992 51 10000 4.26 338 14:42 27.01.2022
4095 Clouds 4 989 86 10000 3.69 348 13:35 27.01.2022
4096 Clouds 5 989 87 10000 3.77 353 12:40 27.01.2022
4097 Clouds 4 987 98 778 1.4 284 10:23 27.01.2022
4098 Clouds 4 988 99 771 0.99 258 08:56 27.01.2022
4099 Clouds 4 988 98 4018 0.59 248 08:31 27.01.2022
4100 Clouds 5 967 48 10000 0.45 202 05:59 27.01.2022
4101 Clouds 4 973 52 10000 0.45 270 02:43 27.01.2022
4102 Clouds 5 1001 59 10000 2.1 222 23:32 26.01.2022
4103 Clouds 5 1003 63 10000 2.4 224 21:59 26.01.2022
4104 Clouds 5 1003 63 10000 2.4 224 21:35 26.01.2022
4105 Clouds 6 1004 79 10000 1.74 233 20:36 26.01.2022
4106 Clouds 6 1004 79 10000 1.74 233 20:36 26.01.2022
4107 Clouds 5 1004 79 10000 1.74 233 19:59 26.01.2022
4108 Clouds 5 1005 79 10000 1.95 241 19:20 26.01.2022
4109 Clouds 5 1005 79 10000 1.95 241 18:45 26.01.2022
4110 Clouds 4 1007 87 10000 1.89 239 17:50 26.01.2022
4111 Clouds 4 1007 89 10000 1.46 221 17:22 26.01.2022
4112 Clouds 5 1007 89 10000 1.46 221 16:31 26.01.2022
4113 Clouds 6 1007 86 10000 1.56 215 15:49 26.01.2022
4114 Clouds 6 1007 86 10000 1.56 215 15:49 26.01.2022
4115 Clouds 6 1007 76 10000 1.83 225 13:58 26.01.2022
4116 Clouds 5 1008 59 10000 2.35 266 11:48 26.01.2022
4117 Clouds 4 1008 32 10000 4.43 270 10:27 26.01.2022
4118 Clouds 3 985 45 10000 4.43 270 09:45 26.01.2022
4119 Clouds 1 1009 98 6548 1.4 272 07:44 26.01.2022
4120 Clouds 1 1014 96 10000 1.08 200 01:54 26.01.2022
4121 Clouds -2 1018 98 10000 0.41 255 23:56 25.01.2022
4122 Clouds -2 1019 97 10000 0.51 330 22:56 25.01.2022
4123 Clouds -3 1020 97 10000 0.46 321 22:21 25.01.2022
4124 Clouds -3 1020 97 10000 0.46 321 21:52 25.01.2022
4125 Clouds -3 1021 97 10000 0.56 343 20:46 25.01.2022
4126 Clouds -3 1021 97 10000 0.56 343 20:46 25.01.2022
4127 Clouds -4 1021 97 10000 0.74 338 20:22 25.01.2022
4128 Clouds -4 1021 97 10000 0.74 338 19:46 25.01.2022
4129 Clouds -3 1023 96 10000 1 11 18:32 25.01.2022
4130 Clouds -3 1023 96 10000 1 11 17:43 25.01.2022
4131 Clouds -2 1023 96 10000 1.08 5 16:35 25.01.2022
4132 Clouds -1 1024 95 10000 0.99 20 15:49 25.01.2022
4133 Clouds -1 1024 95 10000 0.99 20 15:31 25.01.2022
4134 Clouds -1 1024 93 10000 0.8 27 14:57 25.01.2022
4135 Clouds -2 1025 87 10000 0.31 42 13:40 25.01.2022
4136 Clouds -1 1026 1 10000 1.24 14 10:39 25.01.2022
4137 Clouds -3 1025 92 10000 1.21 13 08:34 25.01.2022
4138 Clouds -2 1025 91 10000 1.53 356 07:29 25.01.2022
4139 Clouds -2 1025 92 10000 1.37 23 06:47 25.01.2022
4140 Clouds -2 1023 92 10000 1.17 339 04:22 25.01.2022
4141 Clouds -1 1022 91 10000 1.95 303 23:37 24.01.2022
4142 Clouds -1 1021 92 10000 1.82 310 23:18 24.01.2022
4143 Clouds -1 1021 92 10000 1.82 310 22:59 24.01.2022
4144 Clouds -1 1021 92 10000 1.82 310 22:41 24.01.2022
4145 Clouds -3 1020 93 10000 1.72 312 21:52 24.01.2022
4146 Clouds -2 1020 95 10000 1.62 316 21:28 24.01.2022
4147 Clouds -1 1019 1 10000 1.31 315 20:29 24.01.2022
4148 Clouds 0 1019 1 10000 1.31 315 19:39 24.01.2022
4149 Clouds 0 1019 1 10000 0.79 296 19:20 24.01.2022
4150 Clouds 2 1018 1 10000 0.94 245 17:45 24.01.2022
4151 Clouds 1 1018 1 10000 1.25 214 17:23 24.01.2022
4152 Clouds 2 1018 1 10000 1.26 214 17:23 24.01.2022
4153 Clouds 1 1018 1 10000 1.26 214 16:40 24.01.2022
4154 Clouds 2 1018 1 10000 1.05 199 16:18 24.01.2022
4155 Clouds 2 992 55 10000 1.58 179 14:28 24.01.2022
4156 Clouds 2 993 55 10000 1.98 194 12:40 24.01.2022
4157 Clouds 1 993 55 10000 0.45 227 12:22 24.01.2022
4158 Clouds 1 1018 1 5778 1.07 207 10:25 24.01.2022
4159 Clouds 0 995 48 5778 1.07 207 09:47 24.01.2022
4160 Clouds -1 1018 1 1372 0.97 215 08:24 24.01.2022
4161 Clouds -1 1019 1 283 0.95 221 04:50 24.01.2022
4162 Clouds -1 1020 1 214 0.64 246 01:30 24.01.2022
4163 Clouds 0 997 90 180 0.73 224 00:35 24.01.2022
4164 Clouds -1 998 48 127 0.45 270 23:49 23.01.2022
4165 Clouds 0 998 89 119 0.45 270 22:28 23.01.2022
4166 Clouds -1 999 89 119 0.45 270 21:46 23.01.2022
4167 Clouds -1 1022 100 171 0.78 206 21:24 23.01.2022
4168 Clouds -1 1022 99 222 0.73 212 20:30 23.01.2022
4169 Clouds -1 995 92 222 0.73 212 19:43 23.01.2022
4170 Clouds -1 1023 99 2562 0.66 237 18:50 23.01.2022
4171 Clouds -1 1023 99 10000 0.42 286 17:34 23.01.2022
4172 Clouds -1 1023 99 10000 0.42 286 16:45 23.01.2022
4173 Clouds 0 999 61 10000 0.37 228 14:59 23.01.2022
4174 Clouds 1 999 61 10000 0.5 214 14:21 23.01.2022
4175 Clouds 0 999 60 10000 0.48 229 12:54 23.01.2022
4176 Clouds 1 999 60 10000 0.11 239 12:22 23.01.2022
4177 Clouds 0 1000 60 10000 0.11 239 11:52 23.01.2022
4178 Clouds 0 1000 60 10000 0.18 323 11:18 23.01.2022
4179 Clouds -1 1025 97 10000 0.47 344 10:27 23.01.2022
4180 Clouds -1 1025 97 10000 0.45 345 09:51 23.01.2022
4181 Clouds -3 1024 97 10000 1.04 341 08:52 23.01.2022
4182 Clouds -2 1025 98 10000 0.73 332 05:56 23.01.2022
4183 Clouds -2 1024 97 10000 0.45 20 01:49 23.01.2022
4184 Clouds -2 1024 96 10000 0.35 10 01:26 23.01.2022
4185 Clouds -2 1025 96 10000 0.37 334 00:23 23.01.2022
4186 Clouds -3 1025 96 10000 0.37 334 23:44 22.01.2022
4187 Clouds -3 1025 96 10000 0.21 314 22:40 22.01.2022
4188 Clouds -3 1025 96 10000 0.44 322 21:36 22.01.2022
4189 Clouds -3 1025 96 10000 1.02 4 19:51 22.01.2022
4190 Clouds -3 1024 96 10000 1.14 348 18:49 22.01.2022
4191 Clouds -3 1025 96 10000 0.94 8 18:18 22.01.2022
4192 Clouds -2 1025 96 10000 0.94 9 17:40 22.01.2022
4193 Clouds -1 1025 96 10000 1.33 354 16:56 22.01.2022
4194 Clouds 0 1024 96 10000 0.87 330 15:50 22.01.2022
4195 Clouds 0 1024 94 10000 0.31 335 14:58 22.01.2022
4196 Clouds 0 1024 88 10000 0.64 346 13:46 22.01.2022
4197 Clouds 1 993 52 10000 0.3 273 12:52 22.01.2022
4198 Clouds 0 1024 86 10000 0.12 227 12:29 22.01.2022
4199 Clouds -1 1024 88 10000 0.39 265 11:31 22.01.2022
4200 Clouds -2 1025 94 10000 0.51 335 10:29 22.01.2022
4201 Clouds -2 1025 94 10000 0.51 335 09:59 22.01.2022
4202 Clouds -3 1025 96 10000 0.67 341 08:52 22.01.2022
4203 Clouds -2 1025 96 10000 0.68 349 07:38 22.01.2022
4204 Clouds -1 1025 95 10000 0.5 330 04:53 22.01.2022
4205 Clouds -1 1025 94 10000 0.3 317 01:35 22.01.2022
4206 Clouds -2 1025 91 10000 0.46 292 23:45 21.01.2022
4207 Clouds -1 1025 91 10000 0.7 22 22:28 21.01.2022
4208 Clouds -1 1024 86 10000 1.13 358 20:28 21.01.2022
4209 Clouds -2 1023 85 10000 1.18 351 18:40 21.01.2022
4210 Clouds -1 1022 89 10000 1.3 357 17:41 21.01.2022
4211 Clouds 1 1021 91 10000 1.52 357 15:44 21.01.2022
4212 Clouds 1 1019 78 10000 1.67 323 13:51 21.01.2022
4213 Clouds 1 1019 78 10000 1.67 323 13:51 21.01.2022
4214 Clouds -1 1019 74 10000 1.94 308 12:38 21.01.2022
4215 Clouds -2 1020 77 10000 1.92 326 11:28 21.01.2022
4216 Clouds -2 1020 82 10000 1.96 322 10:20 21.01.2022
4217 Clouds -4 1020 84 10000 1.93 300 08:25 21.01.2022
4218 Clouds -4 1020 78 10000 1.93 293 07:19 21.01.2022
4219 Clouds -2 1020 71 10000 2.09 292 23:54 20.01.2022
4220 Clouds -2 1020 61 10000 2.2 291 22:44 20.01.2022
4221 Clouds -1 995 48 10000 0.45 270 21:47 20.01.2022
4222 Clouds -1 995 47 10000 0.45 270 20:56 20.01.2022
4223 Clear 0 994 41 10000 0.89 270 19:21 20.01.2022
4224 Clear 1 994 41 10000 0.45 246 18:51 20.01.2022
4225 Clear 0 992 41 10000 0.45 269 17:31 20.01.2022
4226 Clear 1 987 36 10000 0.89 227 15:45 20.01.2022
4227 Clear 1 987 37 10000 0.89 225 15:24 20.01.2022
4228 Clear 1 990 38 10000 0.89 270 13:42 20.01.2022
4229 Clear 0 980 42 10000 5.87 339 12:38 20.01.2022
4230 Clear 0 980 43 10000 5.82 338 11:57 20.01.2022
4231 Clear -1 980 45 10000 5.44 338 10:47 20.01.2022
4232 Clear -1 987 47 10000 0.45 270 09:43 20.01.2022
4233 Clear -1 983 56 10000 0.89 269 08:35 20.01.2022
4234 Clear -1 983 56 10000 1.34 225 08:35 20.01.2022
4235 Clouds 0 981 57 10000 0.89 180 05:38 20.01.2022
4236 Clouds -1 976 46 10000 3.67 304 23:52 19.01.2022
4237 Clouds 0 976 48 10000 0.45 270 22:37 19.01.2022
4238 Clouds 1 975 49 10000 0.89 267 21:24 19.01.2022
4239 Clouds 1 974 47 10000 1.34 270 20:53 19.01.2022
4240 Clouds 2 974 48 10000 1.34 270 20:22 19.01.2022
4241 Clouds 3 972 74 10000 0.45 270 18:49 19.01.2022
4242 Clouds 3 972 73 10000 0.45 270 18:49 19.01.2022
4243 Rain 3 970 59 10000 1.34 269 17:50 19.01.2022
4244 Rain 5 969 62 10000 5.57 338 16:59 19.01.2022
4245 Clouds 6 970 44 10000 1.34 174 14:43 19.01.2022
4246 Clouds 5 973 60 10000 2.24 138 12:53 19.01.2022
4247 Clouds 5 974 60 10000 0.89 224 11:43 19.01.2022
4248 Clouds 5 978 44 10000 1.34 252 10:52 19.01.2022
4249 Clouds 4 980 44 10000 0.89 139 09:35 19.01.2022
4250 Clouds 4 1005 1 10000 2.97 209 07:34 19.01.2022
4251 Clouds 3 1008 29 8939 2.45 208 05:19 19.01.2022
4252 Clouds 2 1015 1 10000 0.97 212 23:53 18.01.2022
4253 Clouds 1 1016 1 10000 0.82 256 23:18 18.01.2022
4254 Clouds 0 1017 1 10000 1.02 263 21:43 18.01.2022
4255 Clouds -2 1019 1 10000 0.96 255 20:21 18.01.2022
4256 Clouds -2 1019 1 10000 1.15 256 19:39 18.01.2022
4257 Clouds -2 1020 1 10000 1.04 255 19:21 18.01.2022
4258 Clouds -2 1021 1 10000 0.98 249 18:18 18.01.2022
4259 Clouds -1 993 35 10000 0.87 264 17:29 18.01.2022
4260 Clouds -2 993 35 10000 0.92 244 15:56 18.01.2022
4261 Clouds -1 993 35 10000 0.73 232 15:24 18.01.2022
4262 Clouds -2 995 26 10000 1.1 231 14:18 18.01.2022
4263 Clouds -3 1025 1 10000 0.67 256 11:20 18.01.2022
4264 Clouds -5 1025 1 10000 0.9 294 09:58 18.01.2022
4265 Clouds -6 1027 9 10000 0.81 320 08:19 18.01.2022
4266 Clouds -5 1027 31 10000 0.81 320 07:31 18.01.2022
4267 Clouds -3 1026 67 10000 1.36 331 00:22 18.01.2022
4268 Clouds -3 1026 86 10000 1.46 318 22:39 17.01.2022
4269 Clouds -3 1025 87 10000 1.35 320 21:41 17.01.2022
4270 Clouds -2 1025 66 10000 1.31 314 20:39 17.01.2022
4271 Clouds 0 1023 86 10000 1.21 298 18:46 17.01.2022
4272 Clouds 1 1023 85 10000 1.23 297 18:23 17.01.2022
4273 Clouds 1 1022 83 10000 1.22 298 17:19 17.01.2022
4274 Clouds 2 1021 81 10000 1.39 287 15:47 17.01.2022
4275 Clouds 3 1020 70 10000 1.37 286 14:58 17.01.2022
4276 Clouds 4 1019 52 10000 2.52 310 14:22 17.01.2022
4277 Clear 4 1017 42 10000 4.4 327 12:58 17.01.2022
4278 Clear 3 1016 50 10000 4.88 327 11:51 17.01.2022
4279 Clear 2 1014 46 10000 5.04 333 10:47 17.01.2022
4280 Clear 2 987 44 10000 0.45 158 09:35 17.01.2022
4281 Clear 1 986 45 10000 0.45 138 08:43 17.01.2022
4282 Clear 1 984 46 10000 0.89 227 07:19 17.01.2022
4283 Clouds 2 976 51 10000 0.89 225 00:58 17.01.2022
4284 Clouds 5 972 46 10000 1.34 313 23:27 16.01.2022
4285 Clouds 5 971 64 10000 1.34 226 20:50 16.01.2022
4286 Clouds 4 972 62 10000 1.34 227 19:55 16.01.2022
4287 Clouds 4 973 61 10000 1.79 268 18:45 16.01.2022
4288 Clouds 5 976 49 10000 1.34 248 17:46 16.01.2022
4289 Clouds 3 975 70 10000 0.45 175 16:50 16.01.2022
4290 Clouds 3 972 62 10000 1.75 282 15:34 16.01.2022
4291 Clouds 3 972 44 10000 1.08 300 14:29 16.01.2022
4292 Clouds 3 1000 1 10000 1.01 311 12:51 16.01.2022
4293 Clouds 2 975 51 10000 0.45 270 11:49 16.01.2022
4294 Clouds 2 977 45 10000 1.73 234 10:58 16.01.2022
4295 Clouds 0 975 51 8969 0.45 53 10:26 16.01.2022
4296 Clouds 2 978 84 8969 0.45 134 09:56 16.01.2022
4297 Clouds 1 979 45 8649 0.45 45 09:22 16.01.2022
4298 Clouds 1 979 45 8649 1.84 232 08:47 16.01.2022
4299 Clouds -3 1006 1 10000 0.78 219 03:58 16.01.2022
4300 Clouds -4 1012 1 10000 0.53 351 23:50 15.01.2022
4301 Clouds -4 1014 1 10000 0.51 299 22:35 15.01.2022
4302 Clouds -3 1015 10 10000 0.46 313 21:20 15.01.2022
4303 Clouds -3 1015 14 10000 0.45 312 20:40 15.01.2022
4304 Clouds -3 1016 14 10000 0.54 283 19:30 15.01.2022
4305 Clouds -3 1017 6 10000 0.55 264 18:47 15.01.2022
4306 Clouds -2 990 46 10000 0.59 291 17:30 15.01.2022
4307 Clouds -2 990 53 10000 0.81 302 16:37 15.01.2022
4308 Clouds -1 1020 62 10000 0.52 275 13:56 15.01.2022
4309 Clouds -1 1022 61 10000 0.52 298 12:18 15.01.2022
4310 Clouds -2 1023 63 10000 0.31 290 10:38 15.01.2022
4311 Clouds -2 1023 67 10000 0.63 347 08:31 15.01.2022
4312 Clouds -1 1025 67 10000 1.22 305 00:35 15.01.2022
4313 Clouds -1 1025 83 10000 1.45 289 21:52 14.01.2022
4314 Clouds -1 1025 83 10000 1.45 289 21:52 14.01.2022
4315 Clouds 0 1025 67 10000 1.33 292 20:41 14.01.2022
4316 Clouds 1 1025 63 10000 1.3 281 20:21 14.01.2022
4317 Clear 3 1024 83 10000 1.23 277 18:49 14.01.2022
4318 Clear 2 1024 81 10000 1.32 277 18:20 14.01.2022
4319 Clear 4 1023 80 10000 1.36 280 16:50 14.01.2022
4320 Clear 4 1022 54 10000 1.78 280 15:39 14.01.2022
4321 Clear 5 1022 63 10000 1.78 280 14:42 14.01.2022
4322 Clear 5 1021 46 10000 3.76 304 13:36 14.01.2022
4323 Clear 5 1020 47 10000 4.14 315 12:28 14.01.2022
4324 Clear 4 1019 52 10000 4.33 315 10:56 14.01.2022
4325 Clear 4 993 48 10000 0.89 270 09:44 14.01.2022
4326 Clear 4 992 48 10000 0.45 359 08:44 14.01.2022
4327 Clear 5 1014 51 10000 5.76 304 06:45 14.01.2022
4328 Clear 10 982 56 10000 2.68 95 01:20 14.01.2022
4329 Clear 11 982 51 10000 1.34 290 22:52 13.01.2022
4330 Clear 10 983 55 10000 0.45 136 21:31 13.01.2022
4331 Clear 8 983 52 10000 1.34 226 20:57 13.01.2022
4332 Clear 9 984 56 10000 0.89 269 19:40 13.01.2022
4333 Clouds 7 996 66 10000 0.45 91 19:22 13.01.2022
4334 Clouds 7 996 66 10000 0.89 90 17:52 13.01.2022
4335 Clouds 7 997 56 10000 0.45 92 16:21 13.01.2022
4336 Clouds 7 998 51 10000 0.89 135 15:37 13.01.2022
4337 Clouds 8 999 66 10000 0.89 182 14:40 13.01.2022
4338 Clouds 7 1000 53 10000 0.45 218 12:44 13.01.2022
4339 Clouds 6 1013 88 10000 2.21 220 10:25 13.01.2022
4340 Clouds 6 1013 90 10000 1.66 224 08:58 13.01.2022
4341 Clouds 5 990 56 10000 0.89 139 08:26 13.01.2022
4342 Clouds 5 990 81 10000 1.34 265 07:23 13.01.2022
4343 Clouds 5 991 83 10000 0.89 314 05:59 13.01.2022
4344 Clouds 5 990 82 10000 0.89 270 05:19 13.01.2022
4345 Clouds 4 1014 1 10000 2.18 207 01:56 13.01.2022
4346 Clouds 5 991 46 10000 0.89 137 00:54 13.01.2022
4347 Clouds 5 991 47 10000 0.45 222 23:49 12.01.2022
4348 Clouds 5 992 47 10000 2.89 210 23:19 12.01.2022
4349 Clouds 4 992 47 10000 2.81 208 21:57 12.01.2022
4350 Clouds 4 993 47 10000 2.72 200 21:22 12.01.2022
4351 Clouds 4 1004 59 10000 0.45 90 20:56 12.01.2022
4352 Clouds 4 1004 59 8704 0.45 90 19:43 12.01.2022
4353 Clouds 4 995 47 7821 0.89 202 18:30 12.01.2022
4354 Clouds 4 1018 1 8669 1.77 207 17:21 12.01.2022
4355 Clouds 4 1019 1 9950 1.31 226 16:32 12.01.2022
4356 Clouds 4 996 45 10000 0.45 133 14:48 12.01.2022
4357 Clouds 3 1008 58 10000 1.34 92 13:19 12.01.2022
4358 Clouds 2 998 48 10000 1.34 156 10:56 12.01.2022
4359 Clouds 2 1021 95 10000 1.68 201 08:43 12.01.2022
4360 Clouds 1 1022 1 9749 1.5 204 07:50 12.01.2022
4361 Clouds 1 1022 1 9749 1.5 204 07:31 12.01.2022
4362 Clouds 1 1002 48 2503 0.45 272 23:53 11.01.2022
4363 Clouds 1 1001 48 1109 0.89 275 22:56 11.01.2022
4364 Clouds 2 1001 48 1892 0.45 5 22:23 11.01.2022
4365 Clouds 3 1011 63 330 0.79 281 20:56 11.01.2022
4366 Clouds 3 1011 63 57 0.52 272 20:20 11.01.2022
4367 Clouds 3 1011 63 48 0.68 227 18:32 11.01.2022
4368 Clouds 3 1000 48 72 2.48 196 17:35 11.01.2022
4369 Clouds 3 1001 48 72 0.89 87 16:38 11.01.2022
4370 Clouds 3 1011 62 62 0.45 269 15:47 11.01.2022
4371 Rain 3 1010 62 41 0.89 178 14:42 11.01.2022
4372 Rain 3 1010 62 32 1.34 226 13:56 11.01.2022
4373 Rain 3 1010 62 32 1.79 90 13:36 11.01.2022
4374 Rain 2 1001 46 30 0.89 45 12:51 11.01.2022
4375 Rain 3 1001 46 53 1.34 315 12:20 11.01.2022
4376 Clouds 2 1002 45 6094 1.79 227 09:58 11.01.2022
4377 Clouds 2 1002 44 6292 0.45 132 07:18 11.01.2022
4378 Clouds 0 1005 43 1568 0.45 88 00:43 11.01.2022
4379 Clouds 0 1005 42 1583 0.89 91 00:21 11.01.2022
4380 Clouds 0 1005 42 318 1.34 313 23:28 10.01.2022
4381 Clouds 0 1006 42 448 1.34 311 22:19 10.01.2022
4382 Clouds 0 1006 42 448 1.34 267 21:54 10.01.2022
4383 Clouds -1 1006 42 598 1.34 183 21:31 10.01.2022
4384 Clouds -1 1016 58 604 0.89 270 20:58 10.01.2022
4385 Clouds -1 1016 58 825 1.34 270 20:29 10.01.2022
4386 Clouds -1 1016 58 908 0.45 135 19:45 10.01.2022
4387 Snow -1 1016 58 1971 0.45 186 19:21 10.01.2022
4388 Clouds -1 1016 58 1344 0.89 270 18:50 10.01.2022
4389 Clouds -1 1016 57 2118 0.45 273 18:31 10.01.2022
4390 Clouds -1 1025 47 1438 0.49 103 16:42 10.01.2022
4391 Clouds -1 1025 47 950 0.32 85 15:50 10.01.2022
4392 Clouds -1 1014 56 1117 0.45 43 14:34 10.01.2022
4393 Clouds -1 1029 1 1020 0.63 75 12:31 10.01.2022
4394 Clouds -1 1028 1 874 0.84 70 11:25 10.01.2022
4395 Clouds -1 1028 97 485 0.96 37 10:21 10.01.2022
4396 Clouds -1 1026 97 648 1.14 31 08:22 10.01.2022
4397 Snow -1 1024 97 491 1.39 25 05:50 10.01.2022
4398 Clouds -1 994 40 7122 0.45 270 01:33 10.01.2022
4399 Snow -1 1018 1 2928 2.41 35 00:33 10.01.2022
4400 Snow -1 1018 1 2928 2.42 35 23:43 09.01.2022
4401 Snow -1 1017 1 2303 2.57 39 22:43 09.01.2022
4402 Clouds -1 990 40 1937 0.89 270 21:47 09.01.2022
4403 Clouds -1 998 56 2124 0.45 272 21:25 09.01.2022
4404 Clouds -1 997 56 2109 1.34 272 20:55 09.01.2022
4405 Clouds -1 997 56 2124 0.89 313 20:37 09.01.2022
4406 Clouds -1 997 56 2008 0.45 315 20:18 09.01.2022
4407 Clouds -1 997 56 1972 0.45 270 19:37 09.01.2022
4408 Clouds -1 996 54 1961 0.45 312 19:18 09.01.2022
4409 Clouds -1 1006 44 1077 2.96 30 18:37 09.01.2022
4410 Clouds -1 995 54 1004 0.45 355 17:48 09.01.2022
4411 Clouds -1 995 54 3231 0.45 320 17:26 09.01.2022
4412 Clouds -1 995 54 3231 0.89 315 16:38 09.01.2022
4413 Clouds -1 983 40 6012 0.45 271 15:38 09.01.2022
4414 Clouds -1 982 40 5555 0.45 0 14:50 09.01.2022
4415 Clouds -1 982 40 2595 0.45 315 14:23 09.01.2022
4416 Clouds -1 982 40 2595 0.45 0 13:48 09.01.2022
4417 Clouds -1 980 41 1503 0.45 270 11:56 09.01.2022
4418 Clouds -1 980 42 2188 0.45 315 11:25 09.01.2022
4419 Clouds -2 980 43 2931 0.45 270 09:55 09.01.2022
4420 Clouds -2 978 43 1532 0.45 270 08:59 09.01.2022
4421 Snow -2 1002 1 771 1.94 19 06:56 09.01.2022
4422 Snow -2 1000 97 273 1.56 359 01:29 09.01.2022
4423 Clouds -3 1000 1 897 1.57 359 00:37 09.01.2022
4424 Clouds -3 1000 1 1392 1.58 350 23:31 08.01.2022
4425 Clouds -3 1000 1 1392 1.58 350 22:48 08.01.2022
4426 Clouds -3 975 40 1656 0.45 315 21:28 08.01.2022
4427 Clouds -3 975 40 1656 0.45 45 20:43 08.01.2022
4428 Clouds -3 999 1 2050 1.52 350 20:22 08.01.2022
4429 Clouds -3 975 40 808 0.45 90 19:22 08.01.2022
4430 Clouds -3 1000 97 990 1.67 339 17:31 08.01.2022
4431 Clouds -3 1000 97 990 1.67 339 16:42 08.01.2022
4432 Clouds -3 1000 1 2371 1.9 346 15:28 08.01.2022
4433 Clouds -2 976 39 1116 1.8 342 13:57 08.01.2022
4434 Clouds -3 1001 95 8758 1.72 342 11:31 08.01.2022
4435 Clouds -4 1001 97 5255 1.63 342 10:33 08.01.2022
4436 Clouds -4 1001 97 5255 1.63 342 09:57 08.01.2022
4437 Clouds -4 1001 97 5255 1.63 342 09:33 08.01.2022
4438 Snow -3 977 40 103 0.45 42 05:51 08.01.2022
4439 Snow -3 978 40 102 0.45 353 01:24 08.01.2022
4440 Clouds -3 978 40 430 0.45 230 23:30 07.01.2022
4441 Clouds -3 988 58 2041 0.89 315 21:47 07.01.2022
4442 Snow -3 988 58 976 0.89 317 20:32 07.01.2022
4443 Clouds -3 988 58 246 0.45 0 19:27 07.01.2022
4444 Clouds -3 988 58 407 0.45 310 18:49 07.01.2022
4445 Clouds -3 988 58 386 0.45 315 18:21 07.01.2022
4446 Clouds -3 987 58 244 0.45 317 17:23 07.01.2022
4447 Snow -3 988 58 92 0.89 315 14:55 07.01.2022
4448 Clouds -3 978 40 118 0.45 225 13:52 07.01.2022
4449 Snow -3 978 39 130 0.45 316 12:51 07.01.2022
4450 Snow -5 979 38 110 1.34 92 11:22 07.01.2022
4451 Clouds -7 983 34 502 0.45 315 04:25 07.01.2022
4452 Clouds -7 983 37 10000 1.04 29 02:46 07.01.2022
4453 Clouds -7 984 37 9744 1.11 17 01:48 07.01.2022
4454 Clouds -7 984 37 9701 1.11 17 01:48 07.01.2022
4455 Clouds -8 984 37 8746 1.15 10 01:25 07.01.2022
4456 Clouds -9 1008 1 5559 1.13 12 00:30 07.01.2022
4457 Clouds -9 1009 1 4446 1.22 11 00:30 07.01.2022
4458 Clouds -9 1010 1 1703 1.33 10 22:33 06.01.2022
4459 Clouds -7 1009 43 10000 1.28 7 20:51 06.01.2022
4460 Clouds -11 1011 93 10000 1.21 0 20:18 06.01.2022
4461 Clear -10 1011 94 10000 1.06 360 19:36 06.01.2022
4462 Clear -9 1011 94 10000 1.17 358 17:51 06.01.2022
4463 Clear -9 1012 94 10000 1.14 339 17:23 06.01.2022
4464 Clear -8 1012 94 10000 1.14 339 16:32 06.01.2022
4465 Clear -7 1012 94 10000 1 328 15:44 06.01.2022
4466 Clear -6 1012 47 10000 1.04 316 15:21 06.01.2022
4467 Clear -5 1009 58 10000 0.83 298 14:20 06.01.2022
4468 Clear -5 1009 52 10000 0.83 298 13:33 06.01.2022
4469 Clouds -5 1012 53 10000 0.98 299 12:20 06.01.2022
4470 Clouds -6 1012 81 10000 1.32 325 11:29 06.01.2022
4471 Clouds -7 1012 81 10000 1.32 325 10:50 06.01.2022
4472 Clouds -7 1009 87 10000 1.58 321 06:38 06.01.2022
4473 Clear -4 1005 90 10000 1.95 307 00:34 06.01.2022
4474 Clear -3 1004 89 10000 1.95 309 23:22 05.01.2022
4475 Clear -2 1004 89 10000 1.94 309 22:48 05.01.2022
4476 Clear -2 1003 84 10000 2.2 314 22:26 05.01.2022
4477 Clouds -1 978 56 10000 0.45 314 21:28 05.01.2022
4478 Clouds -1 977 56 10000 0.45 311 20:30 05.01.2022
4479 Clouds -1 976 57 10000 0.45 315 19:42 05.01.2022
4480 Clouds -1 998 89 10000 2.06 311 18:22 05.01.2022
4481 Clouds -2 997 83 10000 2.13 313 16:57 05.01.2022
4482 Clouds -2 996 79 10000 2.58 333 16:19 05.01.2022
4483 Clouds -1 994 81 10000 2.19 324 15:19 05.01.2022
4484 Snow -2 992 44 10000 1.78 314 13:34 05.01.2022
4485 Clouds -2 991 30 10000 1.54 314 12:30 05.01.2022
4486 Clouds -4 988 1 10000 1.62 343 08:46 05.01.2022
4487 Clouds -4 986 1 10000 1.96 337 06:46 05.01.2022
4488 Clouds -2 982 94 10000 1.68 330 01:49 05.01.2022
4489 Clouds -2 957 43 10000 1.8 352 23:44 04.01.2022
4490 Clouds -3 981 1 10000 1.82 355 23:25 04.01.2022
4491 Clouds -3 981 1 10000 2.03 357 21:50 04.01.2022
4492 Clouds -3 877 48 10000 1.43 348 20:45 04.01.2022
4493 Clouds -3 877 90 10000 1.18 312 18:41 04.01.2022
4494 Clouds -3 877 90 10000 0.55 286 17:33 04.01.2022
4495 Clouds -2 980 97 10000 0.55 287 16:38 04.01.2022
4496 Clouds -1 980 1 10000 0.85 228 15:25 04.01.2022
4497 Clouds -1 879 34 10000 0.85 228 14:38 04.01.2022
4498 Clouds -1 918 54 10000 0.45 90 13:57 04.01.2022
4499 Clouds -1 879 44 10000 1.47 191 12:24 04.01.2022
4500 Clouds -1 919 57 10000 0.45 135 10:24 04.01.2022
4501 Clouds -1 958 40 10000 0.45 359 08:57 04.01.2022
4502 Clouds -1 959 38 10000 1.34 222 06:28 04.01.2022
4503 Clouds 0 962 36 10000 0.45 85 00:43 04.01.2022
4504 Clouds 0 962 48 10000 0.45 225 23:56 03.01.2022
4505 Clouds 2 922 66 10000 0.45 135 22:28 03.01.2022
4506 Clouds 2 922 66 10000 0.45 322 21:41 03.01.2022
4507 Clouds 2 922 66 10000 0.45 322 21:40 03.01.2022
4508 Clouds 3 960 50 9454 1.38 253 20:41 03.01.2022
4509 Clouds 4 921 65 10000 0.45 308 19:43 03.01.2022
4510 Clouds 4 921 65 8852 0.45 135 18:31 03.01.2022
4511 Clouds 4 921 65 8805 1.34 273 17:23 03.01.2022
4512 Clouds 4 921 65 8805 1.34 135 16:56 03.01.2022
4513 Clouds 4 911 72 2272 0.89 89 14:33 03.01.2022
4514 Clouds 3 924 64 230 1.34 178 13:25 03.01.2022
4515 Clouds 3 924 64 486 1.34 358 12:22 03.01.2022
4516 Clouds 2 965 49 203 0.45 178 11:30 03.01.2022
4517 Clouds 1 966 49 96 1.17 163 09:41 03.01.2022
4518 Clouds 1 966 49 143 0.72 155 08:18 03.01.2022
4519 Clouds 0 968 48 315 0.45 225 05:21 03.01.2022
4520 Clouds 0 970 48 7681 0.49 275 23:44 02.01.2022
4521 Clouds 1 971 48 7608 0.45 251 22:57 02.01.2022
4522 Clouds 1 970 48 910 0.45 138 22:22 02.01.2022
4523 Clouds 0 982 64 727 0.55 256 21:26 02.01.2022
4524 Clouds 1 982 64 463 0.51 300 20:30 02.01.2022
4525 Clouds 1 982 64 463 0.51 300 20:30 02.01.2022
4526 Clouds 1 982 64 463 0.51 300 19:49 02.01.2022
4527 Clouds 1 982 64 373 0.66 303 19:25 02.01.2022
4528 Clouds 1 982 64 955 0.83 327 18:31 02.01.2022
4529 Clouds 1 982 63 955 0.83 327 17:43 02.01.2022
4530 Clouds 1 982 63 215 0.46 2 17:21 02.01.2022
4531 Clouds 1 982 63 144 0.55 7 16:33 02.01.2022
4532 Clouds 1 985 63 144 0.56 7 15:49 02.01.2022
4533 Clouds 1 985 63 145 0.55 7 15:49 02.01.2022
4534 Clouds 1 985 63 166 0.82 200 13:57 02.01.2022
4535 Clouds 2 986 63 178 0.38 262 12:33 02.01.2022
4536 Clouds 1 986 63 178 0.38 262 11:56 02.01.2022
4537 Clouds 1 986 63 148 0.45 225 10:56 02.01.2022
4538 Clouds 1 986 63 118 0.88 306 10:22 02.01.2022
4539 Clouds 1 976 47 117 0.92 214 07:45 02.01.2022
4540 Clouds 0 981 46 8472 0.22 22 02:58 02.01.2022
4541 Clouds -1 1008 1 10000 0.85 31 23:55 01.01.2022
4542 Clouds -1 1008 1 10000 0.85 31 23:36 01.01.2022
4543 Snow -1 986 45 1228 0.78 25 22:41 01.01.2022
4544 Snow -1 986 45 120 1.18 58 22:18 01.01.2022
4545 Snow -1 986 45 120 0.45 270 21:42 01.01.2022
4546 Snow -1 987 45 123 0.89 183 20:50 01.01.2022
4547 Snow -1 1000 61 714 0.45 135 19:55 01.01.2022
4548 Clouds -1 1000 60 7030 0.45 320 18:53 01.01.2022
4549 Snow -2 1014 49 10000 1 98 17:46 01.01.2022
4550 Snow -2 1004 56 10000 0.45 315 16:35 01.01.2022
4551 Snow -3 1015 43 10000 0.44 153 15:50 01.01.2022
4552 Clouds -2 1005 56 10000 0.74 79 14:56 01.01.2022
4553 Clouds -3 1017 43 10000 0.93 86 13:42 01.01.2022
4554 Clouds -4 1017 43 10000 0.91 128 12:26 01.01.2022
4555 Clouds -4 1020 1 10000 0.91 128 11:47 01.01.2022
4556 Clouds -5 1020 1 10000 0.92 41 11:19 01.01.2022
4557 Clouds -5 1019 1 10000 0.98 360 09:49 01.01.2022
4558 Clouds -7 1018 97 10000 1.35 12 09:20 01.01.2022
4559 Clouds -6 1017 1 10000 1.53 9 08:22 01.01.2022
4560 Clouds -6 1017 1 10000 1.53 9 07:41 01.01.2022
4561 Clouds -5 1016 1 10000 1.5 358 06:45 01.01.2022
4562 Clouds -4 1014 1 10000 1.66 344 05:25 01.01.2022
4563 Clouds -4 1014 96 10000 1.66 344 04:37 01.01.2022
4564 Clouds -3 1010 94 10000 1.8 337 00:37 01.01.2022
4565 Clouds -3 1007 1 10000 1.75 14 22:40 31.12.2021
4566 Clouds -4 1006 1 10000 1.9 14 21:49 31.12.2021
4567 Clouds -4 1003 1 10000 1.65 8 20:28 31.12.2021
4568 Clouds -3 997 50 10000 1.63 353 19:28 31.12.2021
4569 Clouds -5 1001 97 10000 1.13 343 18:30 31.12.2021
4570 Clouds -3 997 94 10000 1.13 343 17:37 31.12.2021
4571 Clouds -3 997 94 10000 1.06 328 17:18 31.12.2021
4572 Clouds -2 997 94 10000 1.13 327 16:19 31.12.2021
4573 Clouds -2 997 94 10000 1.13 327 15:51 31.12.2021
4574 Clouds -3 1000 1 10000 0.9 310 15:28 31.12.2021
4575 Clouds -3 1000 1 10000 0.91 309 14:41 31.12.2021
4576 Clouds -1 986 61 10000 0.72 292 13:58 31.12.2021
4577 Clouds -1 986 62 10000 0.72 292 13:35 31.12.2021
4578 Clouds -1 986 63 10000 0.58 312 12:44 31.12.2021
4579 Clouds -2 976 48 10000 0.82 287 11:43 31.12.2021
4580 Clouds -2 999 1 10000 1.02 318 11:20 31.12.2021
4581 Clouds -2 999 1 10000 0.98 341 10:30 31.12.2021
4582 Clouds -2 999 1 10000 0.97 342 09:35 31.12.2021
4583 Clouds -2 999 97 10000 1.43 338 08:56 31.12.2021
4584 Clouds -1 998 1 10000 1.14 347 08:25 31.12.2021
4585 Clouds -1 999 97 10000 1.04 351 07:30 31.12.2021
4586 Clouds -1 998 98 10000 1.3 21 23:23 30.12.2021
4587 Clouds 0 997 1 10000 1.27 18 22:33 30.12.2021
4588 Clouds 0 997 1 10000 1.27 18 21:51 30.12.2021
4589 Clouds 1 996 1 2042 1.54 8 21:33 30.12.2021
4590 Clouds 0 991 51 2029 1.53 9 20:44 30.12.2021
4591 Clouds 0 991 51 290 1.46 21 20:24 30.12.2021
4592 Clouds 1 991 51 295 1.45 21 19:43 30.12.2021
4593 Clouds 1 981 65 3084 0.99 282 18:29 30.12.2021
4594 Clouds 1 981 65 3080 0.99 282 17:45 30.12.2021
4595 Clouds 1 980 64 4977 0.45 177 15:58 30.12.2021
4596 Clouds 1 981 64 4986 0.45 315 15:39 30.12.2021
4597 Clouds 1 980 64 5405 0.45 85 14:37 30.12.2021
4598 Clouds 1 980 64 491 1.42 186 13:33 30.12.2021
4599 Clouds 0 980 63 3165 0.45 225 12:29 30.12.2021
4600 Clouds -1 971 45 2846 1.4 217 10:50 30.12.2021
4601 Clouds -1 970 45 2398 1.1 267 09:55 30.12.2021
4602 Clouds -1 970 45 3845 0.98 282 08:49 30.12.2021
4603 Snow -2 972 44 1055 1.34 135 06:51 30.12.2021
4604 Snow -3 975 43 99 0.89 45 03:41 30.12.2021
4605 Snow -4 1000 1 101 1.25 40 02:42 30.12.2021
4606 Clouds -5 1003 49 508 0.34 47 23:42 29.12.2021
4607 Clouds -5 1003 49 1159 0.46 52 23:22 29.12.2021
4608 Clouds -5 1003 49 948 0.39 68 22:19 29.12.2021
4609 Clouds -5 1003 92 7468 0.82 42 21:27 29.12.2021
4610 Clouds -5 1005 90 7468 0.82 42 20:34 29.12.2021
4611 Clouds -5 1006 96 10000 0.5 27 19:48 29.12.2021
4612 Clouds -6 1006 97 10000 0.79 31 18:47 29.12.2021
4613 Clouds -6 1006 96 10000 0.51 18 17:56 29.12.2021
4614 Clouds -6 1006 96 10000 1.14 15 17:27 29.12.2021
4615 Clouds -6 1006 96 10000 1.04 0 16:24 29.12.2021
4616 Clouds -6 1006 96 10000 1.04 0 15:48 29.12.2021
4617 Clouds -6 1003 39 10000 0.7 359 14:24 29.12.2021
4618 Clouds -5 981 38 10000 0.45 315 12:39 29.12.2021
4619 Clouds -7 981 38 10000 0.88 32 11:43 29.12.2021
4620 Clouds -8 1005 1 10000 1.09 8 09:59 29.12.2021
4621 Clouds -8 1004 1 10000 1.12 354 07:52 29.12.2021
4622 Clouds -8 1004 1 10000 1.12 354 07:52 29.12.2021
4623 Clouds -7 1004 1 10000 1.2 2 06:40 29.12.2021
4624 Clouds -7 1004 1 10000 1.25 0 06:22 29.12.2021
4625 Clouds -7 1004 1 10000 1.25 0 05:39 29.12.2021
4626 Clouds -6 1003 1 10000 1.28 356 02:48 29.12.2021
4627 Clouds -7 1003 1 10000 1.53 346 00:23 29.12.2021
4628 Clouds -7 1003 1 10000 1.53 345 23:35 28.12.2021
4629 Clouds -6 1003 1 10000 1.58 344 22:42 28.12.2021
4630 Clouds -6 1003 1 10000 1.71 347 22:24 28.12.2021
4631 Clouds -6 1003 1 10000 1.72 346 21:38 28.12.2021
4632 Clouds -6 1002 1 10000 1.76 347 20:40 28.12.2021
4633 Clouds -4 1002 96 10000 1.69 347 19:31 28.12.2021
4634 Clouds -5 1003 96 10000 1.7 349 18:41 28.12.2021
4635 Clouds -4 1003 96 9589 1.74 352 17:59 28.12.2021
4636 Clouds -4 1003 96 6416 1.73 353 16:35 28.12.2021
4637 Clouds -4 1003 97 8021 1.55 351 15:50 28.12.2021
4638 Clouds -4 1002 1 10000 1.49 359 15:23 28.12.2021
4639 Clouds -4 1002 1 10000 1.49 359 14:50 28.12.2021
4640 Clouds -4 1002 1 10000 1.19 4 14:21 28.12.2021
4641 Clouds -4 1004 42 10000 1.19 4 13:42 28.12.2021
4642 Clouds -4 1004 43 10000 1.39 5 13:24 28.12.2021
4643 Clouds -4 1004 43 10000 1.15 6 12:49 28.12.2021
4644 Snow -4 978 39 2039 0.45 315 11:46 28.12.2021
4645 Snow -5 979 39 222 0.45 270 08:53 28.12.2021
4646 Snow -5 979 38 177 0.45 315 06:58 28.12.2021
4647 Clouds -6 983 38 6874 0.45 315 00:59 28.12.2021
4648 Clouds -7 1010 1 5643 1.31 20 23:26 27.12.2021
4649 Clouds -6 996 76 6662 1.39 20 21:46 27.12.2021
4650 Clouds -6 996 53 7374 1.21 24 21:24 27.12.2021
4651 Clouds -6 996 53 10000 0.45 315 20:24 27.12.2021
4652 Clouds -6 996 53 10000 0.98 36 19:43 27.12.2021
4653 Clouds -6 996 53 9897 0.45 45 18:54 27.12.2021
4654 Clouds -7 998 49 2693 0.8 3 17:50 27.12.2021
4655 Clouds -7 998 48 10000 0.81 356 16:57 27.12.2021
4656 Clouds -7 998 42 10000 1.06 357 15:53 27.12.2021
4657 Clouds -7 999 42 10000 1.16 1 14:34 27.12.2021
4658 Clouds -7 999 40 10000 0.81 352 13:40 27.12.2021
4659 Clouds -7 999 39 10000 0.55 352 12:47 27.12.2021
4660 Clouds -10 1010 28 10000 0.83 8 10:36 27.12.2021
4661 Clouds -11 1010 52 10000 1.06 15 10:18 27.12.2021
4662 Clouds -11 988 68 10000 1.17 9 08:39 27.12.2021
4663 Clouds -13 1012 95 10000 1.13 10 07:32 27.12.2021
4664 Clouds -12 1012 94 10000 1.2 348 02:26 27.12.2021
4665 Clouds -12 1012 94 10000 1.17 357 00:23 27.12.2021
4666 Clouds -11 1012 94 10000 1.17 357 23:41 26.12.2021
4667 Clouds -10 1012 1 10000 1.19 355 22:49 26.12.2021
4668 Clouds -11 1012 94 10000 1.27 355 21:30 26.12.2021
4669 Clouds -9 1012 94 10000 1.16 350 19:52 26.12.2021
4670 Clouds -8 1011 94 10000 0.88 352 18:29 26.12.2021
4671 Clouds -8 1011 94 10000 0.88 352 17:51 26.12.2021
4672 Clouds -7 1011 93 10000 0.66 322 15:31 26.12.2021
4673 Clouds -5 1012 90 10000 0.56 290 13:43 26.12.2021
4674 Clouds -4 1009 52 10000 0.61 280 13:21 26.12.2021
4675 Clouds -7 1012 82 10000 0.55 292 12:35 26.12.2021
4676 Clouds -7 1009 59 10000 0.99 333 11:18 26.12.2021
4677 Clouds -8 1012 91 10000 1.18 326 09:30 26.12.2021
4678 Clouds -9 1012 91 10000 1.18 334 08:45 26.12.2021
4679 Clouds -9 1012 92 10000 1.29 329 08:23 26.12.2021
4680 Clouds -8 1010 87 10000 1.54 324 01:45 26.12.2021
4681 Clouds -7 1010 85 10000 1.67 308 00:28 26.12.2021
4682 Clouds -8 1010 85 10000 1.67 308 23:35 25.12.2021
4683 Clouds -10 1009 86 10000 1.73 310 22:29 25.12.2021
4684 Clouds -8 1009 86 10000 1.71 308 21:30 25.12.2021
4685 Clouds -9 1009 86 10000 1.7 308 20:18 25.12.2021
4686 Clouds -6 1009 85 10000 1.74 306 19:18 25.12.2021
4687 Clouds -5 1009 83 10000 1.64 307 18:29 25.12.2021
4688 Clouds -5 1009 83 10000 1.79 310 16:50 25.12.2021
4689 Clouds -6 1009 84 10000 1.72 302 15:34 25.12.2021
4690 Clouds -6 1009 77 10000 1.69 300 14:23 25.12.2021
4691 Clear -5 1009 70 10000 1.83 298 12:21 25.12.2021
4692 Clear -6 1009 72 10000 1.92 302 10:46 25.12.2021
4693 Clear -10 1009 75 10000 1.9 303 09:49 25.12.2021
4694 Clouds -9 1008 74 10000 1.9 302 07:27 25.12.2021
4695 Clear -9 1007 67 10000 1.77 305 01:43 25.12.2021
4696 Clouds -11 1007 75 10000 1.87 305 00:22 25.12.2021
4697 Clouds -8 1007 58 10000 1.68 316 21:59 24.12.2021
4698 Clouds -7 992 50 10000 1.44 301 19:27 24.12.2021
4699 Clouds -7 992 50 10000 1.44 301 18:56 24.12.2021
4700 Clear -8 1006 64 10000 1.61 301 16:49 24.12.2021
4701 Clear -7 1006 60 10000 1.47 306 15:52 24.12.2021
4702 Clear -7 1006 61 10000 1.79 301 15:32 24.12.2021
4703 Clear -6 1006 60 10000 1.8 301 14:35 24.12.2021
4704 Clear -6 1006 61 10000 2.07 304 13:59 24.12.2021
4705 Clear -6 1006 59 10000 2.07 304 13:32 24.12.2021
4706 Clear -6 1003 42 10000 2.27 312 12:47 24.12.2021
4707 Clear -7 1003 44 10000 2.29 312 11:46 24.12.2021
4708 Clear -7 1006 58 10000 2.2 317 11:24 24.12.2021
4709 Clear -8 1006 64 10000 2.19 317 10:36 24.12.2021
4710 Clear -8 981 59 10000 2.24 324 09:22 24.12.2021
4711 Clear -8 981 59 10000 2.53 343 08:19 24.12.2021
4712 Clear -8 981 58 10000 2.53 343 07:42 24.12.2021
4713 Snow -3 977 34 10000 0.89 270 00:47 24.12.2021
4714 Clouds -4 976 39 10000 4.79 29 23:54 23.12.2021
4715 Clouds -5 976 41 10000 3.15 12 22:54 23.12.2021
4716 Clouds -6 997 47 10000 1.98 20 22:26 23.12.2021
4717 Clouds -6 997 47 10000 1.98 20 21:50 23.12.2021
4718 Clouds -7 997 89 10000 0.88 350 20:54 23.12.2021
4719 Clouds -7 1000 94 10000 1.2 280 19:31 23.12.2021
4720 Clouds -7 1000 94 10000 1.16 290 18:32 23.12.2021
4721 Clear -6 1001 94 10000 1.24 308 17:47 23.12.2021
4722 Clear -5 1002 1 10000 1.18 312 16:40 23.12.2021
4723 Clear -5 1003 1 10000 1.02 303 16:20 23.12.2021
4724 Clear -4 1004 1 10000 1.07 312 15:31 23.12.2021
4725 Clear -4 1004 94 10000 1.07 312 14:42 23.12.2021
4726 Clear -4 1004 94 10000 1.07 312 14:42 23.12.2021
4727 Clear -4 1005 1 10000 0.88 320 14:19 23.12.2021
4728 Clouds -3 1006 1 10000 1.01 322 12:48 23.12.2021
4729 Clouds -4 1008 85 10000 1.26 341 10:41 23.12.2021
4730 Clouds -3 1009 92 10000 1.24 337 09:34 23.12.2021
4731 Clouds -3 1010 93 10000 1.27 339 08:59 23.12.2021
4732 Clouds -2 1011 94 10000 1.29 327 06:48 23.12.2021
4733 Clouds -2 1014 95 10000 1.34 325 03:41 23.12.2021
4734 Clouds -2 1006 59 3656 0.47 265 22:55 22.12.2021
4735 Clouds -2 1006 59 3932 0.45 90 22:32 22.12.2021
4736 Clouds -2 1007 59 3925 0.29 247 21:53 22.12.2021
4737 Clouds -2 1007 59 3234 0.31 222 21:28 22.12.2021
4738 Clouds -2 1007 58 3234 0.31 222 20:41 22.12.2021
4739 Clouds -2 1007 58 3394 0.43 210 20:20 22.12.2021
4740 Clouds -2 1007 58 3175 0.45 45 19:19 22.12.2021
4741 Clouds -2 1007 55 1898 0.33 195 17:39 22.12.2021
4742 Clouds -2 1022 1 1242 0.07 322 16:36 22.12.2021
4743 Clouds -2 1022 1 1246 0.08 323 15:36 22.12.2021
4744 Clouds -1 1008 57 1675 0.36 128 13:23 22.12.2021
4745 Clouds -1 1009 57 1542 0.45 225 12:19 22.12.2021
4746 Snow -1 999 43 568 0.52 67 09:53 22.12.2021
4747 Clouds -2 1024 1 416 0.56 52 09:31 22.12.2021
4748 Clouds -2 999 43 601 0.45 272 07:22 22.12.2021
4749 Clouds -2 1023 1 572 0.69 45 05:40 22.12.2021
4750 Clouds -2 1024 1 836 0.79 43 05:21 22.12.2021
4751 Clouds -2 1024 1 835 0.79 43 04:45 22.12.2021
4752 Clouds -2 1000 40 815 0.59 68 04:19 22.12.2021
4753 Clouds -2 1000 39 815 0.59 68 03:32 22.12.2021
4754 Snow -2 1000 41 633 0.75 94 23:57 21.12.2021
4755 Clouds -2 1000 42 1284 0.45 312 22:49 21.12.2021
4756 Snow -2 1000 42 1245 0.45 0 22:27 21.12.2021
4757 Snow -2 1000 42 1282 0.45 359 21:43 21.12.2021
4758 Snow -2 1011 57 551 0.54 61 20:53 21.12.2021
4759 Snow -2 1011 57 173 0.4 58 20:20 21.12.2021
4760 Snow -2 1010 57 171 0.4 58 19:41 21.12.2021
4761 Snow -2 1011 57 199 0.58 31 18:38 21.12.2021
4762 Snow -2 1011 56 252 1.07 28 17:59 21.12.2021
4763 Snow -2 1011 46 252 1.07 28 17:40 21.12.2021
4764 Snow -2 1011 46 897 0.9 32 15:46 21.12.2021
4765 Clouds -2 1011 46 10000 0.78 36 14:59 21.12.2021
4766 Clouds -2 1011 47 10000 0.69 39 13:47 21.12.2021
4767 Clouds -2 1011 47 10000 0.51 20 13:29 21.12.2021
4768 Clouds -4 1011 58 10000 0.6 345 10:55 21.12.2021
4769 Clouds -4 1011 58 10000 0.59 23 09:57 21.12.2021
4770 Clouds -4 1011 57 10000 0.61 352 09:18 21.12.2021
4771 Clouds -5 1025 1 10000 0.65 322 07:50 21.12.2021
4772 Clouds -4 1001 38 10000 0.46 328 07:25 21.12.2021
4773 Clouds -4 1001 39 10000 0.44 284 04:48 21.12.2021
4774 Clouds -5 1026 1 10000 0.57 285 02:39 21.12.2021
4775 Clouds -4 1028 14 10000 0.72 283 23:58 20.12.2021
4776 Clouds -4 1028 31 10000 0.8 277 22:49 20.12.2021
4777 Clouds -4 1029 31 10000 0.69 286 22:28 20.12.2021
4778 Clouds -4 1029 25 10000 0.69 286 21:41 20.12.2021
4779 Clouds -4 1029 32 10000 0.82 285 21:22 20.12.2021
4780 Clouds -3 1029 38 10000 0.82 285 20:41 20.12.2021
4781 Clouds -3 1029 46 10000 0.88 286 19:40 20.12.2021
4782 Clouds -3 1029 44 10000 0.97 290 19:20 20.12.2021
4783 Clouds -3 1029 47 10000 0.9 295 18:35 20.12.2021
4784 Clouds -3 1029 90 10000 1.04 299 17:52 20.12.2021
4785 Clouds -2 1028 89 10000 1.05 339 16:53 20.12.2021
4786 Clouds -1 1028 89 10000 1.05 339 16:35 20.12.2021
4787 Clouds -2 1029 89 10000 1.24 339 15:43 20.12.2021
4788 Clouds 0 1029 89 10000 1.29 322 14:41 20.12.2021
4789 Clouds 2 1028 76 10000 1.4 328 12:44 20.12.2021
4790 Clouds 2 1028 71 10000 2.09 326 10:55 20.12.2021
4791 Clouds 0 1028 64 10000 2.23 326 09:47 20.12.2021
4792 Clouds 1 1027 72 10000 2.37 330 08:56 20.12.2021
4793 Clouds 1 1027 72 10000 2.37 330 08:38 20.12.2021
4794 Clouds 1 1027 74 10000 2.29 326 07:46 20.12.2021
4795 Clouds 1 1027 75 10000 2.08 323 06:40 20.12.2021
4796 Clear 3 1027 76 10000 2.07 314 02:32 20.12.2021
4797 Clear 3 1027 76 10000 2.14 315 23:37 19.12.2021
4798 Clear 3 1027 75 10000 2.25 316 22:44 19.12.2021
4799 Clear 3 1026 74 10000 2.35 317 21:49 19.12.2021
4800 Clear 3 1025 75 10000 2.53 314 21:25 19.12.2021
4801 Clear 3 1025 76 10000 2.32 309 20:29 19.12.2021
4802 Clear 2 1025 76 10000 2.32 309 19:45 19.12.2021
4803 Clear 2 1025 74 10000 2.4 304 18:54 19.12.2021
4804 Clear 3 1024 63 10000 2.99 317 18:20 19.12.2021
4805 Clear 3 1024 63 10000 2.99 317 17:45 19.12.2021
4806 Clear 3 1024 62 10000 3.18 318 16:46 19.12.2021
4807 Clear 3 1023 63 10000 2.68 313 15:58 19.12.2021
4808 Clear 4 1023 54 10000 3.13 328 15:25 19.12.2021
4809 Clear 4 1023 54 10000 3.13 328 14:49 19.12.2021
4810 Clear 5 999 46 10000 0.89 90 13:41 19.12.2021
4811 Clouds 4 1023 51 10000 4.44 343 13:20 19.12.2021
4812 Clouds 5 1023 50 10000 4.44 342 12:33 19.12.2021
4813 Clouds 4 1023 50 10000 4.44 342 11:40 19.12.2021
4814 Clouds 4 1023 51 10000 4.77 356 10:52 19.12.2021
4815 Clouds 4 1022 50 10000 6.16 2 10:23 19.12.2021
4816 Clouds 4 998 46 10000 0.89 225 09:20 19.12.2021
4817 Clouds 3 1020 1 10000 3.09 13 07:35 19.12.2021
4818 Clear 0 1018 94 10000 1.55 5 02:35 19.12.2021
4819 Clouds 2 1019 91 10000 1.91 314 00:55 19.12.2021
4820 Clouds 2 1019 90 10000 1.96 302 23:31 18.12.2021
4821 Clouds 3 1019 90 10000 1.91 305 22:30 18.12.2021
4822 Clouds 2 1019 90 10000 1.91 305 21:51 18.12.2021
4823 Clouds 3 1019 90 10000 1.93 302 21:30 18.12.2021
4824 Clouds 1 1019 90 10000 1.93 302 20:43 18.12.2021
4825 Clouds 2 1020 90 10000 1.79 305 19:50 18.12.2021
4826 Clouds 2 1020 90 10000 1.76 291 19:18 18.12.2021
4827 Clouds 3 1021 92 10000 1.71 307 18:18 18.12.2021
4828 Clouds 3 1021 92 10000 1.71 307 17:46 18.12.2021
4829 Clouds 3 1022 94 10000 1.52 292 16:22 18.12.2021
4830 Clouds 4 1023 94 10000 1.32 293 15:25 18.12.2021
4831 Clouds 4 1024 95 10000 1.29 281 14:19 18.12.2021
4832 Clouds 3 1025 95 10000 1.12 283 12:38 18.12.2021
4833 Clouds 1 1027 96 10000 1.27 309 10:43 18.12.2021
4834 Clouds 1 1028 1 10000 1.45 319 09:32 18.12.2021
4835 Clouds 1 1028 1 10000 1.27 313 08:37 18.12.2021
4836 Clouds 1 1028 1 10000 1.27 313 08:18 18.12.2021
4837 Snow 0 1032 1 10000 1.13 308 01:48 18.12.2021
4838 Snow 0 1032 1 10000 1.13 308 01:48 18.12.2021
4839 Snow -1 1033 1 10000 0.99 310 00:23 18.12.2021
4840 Clouds -1 1033 1 10000 0.99 310 23:37 17.12.2021
4841 Clouds -1 1034 1 10000 0.76 298 21:54 17.12.2021
4842 Clouds -1 1034 1 10000 0.94 333 20:50 17.12.2021
4843 Clouds -1 1034 1 10000 0.92 328 20:21 17.12.2021
4844 Clouds 0 1034 1 10000 0.91 310 18:50 17.12.2021
4845 Clouds 0 1034 1 10000 0.88 296 18:19 17.12.2021
4846 Clouds -1 1034 1 10000 1.15 301 17:25 17.12.2021
4847 Clouds 0 1034 1 10000 1.12 294 16:29 17.12.2021
4848 Clouds 0 1034 1 10000 1.12 294 15:51 17.12.2021
4849 Clouds 1 1034 1 10000 1.05 305 14:43 17.12.2021
4850 Clouds 2 1030 35 10000 0.89 300 13:56 17.12.2021
4851 Clouds 2 1030 33 10000 1.05 331 12:38 17.12.2021
4852 Clouds 0 1033 1 10000 1.89 339 10:49 17.12.2021
4853 Clouds -1 1033 1 10000 1.64 313 09:51 17.12.2021
4854 Clouds -1 1034 1 10000 1.82 327 08:58 17.12.2021
4855 Clouds -1 1033 1 10000 1.59 332 08:19 17.12.2021
4856 Clouds -1 1033 1 10000 1.51 352 04:58 17.12.2021
4857 Clouds -1 1032 1 10000 1.38 336 02:51 17.12.2021
4858 Clear 0 1031 33 10000 1.29 323 22:50 16.12.2021
4859 Clear 1 1031 93 10000 1.06 321 22:22 16.12.2021
4860 Clear 1 1031 93 10000 1.06 321 21:44 16.12.2021
4861 Clear 2 1030 93 10000 1.21 310 20:48 16.12.2021
4862 Clear 2 1028 92 10000 1.15 290 20:21 16.12.2021
4863 Clear 3 1028 92 10000 1.15 290 19:31 16.12.2021
4864 Clouds 4 1028 89 10000 1.08 287 18:33 16.12.2021
4865 Clouds 5 1028 89 10000 1.08 287 17:47 16.12.2021
4866 Clouds 5 1027 88 10000 1.27 284 16:26 16.12.2021
4867 Rain 6 1027 88 10000 1.27 284 15:50 16.12.2021
4868 Rain 7 1025 80 10000 1.51 296 13:46 16.12.2021
4869 Clear 7 1021 61 10000 3.06 290 12:27 16.12.2021
4870 Clear 6 1023 54 10000 3.52 287 11:19 16.12.2021
4871 Clear 6 1023 52 10000 3.52 287 10:39 16.12.2021
4872 Clear 6 1022 36 10000 4.29 279 09:43 16.12.2021
4873 Clear 6 996 34 10000 0.45 45 06:51 16.12.2021
4874 Clear 6 996 71 10000 0.45 227 06:18 16.12.2021
4875 Clouds 4 992 50 10000 0.45 90 23:58 15.12.2021
4876 Clouds 4 991 50 10000 0.45 315 22:50 15.12.2021
4877 Clouds 4 991 50 10000 0.45 267 22:21 15.12.2021
4878 Clouds 4 990 50 186 2.09 228 21:31 15.12.2021
4879 Clouds 4 990 50 245 0.45 315 20:51 15.12.2021
4880 Clouds 4 989 93 163 1.81 225 19:53 15.12.2021
4881 Clouds 4 988 50 101 0.45 86 19:18 15.12.2021
4882 Clouds 3 988 50 80 0.89 136 18:20 15.12.2021
4883 Clouds 4 988 94 80 0.89 182 17:45 15.12.2021
4884 Clouds 4 998 92 91 0.45 289 17:21 15.12.2021
4885 Rain 4 988 50 119 0.94 234 15:49 15.12.2021
4886 Clouds 4 998 64 343 0.45 180 15:30 15.12.2021
4887 Clouds 4 1009 47 373 1.05 197 14:48 15.12.2021
4888 Clouds 4 1009 47 241 1.04 193 13:34 15.12.2021
4889 Clouds 4 1010 1 137 0.51 231 11:52 15.12.2021
4890 Clouds 4 1009 1 145 0.94 244 10:20 15.12.2021
4891 Clouds 5 986 51 128 0.45 270 08:25 15.12.2021
4892 Rain 4 986 51 3014 0.89 270 05:53 15.12.2021
4893 Clouds 5 987 52 904 0.45 96 00:37 15.12.2021
4894 Clouds 5 987 52 2613 1.34 43 23:27 14.12.2021
4895 Clouds 4 987 51 2511 1.34 137 22:44 14.12.2021
4896 Clouds 4 988 51 5144 1.34 228 21:43 14.12.2021
4897 Clouds 2 988 51 10000 0.89 46 20:22 14.12.2021
4898 Clouds 2 989 51 10000 0.45 159 19:34 14.12.2021
4899 Clouds 1 989 50 10000 0.45 133 18:38 14.12.2021
4900 Clouds 1 1000 61 10000 0.45 274 17:56 14.12.2021
4901 Clouds 1 1012 43 10000 0.7 184 16:47 14.12.2021
4902 Snow 1 1012 43 10000 0.4 230 16:28 14.12.2021
4903 Clouds 1 1012 43 10000 0.23 154 14:32 14.12.2021
4904 Clouds 0 991 50 10000 0.71 259 12:58 14.12.2021
4905 Clouds 0 992 50 10000 0.51 266 11:44 14.12.2021
4906 Clouds -1 1015 1 10000 0.8 318 11:20 14.12.2021
4907 Clouds -1 1014 1 10000 0.7 322 09:55 14.12.2021
4908 Clouds -1 1014 1 10000 0.86 299 08:58 14.12.2021
4909 Clouds 0 1014 97 10000 0.88 263 08:21 14.12.2021
4910 Clouds 0 1014 97 10000 0.88 263 07:39 14.12.2021
4911 Clouds 3 991 51 100 0.45 135 23:59 13.12.2021
4912 Clouds 3 1003 66 64 0.64 254 22:26 13.12.2021
4913 Clouds 3 1003 66 64 0.64 254 21:44 13.12.2021
4914 Clouds 3 1003 66 58 0.75 272 20:54 13.12.2021
4915 Clouds 3 1003 66 53 0.88 271 20:26 13.12.2021
4916 Clouds 3 1003 66 53 0.88 271 19:49 13.12.2021
4917 Clouds 3 1015 51 47 0.77 230 17:39 13.12.2021
4918 Clouds 3 1015 51 55 1.33 175 17:18 13.12.2021
4919 Clouds 3 1003 66 70 0.45 110 15:47 13.12.2021
4920 Clouds 3 1015 51 86 3.02 183 14:43 13.12.2021
4921 Clouds 3 1016 1 102 3.42 183 13:37 13.12.2021
4922 Clouds 3 1016 1 131 1.9 187 12:40 13.12.2021
4923 Clouds 3 1017 1 362 1.07 182 11:53 13.12.2021
4924 Clouds 3 1018 1 467 0.9 240 11:34 13.12.2021
4925 Clouds 2 1018 1 468 0.9 240 10:41 13.12.2021
4926 Clouds 2 1018 1 10000 0.73 202 08:45 13.12.2021
4927 Clouds 2 995 49 5344 0.45 180 06:55 13.12.2021
4928 Clouds 2 995 49 4611 0.64 355 05:19 13.12.2021
4929 Clouds 2 995 49 2245 0.45 310 00:41 13.12.2021
4930 Clouds 2 1004 63 107 0.51 276 21:59 12.12.2021
4931 Clouds 1 1004 63 107 0.45 135 21:29 12.12.2021
4932 Clouds 1 1004 63 107 0.94 167 19:36 12.12.2021
4933 Clouds 1 993 48 82 0.45 318 18:23 12.12.2021
4934 Rain 1 993 47 78 0.45 270 16:40 12.12.2021
4935 Snow 2 1003 63 66 0.45 90 15:58 12.12.2021
4936 Rain 2 1003 63 51 1.9 167 15:28 12.12.2021
4937 Snow 1 993 47 51 0.89 201 14:54 12.12.2021
4938 Snow 1 1003 61 58 2.07 167 14:19 12.12.2021
4939 Snow 1 1003 61 43 0.45 39 12:48 12.12.2021
4940 Snow 1 1003 60 76 0.89 177 12:23 12.12.2021
4941 Snow 1 992 46 77 0.45 184 11:43 12.12.2021
4942 Snow 1 992 47 108 0.89 273 10:44 12.12.2021
4943 Snow 0 1015 1 146 1.62 150 10:21 12.12.2021
4944 Snow 1 992 47 101 0.45 225 08:48 12.12.2021
4945 Snow 1 1015 1 129 1.38 142 07:28 12.12.2021
4946 Snow 1 992 47 925 0.45 183 05:29 12.12.2021
4947 Rain 1 992 47 925 0.45 308 04:51 12.12.2021
4948 Clouds 1 1016 1 6711 1.03 157 00:57 12.12.2021
4949 Snow 1 1015 1 1050 0.24 173 22:56 11.12.2021
4950 Snow 1 1015 1 595 0.43 217 22:20 11.12.2021
4951 Snow 1 1015 1 595 0.43 217 21:35 11.12.2021
4952 Snow 1 1014 1 371 0.29 276 20:19 11.12.2021
4953 Rain 1 990 46 281 0.46 295 19:21 11.12.2021
4954 Clouds 1 1014 1 4410 0.52 346 18:45 11.12.2021
4955 Clouds 1 1014 1 10000 0.89 324 17:54 11.12.2021
4956 Clouds 1 1014 1 10000 1.04 331 16:37 11.12.2021
4957 Clouds 1 1013 1 10000 0.96 334 15:41 11.12.2021
4958 Clouds 2 988 45 10000 1.12 332 14:36 11.12.2021
4959 Clouds 1 1012 1 10000 1.4 339 12:41 11.12.2021
4960 Rain 1 1012 1 657 1.81 345 10:58 11.12.2021
4961 Clouds 1 1011 1 368 1.92 348 09:44 11.12.2021
4962 Snow 1 1009 1 318 2.44 358 03:58 11.12.2021
4963 Snow 1 983 44 220 0.45 314 00:49 11.12.2021
4964 Snow 0 1007 1 256 2.69 6 23:44 10.12.2021
4965 Snow 0 1007 1 157 2.82 6 22:50 10.12.2021
4966 Snow 0 1007 1 156 2.91 1 21:51 10.12.2021
4967 Snow 0 1002 46 152 2.89 359 20:32 10.12.2021
4968 Snow 0 1002 46 173 2.76 358 19:19 10.12.2021
4969 Snow 0 1006 1 279 2.84 355 17:50 10.12.2021
4970 Clouds -1 1006 96 296 2.56 355 16:39 10.12.2021
4971 Clouds -1 1002 37 1278 2.43 355 15:45 10.12.2021
4972 Clouds -1 1002 37 872 2.51 1 15:27 10.12.2021
4973 Clouds -1 1002 37 872 2.51 1 14:49 10.12.2021
4974 Clouds -1 1002 37 1598 2.12 4 13:50 10.12.2021
4975 Clouds -1 1002 41 7418 2.08 5 12:56 10.12.2021
4976 Clouds -1 1006 1 1589 2.26 3 11:43 10.12.2021
4977 Clouds -1 1006 1 1667 2.17 3 11:19 10.12.2021
4978 Snow -1 1006 1 585 2.15 5 09:53 10.12.2021
4979 Snow -1 1005 1 440 2.13 7 08:23 10.12.2021
4980 Snow -1 981 43 204 0.45 313 04:58 10.12.2021
4981 Snow -1 982 43 201 0.45 316 02:44 10.12.2021
4982 Snow -1 983 43 141 0.45 337 23:43 09.12.2021
4983 Snow -1 983 44 131 0.45 274 22:44 09.12.2021
4984 Snow -1 983 44 138 2.44 54 22:23 09.12.2021
4985 Snow 0 995 60 137 0.45 38 21:40 09.12.2021
4986 Snow 0 995 60 132 0.45 273 20:38 09.12.2021
4987 Snow 0 995 60 132 0.45 90 19:46 09.12.2021
4988 Snow 0 995 60 114 0.45 315 19:21 09.12.2021
4989 Snow 0 997 60 175 2.15 69 18:24 09.12.2021
4990 Snow 0 997 60 176 0.45 2 17:51 09.12.2021
4991 Snow 0 997 60 181 0.45 270 17:24 09.12.2021
4992 Snow 0 997 60 181 0.45 315 16:43 09.12.2021
4993 Snow 0 1009 48 214 2 50 15:31 09.12.2021
4994 Snow 0 1009 48 212 1.99 49 14:43 09.12.2021
4995 Snow 0 1009 48 226 1.75 34 13:18 09.12.2021
4996 Snow -1 1013 1 182 1.61 40 12:31 09.12.2021
4997 Snow -1 1013 1 157 1.76 42 10:47 09.12.2021
4998 Snow -1 1013 1 155 1.86 38 08:20 09.12.2021
4999 Snow -1 1013 1 130 1.92 24 05:54 09.12.2021
5000 Snow -2 1012 1 119 1.92 29 01:52 09.12.2021
5001 Snow -2 1013 1 157 2.03 32 23:40 08.12.2021
5002 Snow -2 1013 1 130 2.16 24 23:20 08.12.2021
5003 Snow -3 1013 1 130 2.16 25 22:43 08.12.2021
5004 Snow -3 1013 1 162 2.36 28 21:39 08.12.2021
5005 Snow -3 1013 1 137 2.54 31 20:58 08.12.2021
5006 Snow -3 1018 44 137 0.89 164 19:57 08.12.2021
5007 Snow -2 1003 56 155 0.45 310 19:29 08.12.2021
5008 Snow -3 987 42 166 2.92 39 18:30 08.12.2021
5009 Snow -3 987 42 380 0.45 270 17:24 08.12.2021
5010 Snow -3 986 41 553 0.89 90 15:46 08.12.2021
5011 Snow -3 986 41 535 1.34 202 15:23 08.12.2021
5012 Snow -3 1002 55 1788 0.89 270 14:26 08.12.2021
5013 Snow -4 988 39 1917 0.45 273 10:53 08.12.2021
5014 Snow -5 988 39 330 0.45 223 10:24 08.12.2021
5015 Snow -5 988 39 456 0.89 357 08:54 08.12.2021
5016 Snow -6 987 38 426 0.89 316 07:21 08.12.2021
5017 Snow -7 989 37 140 0.89 270 01:21 08.12.2021
5018 Snow -7 990 36 180 0.45 359 23:31 07.12.2021
5019 Snow -8 990 36 205 0.45 313 21:26 07.12.2021
5020 Snow -7 1002 52 205 0.45 315 20:54 07.12.2021
5021 Snow -8 1002 51 276 0.45 315 19:50 07.12.2021
5022 Snow -8 1002 51 263 0.45 270 18:39 07.12.2021
5023 Clouds -8 1002 51 303 1.34 36 17:27 07.12.2021
5024 Clouds -8 1002 51 303 0.45 273 17:27 07.12.2021
5025 Clouds -8 1014 44 303 1.34 36 16:57 07.12.2021
5026 Snow -8 1014 44 292 1.39 28 16:28 07.12.2021
5027 Clouds -8 1002 39 500 0.45 315 14:57 07.12.2021
5028 Clouds -8 1003 39 621 1.26 45 13:49 07.12.2021
5029 Snow -8 1003 40 644 1.47 47 12:46 07.12.2021
5030 Snow -8 1003 40 296 0.45 273 11:25 07.12.2021
5031 Snow -9 992 35 209 1.33 45 09:44 07.12.2021
5032 Snow -9 992 33 294 0.45 315 07:55 07.12.2021
5033 Snow -9 992 34 449 0.45 315 05:55 07.12.2021
5034 Snow -9 992 34 449 0.45 315 05:30 07.12.2021
5035 Snow -9 993 33 378 0.45 270 23:45 06.12.2021
5036 Snow -9 993 33 404 0.45 318 22:44 06.12.2021
5037 Clouds -9 994 33 350 0.45 90 22:18 06.12.2021
5038 Clouds -10 994 33 349 0.45 309 21:42 06.12.2021
5039 Clouds -10 994 33 430 1.25 49 20:33 06.12.2021
5040 Snow -10 995 33 655 1.12 50 19:27 06.12.2021
5041 Clouds -10 995 33 658 1.13 50 18:57 06.12.2021
5042 Clouds -10 1005 50 1846 0.45 270 17:56 06.12.2021
5043 Clouds -10 1005 50 5480 0.95 53 17:36 06.12.2021
5044 Clouds -10 1009 57 10000 0.45 271 16:21 06.12.2021
5045 Clouds -9 1007 55 1738 1.04 69 14:54 06.12.2021
5046 Clouds -9 997 35 4973 0.91 64 13:45 06.12.2021
5047 Clouds -9 1022 6 10000 1.09 67 12:39 06.12.2021
5048 Clouds -10 999 34 10000 0.45 357 10:31 06.12.2021
5049 Clouds -10 999 34 10000 1.01 25 07:59 06.12.2021
5050 Clouds -9 1000 34 10000 0.45 310 04:28 06.12.2021
5051 Clouds -8 1027 22 10000 1.56 19 22:30 05.12.2021
5052 Clouds -8 1001 47 10000 1.81 15 21:26 05.12.2021
5053 Clouds -8 1001 48 10000 0.45 315 20:59 05.12.2021
5054 Clouds -8 1001 48 10000 0.45 315 20:18 05.12.2021
5055 Clouds -8 1000 49 10000 1.93 21 19:33 05.12.2021
5056 Clouds -7 1011 57 10000 1.76 19 18:39 05.12.2021
5057 Clouds -7 1011 57 10000 0.45 315 18:19 05.12.2021
5058 Clouds -7 1011 59 10000 0.45 320 17:45 05.12.2021
5059 Clouds -7 1000 54 10000 0.45 315 16:41 05.12.2021
5060 Clouds -7 1000 53 10000 0.45 315 16:22 05.12.2021
5061 Clouds -6 999 47 10000 0.45 294 14:48 05.12.2021
5062 Clouds -6 999 47 10000 0.45 315 14:30 05.12.2021
5063 Clouds -5 1009 56 10000 0.45 314 13:43 05.12.2021
5064 Clouds -5 1009 54 10000 0.45 317 12:55 05.12.2021
5065 Clouds -5 1009 54 10000 0.45 227 12:29 05.12.2021
5066 Snow -5 1009 60 10000 0.45 312 11:49 05.12.2021
5067 Clouds -5 1008 59 10000 0.45 135 10:51 05.12.2021
5068 Clouds -5 1023 33 10000 2.32 20 09:53 05.12.2021
5069 Clouds -5 1021 90 10000 2.39 21 07:33 05.12.2021
5070 Clouds -5 1017 1 8898 2.51 25 02:25 05.12.2021
5071 Clouds -6 1015 1 10000 2.22 10 23:28 04.12.2021
5072 Clouds -6 989 37 10000 0.45 227 21:53 04.12.2021
5073 Clouds -6 1007 40 10000 2.36 18 20:47 04.12.2021
5074 Clouds -6 1007 40 10000 2.31 18 19:54 04.12.2021
5075 Clouds -6 1007 40 10000 2.31 18 19:31 04.12.2021
5076 Clouds -6 1007 40 10000 2.28 23 17:58 04.12.2021
5077 Clouds -6 1007 40 10000 2.28 23 17:37 04.12.2021
5078 Clouds -6 1007 40 10000 2.27 22 16:48 04.12.2021
5079 Clouds -5 1004 33 10000 2.22 22 16:30 04.12.2021
5080 Clouds -5 1004 33 10000 2.27 22 16:30 04.12.2021
5081 Clouds -5 1004 33 10000 2.26 26 14:39 04.12.2021
5082 Clouds -5 993 45 10000 0.45 270 11:47 04.12.2021
5083 Clouds -5 993 45 10000 0.45 315 11:29 04.12.2021
5084 Clouds -6 982 37 10000 0.45 270 10:43 04.12.2021
5085 Clouds -6 981 38 9515 0.45 318 08:45 04.12.2021
5086 Snow -6 979 38 7104 2.06 32 06:24 04.12.2021
5087 Snow -6 979 38 7874 0.45 232 04:41 04.12.2021
5088 Clouds -7 977 37 492 0.89 228 23:49 03.12.2021
5089 Snow -7 977 37 494 0.45 271 23:49 03.12.2021
5090 Clouds -7 977 37 494 0.45 271 23:49 03.12.2021
5091 Snow -7 977 37 289 0.45 90 22:57 03.12.2021
5092 Clouds -7 987 54 289 0.45 315 22:38 03.12.2021
5093 Snow -7 987 54 243 0.89 359 21:25 03.12.2021
5094 Snow -8 987 53 241 0.45 352 20:46 03.12.2021
5095 Snow -8 987 53 196 0.45 44 19:40 03.12.2021
5096 Snow -8 987 41 181 0.89 315 18:28 03.12.2021
5097 Snow -8 987 41 181 0.45 225 17:58 03.12.2021
5098 Clouds -8 998 30 10000 1.74 47 14:23 03.12.2021
5099 Clouds -7 998 30 10000 1.52 50 12:54 03.12.2021
5100 Clouds -9 1000 62 10000 1.67 53 11:38 03.12.2021
5101 Clouds -9 1000 62 10000 1.79 50 10:32 03.12.2021
5102 Clouds -9 1001 1 10000 1.37 15 08:25 03.12.2021
5103 Clouds -9 1001 1 10000 1.37 15 07:40 03.12.2021
5104 Clouds -7 976 37 10000 1.48 24 02:39 03.12.2021
5105 Clouds -6 975 38 10000 0.45 318 00:47 03.12.2021
5106 Clouds -6 975 38 10000 0.45 313 23:47 02.12.2021
5107 Clouds -6 974 39 10000 1.31 35 21:43 02.12.2021
5108 Clouds -6 974 39 10000 1.14 15 21:21 02.12.2021
5109 Clouds -6 983 55 10000 1.14 15 20:38 02.12.2021
5110 Clouds -6 983 55 10000 1.27 18 19:31 02.12.2021
5111 Clouds -6 983 53 10000 1.2 33 18:33 02.12.2021
5112 Clouds -6 983 53 10000 1.2 33 18:33 02.12.2021
5113 Clouds -5 981 51 10000 0.94 331 15:43 02.12.2021
5114 Clouds -5 981 50 10000 1.3 343 15:20 02.12.2021
5115 Clouds -5 982 50 10000 1.31 343 14:43 02.12.2021
5116 Clouds -4 981 43 10000 0.8 336 12:53 02.12.2021
5117 Clouds -4 981 43 10000 0.95 294 12:18 02.12.2021
5118 Clouds -6 995 1 10000 1.08 330 10:36 02.12.2021
5119 Clear -7 971 37 10000 1.43 317 08:59 02.12.2021
5120 Clouds -7 994 1 10000 2.11 322 05:34 02.12.2021
5121 Clouds -6 969 71 10000 0.45 315 00:53 02.12.2021
5122 Clouds -6 969 38 10000 0.45 43 23:28 01.12.2021
5123 Clouds -6 969 71 10000 0.45 270 22:25 01.12.2021
5124 Clouds -7 980 53 10000 0.45 315 21:21 01.12.2021
5125 Clouds -7 980 54 10000 0.45 313 19:58 01.12.2021
5126 Clouds -7 980 54 10000 0.45 272 19:34 01.12.2021
5127 Clouds -7 980 54 10000 1.66 7 17:50 01.12.2021
5128 Clouds -7 980 54 10000 0.45 358 16:58 01.12.2021
5129 Clouds -6 982 46 10000 0.45 312 15:20 01.12.2021
5130 Clouds -6 982 65 10000 1.63 11 13:49 01.12.2021
5131 Clouds -6 982 65 10000 1.63 11 13:30 01.12.2021
5132 Clouds -8 972 73 10000 1.26 16 10:43 01.12.2021
5133 Clouds -8 972 39 10000 1.15 13 09:56 01.12.2021
5134 Clouds -8 972 39 10000 1.27 17 08:40 01.12.2021
5135 Clouds -8 996 1 10000 1.34 15 07:38 01.12.2021
5136 Clouds -8 996 1 10000 0.86 12 07:19 01.12.2021
5137 Clouds -8 996 1 10000 0.86 12 07:19 01.12.2021
5138 Snow -8 974 40 10000 0.69 339 03:47 01.12.2021
5139 Clouds -8 974 40 10000 0.7 328 02:34 01.12.2021
5140 Clouds -7 975 40 10000 0.71 298 23:57 30.11.2021
5141 Clouds -7 974 40 10000 0.67 305 23:28 30.11.2021
5142 Clouds -8 974 39 10000 0.98 294 22:22 30.11.2021
5143 Clouds -7 984 56 10000 0.72 278 20:46 30.11.2021
5144 Clouds -7 984 56 10000 0.79 304 20:23 30.11.2021
5145 Clouds -7 984 56 10000 0.79 304 19:38 30.11.2021
5146 Clouds -7 984 56 10000 1.03 288 18:51 30.11.2021
5147 Clouds -6 984 55 10000 0.93 305 17:21 30.11.2021
5148 Clouds -4 983 45 10000 0.73 314 15:50 30.11.2021
5149 Clouds -3 983 47 10000 0.35 339 14:31 30.11.2021
5150 Snow -3 983 47 10000 0.35 339 13:40 30.11.2021
5151 Clouds -3 983 47 10000 0.83 352 12:53 30.11.2021
5152 Snow -4 983 48 10000 1.21 345 11:54 30.11.2021
5153 Snow -4 983 48 10000 0.45 315 11:25 30.11.2021
5154 Snow -4 982 54 10000 1.22 357 10:35 30.11.2021
5155 Snow -5 981 54 9107 1.65 24 08:55 30.11.2021
5156 Snow -5 971 39 693 1.76 30 08:32 30.11.2021
5157 Snow -5 971 39 693 0.45 353 07:49 30.11.2021
5158 Snow -5 970 39 154 1.37 43 06:32 30.11.2021
5159 Snow -5 971 41 226 0.45 319 01:46 30.11.2021
5160 Clouds -5 972 42 278 0.45 51 01:27 30.11.2021
5161 Clouds -5 975 43 10000 0.45 135 23:27 29.11.2021
5162 Clouds -6 976 42 10000 0.45 90 22:59 29.11.2021
5163 Clouds -6 976 42 10000 1.14 102 22:37 29.11.2021
5164 Clouds -7 1001 1 10000 1.04 135 21:52 29.11.2021
5165 Clouds -7 1002 1 10000 1.21 134 21:20 29.11.2021
5166 Clouds -7 1002 1 10000 1.21 134 20:45 29.11.2021
5167 Clouds -7 1003 1 10000 1.29 150 19:58 29.11.2021
5168 Clouds -7 1003 1 10000 1.29 150 19:39 29.11.2021
5169 Clouds -6 980 39 10000 0.45 111 18:59 29.11.2021
5170 Clouds -4 1004 77 10000 0.81 147 18:40 29.11.2021
5171 Clouds -4 1005 75 10000 0.81 165 17:21 29.11.2021
5172 Clouds -4 1005 75 10000 0.81 165 16:44 29.11.2021
5173 Clouds -4 1006 75 10000 1.12 176 16:22 29.11.2021
5174 Clouds -4 1007 73 10000 0.93 178 14:45 29.11.2021
5175 Clouds -3 1007 70 10000 0.57 172 13:52 29.11.2021
5176 Clouds -3 1008 68 10000 0.32 218 12:57 29.11.2021
5177 Clouds -3 1008 71 10000 0.35 261 12:19 29.11.2021
5178 Clouds -3 1009 74 10000 0.39 304 11:22 29.11.2021
5179 Clouds -11 1009 78 10000 0.59 341 09:58 29.11.2021
5180 Clouds -10 1009 79 10000 0.77 356 07:21 29.11.2021
5181 Clouds -9 1010 78 10000 1.03 4 05:48 29.11.2021
5182 Clouds -8 1009 77 10000 1.71 3 01:22 29.11.2021
5183 Snow -7 1009 76 10000 1.79 4 23:47 28.11.2021
5184 Clouds -7 1009 76 10000 1.94 2 23:29 28.11.2021
5185 Clouds -6 1009 77 10000 1.95 3 21:57 28.11.2021
5186 Clouds -5 1009 77 10000 1.95 3 21:38 28.11.2021
5187 Clouds -5 1009 76 10000 1.86 6 20:36 28.11.2021
5188 Clouds -5 1008 73 10000 2.4 20 19:37 28.11.2021
5189 Clouds -6 1008 75 10000 2.31 13 18:40 28.11.2021
5190 Clouds -6 1008 75 10000 2.55 14 17:57 28.11.2021
5191 Clouds -5 1007 74 10000 2.83 19 17:34 28.11.2021
5192 Clouds -5 1007 74 10000 2.82 19 16:47 28.11.2021
5193 Clouds -5 1007 72 10000 3.05 26 16:27 28.11.2021
5194 Clouds -4 1007 72 10000 3.05 26 15:48 28.11.2021
5195 Clouds -3 1006 69 10000 3.38 29 14:55 28.11.2021
5196 Clouds -3 1006 67 10000 3.37 32 14:28 28.11.2021
5197 Clouds -3 1005 66 10000 3.42 35 12:54 28.11.2021
5198 Clouds -3 1005 67 10000 3.61 34 11:38 28.11.2021
5199 Clouds -4 1005 69 10000 3.62 34 10:31 28.11.2021
5200 Clouds -5 1005 69 10000 3.61 34 09:46 28.11.2021
5201 Clouds -5 1004 69 10000 3.51 33 09:27 28.11.2021
5202 Clouds -4 1004 68 10000 2.57 26 00:50 28.11.2021
5203 Clouds -5 1005 69 10000 2.44 34 21:53 27.11.2021
5204 Clouds -6 1005 69 10000 2.35 28 19:50 27.11.2021
5205 Clouds -6 1005 65 10000 2.13 23 18:26 27.11.2021
5206 Clouds -5 1005 66 10000 2.16 22 16:18 27.11.2021
5207 Clouds -3 1005 66 10000 2.23 17 14:44 27.11.2021
5208 Clouds -3 1005 63 10000 2.12 15 13:38 27.11.2021
5209 Clouds -5 1005 65 10000 1.69 21 11:28 27.11.2021
5210 Clouds -6 1005 68 10000 1.73 20 10:19 27.11.2021
5211 Clouds -6 1004 70 10000 1.79 26 08:54 27.11.2021
5212 Clouds -6 1003 79 10000 1.91 26 06:59 27.11.2021
5213 Clouds -7 1002 76 10000 1.54 20 04:40 27.11.2021
5214 Clouds -8 1001 72 10000 1.73 30 00:25 27.11.2021
5215 Clouds -7 1001 73 10000 1.56 23 22:51 26.11.2021
5216 Clouds -6 1000 73 10000 1.68 20 22:24 26.11.2021
5217 Clouds -7 1000 73 10000 1.63 30 21:31 26.11.2021
5218 Clouds -6 1000 73 10000 1.63 30 20:41 26.11.2021
5219 Clouds -6 999 74 10000 1.62 26 19:56 26.11.2021
5220 Clouds -4 998 73 10000 1.44 29 18:47 26.11.2021
5221 Clouds -4 998 73 10000 1.41 33 17:45 26.11.2021
5222 Clouds -3 997 75 10000 1.49 39 17:21 26.11.2021
5223 Clouds -2 996 65 10000 1.59 41 15:23 26.11.2021
5224 Clouds -1 995 61 10000 1.17 46 13:35 26.11.2021
5225 Clouds -1 995 61 10000 1.17 46 13:35 26.11.2021
5226 Clouds -3 995 61 10000 0.88 96 10:46 26.11.2021
5227 Clouds -2 972 33 10000 0.91 104 09:55 26.11.2021
5228 Clouds -2 971 33 10000 0.59 96 08:56 26.11.2021
5229 Clouds -2 971 32 10000 0.53 105 08:21 26.11.2021
5230 Clouds -2 971 33 10000 0.81 112 06:48 26.11.2021
5231 Clouds -2 972 33 10000 0.75 163 06:24 26.11.2021
5232 Clouds -2 972 35 10000 1.05 177 03:47 26.11.2021
5233 Clouds -3 973 33 10000 0.76 234 01:27 26.11.2021
5234 Clouds -3 973 33 10000 0.76 234 01:27 26.11.2021
5235 Clouds -2 974 39 10000 0.26 354 22:43 25.11.2021
5236 Clouds -2 975 32 10000 1.01 346 21:21 25.11.2021
5237 Clouds -1 975 33 10000 1.26 356 19:55 25.11.2021
5238 Clouds -1 975 33 10000 1.43 345 18:45 25.11.2021
5239 Clear 0 976 32 10000 1.33 326 17:41 25.11.2021
5240 Clear 0 976 32 10000 1.43 339 17:18 25.11.2021
5241 Clear 0 976 38 10000 1.43 339 16:30 25.11.2021
5242 Clear 2 976 47 10000 0.45 315 14:59 25.11.2021
5243 Clouds 3 976 55 10000 0.45 270 13:25 25.11.2021
5244 Clouds 3 1000 47 10000 2.61 14 12:20 25.11.2021
5245 Clouds 2 1000 4 10000 2.61 14 11:48 25.11.2021
5246 Clouds 1 999 1 10000 1.95 358 09:25 25.11.2021
5247 Clouds 3 999 1 10000 1.18 239 05:27 25.11.2021
5248 Clear 4 1000 1 10000 1.54 232 02:48 25.11.2021
5249 Clouds 6 1002 1 10000 2.12 224 22:55 24.11.2021
5250 Clouds 6 979 44 10000 2.42 223 22:23 24.11.2021
5251 Clouds 6 979 43 10000 0.45 93 21:28 24.11.2021
5252 Clouds 6 990 58 10000 0.45 135 20:46 24.11.2021
5253 Clouds 6 990 58 10000 0.89 131 20:19 24.11.2021
5254 Clouds 6 980 58 10000 0.89 3 18:30 24.11.2021
5255 Clouds 6 981 58 10000 0.45 226 17:53 24.11.2021
5256 Clouds 6 1005 44 10000 2.19 205 15:23 24.11.2021
5257 Clouds 7 1005 1 10000 2.19 205 14:47 24.11.2021
5258 Clouds 7 1005 1 10000 1.85 204 14:20 24.11.2021
5259 Clouds 6 1007 1 10000 1.48 219 12:28 24.11.2021
5260 Clouds 6 1008 1 10000 1.62 214 11:20 24.11.2021
5261 Clouds 6 1008 1 10000 1.62 214 10:47 24.11.2021
5262 Clouds 6 1008 1 10000 1.23 238 10:22 24.11.2021
5263 Clouds 5 1009 84 10000 1.37 245 07:54 24.11.2021
5264 Clouds 5 1009 19 10000 1.3 253 06:54 24.11.2021
5265 Clouds 4 1009 85 10000 1.02 267 03:51 24.11.2021
5266 Clouds 4 1010 85 10000 1.45 266 00:52 24.11.2021
5267 Clouds 3 1012 1 10000 1.35 245 22:40 23.11.2021
5268 Clouds 3 1012 1 10000 1.29 234 22:20 23.11.2021
5269 Clouds 3 1012 81 10000 1.29 234 21:44 23.11.2021
5270 Clouds 3 1012 48 10000 1.2 245 19:43 23.11.2021
5271 Clouds 3 1012 90 10000 0.95 258 18:42 23.11.2021
5272 Clouds 2 1012 90 10000 0.99 277 18:21 23.11.2021
5273 Clouds 2 1012 48 10000 0.81 260 16:58 23.11.2021
5274 Clouds 3 1012 48 10000 0.91 240 16:20 23.11.2021
5275 Clouds 3 1012 48 10000 0.55 230 15:22 23.11.2021
5276 Clouds 3 1014 43 10000 0.6 254 14:22 23.11.2021
5277 Clouds 1 1016 1 10000 0.48 227 11:43 23.11.2021
5278 Clouds 1 994 41 10000 0.45 315 09:59 23.11.2021
5279 Clouds 1 995 41 10000 0.45 312 09:18 23.11.2021
5280 Clouds 0 994 41 10000 0.62 217 06:45 23.11.2021
5281 Clouds 0 995 41 10000 0.5 7 03:52 23.11.2021
5282 Clouds -1 994 40 10000 1.06 27 01:49 23.11.2021
5283 Clouds 0 993 41 10000 1.55 9 23:21 22.11.2021
5284 Clouds 0 1001 55 10000 1.55 8 22:47 22.11.2021
5285 Clouds 0 1001 55 10000 1.23 357 22:25 22.11.2021
5286 Clouds 0 1001 55 10000 1.23 357 22:25 22.11.2021
5287 Clouds 0 1001 55 10000 1.23 357 21:41 22.11.2021
5288 Clouds 0 1000 55 10000 1.19 343 20:52 22.11.2021
5289 Clouds 0 1000 54 10000 1.4 342 19:56 22.11.2021
5290 Clouds 1 1000 54 10000 1.66 358 19:19 22.11.2021
5291 Clouds 1 1000 54 10000 1.57 357 18:39 22.11.2021
5292 Clouds 1 999 50 10000 0.45 315 17:38 22.11.2021
5293 Clouds 2 999 48 10000 0.45 184 16:18 22.11.2021
5294 Clouds 3 1001 64 10000 0.89 82 13:58 22.11.2021
5295 Clouds 1 1001 52 10000 0.45 227 12:18 22.11.2021
5296 Snow 1 993 34 10000 0.89 270 10:43 22.11.2021
5297 Clouds 0 994 36 10000 0.45 0 09:43 22.11.2021
5298 Snow -1 994 36 10000 0.45 176 08:40 22.11.2021
5299 Clouds -2 995 37 10000 1.52 213 06:22 22.11.2021
5300 Clouds -2 1019 7 10000 0.89 276 23:28 21.11.2021
5301 Clouds 0 995 42 10000 0.89 276 22:49 21.11.2021
5302 Clouds -1 995 41 10000 1.17 299 21:53 21.11.2021
5303 Clouds 0 1003 45 10000 1.47 317 20:42 21.11.2021
5304 Clouds 0 1003 48 10000 1.42 334 19:48 21.11.2021
5305 Clear 1 1002 53 10000 1.74 321 18:25 21.11.2021
5306 Clear 1 1002 53 10000 1.74 321 17:39 21.11.2021
5307 Clear 3 1015 56 10000 2.04 342 15:53 21.11.2021
5308 Clear 4 1014 55 10000 2.88 359 14:45 21.11.2021
5309 Clear 5 1010 51 10000 3.82 4 13:47 21.11.2021
5310 Clouds 5 1006 51 10000 4.09 7 12:37 21.11.2021
5311 Clouds 5 1006 49 10000 3.24 354 11:53 21.11.2021
5312 Clouds 4 1006 49 10000 2.4 336 11:35 21.11.2021
5313 Clouds 3 1006 49 10000 2.05 325 10:18 21.11.2021
5314 Clouds 1 1008 74 10000 2.31 337 08:45 21.11.2021
5315 Clouds 1 1006 77 10000 2.08 332 08:25 21.11.2021
5316 Clouds 1 1006 77 10000 2.08 332 07:48 21.11.2021
5317 Clouds 2 1005 81 10000 1.94 339 05:55 21.11.2021
5318 Clouds 2 1004 81 10000 2.08 347 05:25 21.11.2021
5319 Clouds 4 1003 43 10000 2.42 353 03:19 21.11.2021
5320 Clouds 4 1003 43 10000 2.42 353 02:52 21.11.2021
5321 Clouds 4 1002 38 10000 2.84 27 00:59 21.11.2021
5322 Clouds 4 1002 15 10000 2.77 31 23:56 20.11.2021
5323 Clouds 4 1002 1 10000 1.87 33 21:46 20.11.2021
5324 Clouds 4 1000 39 10000 1.88 24 21:27 20.11.2021
5325 Clouds 4 1000 39 10000 1.71 336 18:46 20.11.2021
5326 Clouds 4 1000 39 10000 1.33 324 18:26 20.11.2021
5327 Clouds 4 1000 39 10000 1.33 324 17:57 20.11.2021
5328 Clouds 5 1000 42 10000 1.25 327 16:59 20.11.2021
5329 Clouds 6 1003 36 10000 1.41 308 14:48 20.11.2021
5330 Clouds 7 1003 45 10000 1.42 307 14:27 20.11.2021
5331 Clouds 7 1004 54 10000 1.18 280 12:23 20.11.2021
5332 Clouds 7 1004 54 10000 1.18 280 12:23 20.11.2021
5333 Clouds 7 1004 57 10000 1.25 268 11:18 20.11.2021
5334 Clouds 6 1004 65 10000 1.54 238 09:51 20.11.2021
5335 Clouds 5 1006 72 10000 1.45 224 07:47 20.11.2021
5336 Clouds 5 1008 72 10000 1.2 233 05:28 20.11.2021
5337 Clouds 5 1008 72 10000 1.2 233 04:50 20.11.2021
5338 Clouds 6 1009 70 10000 1.52 230 03:24 20.11.2021
5339 Clouds 7 1008 54 10000 1.26 240 00:41 20.11.2021
5340 Clouds 8 1008 55 10000 1.68 257 23:43 19.11.2021
5341 Clouds 9 1008 52 10000 1.96 276 22:52 19.11.2021
5342 Clouds 10 1004 52 10000 4.19 299 21:21 19.11.2021
5343 Clouds 10 1004 49 10000 4.23 299 20:37 19.11.2021
5344 Clouds 11 1002 48 10000 5.37 298 19:56 19.11.2021
5345 Clouds 11 1001 46 10000 6.43 289 19:27 19.11.2021
5346 Clouds 12 1001 45 10000 6.41 289 18:43 19.11.2021
5347 Clouds 11 1000 48 10000 4.84 287 17:38 19.11.2021
5348 Clouds 12 998 56 10000 3 264 15:58 19.11.2021
5349 Clouds 10 994 60 10000 3.24 240 13:58 19.11.2021
5350 Clouds 8 994 53 10000 2.53 216 10:52 19.11.2021
5351 Clouds 8 998 1 10000 2.13 214 09:58 19.11.2021
5352 Clouds 7 998 91 10000 1.65 190 08:32 19.11.2021
5353 Clouds 4 1000 87 10000 1.36 192 04:55 19.11.2021
5354 Clouds 4 1002 1 10000 0.49 217 03:00 19.11.2021
5355 Rain 3 1004 1 10000 0.65 279 23:53 18.11.2021
5356 Clouds 3 1005 1 10000 0.9 263 22:38 18.11.2021
5357 Clouds 3 1004 1 10000 0.74 215 20:56 18.11.2021
5358 Clouds 3 1004 1 10000 0.74 215 20:37 18.11.2021
5359 Clouds 3 1003 1 10000 0.82 234 20:18 18.11.2021
5360 Clouds 4 1003 1 10000 0.82 234 19:36 18.11.2021
5361 Clouds 3 1004 93 10000 0.53 320 18:35 18.11.2021
5362 Clouds 4 1003 1 10000 0.75 330 17:52 18.11.2021
5363 Clouds 4 1003 1 10000 1.49 358 16:46 18.11.2021
5364 Clouds 5 1003 1 10000 1.94 357 15:52 18.11.2021
5365 Clouds 4 1002 41 10000 0.55 301 14:19 18.11.2021
5366 Clouds 3 1002 41 10000 1.24 212 12:55 18.11.2021
5367 Rain 3 1002 41 10000 1.63 188 11:44 18.11.2021
5368 Rain 3 1002 77 10000 0.76 167 11:25 18.11.2021
5369 Clouds 2 1007 72 10000 0.98 234 10:22 18.11.2021
5370 Clouds 2 1007 74 10000 1.17 231 08:26 18.11.2021
5371 Clouds 1 1007 76 10000 0.79 257 06:39 18.11.2021
5372 Clouds 0 1007 78 10000 1.17 270 05:43 18.11.2021
5373 Clouds 2 1005 1 10000 1.06 267 01:25 18.11.2021
5374 Clouds 3 1005 1 10000 1.19 256 23:30 17.11.2021
5375 Clouds 3 1005 1 10000 1.19 256 22:39 17.11.2021
5376 Clouds 3 1004 1 10000 1.34 226 22:19 17.11.2021
5377 Clouds 3 1004 1 10000 1.38 221 21:35 17.11.2021
5378 Clear 3 1004 1 10000 1.47 214 19:42 17.11.2021
5379 Clouds 4 1003 1 10000 1.58 253 17:35 17.11.2021
5380 Clouds 6 1002 1 10000 1.94 266 15:55 17.11.2021
5381 Clouds 9 1002 1 10000 2.6 266 13:19 17.11.2021
5382 Clouds 8 1001 1 10000 2.96 210 12:37 17.11.2021
5383 Rain 8 1001 1 8668 4.14 186 10:54 17.11.2021
5384 Rain 7 1003 96 5277 5.76 177 09:38 17.11.2021
5385 Rain 7 1003 96 4912 5.58 179 07:56 17.11.2021
5386 Rain 7 1003 96 4912 5.58 179 07:37 17.11.2021
5387 Clouds 7 1007 1 8979 5.58 189 02:49 17.11.2021
5388 Clouds 8 1008 1 10000 5.31 195 00:34 17.11.2021
5389 Clouds 8 1011 1 10000 5.04 197 22:32 16.11.2021
5390 Clouds 8 1014 49 10000 0.89 167 20:19 16.11.2021
5391 Clouds 8 1014 49 10000 0.89 167 19:41 16.11.2021
5392 Clouds 8 1014 49 10000 0.89 167 18:52 16.11.2021
5393 Clouds 8 1014 49 10000 0.89 167 18:29 16.11.2021
5394 Clouds 8 1014 88 10000 3.93 198 17:26 16.11.2021
5395 Clouds 8 1014 47 10000 3.53 202 16:20 16.11.2021
5396 Clouds 8 1014 48 10000 3.51 202 15:44 16.11.2021
5397 Clouds 9 1016 1 10000 3.6 207 13:47 16.11.2021
5398 Clouds 9 1019 1 5639 2.01 211 10:39 16.11.2021
5399 Clouds 8 1019 1 5363 2.01 227 09:42 16.11.2021
5400 Clouds 8 1020 96 7164 2.34 221 08:23 16.11.2021
5401 Clouds 8 1020 97 8617 2.32 217 07:29 16.11.2021
5402 Clouds 8 1023 96 10000 0.96 236 23:54 15.11.2021
5403 Clouds 8 1024 96 10000 1 242 22:41 15.11.2021
5404 Clouds 8 1024 96 10000 1.23 237 22:20 15.11.2021
5405 Clouds 7 1024 96 10000 1.23 237 21:46 15.11.2021
5406 Clouds 7 1024 96 10000 1.33 221 21:21 15.11.2021
5407 Clouds 6 1025 1 10000 1.28 242 19:39 15.11.2021
5408 Clouds 6 1025 1 10000 2.3 204 17:36 15.11.2021
5409 Clouds 6 1025 1 10000 2.82 202 15:56 15.11.2021
5410 Clouds 5 1025 1 10000 2.82 202 15:36 15.11.2021
5411 Clouds 5 1025 1 10000 3.28 206 14:39 15.11.2021
5412 Clouds 4 1026 1 10000 3.49 206 12:43 15.11.2021
5413 Clouds 3 1027 87 10000 3.72 204 10:53 15.11.2021
5414 Clouds 3 1029 94 10000 3.32 193 09:24 15.11.2021
5415 Clouds 3 1029 94 10000 3.15 183 07:26 15.11.2021
5416 Clouds 1 1032 92 10000 2.53 181 02:34 15.11.2021
5417 Clouds 1 1034 1 10000 1.36 161 22:47 14.11.2021
5418 Clouds 1 1035 1 10000 1.21 166 22:28 14.11.2021
5419 Clouds 1 1031 41 10000 0.96 176 19:51 14.11.2021
5420 Clouds 1 1031 41 10000 1.1 175 19:18 14.11.2021
5421 Clouds 1 1034 1 10000 1.1 175 18:54 14.11.2021
5422 Clouds 1 1034 1 10000 1.1 175 18:36 14.11.2021
5423 Clouds 1 1034 1 10000 0.59 157 18:18 14.11.2021
5424 Clouds 1 1034 1 10000 0.59 157 17:54 14.11.2021
5425 Clouds 1 1034 1 10000 0.48 153 17:36 14.11.2021
5426 Clouds 1 1034 1 10000 0.34 111 17:18 14.11.2021
5427 Clouds 1 1034 1 10000 0.34 111 16:45 14.11.2021
5428 Clouds 1 1033 1 10000 0.51 138 16:19 14.11.2021
5429 Clouds 2 1031 41 10000 0.34 158 15:22 14.11.2021
5430 Clouds 2 1031 41 10000 0.34 158 14:45 14.11.2021
5431 Clouds 2 1031 36 10000 0.76 127 14:24 14.11.2021
5432 Clouds 2 1031 36 10000 0.76 127 13:53 14.11.2021
5433 Clouds 2 1029 34 10000 0.76 127 13:35 14.11.2021
5434 Clouds 2 1029 34 10000 0.5 26 12:27 14.11.2021
5435 Clouds 2 1033 1 10000 0.5 26 11:40 14.11.2021
5436 Clouds 1 1029 34 10000 0.37 54 10:40 14.11.2021
5437 Clouds 1 1029 63 10000 1.02 12 09:42 14.11.2021
5438 Clouds 1 1029 63 10000 0.77 38 08:52 14.11.2021
5439 Clear 1 1031 89 10000 1.46 5 06:54 14.11.2021
5440 Clouds 3 1028 1 10000 1.65 1 23:34 13.11.2021
5441 Clouds 3 1027 1 10000 1.63 4 22:22 13.11.2021
5442 Clouds 3 1027 1 10000 1.63 4 21:50 13.11.2021
5443 Clouds 3 1026 1 10000 1.52 6 21:20 13.11.2021
5444 Clouds 4 1026 1 10000 1.61 9 19:38 13.11.2021
5445 Clouds 4 1025 1 10000 1.77 3 18:33 13.11.2021
5446 Clouds 4 1025 1 10000 1.66 3 17:50 13.11.2021
5447 Clouds 4 1024 1 10000 1.56 3 16:35 13.11.2021
5448 Clouds 4 1023 1 10000 1.5 30 15:20 13.11.2021
5449 Clouds 4 1020 39 10000 1.76 31 14:20 13.11.2021
5450 Clouds 4 1022 1 10000 1.98 17 12:56 13.11.2021
5451 Clouds 4 1022 1 10000 2.11 24 12:20 13.11.2021
5452 Clouds 4 1022 1 10000 2.11 24 11:33 13.11.2021
5453 Clouds 4 1022 1 10000 2.13 27 10:44 13.11.2021
5454 Clouds 4 1021 91 10000 2.23 20 09:56 13.11.2021
5455 Clouds 3 1021 95 10000 2.24 9 09:34 13.11.2021
5456 Clouds 3 1021 95 10000 2.24 9 08:56 13.11.2021
5457 Clouds 3 1020 96 4118 1.97 19 08:22 13.11.2021
5458 Clouds 3 1019 1 10000 2.12 28 04:43 13.11.2021
5459 Clouds 3 1019 1 8965 2.14 31 04:25 13.11.2021
5460 Rain 3 1018 1 10000 2.15 28 00:39 13.11.2021
5461 Rain 3 1019 1 7945 1.72 29 22:44 12.11.2021
5462 Clouds 3 1018 1 7884 1.59 25 21:32 12.11.2021
5463 Clouds 3 1014 39 10000 1.63 33 19:46 12.11.2021
5464 Clouds 3 1014 39 10000 1.67 33 19:27 12.11.2021
5465 Clouds 2 1014 39 10000 1.54 26 18:28 12.11.2021
5466 Clouds 2 1016 1 10000 1.53 39 16:23 12.11.2021
5467 Clouds 4 1014 42 10000 1.68 30 15:32 12.11.2021
5468 Clouds 3 1018 1 10000 0.79 28 11:33 12.11.2021
5469 Clouds 3 1018 1 10000 0.88 59 10:50 12.11.2021
5470 Clouds 1 1018 1 10000 1.16 24 09:37 12.11.2021
5471 Clear 0 1017 77 10000 1.26 26 08:38 12.11.2021
5472 Clouds 3 1015 31 10000 1.05 283 02:28 12.11.2021
5473 Clouds 3 1014 47 10000 1.08 252 23:41 11.11.2021
5474 Clouds 4 1013 33 10000 1.4 288 22:31 11.11.2021
5475 Clouds 5 1012 51 10000 2.78 296 21:27 11.11.2021
5476 Clouds 6 1007 59 10000 2.78 296 20:40 11.11.2021
5477 Clear 7 1007 60 10000 3.79 280 18:56 11.11.2021
5478 Clear 7 1007 60 10000 4.42 268 17:43 11.11.2021
5479 Clouds 8 1006 53 10000 4.28 260 16:54 11.11.2021
5480 Clear 9 1007 52 10000 4.82 268 14:51 11.11.2021
5481 Clear 10 1004 52 10000 4.96 272 14:28 11.11.2021
5482 Clouds 9 1006 49 10000 4.79 242 13:38 11.11.2021
5483 Clouds 9 1006 33 10000 4.8 248 12:48 11.11.2021
5484 Clouds 7 1006 1 10000 4.6 231 10:40 11.11.2021
5485 Clouds 6 1007 1 10000 5.56 214 09:34 11.11.2021
5486 Clouds 5 1008 82 10000 4.45 206 07:38 11.11.2021
5487 Clouds 3 1012 1 10000 1.91 203 04:45 11.11.2021
5488 Clear 3 1016 1 10000 1.69 203 23:35 10.11.2021
5489 Clear 4 1016 13 10000 1.75 203 22:22 10.11.2021
5490 Clear 4 1016 17 10000 1.75 199 21:21 10.11.2021
5491 Clear 4 1016 1 10000 1.75 199 20:47 10.11.2021
5492 Clear 6 1016 32 10000 1.83 211 19:47 10.11.2021
5493 Clouds 6 1015 23 10000 1.96 212 19:24 10.11.2021
5494 Clouds 8 991 33 10000 0.45 226 16:34 10.11.2021
5495 Clouds 9 1013 10 10000 2.67 248 15:40 10.11.2021
5496 Clouds 10 1011 1 10000 2.47 233 13:51 10.11.2021
5497 Clouds 10 1011 1 10000 2.46 225 12:59 10.11.2021
5498 Clouds 9 988 51 10000 0.45 264 10:56 10.11.2021
5499 Clouds 8 987 99 10000 0.45 92 08:51 10.11.2021
5500 Clouds 7 987 99 10000 0.45 90 08:33 10.11.2021
5501 Clouds 7 987 99 10000 1.85 210 06:40 10.11.2021
5502 Clouds 7 1010 96 10000 1.46 209 05:51 10.11.2021
5503 Clouds 8 1011 1 10000 1.72 225 00:27 10.11.2021
5504 Clouds 8 988 53 10000 1.59 219 21:51 09.11.2021
5505 Clouds 9 988 53 10000 0.45 200 20:32 09.11.2021
5506 Clouds 9 989 53 10000 1.33 227 19:26 09.11.2021
5507 Clouds 9 998 67 10000 0.45 46 17:57 09.11.2021
5508 Clouds 9 998 67 8788 1.68 232 16:26 09.11.2021
5509 Clouds 10 998 69 8556 2.39 220 14:52 09.11.2021
5510 Clouds 9 998 69 115 0.89 44 12:53 09.11.2021
5511 Clouds 9 988 53 239 1.34 180 11:58 09.11.2021
5512 Clouds 9 989 53 1097 1.34 139 10:46 09.11.2021
5513 Rain 7 989 99 2316 0.89 88 09:40 09.11.2021
5514 Rain 6 990 99 7509 0.89 132 08:27 09.11.2021
5515 Rain 5 991 95 10000 2.24 275 05:57 09.11.2021
5516 Rain 3 995 48 5162 1.34 183 02:25 09.11.2021
5517 Clouds 3 996 48 5162 1.34 194 01:47 09.11.2021
5518 Clouds 3 997 48 9506 1.34 88 00:18 09.11.2021
5519 Clouds 2 999 48 10000 0.89 190 22:59 08.11.2021
5520 Clouds 2 999 48 10000 0.45 154 22:28 08.11.2021
5521 Clouds 2 999 48 10000 0.45 180 21:20 08.11.2021
5522 Clouds 2 999 49 10000 1.34 138 19:56 08.11.2021
5523 Clouds 2 1009 62 10000 0.89 266 18:57 08.11.2021
5524 Clouds 2 1009 60 10000 0.45 270 17:22 08.11.2021
5525 Clouds 3 998 44 10000 0.45 270 15:27 08.11.2021
5526 Clouds 3 998 44 10000 1.1 180 14:43 08.11.2021
5527 Clouds 3 998 43 10000 0.45 312 13:55 08.11.2021
5528 Clouds 3 1007 56 10000 0.45 93 12:35 08.11.2021
5529 Clouds 3 997 44 10000 0.45 136 11:26 08.11.2021
5530 Clouds 3 996 43 10000 0.57 75 09:59 08.11.2021
5531 Clouds 2 995 82 10000 0.64 63 08:55 08.11.2021
5532 Clouds 2 1019 92 10000 0.86 33 07:36 08.11.2021
5533 Clouds 1 1017 93 10000 1.22 23 06:20 08.11.2021
5534 Clouds 2 1016 1 10000 1.36 25 03:33 08.11.2021
5535 Clouds 3 1013 1 10000 1.94 359 23:51 07.11.2021
5536 Clouds 3 1011 1 10000 2.13 350 22:26 07.11.2021
5537 Clouds 4 992 61 10000 0.45 317 21:21 07.11.2021
5538 Clouds 3 1000 50 10000 2.77 18 19:55 07.11.2021
5539 Clouds 3 1000 50 10000 3.89 22 18:26 07.11.2021
5540 Clouds 3 1000 50 10000 3.88 22 17:38 07.11.2021
5541 Clouds 4 979 64 400 3.49 14 15:55 07.11.2021
5542 Clouds 4 977 63 1251 0.45 270 14:40 07.11.2021
5543 Clouds 4 977 63 148 0.89 276 13:54 07.11.2021
5544 Clouds 4 975 64 10000 0.45 182 11:49 07.11.2021
5545 Rain 3 973 64 63 0.45 315 10:19 07.11.2021
5546 Rain 3 972 91 56 0.45 290 08:48 07.11.2021
5547 Rain 4 972 49 1835 0.45 45 02:46 07.11.2021
5548 Rain 4 976 48 9527 0.45 0 23:42 06.11.2021
5549 Rain 4 977 46 10000 0.89 136 22:52 06.11.2021
5550 Rain 4 979 42 10000 1.42 43 21:36 06.11.2021
5551 Rain 4 980 37 10000 0.45 90 20:52 06.11.2021
5552 Clouds 4 992 54 10000 1.33 41 19:36 06.11.2021
5553 Clouds 5 993 56 10000 0.71 79 17:18 06.11.2021
5554 Clouds 6 1007 50 10000 0.37 58 15:39 06.11.2021
5555 Clouds 6 1007 55 10000 0.44 65 13:39 06.11.2021
5556 Clouds 7 1007 62 10000 0.32 53 12:36 06.11.2021
5557 Clouds 4 1008 1 10000 0.87 243 09:42 06.11.2021
5558 Clear 2 984 81 10000 1.16 283 08:24 06.11.2021
5559 Clear 4 982 44 10000 1.38 280 03:20 06.11.2021
5560 Clouds 4 982 43 10000 0.45 85 23:40 05.11.2021
5561 Clouds 4 982 40 10000 0.45 4 22:52 05.11.2021
5562 Clear 4 983 39 10000 0.45 315 21:55 05.11.2021
5563 Clear 3 1005 1 10000 1.17 259 20:20 05.11.2021
5564 Clear 2 1005 1 10000 1.17 248 19:49 05.11.2021
5565 Clouds 3 983 46 10000 0.45 313 18:41 05.11.2021
5566 Clouds 3 983 45 10000 1.02 284 17:34 05.11.2021
5567 Clouds 3 1005 1 10000 0.82 289 15:48 05.11.2021
5568 Clouds 4 1005 1 10000 0.83 231 13:58 05.11.2021
5569 Clouds 4 982 99 10000 0.96 226 11:42 05.11.2021
5570 Clear 0 1006 1 10000 0.67 282 08:57 05.11.2021
5571 Clear 0 1006 89 10000 0.76 292 07:45 05.11.2021
5572 Clouds 0 1006 1 10000 1.18 312 05:33 05.11.2021
5573 Clouds 1 984 50 10000 1 322 02:27 05.11.2021
5574 Rain 2 985 50 10000 1.09 324 00:53 05.11.2021
5575 Clear 3 985 49 10000 1.3 331 23:25 04.11.2021
5576 Clear 4 985 49 10000 1.18 345 22:20 04.11.2021
5577 Clear 4 995 64 10000 0.89 211 21:44 04.11.2021
5578 Clear 4 996 64 10000 0.89 211 21:19 04.11.2021
5579 Clear 4 996 63 10000 0.89 211 20:23 04.11.2021
5580 Clear 4 996 62 10000 0.89 211 19:48 04.11.2021
5581 Clear 4 996 61 10000 0.89 211 19:20 04.11.2021
5582 Clear 5 996 61 10000 0.89 211 18:21 04.11.2021
5583 Clear 5 986 43 10000 1.17 348 17:26 04.11.2021
5584 Clear 5 986 43 10000 1.17 348 17:26 04.11.2021
5585 Clear 6 1005 40 10000 0.89 32 15:34 04.11.2021
5586 Clear 7 995 51 10000 0.89 32 13:45 04.11.2021
5587 Clouds 4 985 50 10000 0.78 322 09:50 04.11.2021
5588 Clouds 4 984 92 10000 0.45 225 08:31 04.11.2021
5589 Clouds 4 983 93 10000 0.99 326 07:35 04.11.2021
5590 Clouds 2 1006 94 10000 1.16 332 06:22 04.11.2021
5591 Clouds 6 980 51 10000 0.47 330 22:54 03.11.2021
5592 Clouds 7 980 51 10000 0.4 318 21:51 03.11.2021
5593 Clouds 7 980 51 10000 0.18 264 21:31 03.11.2021
5594 Clouds 7 979 51 10000 0.25 34 20:38 03.11.2021
5595 Clouds 7 979 51 10000 0.3 79 20:19 03.11.2021
5596 Clouds 7 979 50 10000 0.38 120 19:19 03.11.2021
5597 Rain 7 979 50 10000 0.7 134 18:25 03.11.2021
5598 Clouds 7 979 50 10000 0.7 134 17:41 03.11.2021
5599 Rain 8 978 45 10000 0.88 150 16:27 03.11.2021
5600 Clouds 8 978 44 10000 0.88 150 15:47 03.11.2021
5601 Clouds 9 978 44 10000 0.75 154 15:28 03.11.2021
5602 Clouds 9 978 44 10000 0.75 154 15:28 03.11.2021
5603 Clouds 9 978 41 10000 0.51 229 12:33 03.11.2021
5604 Clouds 8 1001 1 10000 0.44 222 11:27 03.11.2021
5605 Clouds 7 1001 1 10000 0.44 222 10:49 03.11.2021
5606 Clouds 7 978 47 10000 0.29 225 09:31 03.11.2021
5607 Clouds 6 1000 94 10000 0.17 342 08:37 03.11.2021
5608 Clouds 6 1000 94 10000 0.27 336 07:39 03.11.2021
5609 Clouds 6 1000 94 10000 0.37 24 05:44 03.11.2021
5610 Clouds 7 1000 1 10000 0.51 30 03:19 03.11.2021
5611 Clouds 7 977 50 10000 0.72 35 23:57 02.11.2021
5612 Clouds 8 978 49 10000 0.61 34 22:48 02.11.2021
5613 Clouds 8 978 47 10000 0.57 47 21:45 02.11.2021
5614 Clouds 8 977 47 10000 0.45 225 20:34 02.11.2021
5615 Clouds 8 977 46 10000 0.45 90 19:55 02.11.2021
5616 Clouds 9 977 46 10000 0.89 90 19:18 02.11.2021
5617 Clouds 9 977 45 10000 0.89 224 18:26 02.11.2021
5618 Clouds 9 977 45 10000 0.89 91 17:43 02.11.2021
5619 Clouds 9 977 44 10000 0.89 90 16:33 02.11.2021
5620 Clouds 10 977 44 10000 0.89 93 15:48 02.11.2021
5621 Clouds 10 977 43 10000 0.45 272 14:31 02.11.2021
5622 Clouds 10 977 41 10000 0.89 290 13:28 02.11.2021
5623 Clouds 10 977 41 10000 0.89 290 12:43 02.11.2021
5624 Clouds 10 1000 1 10000 2.37 143 11:38 02.11.2021
5625 Clouds 10 977 44 10000 1.79 270 10:53 02.11.2021
5626 Clouds 10 976 44 10000 2.24 264 10:28 02.11.2021
5627 Clouds 9 976 86 10000 2.24 0 08:45 02.11.2021
5628 Clouds 9 975 87 10000 2.68 357 07:36 02.11.2021
5629 Clouds 10 974 45 10000 1.34 312 03:51 02.11.2021
5630 Clouds 10 974 45 10000 0.89 181 02:24 02.11.2021
5631 Clouds 10 973 45 10000 0.45 157 23:20 01.11.2021
5632 Clouds 10 973 46 10000 1.34 315 21:26 01.11.2021
5633 Clouds 10 973 48 10000 1.34 190 20:39 01.11.2021
5634 Clouds 10 972 48 10000 1.79 228 19:57 01.11.2021
5635 Clouds 10 972 48 10000 1.34 183 19:30 01.11.2021
5636 Clouds 10 972 47 10000 0.89 143 18:22 01.11.2021
5637 Clouds 10 971 47 10000 0.89 3 17:35 01.11.2021
5638 Rain 11 971 47 10000 1.34 290 16:50 01.11.2021
5639 Clouds 11 971 46 10000 1.34 220 15:55 01.11.2021
5640 Clouds 11 971 46 10000 1.79 312 15:26 01.11.2021
5641 Clouds 12 971 47 10000 0.89 317 14:42 01.11.2021
5642 Clouds 12 971 47 10000 0.89 135 14:22 01.11.2021
5643 Clouds 12 971 49 10000 0.89 46 13:49 01.11.2021
5644 Rain 12 971 48 10000 0.89 219 12:27 01.11.2021
5645 Clouds 11 971 49 10000 1.34 136 10:33 01.11.2021
5646 Clouds 11 971 50 10000 0.89 270 09:25 01.11.2021
5647 Clouds 11 969 96 10000 0.89 137 07:49 01.11.2021
5648 Rain 10 991 96 4327 4.7 141 05:57 01.11.2021
5649 Rain 9 993 1 2204 4.99 90 03:44 01.11.2021
5650 Clouds 9 977 47 8674 1.34 271 00:27 01.11.2021
5651 Clouds 9 1003 1 8973 1.6 100 22:24 31.10.2021
5652 Clouds 9 981 50 9666 0.89 47 20:36 31.10.2021
5653 Clouds 8 981 48 10000 0.45 137 18:57 31.10.2021
5654 Clouds 8 981 48 10000 0.45 289 18:35 31.10.2021
5655 Clear 9 980 43 10000 1.79 96 16:53 31.10.2021
5656 Clear 11 1002 1 10000 2.94 188 15:41 31.10.2021
5657 Clear 12 1001 1 10000 4.6 196 13:38 31.10.2021
5658 Clouds 12 1000 1 10000 3.91 198 12:44 31.10.2021
5659 Clouds 10 1000 1 10000 3.9 200 10:57 31.10.2021
5660 Clouds 10 1000 1 10000 3.9 200 10:36 31.10.2021
5661 Clouds 9 977 46 10000 1.34 157 09:20 31.10.2021
5662 Rain 10 975 93 10000 0.89 179 06:59 31.10.2021
5663 Rain 10 979 49 10000 2.24 3 00:48 31.10.2021
5664 Rain 10 980 50 4341 1.79 115 22:33 30.10.2021
5665 Rain 10 981 48 10000 1.79 91 21:33 30.10.2021
5666 Rain 11 992 83 10000 1.34 135 20:19 30.10.2021
5667 Clouds 10 992 56 10000 0.45 90 18:33 30.10.2021
5668 Clouds 11 983 40 10000 1.34 140 16:42 30.10.2021
5669 Clouds 13 1002 51 10000 3.48 183 14:36 30.10.2021
5670 Clouds 13 1002 48 10000 2.84 203 13:39 30.10.2021
5671 Clouds 13 1002 40 10000 3.52 194 13:20 30.10.2021
5672 Clouds 13 981 37 10000 1.34 358 11:50 30.10.2021
5673 Clouds 12 981 39 10000 1.34 135 11:26 30.10.2021
5674 Clouds 11 980 46 10000 0.89 321 10:24 30.10.2021
5675 Clouds 11 1002 92 10000 4.43 187 08:48 30.10.2021
5676 Clouds 10 1001 1 3448 3.65 162 05:50 30.10.2021
5677 Clouds 10 1001 1 10000 3.53 153 05:19 30.10.2021
5678 Clouds 10 1004 1 8847 3.03 166 23:47 29.10.2021
5679 Clouds 10 1004 1 10000 2.99 177 22:35 29.10.2021
5680 Clouds 11 1005 1 10000 3.05 181 21:20 29.10.2021
5681 Clouds 11 1005 1 10000 3.05 181 20:42 29.10.2021
5682 Clouds 11 982 49 10000 0.89 313 19:44 29.10.2021
5683 Clouds 11 982 48 10000 1.34 247 18:26 29.10.2021
5684 Clouds 11 982 47 10000 0.45 135 16:50 29.10.2021
5685 Clouds 12 983 44 10000 0.89 226 14:29 29.10.2021
5686 Clouds 12 983 48 10000 0.89 132 10:52 29.10.2021
5687 Clouds 12 983 48 10000 0.89 268 10:33 29.10.2021
5688 Clouds 12 983 91 10000 1.34 136 07:25 29.10.2021
5689 Clouds 12 984 46 10000 1.34 93 00:35 29.10.2021
5690 Clouds 13 983 48 10000 2.24 45 22:54 28.10.2021
5691 Clouds 13 983 46 10000 1.79 315 21:52 28.10.2021
5692 Clouds 13 983 48 10000 2.24 94 20:25 28.10.2021
5693 Clouds 13 983 48 10000 2.24 227 19:23 28.10.2021
5694 Clouds 13 982 48 10000 2.68 267 17:59 28.10.2021
5695 Clouds 13 983 48 10000 1.34 93 16:58 28.10.2021
5696 Clouds 13 983 50 10000 1.34 92 15:20 28.10.2021
5697 Clouds 13 983 51 8744 1.34 3 13:43 28.10.2021
5698 Clouds 13 983 52 8462 1.34 180 13:20 28.10.2021
5699 Clouds 13 983 53 8462 2.24 230 12:39 28.10.2021
5700 Clouds 13 982 53 1768 1.34 245 10:51 28.10.2021
5701 Clouds 13 982 99 867 0.89 92 09:38 28.10.2021
5702 Clouds 13 982 99 233 4.15 181 08:37 28.10.2021
5703 Rain 12 982 99 298 4.62 183 07:49 28.10.2021
5704 Clouds 11 983 53 7720 2.81 184 04:36 28.10.2021
5705 Clouds 10 984 48 10000 2.04 196 23:26 27.10.2021
5706 Clouds 11 983 48 10000 1.46 206 22:30 27.10.2021
5707 Clouds 11 983 45 10000 1.41 222 21:33 27.10.2021
5708 Clouds 11 983 44 10000 0.45 92 20:50 27.10.2021
5709 Clouds 11 983 44 10000 1.38 247 19:52 27.10.2021
5710 Clouds 11 982 43 10000 1.63 245 19:32 27.10.2021
5711 Clouds 12 982 43 10000 1.63 245 18:39 27.10.2021
5712 Clear 14 1002 1 10000 1.26 215 16:26 27.10.2021
5713 Clear 15 1002 1 10000 1.34 224 15:30 27.10.2021
5714 Clear 15 1002 1 10000 1.34 224 15:30 27.10.2021
5715 Clear 15 1002 1 10000 1.34 224 15:30 27.10.2021
5716 Clear 15 1002 1 10000 1.34 224 14:39 27.10.2021
5717 Clouds 12 978 53 10000 1.1 268 11:21 27.10.2021
5718 Clouds 12 977 53 10000 1.09 269 10:58 27.10.2021
5719 Clouds 12 977 99 10000 1.96 227 09:43 27.10.2021
5720 Clouds 11 975 99 10000 0.45 310 07:52 27.10.2021
5721 Clouds 10 976 53 190 0.89 90 06:38 27.10.2021
5722 Clouds 6 983 48 10000 0.45 139 01:31 27.10.2021
5723 Clouds 6 984 46 10000 1.75 188 00:56 27.10.2021
5724 Clouds 6 984 44 10000 1.33 189 00:24 27.10.2021
5725 Clouds 6 984 42 10000 1.34 189 23:40 26.10.2021
5726 Clouds 6 985 41 10000 1.1 182 22:36 26.10.2021
5727 Clouds 6 985 50 10000 1.21 206 21:52 26.10.2021
5728 Clouds 7 985 55 10000 1.14 202 20:26 26.10.2021
5729 Clouds 8 985 53 10000 1.21 210 19:26 26.10.2021
5730 Clouds 7 1006 12 10000 1.21 210 18:40 26.10.2021
5731 Clouds 7 1006 12 10000 1.21 210 18:40 26.10.2021
5732 Clear 11 1005 50 10000 2.07 235 16:22 26.10.2021
5733 Clear 11 1004 43 10000 2.37 232 14:18 26.10.2021
5734 Clouds 9 1005 1 10000 1.49 209 11:34 26.10.2021
5735 Clouds 7 1005 1 10000 1.4 202 09:59 26.10.2021
5736 Clouds 7 982 97 10000 1.56 205 07:24 26.10.2021
5737 Clouds 9 983 49 10000 2.23 200 03:37 26.10.2021
5738 Clouds 11 983 48 10000 0.45 178 23:49 25.10.2021
5739 Clouds 11 984 48 10000 3.12 190 22:39 25.10.2021
5740 Clouds 11 983 48 10000 3.11 190 22:18 25.10.2021
5741 Clouds 11 984 48 10000 3.46 191 21:26 25.10.2021
5742 Clouds 11 984 49 10000 0.89 215 19:45 25.10.2021
5743 Clouds 11 984 49 10000 0.45 180 19:25 25.10.2021
5744 Clouds 11 984 49 10000 0.45 132 18:51 25.10.2021
5745 Clouds 11 984 49 10000 0.45 135 17:48 25.10.2021
5746 Clouds 11 985 52 7084 4.26 188 15:41 25.10.2021
5747 Clouds 10 986 50 8776 0.89 217 13:56 25.10.2021
5748 Clouds 10 987 48 10000 0.45 269 12:22 25.10.2021
5749 Clouds 10 987 85 10000 0.45 269 10:18 25.10.2021
5750 Clouds 10 987 84 8783 0.89 151 07:47 25.10.2021
5751 Clouds 10 988 49 10000 0.45 132 05:58 25.10.2021
5752 Clouds 11 990 40 10000 2.68 137 00:53 25.10.2021
5753 Clouds 11 990 39 10000 0.89 170 00:35 25.10.2021
5754 Clouds 11 990 44 10000 0.89 160 23:46 24.10.2021
5755 Clouds 11 990 80 10000 2.24 133 22:43 24.10.2021
5756 Clouds 11 990 80 10000 0.45 267 22:21 24.10.2021
5757 Clouds 11 990 45 10000 0.89 145 21:38 24.10.2021
5758 Clouds 11 990 44 10000 0.89 180 20:42 24.10.2021
5759 Clouds 11 991 43 10000 0.45 94 19:50 24.10.2021
5760 Clouds 11 991 41 10000 0.89 46 18:49 24.10.2021
5761 Clouds 11 1001 54 10000 0.89 224 17:54 24.10.2021
5762 Clouds 11 1001 54 10000 0.89 129 16:40 24.10.2021
5763 Clouds 11 1003 55 10000 0.89 357 15:25 24.10.2021
5764 Clouds 11 1004 55 10000 0.89 137 13:44 24.10.2021
5765 Clouds 10 1004 55 10000 0.45 71 12:40 24.10.2021
5766 Clouds 10 1004 57 10000 0.45 313 11:37 24.10.2021
5767 Clouds 9 994 48 10000 0.89 135 10:43 24.10.2021
5768 Clouds 8 994 94 10000 2.31 216 08:50 24.10.2021
5769 Clouds 6 996 43 10000 1.27 227 03:30 24.10.2021
5770 Clouds 6 997 39 10000 1.17 142 23:56 23.10.2021
5771 Clouds 5 1019 1 10000 1.22 144 22:55 23.10.2021
5772 Clouds 5 1020 15 10000 1.58 167 21:20 23.10.2021
5773 Clouds 5 1020 39 10000 1.58 170 19:36 23.10.2021
5774 Clouds 6 1020 53 10000 1.61 167 18:44 23.10.2021
5775 Clouds 8 1019 74 10000 1.61 163 17:46 23.10.2021
5776 Clouds 9 1019 54 10000 1.32 168 17:18 23.10.2021
5777 Clouds 10 1015 45 10000 1.84 188 15:56 23.10.2021
5778 Clouds 11 1018 47 10000 0.93 234 13:35 23.10.2021
5779 Clear 5 981 57 10000 1.89 307 00:45 23.10.2021
5780 Clear 6 979 55 10000 1.99 303 23:36 22.10.2021
5781 Clouds 7 998 56 10000 2.49 295 21:29 22.10.2021
5782 Clouds 8 994 56 10000 2.6 288 19:29 22.10.2021
5783 Clouds 8 993 54 10000 2.04 266 18:25 22.10.2021
5784 Clouds 10 991 46 10000 2.27 269 16:30 22.10.2021
5785 Clouds 10 990 44 10000 2.53 274 14:44 22.10.2021
5786 Clouds 9 989 46 10000 2.86 272 12:41 22.10.2021
5787 Clouds 9 989 46 10000 2.86 272 12:41 22.10.2021
5788 Clear 6 988 51 10000 2.4 265 10:56 22.10.2021
5789 Clear 4 987 56 10000 2.41 269 09:57 22.10.2021
5790 Clear 3 987 57 10000 1.75 257 09:32 22.10.2021
5791 Clouds 4 963 51 10000 2.51 265 07:30 22.10.2021
5792 Clouds 4 963 53 10000 2.51 265 06:46 22.10.2021
5793 Clouds 5 961 53 10000 4.47 276 00:40 22.10.2021
5794 Clouds 5 961 53 10000 4.45 274 23:49 21.10.2021
5795 Clouds 6 960 50 10000 4.24 283 22:43 21.10.2021
5796 Clouds 6 960 48 10000 0.45 225 21:28 21.10.2021
5797 Clouds 7 959 49 10000 2.38 296 20:21 21.10.2021
5798 Clouds 7 959 49 10000 2.38 296 19:49 21.10.2021
5799 Clouds 7 959 47 10000 3.79 318 19:20 21.10.2021
5800 Clouds 8 957 44 10000 2.9 308 18:30 21.10.2021
5801 Clouds 8 979 53 10000 2.9 308 17:50 21.10.2021
5802 Clouds 10 978 48 10000 2.98 311 16:47 21.10.2021
5803 Clear 11 976 46 10000 3.15 307 15:28 21.10.2021
5804 Clear 11 976 48 10000 3.15 307 14:50 21.10.2021
5805 Clouds 10 975 52 10000 3.69 311 13:42 21.10.2021
5806 Clouds 9 974 55 10000 2.58 299 11:47 21.10.2021
5807 Clear 7 975 1 10000 1.37 249 09:26 21.10.2021
5808 Clouds 8 975 92 10000 2.07 209 07:46 21.10.2021
5809 Clouds 8 975 1 10000 4.45 210 06:28 21.10.2021
5810 Clouds 8 978 1 10000 4.66 208 00:32 21.10.2021
5811 Clouds 9 979 1 10000 4.4 210 22:23 20.10.2021
5812 Clouds 10 979 1 10000 4.4 210 21:47 20.10.2021
5813 Clear 11 979 1 10000 4.37 214 20:58 20.10.2021
5814 Clouds 11 979 1 10000 3.88 221 20:38 20.10.2021
5815 Clouds 11 978 1 10000 3.41 214 20:18 20.10.2021
5816 Clouds 12 979 44 10000 4.07 220 19:20 20.10.2021
5817 Clouds 13 979 44 10000 4.52 214 18:29 20.10.2021
5818 Clouds 13 980 53 10000 4.94 213 16:27 20.10.2021
5819 Clouds 12 981 1 10000 3.73 207 13:46 20.10.2021
5820 Clouds 8 985 99 1112 2.21 219 09:52 20.10.2021
5821 Clouds 4 990 1 112 0.87 198 05:30 20.10.2021
5822 Clouds 4 994 1 169 0.59 40 01:48 20.10.2021
5823 Clouds 4 995 1 174 0.96 20 00:33 20.10.2021
5824 Rain 3 1001 1 151 1.43 4 22:30 19.10.2021
5825 Rain 3 1002 1 152 1.01 25 21:35 19.10.2021
5826 Clouds 3 1004 1 207 1.22 34 20:26 19.10.2021
5827 Clouds 3 1004 1 248 1.19 40 19:56 19.10.2021
5828 Clouds 3 1006 1 531 0.97 25 19:29 19.10.2021
5829 Clouds 3 1007 1 3041 0.91 14 18:33 19.10.2021
5830 Clouds 3 1008 1 3054 0.84 25 17:24 19.10.2021
5831 Clouds 3 1011 1 3009 0.8 57 15:28 19.10.2021
5832 Clouds 3 1011 1 3009 0.8 57 14:33 19.10.2021
5833 Clouds 3 1012 1 233 0.8 36 13:50 19.10.2021
5834 Clouds 3 990 46 97 0.71 55 12:20 19.10.2021
5835 Clouds 3 991 46 72 0.57 67 11:23 19.10.2021
5836 Clouds 2 992 86 53 0.81 62 09:43 19.10.2021
5837 Clouds 2 993 86 28 1.01 61 08:56 19.10.2021
5838 Clouds 3 1022 1 10000 0.78 232 00:39 19.10.2021
5839 Clouds 2 1022 1 10000 1.2 209 23:57 18.10.2021
5840 Clouds 2 1022 1 10000 1.2 209 23:36 18.10.2021
5841 Rain 4 999 32 10000 0.89 160 22:55 18.10.2021
5842 Clouds 3 999 33 10000 0.59 139 22:18 18.10.2021
5843 Clouds 4 1009 51 10000 0.48 168 20:48 18.10.2021
5844 Clouds 4 1009 51 10000 0.58 151 20:24 18.10.2021
5845 Clouds 4 1010 52 10000 0.58 151 19:32 18.10.2021
5846 Clouds 4 1020 45 10000 0.48 154 18:59 18.10.2021
5847 Clouds 7 1023 46 10000 0.82 184 16:38 18.10.2021
5848 Clouds 8 1021 55 10000 0.92 183 14:44 18.10.2021
5849 Clouds 5 1024 1 10000 0.33 254 11:59 18.10.2021
5850 Clouds 3 1023 1 10000 0.73 335 10:22 18.10.2021
5851 Clear 1 999 63 10000 1.17 327 08:21 18.10.2021
5852 Clear 2 996 30 10000 1.34 320 00:30 18.10.2021
5853 Clear 2 995 32 10000 1.44 319 22:56 17.10.2021
5854 Clear 2 995 32 10000 1.37 320 21:45 17.10.2021
5855 Clear 3 994 31 10000 1.27 317 20:57 17.10.2021
5856 Clear 4 997 40 10000 1.28 326 20:25 17.10.2021
5857 Clear 5 997 52 10000 1.28 326 19:38 17.10.2021
5858 Clear 6 1002 56 10000 0.89 301 18:35 17.10.2021
5859 Clear 9 1014 54 10000 1.15 295 16:49 17.10.2021
5860 Clouds 10 1013 46 10000 1.29 306 14:40 17.10.2021
5861 Clouds 9 1013 49 10000 1.21 303 14:22 17.10.2021
5862 Clouds 9 1013 51 10000 1.2 304 13:33 17.10.2021
5863 Clouds 7 1013 55 10000 1.12 298 11:54 17.10.2021
5864 Clouds 4 1012 28 10000 0.98 302 10:19 17.10.2021
5865 Clouds 1 1012 1 10000 1.18 310 09:22 17.10.2021
5866 Clouds 1 987 34 10000 1.43 334 06:52 17.10.2021
5867 Clouds 4 986 45 10000 1.57 1 00:49 17.10.2021
5868 Clouds 4 985 49 10000 1.41 315 23:31 16.10.2021
5869 Clouds 6 1007 48 10000 1.79 302 21:28 16.10.2021
5870 Clouds 7 1006 51 10000 1.73 291 20:30 16.10.2021
5871 Clouds 8 1006 53 10000 1.72 290 19:42 16.10.2021
5872 Clouds 8 1006 56 10000 1.54 272 19:20 16.10.2021
5873 Clouds 9 1006 55 10000 1.54 272 18:45 16.10.2021
5874 Clouds 9 1006 54 10000 2.14 265 18:26 16.10.2021
5875 Clouds 10 1006 51 10000 2.13 266 17:49 16.10.2021
5876 Clouds 11 1005 52 10000 3.07 260 17:20 16.10.2021
5877 Clouds 11 1005 54 10000 3.43 269 13:54 16.10.2021
5878 Clouds 9 1005 52 10000 2.85 249 11:26 16.10.2021
5879 Clouds 7 1005 42 10000 1.62 244 09:45 16.10.2021
5880 Clouds 5 1005 80 10000 1.69 260 06:48 16.10.2021
5881 Clouds 6 1005 56 10000 2.5 239 01:24 16.10.2021
5882 Clouds 6 1005 56 10000 2.03 256 23:27 15.10.2021
5883 Clouds 6 1005 56 10000 2.01 266 22:22 15.10.2021
5884 Clouds 6 1005 56 10000 2.01 266 21:50 15.10.2021
5885 Clouds 6 1005 56 10000 1.91 286 21:20 15.10.2021
5886 Clouds 6 1005 55 10000 2 294 20:44 15.10.2021
5887 Clouds 8 1004 51 10000 2.31 296 19:21 15.10.2021
5888 Clouds 9 982 46 10000 0.45 136 18:29 15.10.2021
5889 Clouds 11 1002 46 10000 2.99 276 16:26 15.10.2021
5890 Clouds 11 980 45 10000 0.45 270 15:22 15.10.2021
5891 Clear 12 1000 47 10000 2.55 318 12:28 15.10.2021
5892 Clear 11 999 47 10000 2.27 324 11:20 15.10.2021
5893 Clear 10 999 50 10000 2.27 324 10:42 15.10.2021
5894 Clear 8 998 50 10000 1.7 297 08:57 15.10.2021
5895 Clear 7 970 34 10000 1.28 258 05:31 15.10.2021
5896 Clouds 12 970 44 10000 0.45 180 00:38 15.10.2021
5897 Clouds 11 971 44 10000 5.3 209 23:45 14.10.2021
5898 Clouds 12 972 43 10000 0.45 135 22:49 14.10.2021
5899 Clouds 12 972 42 10000 1.34 180 21:43 14.10.2021
5900 Clouds 12 974 41 10000 0.45 140 20:23 14.10.2021
5901 Clouds 12 974 40 10000 0.45 266 19:52 14.10.2021
5902 Clouds 12 976 41 10000 0.45 135 18:50 14.10.2021
5903 Clouds 13 977 39 10000 4.79 204 17:26 14.10.2021
5904 Clouds 13 978 38 10000 4.78 204 16:46 14.10.2021
5905 Clouds 14 979 31 10000 0.45 248 15:24 14.10.2021
5906 Clouds 14 1001 30 10000 4.66 215 14:40 14.10.2021
5907 Clouds 13 1002 27 10000 3.86 217 13:35 14.10.2021
5908 Clouds 10 982 40 10000 2.17 207 11:43 14.10.2021
5909 Clouds 9 983 81 10000 0.45 45 09:55 14.10.2021
5910 Clouds 7 984 47 10000 0.85 252 06:47 14.10.2021
5911 Clouds 6 987 40 10000 0.87 245 00:54 14.10.2021
5912 Clouds 7 987 44 10000 0.84 231 00:22 14.10.2021
5913 Clouds 7 989 42 10000 0.45 137 21:45 13.10.2021
5914 Clouds 6 989 38 10000 0.45 269 21:27 13.10.2021
5915 Clouds 6 990 42 10000 0.45 135 19:48 13.10.2021
5916 Rain 7 991 39 10000 0.45 315 18:49 13.10.2021
5917 Rain 7 991 39 10000 0.45 270 18:49 13.10.2021
5918 Rain 8 992 46 10000 0.45 225 17:49 13.10.2021
5919 Clouds 9 992 46 10000 2.84 209 15:24 13.10.2021
5920 Clouds 9 993 52 10000 2.84 209 14:44 13.10.2021
5921 Clouds 7 1017 38 10000 1.71 202 12:55 13.10.2021
5922 Clouds 7 1017 1 10000 1.26 202 11:59 13.10.2021
5923 Clouds 5 1017 1 10000 0.8 204 10:39 13.10.2021
5924 Clouds 4 994 81 10000 0.85 325 08:29 13.10.2021
5925 Clouds 3 994 40 10000 0.36 347 06:41 13.10.2021
5926 Clouds 3 993 34 10000 0.95 311 02:26 13.10.2021
5927 Clouds 3 993 33 10000 0.96 323 00:18 13.10.2021
5928 Clouds 4 993 41 10000 0.76 338 23:29 12.10.2021
5929 Clouds 3 1017 37 10000 0.76 338 22:44 12.10.2021
5930 Clouds 4 1016 44 10000 0.56 44 21:30 12.10.2021
5931 Clouds 5 1016 44 10000 0.56 44 20:34 12.10.2021
5932 Clear 6 1016 48 10000 1 62 19:52 12.10.2021
5933 Clear 9 1014 55 10000 0.78 318 18:27 12.10.2021
5934 Clear 10 1014 55 10000 0.78 318 17:44 12.10.2021
5935 Clear 12 1014 60 10000 1.29 322 16:38 12.10.2021
5936 Clear 12 1014 60 10000 1.29 322 16:38 12.10.2021
5937 Clear 13 1014 52 10000 2.22 335 15:44 12.10.2021
5938 Clear 12 1014 53 10000 2.91 337 14:38 12.10.2021
5939 Clouds 12 1014 53 10000 2.62 334 13:42 12.10.2021
5940 Clouds 9 1014 55 10000 2.28 324 11:37 12.10.2021
5941 Clouds 5 1013 2 10000 1.83 311 09:41 12.10.2021
5942 Clear 2 990 39 10000 1.81 310 08:42 12.10.2021
5943 Clear 1 1013 1 10000 1.84 311 06:56 12.10.2021
5944 Snow 1 1013 4 10000 1.76 312 05:29 12.10.2021
5945 Clear 2 1013 1 10000 1.76 312 04:31 12.10.2021
5946 Clouds 5 988 37 10000 1.16 278 00:27 12.10.2021
5947 Clouds 6 989 37 10000 1.16 278 23:40 11.10.2021
5948 Clouds 6 988 36 10000 0.46 273 22:56 11.10.2021
5949 Rain 7 1011 1 10000 0.53 15 21:43 11.10.2021
5950 Rain 7 1011 1 10000 0.95 38 20:35 11.10.2021
5951 Clouds 8 1011 1 9610 4.7 1 19:38 11.10.2021
5952 Clouds 9 988 42 10000 3.74 349 18:24 11.10.2021
5953 Clouds 12 987 35 10000 0.45 90 16:49 11.10.2021
5954 Clouds 13 987 46 10000 2.5 329 16:31 11.10.2021
5955 Clouds 14 987 48 10000 2.49 330 15:46 11.10.2021
5956 Clouds 13 1009 50 10000 2.52 328 14:54 11.10.2021
5957 Clouds 13 1008 49 10000 2.26 329 14:22 11.10.2021
5958 Clouds 13 1008 43 10000 2.26 329 13:36 11.10.2021
5959 Clouds 13 1008 43 10000 2.26 329 13:36 11.10.2021
5960 Clouds 11 1009 5 10000 1.62 332 11:37 11.10.2021
5961 Clear 7 1009 1 10000 1.04 311 09:55 11.10.2021
5962 Clear 5 986 49 10000 1.32 324 08:42 11.10.2021
5963 Clouds 6 1009 1 10000 0.98 248 03:49 11.10.2021
5964 Clouds 7 1010 1 10000 1.06 229 01:36 11.10.2021
5965 Clouds 8 1011 1 10000 1.33 217 00:44 11.10.2021
5966 Clouds 9 1011 1 10000 1.45 219 23:57 10.10.2021
5967 Clouds 11 1012 1 10000 1.57 203 21:51 10.10.2021
5968 Clouds 11 1013 1 10000 1.83 193 21:29 10.10.2021
5969 Clouds 11 991 50 10000 1.83 193 20:42 10.10.2021
5970 Clouds 11 991 50 10000 2.36 196 20:20 10.10.2021
5971 Clouds 11 992 50 10000 2.36 196 19:52 10.10.2021
5972 Clouds 11 991 50 10000 2.37 196 19:33 10.10.2021
5973 Clouds 11 993 50 10000 3.9 207 18:28 10.10.2021
5974 Clouds 11 995 50 10000 4.49 210 15:57 10.10.2021
5975 Rain 11 995 50 10000 0.45 221 15:38 10.10.2021
5976 Rain 13 996 46 10000 3.5 209 13:42 10.10.2021
5977 Rain 13 997 44 10000 2.48 211 12:45 10.10.2021
5978 Rain 13 997 45 10000 2.41 210 12:23 10.10.2021
5979 Rain 12 998 49 10000 2.47 213 10:37 10.10.2021
5980 Clouds 12 1020 1 10000 2.24 203 09:27 10.10.2021
5981 Clouds 12 1020 92 10000 2.22 203 08:52 10.10.2021
5982 Clouds 11 1021 1 8922 2.03 193 06:36 10.10.2021
5983 Clouds 12 1024 1 10000 3.25 189 02:28 10.10.2021
5984 Clouds 12 1003 47 10000 0.89 108 00:54 10.10.2021
5985 Clouds 12 1004 47 10000 3.41 190 23:52 09.10.2021
5986 Clouds 12 1004 47 10000 0.45 270 22:26 09.10.2021
5987 Clouds 12 1005 47 10000 0.89 224 21:31 09.10.2021
5988 Clouds 12 1005 47 10000 0.89 134 20:59 09.10.2021
5989 Clouds 13 1006 45 10000 0.45 0 19:42 09.10.2021
5990 Clouds 13 1006 45 10000 0.89 161 18:57 09.10.2021
5991 Clouds 13 1006 45 10000 0.45 138 18:27 09.10.2021
5992 Clouds 15 1007 42 10000 1.34 138 16:28 09.10.2021
5993 Clouds 15 1029 1 10000 3.58 190 14:57 09.10.2021
5994 Clouds 15 1008 48 10000 3.42 192 13:40 09.10.2021
5995 Clouds 14 1008 53 10000 2.94 188 12:37 09.10.2021
5996 Clouds 14 1008 53 8698 2.42 182 11:33 09.10.2021
5997 Clouds 14 1008 53 8618 1.97 178 10:38 09.10.2021
5998 Clouds 13 1008 53 2288 1.58 181 09:30 09.10.2021
5999 Clouds 14 1007 99 321 1.2 186 08:28 09.10.2021
6000 Clouds 14 1007 53 3356 0.68 197 06:54 09.10.2021
6001 Clouds 14 1008 53 444 0.52 232 05:27 09.10.2021
6002 Clouds 14 1008 53 365 0.4 166 02:49 09.10.2021
6003 Clouds 14 1008 53 10000 0.42 212 00:58 09.10.2021
6004 Clouds 14 1008 53 10000 0.36 164 23:36 08.10.2021
6005 Clouds 14 1008 53 10000 0.37 165 22:53 08.10.2021
6006 Clouds 14 1008 53 10000 0.53 228 21:48 08.10.2021
6007 Rain 14 1008 53 10000 0.65 209 20:31 08.10.2021
6008 Clouds 13 1008 53 10000 1.11 216 18:50 08.10.2021
6009 Clouds 14 1008 52 10000 1.96 212 17:27 08.10.2021
6010 Clouds 14 1008 52 10000 1.99 212 16:45 08.10.2021
6011 Clouds 14 1008 51 10000 2.26 212 16:22 08.10.2021
6012 Rain 14 1008 51 10000 2.5 210 13:50 08.10.2021
6013 Rain 14 1008 51 10000 3.54 204 12:41 08.10.2021
6014 Rain 14 1007 51 10000 3.47 201 10:59 08.10.2021
6015 Rain 14 1007 50 10000 3.64 198 10:25 08.10.2021
6016 Clouds 13 1006 49 10000 2.62 201 06:51 08.10.2021
6017 Clouds 13 1005 51 10000 2.39 193 23:31 07.10.2021
6018 Clouds 13 1005 51 10000 2.38 193 22:57 07.10.2021
6019 Clouds 12 1005 49 10000 2.29 190 21:33 07.10.2021
6020 Clouds 12 1005 47 10000 1.68 194 20:49 07.10.2021
6021 Clouds 12 1004 43 10000 1.7 186 19:40 07.10.2021
6022 Clouds 13 1004 42 10000 1.93 177 19:22 07.10.2021
6023 Clouds 13 1004 38 10000 1.67 186 17:38 07.10.2021
6024 Clouds 14 1003 38 10000 1.95 187 16:42 07.10.2021
6025 Clouds 14 1025 1 10000 2 195 14:58 07.10.2021
6026 Clouds 13 1002 42 10000 1.63 201 13:44 07.10.2021
6027 Clouds 13 1002 43 10000 1.5 192 13:20 07.10.2021
6028 Clouds 12 1001 48 10000 1 196 11:49 07.10.2021
6029 Clouds 11 1001 51 10000 0.85 204 10:48 07.10.2021
6030 Clouds 10 1000 52 10000 0.65 166 10:19 07.10.2021
6031 Clouds 9 1000 52 10000 0.11 257 08:56 07.10.2021
6032 Clouds 9 1021 95 10000 0.51 245 08:25 07.10.2021
6033 Clouds 9 1021 1 10000 0.51 245 07:40 07.10.2021
6034 Clouds 9 1021 1 10000 0.92 245 06:48 07.10.2021
6035 Clouds 10 1018 1 9459 1.33 213 02:21 07.10.2021
6036 Clouds 10 994 50 10000 1.85 182 23:35 06.10.2021
6037 Clouds 10 994 49 10000 1.79 179 22:41 06.10.2021
6038 Clouds 10 994 49 10000 1.71 175 21:45 06.10.2021
6039 Clouds 11 993 48 10000 1.26 187 20:34 06.10.2021
6040 Clouds 11 992 48 10000 1.2 206 19:28 06.10.2021
6041 Clouds 11 991 46 10000 1.17 204 18:20 06.10.2021
6042 Clouds 12 990 45 10000 0.76 231 16:45 06.10.2021
6043 Clouds 12 989 45 10000 0.86 275 15:25 06.10.2021
6044 Clouds 11 988 46 10000 1.11 328 13:32 06.10.2021
6045 Clouds 11 987 46 10000 1.4 353 12:54 06.10.2021
6046 Clouds 11 987 47 10000 2.18 354 12:30 06.10.2021
6047 Clouds 11 987 46 10000 2.18 354 11:46 06.10.2021
6048 Clouds 11 985 88 10000 3.12 2 09:57 06.10.2021
6049 Clouds 10 1010 86 10000 3.13 2 09:37 06.10.2021
6050 Clouds 10 1009 87 10000 3.54 5 08:40 06.10.2021
6051 Clouds 10 985 48 10000 4.31 19 06:47 06.10.2021
6052 Rain 10 985 48 10000 4.45 16 04:56 06.10.2021
6053 Clouds 11 988 49 10000 2.55 21 00:25 06.10.2021
6054 Clouds 11 988 49 10000 2.55 21 23:52 05.10.2021
6055 Clouds 11 989 48 10000 2.01 23 23:32 05.10.2021
6056 Clouds 11 989 48 10000 2.01 23 22:44 05.10.2021
6057 Clouds 11 990 48 10000 1.74 38 21:58 05.10.2021
6058 Clouds 11 990 48 10000 1.53 48 21:35 05.10.2021
6059 Clouds 12 990 48 10000 1.53 48 20:38 05.10.2021
6060 Clouds 12 990 48 10000 1.32 53 20:19 05.10.2021
6061 Clouds 13 990 48 10000 0.74 63 19:26 05.10.2021
6062 Clouds 13 990 47 10000 0.74 63 18:45 05.10.2021
6063 Clouds 14 990 44 10000 2.77 169 16:18 05.10.2021
6064 Rain 14 990 48 10000 1.86 171 14:29 05.10.2021
6065 Clouds 14 990 40 10000 2.61 184 13:29 05.10.2021
6066 Clouds 14 990 42 10000 2.61 185 12:36 05.10.2021
6067 Clouds 14 990 46 10000 2.86 183 11:58 05.10.2021
6068 Clouds 13 990 52 10000 3.25 190 10:39 05.10.2021
6069 Rain 12 989 98 10000 3.26 179 08:39 05.10.2021
6070 Clouds 11 988 51 6952 3.51 170 03:38 05.10.2021
6071 Clouds 11 988 49 9679 2.91 170 23:52 04.10.2021
6072 Clouds 12 988 50 10000 0.45 88 21:54 04.10.2021
6073 Clouds 13 987 44 10000 0.89 214 18:54 04.10.2021
6074 Clouds 14 987 40 10000 0.45 140 17:58 04.10.2021
6075 Clouds 15 987 41 10000 1.34 178 16:20 04.10.2021
6076 Clouds 15 987 41 10000 4.13 179 15:30 04.10.2021
6077 Clouds 15 987 41 10000 0.45 183 14:39 04.10.2021
6078 Clouds 15 986 40 10000 0.45 179 13:48 04.10.2021
6079 Clouds 15 1009 1 10000 4.65 184 13:23 04.10.2021
6080 Clouds 14 1008 1 10000 4.16 185 11:34 04.10.2021
6081 Clouds 14 985 46 10000 4.03 190 10:47 04.10.2021
6082 Clouds 13 985 48 10000 4.66 199 09:47 04.10.2021
6083 Clouds 13 983 93 10000 4.83 199 08:32 04.10.2021
6084 Clouds 13 982 92 10000 4.67 190 06:51 04.10.2021
6085 Rain 11 977 52 10000 3.49 210 23:42 03.10.2021
6086 Rain 11 976 52 10000 3.2 192 22:32 03.10.2021
6087 Rain 11 975 51 9589 3.01 203 21:36 03.10.2021
6088 Rain 11 974 50 10000 2.84 187 20:50 03.10.2021
6089 Rain 12 974 50 10000 4.02 190 19:54 03.10.2021
6090 Rain 14 973 52 1788 4.85 176 18:31 03.10.2021
6091 Clouds 14 973 52 1788 4.85 176 17:40 03.10.2021
6092 Rain 14 973 51 2919 0.45 48 15:30 03.10.2021
6093 Rain 14 973 52 2260 5.35 152 14:39 03.10.2021
6094 Rain 14 973 51 1823 0.89 225 13:40 03.10.2021
6095 Rain 14 973 50 3008 0.89 222 13:20 03.10.2021
6096 Rain 13 972 49 4247 0.89 225 11:49 03.10.2021
6097 Rain 12 973 49 4801 0.89 42 10:33 03.10.2021
6098 Rain 12 976 49 7138 2.68 90 07:39 03.10.2021
6099 Clouds 11 984 49 10000 1 87 00:26 03.10.2021
6100 Clouds 11 985 50 10000 1.18 101 22:23 02.10.2021
6101 Clouds 11 985 49 10000 1.05 102 20:50 02.10.2021
6102 Clouds 12 985 47 10000 1.3 114 18:58 02.10.2021
6103 Clouds 12 985 48 10000 1.62 144 18:28 02.10.2021
6104 Clouds 13 985 47 10000 1.62 144 17:38 02.10.2021
6105 Clouds 13 985 45 10000 2.34 160 16:40 02.10.2021
6106 Clouds 14 985 44 10000 0.45 269 14:42 02.10.2021
6107 Clouds 11 992 50 8566 3.25 61 15:38 30.09.2021
6108 Clouds 11 992 50 3443 3.45 58 14:42 30.09.2021
6109 Clouds 11 993 49 8373 3.62 62 12:20 30.09.2021
6110 Rain 11 993 49 5911 3.81 66 11:29 30.09.2021
6111 Rain 11 993 49 5646 3.81 65 10:26 30.09.2021
6112 Rain 11 993 92 3718 3.72 66 08:32 30.09.2021
6113 Rain 11 993 92 3551 3.64 70 07:57 30.09.2021
6114 Clouds 11 993 49 5373 3.89 88 05:25 30.09.2021
6115 Rain 11 993 49 5686 0.45 173 02:33 30.09.2021
6116 Rain 12 993 49 2744 4.61 93 00:35 30.09.2021
6117 Clouds 12 994 49 9674 4.01 81 22:48 29.09.2021
6118 Clouds 12 994 49 8551 3.36 84 21:54 29.09.2021
6119 Clouds 13 995 48 7204 0.45 47 20:40 29.09.2021
6120 Clouds 13 995 48 2914 2.38 48 20:20 29.09.2021
6121 Clouds 13 995 48 8474 2.7 53 19:24 29.09.2021
6122 Clouds 13 995 48 6229 2.6 58 18:18 29.09.2021
6123 Clouds 13 995 45 8732 2.7 62 16:56 29.09.2021
6124 Clouds 13 995 45 8419 2.69 63 16:27 29.09.2021
6125 Clouds 13 996 44 8419 2.69 63 15:35 29.09.2021
6126 Clouds 13 996 44 8764 2.53 55 14:37 29.09.2021
6127 Clouds 13 996 45 6967 2.01 39 13:33 29.09.2021
6128 Clouds 12 997 49 10000 1.81 35 12:38 29.09.2021
6129 Clouds 11 997 49 10000 1.71 40 11:20 29.09.2021
6130 Clouds 11 997 48 10000 1.7 28 10:28 29.09.2021
6131 Clouds 11 997 48 10000 1.7 28 09:41 29.09.2021
6132 Clouds 10 998 48 10000 1.49 8 07:51 29.09.2021
6133 Clouds 10 999 48 10000 1.51 9 06:27 29.09.2021
6134 Clouds 11 1000 50 10000 0.92 63 23:59 28.09.2021
6135 Clouds 11 1000 49 10000 0.94 93 22:25 28.09.2021
6136 Clouds 11 999 47 10000 0.94 93 21:54 28.09.2021
6137 Clear 11 999 46 10000 0.97 125 21:19 28.09.2021
6138 Clouds 13 999 40 10000 1.4 156 19:49 28.09.2021
6139 Clouds 14 998 38 10000 1.52 154 19:27 28.09.2021
6140 Clouds 15 998 35 10000 1.55 168 18:40 28.09.2021
6141 Clouds 17 997 46 10000 1.37 172 16:54 28.09.2021
6142 Clouds 16 1020 1 10000 1.83 163 15:19 28.09.2021
6143 Clouds 15 1019 1 8673 0.85 110 13:25 28.09.2021
6144 Clouds 15 996 46 8671 0.98 97 12:24 28.09.2021
6145 Clouds 14 996 46 8680 0.97 96 11:47 28.09.2021
6146 Clouds 14 996 46 8648 1.07 83 11:27 28.09.2021
6147 Clouds 14 995 48 8002 1.1 76 10:27 28.09.2021
6148 Clouds 13 994 51 6213 1.22 82 09:29 28.09.2021
6149 Clouds 13 994 51 6213 1.22 82 08:43 28.09.2021
6150 Clouds 12 993 96 963 1.11 69 08:18 28.09.2021
6151 Clouds 12 992 96 742 0.45 136 06:46 28.09.2021
6152 Clouds 12 1015 1 4539 3.68 119 01:35 28.09.2021
6153 Rain 13 1015 1 2814 4.66 126 00:30 28.09.2021
6154 Rain 13 1015 1 2814 4.66 126 23:49 27.09.2021
6155 Rain 13 1014 1 6590 5.17 121 23:24 27.09.2021
6156 Rain 14 992 47 10000 0.89 90 22:21 27.09.2021
6157 Rain 15 993 47 4960 0.45 111 20:54 27.09.2021
6158 Rain 15 992 47 5582 5.58 123 20:27 27.09.2021
6159 Clouds 15 993 47 3806 0.89 90 19:37 27.09.2021
6160 Clouds 14 993 46 10000 1.34 248 18:53 27.09.2021
6161 Rain 14 993 47 5006 1.79 90 17:41 27.09.2021
6162 Clouds 13 993 46 6043 3.88 100 16:59 27.09.2021
6163 Clouds 13 994 46 10000 3.17 73 16:34 27.09.2021
6164 Rain 14 994 42 10000 0.45 311 15:37 27.09.2021
6165 Clouds 14 1020 1 10000 2.36 50 13:49 27.09.2021
6166 Clouds 13 1021 1 10000 1.94 49 12:25 27.09.2021
6167 Clouds 12 996 46 10000 1.66 50 10:50 27.09.2021
6168 Clouds 12 996 47 10000 1.57 50 09:42 27.09.2021
6169 Clouds 11 997 44 10000 1.42 50 07:54 27.09.2021
6170 Clouds 10 1020 1 10000 1.07 55 03:40 27.09.2021
6171 Clouds 11 1021 1 10000 0.73 78 23:53 26.09.2021
6172 Clouds 12 997 45 10000 0.83 125 21:59 26.09.2021
6173 Clouds 11 1020 1 10000 1.11 151 21:27 26.09.2021
6174 Clouds 12 1020 1 10000 1.2 174 20:30 26.09.2021
6175 Clouds 13 1020 1 10000 1.2 174 19:54 26.09.2021
6176 Clouds 14 997 39 10000 1.4 181 19:26 26.09.2021
6177 Clouds 14 997 39 10000 1.4 181 19:26 26.09.2021
6178 Clouds 14 997 39 10000 1.4 181 19:26 26.09.2021
6179 Clouds 14 1020 1 10000 1.4 181 18:41 26.09.2021
6180 Clouds 16 996 34 10000 3.1 186 17:38 26.09.2021
6181 Clouds 15 1019 1 10000 3.1 186 17:20 26.09.2021
6182 Clouds 16 996 36 10000 3.64 183 16:23 26.09.2021
6183 Clouds 16 1019 1 10000 3.51 180 15:27 26.09.2021
6184 Clouds 16 997 38 10000 3.19 178 14:23 26.09.2021
6185 Clouds 15 997 79 10000 3.19 178 13:43 26.09.2021
6186 Clouds 14 997 89 10000 2.62 174 12:31 26.09.2021
6187 Clouds 13 997 96 10000 2.15 171 11:56 26.09.2021
6188 Clouds 12 996 52 10000 1.58 162 11:26 26.09.2021
6189 Clouds 11 995 51 10000 1.2 168 09:51 26.09.2021
6190 Clouds 10 995 52 10000 0.44 146 08:52 26.09.2021
6191 Clouds 8 1015 1 10000 0.79 157 01:18 26.09.2021
6192 Clouds 8 1015 1 10000 0.79 157 01:18 26.09.2021
6193 Clouds 9 1015 1 10000 0.89 162 00:18 26.09.2021
6194 Clouds 9 1013 7 10000 1.37 172 22:40 25.09.2021
6195 Clouds 10 1013 7 10000 1.37 172 22:20 25.09.2021
6196 Clouds 10 1013 29 10000 1.37 171 21:46 25.09.2021
6197 Clouds 11 1013 43 10000 1.31 182 20:53 25.09.2021
6198 Clouds 12 1012 44 10000 1.39 196 19:53 25.09.2021
6199 Clouds 16 1010 50 10000 0.68 184 18:31 25.09.2021
6200 Clouds 17 1010 47 10000 0.68 184 17:46 25.09.2021
6201 Clouds 18 1008 38 10000 1.05 256 14:46 25.09.2021
6202 Clouds 18 1007 43 10000 0.48 290 13:55 25.09.2021
6203 Clouds 16 1007 47 10000 0.83 338 12:46 25.09.2021
6204 Clouds 15 1005 48 10000 2.08 319 11:29 25.09.2021
6205 Clouds 13 1004 52 10000 2.11 321 10:20 25.09.2021
6206 Clouds 11 1003 48 10000 1.83 308 09:22 25.09.2021
6207 Clouds 8 1002 22 10000 2.1 321 07:49 25.09.2021
6208 Clouds 11 995 1 10000 1.82 275 00:56 25.09.2021
6209 Clouds 12 994 1 10000 1.73 245 23:33 24.09.2021
6210 Clear 13 972 49 10000 2.22 215 21:39 24.09.2021
6211 Clouds 13 972 48 10000 2.63 211 20:32 24.09.2021
6212 Clouds 13 972 47 10000 2.63 211 19:43 24.09.2021
6213 Clouds 13 972 45 10000 3.92 216 18:29 24.09.2021
6214 Clouds 13 972 45 10000 3.92 216 17:53 24.09.2021
6215 Clouds 13 972 44 10000 4.33 214 17:34 24.09.2021
6216 Clouds 13 974 35 10000 3.99 216 15:59 24.09.2021
6217 Clouds 10 975 43 10000 3.6 181 13:28 24.09.2021
6218 Clouds 10 976 40 10000 3.6 181 12:44 24.09.2021
6219 Rain 10 976 38 10000 3.53 181 12:25 24.09.2021
6220 Rain 10 977 33 10000 1.96 194 10:56 24.09.2021
6221 Clouds 9 978 36 10000 1.32 189 09:57 24.09.2021
6222 Clouds 8 979 37 10000 0.54 312 08:24 24.09.2021
6223 Clouds 7 979 40 10000 0.54 312 07:31 24.09.2021
6224 Clouds 7 979 40 10000 1.25 333 06:24 24.09.2021
6225 Clouds 7 979 40 10000 1.29 355 04:52 24.09.2021
6226 Clear 10 975 39 10000 2.19 314 22:44 23.09.2021
6227 Clear 11 974 45 10000 2.28 309 21:59 23.09.2021
6228 Clear 11 974 46 10000 2.28 309 21:37 23.09.2021
6229 Clouds 12 972 37 10000 2.44 310 20:32 23.09.2021
6230 Clouds 13 969 31 10000 2.51 327 18:55 23.09.2021
6231 Clouds 14 988 41 10000 3.37 332 16:47 23.09.2021
6232 Rain 13 987 45 10000 2.38 255 15:20 23.09.2021
6233 Rain 13 987 45 10000 2.38 255 14:58 23.09.2021
6234 Clouds 14 989 1 10000 4.33 246 13:36 23.09.2021
6235 Clouds 14 989 1 10000 4.34 246 13:18 23.09.2021
6236 Clouds 13 989 46 10000 4.33 246 12:45 23.09.2021
6237 Clouds 12 990 52 10000 3.98 243 12:21 23.09.2021
6238 Clouds 12 991 52 10000 4.93 247 10:42 23.09.2021
6239 Clouds 11 993 57 10000 4.82 242 10:19 23.09.2021
6240 Clouds 11 993 57 10000 4.82 242 10:19 23.09.2021
6241 Clouds 11 993 1 10000 4.82 242 09:47 23.09.2021
6242 Rain 13 998 1 10000 2.11 212 06:25 23.09.2021
6243 Clouds 13 982 49 10000 0.45 180 00:25 23.09.2021
6244 Rain 14 984 45 10000 2.15 188 22:54 22.09.2021
6245 Clouds 14 985 45 10000 2.26 180 22:22 22.09.2021
6246 Clouds 15 985 44 10000 2.27 180 21:44 22.09.2021
6247 Clouds 15 985 41 10000 2.48 165 20:58 22.09.2021
6248 Clouds 15 986 40 10000 0.45 174 20:27 22.09.2021
6249 Rain 15 986 41 10000 2.84 163 19:27 22.09.2021
6250 Clear 16 987 39 10000 3.44 162 18:35 22.09.2021
6251 Clear 18 988 33 10000 3.43 162 17:33 22.09.2021
6252 Clear 18 1010 4 10000 3.83 185 15:53 22.09.2021
6253 Clear 18 1011 24 10000 3.96 189 14:37 22.09.2021
6254 Clear 17 1014 18 10000 2.55 188 13:24 22.09.2021
6255 Clear 14 1016 1 10000 1.86 177 11:20 22.09.2021
6256 Clear 10 1017 1 10000 0.55 149 09:35 22.09.2021
6257 Clear 10 1017 1 10000 0.55 149 08:51 22.09.2021
6258 Clouds 9 995 46 10000 0.27 68 07:41 22.09.2021
6259 Clouds 9 996 45 10000 0.55 98 06:54 22.09.2021
6260 Clouds 8 1018 1 10000 0.39 93 05:49 22.09.2021
6261 Clouds 8 1019 1 10000 0.87 111 05:18 22.09.2021
6262 Clouds 9 1019 1 10000 0.8 141 03:33 22.09.2021
6263 Clouds 10 1021 1 10000 0.84 162 00:18 22.09.2021
6264 Clouds 11 998 37 10000 0.2 351 22:28 21.09.2021
6265 -273 0 0 0 0 0 21:31 21.09.2021
6266 Clouds 12 1020 1 10000 1.56 54 19:38 21.09.2021
6267 Clouds 13 1019 1 10000 1.61 36 19:19 21.09.2021
6268 Clouds 16 1018 48 10000 1.53 341 16:58 21.09.2021
6269 Clouds 16 1017 28 10000 2.32 337 15:57 21.09.2021
6270 Clouds 15 1017 12 10000 2.43 319 15:25 21.09.2021
6271 Clouds 15 1017 5 10000 2.43 319 14:49 21.09.2021
6272 Clouds 14 1017 1 10000 3.06 311 13:40 21.09.2021
6273 Clouds 14 1017 1 10000 2.75 298 12:45 21.09.2021
6274 Clouds 11 1017 77 10000 1.95 254 10:51 21.09.2021
6275 Clouds 10 1017 88 10000 2.3 233 09:53 21.09.2021
6276 Rain 9 1018 88 10000 2.34 212 07:47 21.09.2021
6277 Clouds 9 1019 82 10000 3.75 197 05:42 21.09.2021
6278 Clouds 8 1024 74 10000 2.31 181 23:58 20.09.2021
6279 Clouds 8 1025 72 10000 2.01 178 21:53 20.09.2021
6280 Clouds 8 1025 69 10000 1.88 179 21:32 20.09.2021
6281 Clouds 9 1025 66 10000 1.71 188 20:26 20.09.2021
6282 Clouds 10 1002 42 10000 1.8 183 19:20 20.09.2021
6283 Clouds 10 1002 52 10000 2.17 198 17:39 20.09.2021
6284 Clouds 11 1003 52 10000 2.1 183 16:26 20.09.2021
6285 Clouds 11 1003 51 10000 2.1 183 15:47 20.09.2021
6286 Clouds 11 1003 52 10000 1.78 157 15:18 20.09.2021
6287 Clouds 11 1004 49 10000 1.13 154 13:42 20.09.2021
6288 Clouds 10 1004 37 10000 0.84 126 12:34 20.09.2021
6289 Clouds 10 1004 38 10000 0.92 90 11:18 20.09.2021
6290 Clouds 9 1004 39 10000 0.84 60 09:55 20.09.2021
6291 Clouds 9 1004 39 10000 0.84 37 09:34 20.09.2021
6292 Clouds 9 1004 39 10000 0.84 37 08:56 20.09.2021
6293 Clouds 8 1028 1 10000 1.22 26 06:47 20.09.2021
6294 Clouds 9 1004 34 10000 1.03 86 23:45 19.09.2021
6295 Clouds 10 1004 33 10000 1.47 39 21:56 19.09.2021
6296 Clouds 10 1004 33 10000 1.47 39 21:34 19.09.2021
6297 Clouds 10 1003 36 10000 1.61 3 20:33 19.09.2021
6298 Clouds 11 1003 49 10000 1.79 2 19:18 19.09.2021
6299 Clouds 11 1003 49 10000 1.66 13 18:25 19.09.2021
6300 Clouds 12 1003 51 10000 1.56 22 17:22 19.09.2021
6301 Clouds 12 1003 50 10000 1.25 26 15:52 19.09.2021
6302 Clouds 12 1003 50 10000 0.87 44 14:50 19.09.2021
6303 Clouds 12 1003 51 10000 0.54 91 14:29 19.09.2021
6304 Clouds 12 1004 49 10000 0.96 158 13:19 19.09.2021
6305 Clouds 12 1004 48 10000 0.96 158 12:45 19.09.2021
6306 Clouds 12 1004 36 10000 1.11 156 11:27 19.09.2021
6307 Clouds 11 1004 36 10000 0.82 151 10:21 19.09.2021
6308 Clouds 10 1003 39 10000 0.53 137 09:26 19.09.2021
6309 Clouds 9 1003 39 10000 0.7 115 07:29 19.09.2021
6310 Clouds 10 1003 38 10000 0.45 94 02:24 19.09.2021
6311 Clouds 11 1003 38 10000 0.72 73 23:27 18.09.2021
6312 Clouds 11 1002 36 10000 0.75 54 21:58 18.09.2021
6313 Clouds 11 1002 37 10000 0.75 54 21:58 18.09.2021
6314 Clouds 11 1026 1 10000 0.74 52 20:48 18.09.2021
6315 Clouds 11 1025 1 10000 0.76 86 20:26 18.09.2021
6316 Clouds 11 1025 6 10000 0.8 71 19:38 18.09.2021
6317 Clouds 12 1002 35 10000 1.39 99 19:20 18.09.2021
6318 Clouds 12 1001 35 10000 2.06 108 18:31 18.09.2021
6319 Clouds 13 1001 42 10000 2.35 107 17:23 18.09.2021
6320 Clouds 13 1002 41 10000 2.34 103 15:48 18.09.2021
6321 Clouds 13 1002 42 10000 2.34 95 13:46 18.09.2021
6322 Clouds 13 1002 31 10000 1.73 114 13:27 18.09.2021
6323 Clouds 13 1002 30 10000 1.73 114 12:48 18.09.2021
6324 Clouds 12 1025 1 10000 1.72 115 11:37 18.09.2021
6325 Clouds 11 1002 39 10000 1.29 89 10:31 18.09.2021
6326 Clouds 10 1002 41 10000 1.15 62 09:26 18.09.2021
6327 Clouds 9 1001 42 10000 1.15 62 08:31 18.09.2021
6328 Clouds 9 1001 42 10000 1.15 62 08:31 18.09.2021
6329 Clouds 9 1001 42 10000 1.06 38 08:30 18.09.2021
6330 Clouds 9 1001 42 10000 1.15 62 08:30 18.09.2021
6331 Clouds 9 1000 40 10000 1.42 34 00:59 18.09.2021
6332 Clouds 10 1000 39 10000 1.42 34 00:41 18.09.2021
6333 Clouds 10 1000 38 10000 1.58 19 23:44 17.09.2021
6334 Clouds 10 1000 38 10000 1.74 35 22:33 17.09.2021
6335 Clouds 10 1000 38 10000 2.03 49 21:48 17.09.2021
6336 Clouds 10 999 36 10000 1.91 51 20:18 17.09.2021
6337 Clouds 11 999 35 10000 2.11 52 18:45 17.09.2021
6338 Clouds 12 998 34 10000 2.79 56 16:50 17.09.2021
6339 Clouds 12 998 33 10000 3.12 59 15:50 17.09.2021
6340 Clouds 12 998 37 10000 3.55 54 12:32 17.09.2021
6341 Clouds 11 998 38 10000 3.83 48 10:40 17.09.2021
6342 Clouds 10 997 39 10000 2.42 15 07:50 17.09.2021
6343 Clouds 9 1021 89 10000 2.55 13 06:43 17.09.2021
6344 Clouds 10 1020 1 10000 2.41 10 00:39 17.09.2021
6345 Clouds 10 1020 1 10000 2.16 13 22:46 16.09.2021
6346 Clouds 10 1019 1 10000 2.05 13 22:24 16.09.2021
6347 Clouds 10 1019 1 10000 2.05 13 21:36 16.09.2021
6348 Clouds 10 1019 1 10000 1.93 23 20:36 16.09.2021
6349 Clouds 11 1019 1 10000 2 33 19:36 16.09.2021
6350 Clouds 11 1018 1 10000 2.9 53 18:19 16.09.2021
6351 Clouds 12 995 34 10000 3.54 52 17:22 16.09.2021
6352 Clouds 13 994 33 10000 0.45 272 14:51 16.09.2021
6353 Clouds 12 1019 1 10000 3.56 61 13:48 16.09.2021
6354 Clouds 12 995 39 10000 3.4 66 12:47 16.09.2021
6355 Clouds 12 995 39 10000 3.15 68 12:26 16.09.2021
6356 Clouds 11 1019 1 10000 3.06 67 11:24 16.09.2021
6357 Clouds 12 994 43 10000 2.81 64 10:29 16.09.2021
6358 Clouds 11 994 45 10000 2.84 60 09:32 16.09.2021
6359 Rain 11 1018 1 10000 2.6 53 08:28 16.09.2021
6360 Rain 11 1018 1 10000 2.51 52 06:58 16.09.2021
6361 Rain 11 1018 1 10000 2.51 52 06:38 16.09.2021
6362 Rain 12 1018 1 10000 1.87 52 03:54 16.09.2021
6363 Clouds 13 1018 1 10000 1.52 57 00:58 16.09.2021
6364 Rain 14 994 37 10000 1.52 64 23:31 15.09.2021
6365 Clouds 14 994 36 10000 1.65 56 22:44 15.09.2021
6366 Clouds 15 995 36 10000 1.67 38 21:31 15.09.2021
6367 Clouds 15 1018 1 10000 1.59 46 20:51 15.09.2021
6368 Clouds 16 994 34 10000 1.47 92 19:33 15.09.2021
6369 Clouds 16 994 34 10000 1.47 92 18:57 15.09.2021
6370 Clouds 17 995 33 10000 2.08 128 17:45 15.09.2021
6371 Clouds 18 995 33 10000 2.44 128 16:43 15.09.2021
6372 Clouds 17 1018 7 10000 1.47 127 15:25 15.09.2021
6373 Clouds 18 1018 21 10000 1.47 127 14:43 15.09.2021
6374 Clouds 16 1018 1 10000 1.54 123 13:48 15.09.2021
6375 Clouds 16 1019 1 10000 1.58 103 13:28 15.09.2021
6376 Clouds 16 996 32 10000 1.58 103 12:33 15.09.2021
6377 Clouds 15 1019 1 10000 1.76 89 11:51 15.09.2021
6378 Clouds 15 1019 1 10000 1.76 89 11:51 15.09.2021
6379 Clouds 14 1019 1 10000 1.43 76 10:58 15.09.2021
6380 Clouds 12 1019 1 10000 1.29 56 10:33 15.09.2021
6381 Clouds 10 1019 1 10000 1.15 48 08:51 15.09.2021
6382 Clouds 8 1019 1 10000 1.42 26 07:26 15.09.2021
6383 Clear 9 1019 1 10000 0.96 17 00:55 15.09.2021
6384 Clear 11 1018 1 10000 0.31 21 22:24 14.09.2021
6385 Clear 12 1018 1 10000 0.19 62 21:21 14.09.2021
6386 Clouds 13 1017 1 10000 0.63 102 20:18 14.09.2021
6387 Clouds 15 1017 1 10000 1.33 141 19:23 14.09.2021
6388 Clouds 19 1016 47 10000 1.23 138 17:33 14.09.2021
6389 Clouds 20 1016 47 10000 0.95 154 16:39 14.09.2021
6390 Clouds 18 1016 34 10000 1.02 176 14:52 14.09.2021
6391 Clouds 18 1016 42 10000 1.03 175 14:52 14.09.2021
6392 Clouds 18 1016 30 10000 0.71 122 14:19 14.09.2021
6393 Clouds 15 1017 1 10000 0.75 110 11:46 14.09.2021
6394 Clouds 13 995 37 10000 0.97 67 10:25 14.09.2021
6395 Clouds 12 994 74 10000 0.97 67 09:48 14.09.2021
6396 Clouds 9 994 44 10000 1.25 31 07:51 14.09.2021
6397 Clouds 9 1016 1 10000 0.62 83 01:28 14.09.2021
6398 Clouds 11 1016 1 10000 0.98 139 23:27 13.09.2021
6399 Clouds 12 1016 1 10000 1.08 150 22:27 13.09.2021
6400 Clouds 12 1016 1 10000 1.07 151 21:55 13.09.2021
6401 Clouds 12 1016 1 10000 1.07 151 21:32 13.09.2021
6402 Clouds 14 1015 71 10000 1.32 175 19:35 13.09.2021
6403 Clouds 16 1015 64 10000 1.69 145 18:44 13.09.2021
6404 Clouds 18 1015 47 10000 2.43 198 17:27 13.09.2021
6405 Clouds 18 1015 46 10000 2.43 198 16:49 13.09.2021
6406 Clouds 18 1016 46 10000 1.86 194 14:43 13.09.2021
6407 Clouds 15 1017 47 10000 0.89 111 11:43 13.09.2021
6408 Clouds 13 1017 1 10000 0.85 67 10:26 13.09.2021
6409 Clouds 9 993 39 10000 0.78 55 07:58 13.09.2021
6410 Clear 12 1012 1 10000 2.01 18 00:29 13.09.2021
6411 Clear 13 1011 1 10000 2.19 10 22:42 12.09.2021
6412 Clear 14 1010 1 10000 2.27 14 22:21 12.09.2021
6413 Clear 15 1009 1 10000 2.11 17 20:47 12.09.2021
6414 Clouds 16 985 38 10000 1.89 10 19:58 12.09.2021
6415 Clouds 16 985 38 10000 3.46 18 19:29 12.09.2021
6416 Clouds 16 1008 1 10000 3.46 18 18:53 12.09.2021
6417 Clouds 17 1007 1 10000 3.74 6 16:58 12.09.2021
6418 Clouds 17 1006 1 10000 4.05 4 15:41 12.09.2021
6419 Rain 19 1006 84 10000 4.05 358 14:37 12.09.2021
6420 Clouds 18 1005 1 10000 0.92 288 12:28 12.09.2021
6421 Clouds 16 1005 93 10000 0.63 281 10:19 12.09.2021
6422 Clouds 15 1004 1 10000 0.59 281 08:38 12.09.2021
6423 Clouds 16 1004 1 2274 0.55 73 04:59 12.09.2021
6424 Clouds 16 1006 1 291 1.4 166 00:46 12.09.2021
6425 Clouds 17 985 53 296 0.45 270 22:29 11.09.2021
6426 Clouds 17 985 53 296 0.45 269 21:38 11.09.2021
6427 Clouds 17 985 53 3404 0.45 179 19:35 11.09.2021
6428 Rain 17 986 52 9781 2.8 182 17:56 11.09.2021
6429 Rain 17 986 51 10000 3.02 186 16:41 11.09.2021
6430 Rain 18 986 47 10000 2.75 185 14:45 11.09.2021
6431 Clouds 18 987 44 10000 2.13 188 13:22 11.09.2021
6432 Clouds 18 987 44 10000 1.37 157 11:35 11.09.2021
6433 Clouds 16 987 53 10000 1.16 147 09:42 11.09.2021
6434 Clouds 16 987 48 10000 0.48 106 08:21 11.09.2021
6435 Clouds 14 1010 95 10000 0.51 75 07:34 11.09.2021
6436 Clouds 15 1011 92 10000 0.79 145 01:23 11.09.2021
6437 Clouds 16 1011 1 10000 1.07 156 22:27 10.09.2021
6438 Clouds 17 1011 1 10000 1.07 156 21:56 10.09.2021
6439 Clouds 17 1011 82 10000 1.33 164 21:25 10.09.2021
6440 Clouds 21 988 33 10000 0.45 180 18:43 10.09.2021
6441 Clouds 22 989 41 10000 0.45 225 17:33 10.09.2021
6442 Clouds 21 1011 13 10000 3.75 188 15:38 10.09.2021
6443 Clouds 20 1012 1 10000 3.21 186 13:18 10.09.2021
6444 Clouds 17 1013 1 10000 1.87 177 10:32 10.09.2021
6445 Clouds 15 1012 1 10000 0.66 89 07:51 10.09.2021
6446 Clouds 14 1012 1 10000 0.7 74 04:32 10.09.2021
6447 Clouds 16 1012 1 10000 0.72 169 23:24 09.09.2021
6448 Clouds 17 1011 1 10000 0.88 179 21:47 09.09.2021
6449 Clouds 18 1011 88 10000 1.44 192 20:47 09.09.2021
6450 Clouds 19 1010 1 10000 1.82 191 20:23 09.09.2021
6451 Clouds 19 1010 1 10000 1.82 190 20:23 09.09.2021
6452 Clouds 24 988 37 10000 1.24 211 18:37 09.09.2021
6453 Clouds 26 1009 43 10000 1.23 230 16:45 09.09.2021
6454 Clouds 27 988 37 10000 1.32 239 16:26 09.09.2021
6455 Clouds 25 988 46 10000 1.45 244 13:33 09.09.2021
6456 Clouds 23 989 59 10000 1.31 241 11:50 09.09.2021
6457 Clouds 19 1010 53 10000 0.91 246 10:48 09.09.2021
6458 Clouds 17 988 50 10000 0.35 291 09:27 09.09.2021
6459 Clouds 15 988 53 10000 0.38 254 06:50 09.09.2021
6460 Clouds 15 989 51 10000 0.52 206 04:18 09.09.2021
6461 Clouds 17 1012 1 10000 1.19 187 22:57 08.09.2021
6462 Clouds 19 1012 94 10000 1.41 183 21:39 08.09.2021
6463 Clouds 22 1011 76 10000 2.21 182 20:21 08.09.2021
6464 Clouds 23 989 39 10000 3.04 185 19:37 08.09.2021
6465 Clouds 24 1011 38 10000 3.04 185 18:33 08.09.2021
6466 Clear 25 989 43 10000 3.23 197 17:58 08.09.2021
6467 Clear 26 1011 46 10000 2.79 220 16:55 08.09.2021
6468 Clouds 25 1012 46 10000 2.53 272 14:30 08.09.2021
6469 Clouds 25 1012 46 10000 2.53 272 14:30 08.09.2021
6470 Clear 25 990 43 10000 2.8 289 13:21 08.09.2021
6471 Clear 24 991 41 10000 0.45 225 12:41 08.09.2021
6472 Clear 22 1012 25 10000 2.66 268 12:19 08.09.2021
6473 Clear 20 1012 51 10000 2.08 254 10:50 08.09.2021
6474 Clear 19 1012 1 10000 1.53 246 10:25 08.09.2021
6475 Clear 16 1012 1 10000 1.22 245 09:21 08.09.2021
6476 Clouds 13 990 50 10000 0.93 272 07:38 08.09.2021
6477 Clouds 13 991 51 10000 0.67 266 05:44 08.09.2021
6478 Clouds 16 1015 1 10000 0.8 171 22:51 07.09.2021
6479 Clouds 17 1015 1 10000 0.75 165 22:18 07.09.2021
6480 Clouds 19 993 38 10000 0.45 7 20:27 07.09.2021
6481 Clouds 22 993 31 10000 0.45 90 18:46 07.09.2021
6482 Clouds 22 993 31 10000 0.45 137 18:21 07.09.2021
6483 Clouds 22 994 33 10000 3.33 210 16:48 07.09.2021
6484 Clouds 22 995 44 10000 0.45 270 15:43 07.09.2021
6485 Clouds 22 1016 32 10000 3.31 229 14:44 07.09.2021
6486 Clouds 19 1016 41 10000 2.94 227 12:45 07.09.2021
6487 Clouds 19 1016 41 10000 2.96 227 12:45 07.09.2021
6488 Clouds 19 995 63 10000 2.58 226 11:51 07.09.2021
6489 Clouds 16 995 94 10000 1.75 217 10:43 07.09.2021
6490 Clouds 14 996 53 10000 1.29 199 08:39 07.09.2021
6491 Clouds 13 995 53 10000 0.45 212 07:44 07.09.2021
6492 Clouds 12 996 53 10000 0.77 179 05:46 07.09.2021
6493 Clouds 13 997 49 3975 0.52 191 02:38 07.09.2021
6494 Clouds 13 997 48 9052 0.45 140 00:53 07.09.2021
6495 Clouds 13 1019 1 10000 0.7 144 23:36 06.09.2021
6496 Clouds 13 1019 1 10000 0.95 122 22:57 06.09.2021
6497 Clouds 14 1019 1 10000 1.18 139 22:39 06.09.2021
6498 Clouds 14 1019 1 10000 1.53 140 21:29 06.09.2021
6499 Clouds 18 1018 1 10000 1.92 147 19:32 06.09.2021
6500 Clouds 19 997 32 10000 2.44 161 18:58 06.09.2021
6501 Clouds 20 997 39 10000 0.45 275 18:24 06.09.2021
6502 Clouds 20 997 41 10000 3.48 170 17:36 06.09.2021
6503 Clouds 20 997 41 10000 2.74 189 15:58 06.09.2021
6504 Clouds 20 998 51 10000 1.86 207 14:26 06.09.2021
6505 Clouds 18 1019 44 10000 1.76 215 12:48 06.09.2021
6506 Clouds 15 999 80 10000 0.59 187 10:59 06.09.2021
6507 Clouds 13 999 90 10000 0.1 59 09:59 06.09.2021
6508 Clouds 11 998 48 10000 0.49 351 07:34 06.09.2021
6509 Clouds 12 1022 1 10000 0.99 156 00:22 06.09.2021
6510 Clouds 13 999 46 10000 1.43 152 23:19 05.09.2021
6511 Clouds 14 999 45 10000 1.54 153 22:30 05.09.2021
6512 Clouds 15 999 44 10000 1.54 153 21:55 05.09.2021
6513 Clouds 15 1021 1 10000 1.47 154 20:55 05.09.2021
6514 Clouds 18 999 32 10000 0.45 358 19:22 05.09.2021
6515 Clouds 20 1000 43 10000 3.79 174 17:36 05.09.2021
6516 Clouds 19 1021 48 10000 4.28 165 17:36 05.09.2021
6517 Clouds 20 1001 44 10000 2.86 189 15:40 05.09.2021
6518 Clouds 20 1022 40 10000 2.57 195 14:37 05.09.2021
6519 Clouds 16 1002 33 10000 2.02 204 12:34 05.09.2021
6520 Clouds 14 1002 36 10000 0.94 196 10:59 05.09.2021
6521 Clouds 13 1002 38 10000 0.36 178 10:34 05.09.2021
6522 Clouds 11 1001 39 10000 0.24 32 09:26 05.09.2021
6523 Clouds 10 1024 1 10000 0.57 15 08:23 05.09.2021
6524 Clouds 9 1024 1 10000 0.57 123 03:20 05.09.2021
6525 Clouds 9 1024 1 10000 0.94 137 00:32 05.09.2021
6526 Clouds 9 1024 1 10000 0.96 138 23:46 04.09.2021
6527 Clouds 10 1024 1 10000 1.3 148 22:36 04.09.2021
6528 Clouds 11 1024 1 10000 1.3 160 21:59 04.09.2021
6529 Clouds 14 1022 42 10000 2.28 180 19:58 04.09.2021
6530 Clouds 14 1022 46 10000 2.28 180 19:32 04.09.2021
6531 Clouds 16 1021 51 10000 2.29 204 16:47 04.09.2021
6532 Clouds 15 1022 50 10000 2.01 199 13:49 04.09.2021
6533 Clouds 13 1023 51 10000 1.11 83 11:21 04.09.2021
6534 Clouds 11 1023 35 10000 0.97 57 09:39 04.09.2021
6535 Clouds 10 1000 43 10000 1.27 46 07:28 04.09.2021
6536 Clouds 12 998 41 10000 2.63 37 00:30 04.09.2021
6537 Clouds 12 998 24 10000 2.87 50 23:32 03.09.2021
6538 Clouds 12 998 24 10000 2.87 50 23:32 03.09.2021
6539 Clouds 13 997 25 10000 2.89 50 22:45 03.09.2021
6540 Clouds 13 997 28 10000 2.09 40 21:36 03.09.2021
6541 Clouds 14 996 32 10000 2.31 69 20:52 03.09.2021
6542 Clouds 15 996 32 10000 2.18 47 19:57 03.09.2021
6543 Clouds 16 996 41 10000 3.11 45 19:29 03.09.2021
6544 Clouds 17 996 51 10000 3.31 44 17:57 03.09.2021
6545 Clouds 19 996 41 10000 3.41 50 16:44 03.09.2021
6546 Clouds 19 996 39 10000 3.19 55 15:34 03.09.2021
6547 Clouds 18 1019 49 10000 3.22 36 12:59 03.09.2021
6548 Clouds 16 1019 50 10000 4.29 34 10:43 03.09.2021
6549 Clouds 15 1019 46 10000 4.63 42 09:19 03.09.2021
6550 Clouds 13 995 32 10000 1.35 300 07:51 03.09.2021
6551 Clouds 11 1017 1 10000 1.5 326 06:21 03.09.2021
6552 Clouds 16 1016 46 10000 2.07 351 23:25 02.09.2021
6553 Clouds 17 1015 50 10000 1.82 338 21:42 02.09.2021
6554 Clouds 19 1015 48 10000 1.17 301 20:24 02.09.2021
6555 Clouds 24 1016 45 10000 2.5 175 17:33 02.09.2021
6556 Clear 25 997 36 10000 1.7 211 16:20 02.09.2021
6557 Clear 24 1019 41 10000 2.27 232 14:36 02.09.2021
6558 Clouds 22 1000 38 10000 3.17 222 12:58 02.09.2021
6559 Clouds 20 1022 48 10000 3.21 218 11:40 02.09.2021
6560 Clouds 19 1023 47 10000 3.49 212 10:52 02.09.2021
6561 Clouds 15 1002 34 10000 1.86 201 08:49 02.09.2021
6562 Clouds 10 1025 1 10000 0.89 217 07:20 02.09.2021
6563 Clouds 10 1025 1 10000 0.89 217 07:20 02.09.2021
6564 Clouds 11 1025 1 10000 0.64 261 05:31 02.09.2021
6565 Clouds 13 1025 17 10000 0.78 328 02:35 02.09.2021
6566 Clouds 14 1025 30 10000 0.5 311 01:36 02.09.2021
6567 Clouds 15 1025 69 10000 0.6 339 23:40 01.09.2021
6568 Clouds 15 1024 62 10000 0.25 25 22:42 01.09.2021
6569 Clouds 17 1024 61 10000 0.53 73 21:41 01.09.2021
6570 Clouds 19 1024 60 10000 0.8 99 20:54 01.09.2021
6571 Clouds 21 1022 52 10000 0.55 102 19:23 01.09.2021
6572 Clouds 23 1022 48 10000 0.47 133 17:50 01.09.2021
6573 Clouds 24 1022 37 10000 0.17 294 16:48 01.09.2021
6574 Clouds 24 1022 37 10000 1 305 16:21 01.09.2021
6575 Clouds 22 1023 48 10000 1.47 245 13:40 01.09.2021
6576 Clouds 20 1024 23 10000 2 237 11:46 01.09.2021
6577 Clouds 14 1025 59 10000 0.75 235 09:25 01.09.2021
6578 Clouds 13 1002 33 10000 0.19 294 07:57 01.09.2021
6579 Clouds 11 1025 1 10000 0.66 19 05:40 01.09.2021
6580 Clouds 16 1025 26 10000 1.99 29 23:19 31.08.2021
6581 Clouds 17 1024 36 10000 1.57 11 21:41 31.08.2021
6582 Clouds 21 1022 48 10000 1.19 82 19:49 31.08.2021
6583 Clouds 23 1022 47 10000 2.01 80 18:44 31.08.2021
6584 Clouds 25 1022 38 10000 2.67 71 17:39 31.08.2021
6585 Clouds 25 1022 38 10000 2.42 72 17:20 31.08.2021
6586 Clouds 24 1022 38 10000 2.21 62 16:24 31.08.2021
6587 Clouds 22 1023 40 10000 2.26 53 13:47 31.08.2021
6588 Clouds 20 1024 45 10000 2.24 44 11:36 31.08.2021
6589 Clouds 18 1024 49 10000 2 39 10:56 31.08.2021
6590 Clouds 16 1024 46 10000 1.69 30 09:45 31.08.2021
6591 Clouds 15 1001 40 10000 1.57 38 08:41 31.08.2021
6592 Clouds 14 1001 32 10000 1.51 32 07:38 31.08.2021
6593 Clouds 12 1024 1 10000 1.53 29 05:55 31.08.2021
6594 Clouds 14 1023 1 10000 1.28 4 23:35 30.08.2021
6595 Clouds 14 1023 1 10000 1.28 4 23:35 30.08.2021
6596 Clouds 16 1023 22 10000 1.18 3 21:53 30.08.2021
6597 Clouds 17 1022 23 10000 0.81 29 21:35 30.08.2021
6598 Clouds 20 1022 37 10000 0.91 77 20:32 30.08.2021
6599 Clouds 23 1021 45 10000 1.45 106 19:30 30.08.2021
6600 Clouds 23 1021 46 10000 1.45 106 18:44 30.08.2021
6601 Clouds 25 1021 46 10000 1.47 80 17:47 30.08.2021
6602 Clouds 26 1022 38 10000 1.57 58 16:24 30.08.2021
6603 Clouds 25 1022 41 10000 1.57 58 15:39 30.08.2021
6604 Clouds 24 1023 42 10000 1.64 44 13:46 30.08.2021
6605 Clouds 23 1023 45 10000 1.44 45 12:40 30.08.2021
6606 Clouds 19 1024 45 10000 1.29 36 10:41 30.08.2021
6607 Clear 13 1024 1 10000 1.58 17 02:37 30.08.2021
6608 Clouds 18 1022 24 10000 1.83 5 21:33 29.08.2021
6609 Clouds 21 1021 46 10000 1.02 14 20:34 29.08.2021
6610 Clouds 23 1021 46 10000 1.55 45 19:20 29.08.2021
6611 Clouds 26 1021 37 10000 2.72 46 17:58 29.08.2021
6612 Clouds 25 1021 42 10000 2.76 51 15:49 29.08.2021
6613 Clouds 24 1022 44 10000 2.46 45 14:21 29.08.2021
6614 Clouds 23 1022 45 10000 2.45 45 13:44 29.08.2021
6615 Clouds 23 1022 45 10000 2.46 45 13:44 29.08.2021
6616 Clouds 22 1022 47 10000 2.33 49 12:41 29.08.2021
6617 Clouds 21 1022 48 10000 2.22 42 11:51 29.08.2021
6618 Clouds 20 1023 44 10000 2.08 25 11:27 29.08.2021
6619 Clouds 19 1023 26 10000 2.08 25 10:46 29.08.2021
6620 Clouds 18 1023 1 10000 1.77 15 10:26 29.08.2021
6621 Clouds 16 1001 34 10000 1.57 7 08:58 29.08.2021
6622 Clouds 15 1024 1 10000 1.98 4 00:37 29.08.2021
6623 Clouds 17 1024 1 10000 1.45 19 21:54 28.08.2021
6624 Clouds 19 1023 38 10000 1.44 36 20:29 28.08.2021
6625 Clouds 21 1000 46 10000 1.8 52 18:43 28.08.2021
6626 Clouds 21 1000 45 10000 2.63 48 18:20 28.08.2021
6627 Clouds 22 1023 49 10000 3.55 46 17:20 28.08.2021
6628 Clouds 23 1023 46 10000 3.72 39 15:46 28.08.2021
6629 Clouds 22 1024 48 10000 3.97 35 14:26 28.08.2021
6630 Clouds 21 1024 48 10000 3.97 35 13:45 28.08.2021
6631 Clouds 20 1024 47 10000 3.9 35 12:44 28.08.2021
6632 Clouds 19 1025 38 10000 3.69 30 11:55 28.08.2021
6633 Clouds 17 1025 28 10000 3.67 27 10:42 28.08.2021
6634 Clouds 15 1026 1 10000 3.15 25 08:41 28.08.2021
6635 Clouds 14 1026 1 10000 2.63 7 07:25 28.08.2021
6636 Clouds 15 1003 33 10000 2.86 19 22:42 27.08.2021
6637 Clouds 16 1004 33 10000 3.28 34 21:19 27.08.2021
6638 Clouds 16 1003 32 10000 3.55 38 20:30 27.08.2021
6639 Clouds 16 1026 15 10000 3.83 53 18:58 27.08.2021
6640 Clouds 16 1026 10 10000 3.83 52 18:37 27.08.2021
6641 Clouds 16 1025 17 10000 3.87 48 17:18 27.08.2021
6642 Clouds 16 1026 21 10000 3.62 58 15:55 27.08.2021
6643 Clouds 17 1026 28 10000 3.66 54 14:43 27.08.2021
6644 Clouds 17 1026 41 10000 4.8 33 12:33 27.08.2021
6645 Clouds 17 1026 38 10000 4.79 24 11:25 27.08.2021
6646 Clouds 16 1026 66 10000 4.79 24 10:43 27.08.2021
6647 Clouds 16 1026 8 10000 5.58 33 09:37 27.08.2021
6648 Clouds 15 1001 35 10000 5.58 33 08:44 27.08.2021
6649 Clouds 14 1001 36 10000 5.33 27 06:47 27.08.2021
6650 Clouds 14 1000 36 10000 5.58 21 04:56 27.08.2021
6651 Clouds 14 999 34 10000 6.1 17 00:35 27.08.2021
6652 Clouds 14 999 33 10000 6.5 20 22:43 26.08.2021
6653 Clouds 14 999 33 10000 6.66 22 22:18 26.08.2021
6654 Clouds 15 998 40 10000 6.78 19 20:35 26.08.2021
6655 Clouds 15 1021 35 10000 6.89 19 18:51 26.08.2021
6656 Clouds 16 1020 44 10000 7.01 18 17:45 26.08.2021
6657 Clouds 16 1019 48 10000 6.96 19 16:33 26.08.2021
6658 Clouds 17 1019 61 10000 6.96 19 15:55 26.08.2021
6659 Clouds 17 995 50 10000 7.19 15 13:48 26.08.2021
6660 Clouds 17 995 50 10000 0.45 270 12:52 26.08.2021
6661 Clouds 16 1019 60 10000 7.08 12 12:24 26.08.2021
6662 Clouds 14 1018 62 10000 7.12 11 10:18 26.08.2021
6663 Clouds 14 994 49 10000 7.25 10 08:34 26.08.2021
6664 Clouds 13 991 45 10000 7.16 9 03:27 26.08.2021
6665 Clouds 15 990 47 10000 7.12 1 22:49 25.08.2021
6666